<?xml version="1.0" encoding="UTF-8"?>
<gpx version="1.0" creator="Gaggle https://github.com/geeksville/Gaggle" xmlns:xsi="http://www.w3.org/2001/XMLSchema-instance" xmlns="http://www.topografix.com/GPX/1/0" xsi:schemaLocation="http://www.topografix.com/GPX/1/0 http://www.topografix.com/GPX/1/0/gpx.xsd">
<trk>
	<name>Pacopente's flight</name>
	<desc>
	Pilot name:	Pacopente
	Pilot ID:	Pacopente
	Glider type:	
	</desc>
	<trkseg>
		<trkpt lat="37.863064" lon="-1.426165">
			<ele>528.000000</ele>
		<time>2013-08-31T01:43:12Z</time>
		</trkpt>

		<trkpt lat="37.862552" lon="-1.426016">
			<ele>527.000000</ele>
		<time>2013-08-31T01:46:46Z</time>
		</trkpt>

		<trkpt lat="37.862380" lon="-1.425857">
			<ele>526.000000</ele>
		<time>2013-08-31T01:46:49Z</time>
		</trkpt>

		<trkpt lat="37.862252" lon="-1.425722">
			<ele>527.000000</ele>
		<time>2013-08-31T01:46:52Z</time>
		</trkpt>

		<trkpt lat="37.862167" lon="-1.425537">
			<ele>526.000000</ele>
		<time>2013-08-31T01:46:55Z</time>
		</trkpt>

		<trkpt lat="37.862069" lon="-1.425315">
			<ele>527.000000</ele>
		<time>2013-08-31T01:46:58Z</time>
		</trkpt>

		<trkpt lat="37.861943" lon="-1.425095">
			<ele>528.000000</ele>
		<time>2013-08-31T01:47:01Z</time>
		</trkpt>

		<trkpt lat="37.861865" lon="-1.424867">
			<ele>531.000000</ele>
		<time>2013-08-31T01:47:04Z</time>
		</trkpt>

		<trkpt lat="37.861790" lon="-1.424632">
			<ele>536.000000</ele>
		<time>2013-08-31T01:47:07Z</time>
		</trkpt>

		<trkpt lat="37.861639" lon="-1.424574">
			<ele>534.000000</ele>
		<time>2013-08-31T01:47:10Z</time>
		</trkpt>

		<trkpt lat="37.861670" lon="-1.424933">
			<ele>534.000000</ele>
		<time>2013-08-31T01:47:13Z</time>
		</trkpt>

		<trkpt lat="37.861980" lon="-1.424857">
			<ele>532.000000</ele>
		<time>2013-08-31T01:47:16Z</time>
		</trkpt>

		<trkpt lat="37.862179" lon="-1.424486">
			<ele>534.000000</ele>
		<time>2013-08-31T01:47:19Z</time>
		</trkpt>

		<trkpt lat="37.862177" lon="-1.424237">
			<ele>537.000000</ele>
		<time>2013-08-31T01:47:22Z</time>
		</trkpt>

		<trkpt lat="37.862050" lon="-1.424100">
			<ele>538.000000</ele>
		<time>2013-08-31T01:47:25Z</time>
		</trkpt>

		<trkpt lat="37.861919" lon="-1.424251">
			<ele>539.000000</ele>
		<time>2013-08-31T01:47:28Z</time>
		</trkpt>

		<trkpt lat="37.861963" lon="-1.424564">
			<ele>540.000000</ele>
		<time>2013-08-31T01:47:31Z</time>
		</trkpt>

		<trkpt lat="37.862056" lon="-1.424870">
			<ele>541.000000</ele>
		<time>2013-08-31T01:47:34Z</time>
		</trkpt>

		<trkpt lat="37.861998" lon="-1.425088">
			<ele>540.000000</ele>
		<time>2013-08-31T01:47:37Z</time>
		</trkpt>

		<trkpt lat="37.861831" lon="-1.424886">
			<ele>538.000000</ele>
		<time>2013-08-31T01:47:40Z</time>
		</trkpt>

		<trkpt lat="37.861790" lon="-1.424476">
			<ele>537.000000</ele>
		<time>2013-08-31T01:47:43Z</time>
		</trkpt>

		<trkpt lat="37.861818" lon="-1.424105">
			<ele>537.000000</ele>
		<time>2013-08-31T01:47:46Z</time>
		</trkpt>

		<trkpt lat="37.861721" lon="-1.423803">
			<ele>534.000000</ele>
		<time>2013-08-31T01:47:49Z</time>
		</trkpt>

		<trkpt lat="37.861582" lon="-1.423775">
			<ele>538.000000</ele>
		<time>2013-08-31T01:47:52Z</time>
		</trkpt>

		<trkpt lat="37.861475" lon="-1.423929">
			<ele>539.000000</ele>
		<time>2013-08-31T01:47:55Z</time>
		</trkpt>

		<trkpt lat="37.861400" lon="-1.424304">
			<ele>539.000000</ele>
		<time>2013-08-31T01:47:58Z</time>
		</trkpt>

		<trkpt lat="37.861672" lon="-1.424653">
			<ele>538.000000</ele>
		<time>2013-08-31T01:48:01Z</time>
		</trkpt>

		<trkpt lat="37.862042" lon="-1.424430">
			<ele>537.000000</ele>
		<time>2013-08-31T01:48:04Z</time>
		</trkpt>

		<trkpt lat="37.862007" lon="-1.424067">
			<ele>541.000000</ele>
		<time>2013-08-31T01:48:07Z</time>
		</trkpt>

		<trkpt lat="37.861913" lon="-1.423892">
			<ele>544.000000</ele>
		<time>2013-08-31T01:48:10Z</time>
		</trkpt>

		<trkpt lat="37.861758" lon="-1.424029">
			<ele>541.000000</ele>
		<time>2013-08-31T01:48:13Z</time>
		</trkpt>

		<trkpt lat="37.861819" lon="-1.424459">
			<ele>541.000000</ele>
		<time>2013-08-31T01:48:16Z</time>
		</trkpt>

		<trkpt lat="37.862164" lon="-1.424571">
			<ele>540.000000</ele>
		<time>2013-08-31T01:48:19Z</time>
		</trkpt>

		<trkpt lat="37.862273" lon="-1.424159">
			<ele>540.000000</ele>
		<time>2013-08-31T01:48:22Z</time>
		</trkpt>

		<trkpt lat="37.862124" lon="-1.424012">
			<ele>543.000000</ele>
		<time>2013-08-31T01:48:25Z</time>
		</trkpt>

		<trkpt lat="37.862040" lon="-1.423961">
			<ele>545.000000</ele>
		<time>2013-08-31T01:48:28Z</time>
		</trkpt>

		<trkpt lat="37.861899" lon="-1.423841">
			<ele>545.000000</ele>
		<time>2013-08-31T01:48:31Z</time>
		</trkpt>

		<trkpt lat="37.861780" lon="-1.423749">
			<ele>546.000000</ele>
		<time>2013-08-31T01:48:34Z</time>
		</trkpt>

		<trkpt lat="37.861643" lon="-1.423825">
			<ele>544.000000</ele>
		<time>2013-08-31T01:48:37Z</time>
		</trkpt>

		<trkpt lat="37.861606" lon="-1.424119">
			<ele>546.000000</ele>
		<time>2013-08-31T01:48:40Z</time>
		</trkpt>

		<trkpt lat="37.861710" lon="-1.424501">
			<ele>547.000000</ele>
		<time>2013-08-31T01:48:43Z</time>
		</trkpt>

		<trkpt lat="37.861944" lon="-1.424822">
			<ele>548.000000</ele>
		<time>2013-08-31T01:48:46Z</time>
		</trkpt>

		<trkpt lat="37.862055" lon="-1.425137">
			<ele>550.000000</ele>
		<time>2013-08-31T01:48:49Z</time>
		</trkpt>

		<trkpt lat="37.861992" lon="-1.425401">
			<ele>552.000000</ele>
		<time>2013-08-31T01:48:52Z</time>
		</trkpt>

		<trkpt lat="37.861860" lon="-1.425393">
			<ele>554.000000</ele>
		<time>2013-08-31T01:48:55Z</time>
		</trkpt>

		<trkpt lat="37.861802" lon="-1.425189">
			<ele>555.000000</ele>
		<time>2013-08-31T01:48:58Z</time>
		</trkpt>

		<trkpt lat="37.862098" lon="-1.424988">
			<ele>555.000000</ele>
		<time>2013-08-31T01:49:01Z</time>
		</trkpt>

		<trkpt lat="37.862396" lon="-1.425207">
			<ele>555.000000</ele>
		<time>2013-08-31T01:49:04Z</time>
		</trkpt>

		<trkpt lat="37.862402" lon="-1.425510">
			<ele>557.000000</ele>
		<time>2013-08-31T01:49:07Z</time>
		</trkpt>

		<trkpt lat="37.862290" lon="-1.425571">
			<ele>559.000000</ele>
		<time>2013-08-31T01:49:10Z</time>
		</trkpt>

		<trkpt lat="37.862216" lon="-1.425453">
			<ele>560.000000</ele>
		<time>2013-08-31T01:49:13Z</time>
		</trkpt>

		<trkpt lat="37.862198" lon="-1.425188">
			<ele>561.000000</ele>
		<time>2013-08-31T01:49:16Z</time>
		</trkpt>

		<trkpt lat="37.862327" lon="-1.424877">
			<ele>564.000000</ele>
		<time>2013-08-31T01:49:19Z</time>
		</trkpt>

		<trkpt lat="37.862475" lon="-1.424563">
			<ele>565.000000</ele>
		<time>2013-08-31T01:49:22Z</time>
		</trkpt>

		<trkpt lat="37.862358" lon="-1.424370">
			<ele>565.000000</ele>
		<time>2013-08-31T01:49:25Z</time>
		</trkpt>

		<trkpt lat="37.862231" lon="-1.424430">
			<ele>566.000000</ele>
		<time>2013-08-31T01:49:28Z</time>
		</trkpt>

		<trkpt lat="37.862186" lon="-1.424545">
			<ele>571.000000</ele>
		<time>2013-08-31T01:49:31Z</time>
		</trkpt>

		<trkpt lat="37.862089" lon="-1.424800">
			<ele>569.000000</ele>
		<time>2013-08-31T01:49:34Z</time>
		</trkpt>

		<trkpt lat="37.862116" lon="-1.425241">
			<ele>568.000000</ele>
		<time>2013-08-31T01:49:37Z</time>
		</trkpt>

		<trkpt lat="37.862179" lon="-1.425538">
			<ele>566.000000</ele>
		<time>2013-08-31T01:49:40Z</time>
		</trkpt>

		<trkpt lat="37.862146" lon="-1.425829">
			<ele>558.000000</ele>
		<time>2013-08-31T01:49:43Z</time>
		</trkpt>

		<trkpt lat="37.861924" lon="-1.426008">
			<ele>559.000000</ele>
		<time>2013-08-31T01:49:46Z</time>
		</trkpt>

		<trkpt lat="37.861796" lon="-1.426208">
			<ele>563.000000</ele>
		<time>2013-08-31T01:49:49Z</time>
		</trkpt>

		<trkpt lat="37.861700" lon="-1.426147">
			<ele>563.000000</ele>
		<time>2013-08-31T01:49:53Z</time>
		</trkpt>

		<trkpt lat="37.861916" lon="-1.425855">
			<ele>564.000000</ele>
		<time>2013-08-31T01:49:56Z</time>
		</trkpt>

		<trkpt lat="37.862279" lon="-1.425662">
			<ele>564.000000</ele>
		<time>2013-08-31T01:49:59Z</time>
		</trkpt>

		<trkpt lat="37.862488" lon="-1.426038">
			<ele>564.000000</ele>
		<time>2013-08-31T01:50:02Z</time>
		</trkpt>

		<trkpt lat="37.862384" lon="-1.426351">
			<ele>567.000000</ele>
		<time>2013-08-31T01:50:05Z</time>
		</trkpt>

		<trkpt lat="37.862239" lon="-1.426334">
			<ele>569.000000</ele>
		<time>2013-08-31T01:50:08Z</time>
		</trkpt>

		<trkpt lat="37.862279" lon="-1.426017">
			<ele>571.000000</ele>
		<time>2013-08-31T01:50:11Z</time>
		</trkpt>

		<trkpt lat="37.862631" lon="-1.426092">
			<ele>573.000000</ele>
		<time>2013-08-31T01:50:14Z</time>
		</trkpt>

		<trkpt lat="37.862951" lon="-1.426404">
			<ele>577.000000</ele>
		<time>2013-08-31T01:50:17Z</time>
		</trkpt>

		<trkpt lat="37.862775" lon="-1.426414">
			<ele>583.000000</ele>
		<time>2013-08-31T01:50:20Z</time>
		</trkpt>

		<trkpt lat="37.862764" lon="-1.426287">
			<ele>588.000000</ele>
		<time>2013-08-31T01:50:23Z</time>
		</trkpt>

		<trkpt lat="37.863078" lon="-1.426179">
			<ele>589.000000</ele>
		<time>2013-08-31T01:50:26Z</time>
		</trkpt>

		<trkpt lat="37.863403" lon="-1.426472">
			<ele>592.000000</ele>
		<time>2013-08-31T01:50:29Z</time>
		</trkpt>

		<trkpt lat="37.863366" lon="-1.426744">
			<ele>598.000000</ele>
		<time>2013-08-31T01:50:32Z</time>
		</trkpt>

		<trkpt lat="37.863081" lon="-1.426821">
			<ele>602.000000</ele>
		<time>2013-08-31T01:50:35Z</time>
		</trkpt>

		<trkpt lat="37.862841" lon="-1.426786">
			<ele>605.000000</ele>
		<time>2013-08-31T01:50:38Z</time>
		</trkpt>

		<trkpt lat="37.862734" lon="-1.426735">
			<ele>610.000000</ele>
		<time>2013-08-31T01:50:41Z</time>
		</trkpt>

		<trkpt lat="37.862623" lon="-1.426558">
			<ele>613.000000</ele>
		<time>2013-08-31T01:50:44Z</time>
		</trkpt>

		<trkpt lat="37.862673" lon="-1.426235">
			<ele>616.000000</ele>
		<time>2013-08-31T01:50:47Z</time>
		</trkpt>

		<trkpt lat="37.863058" lon="-1.426342">
			<ele>617.000000</ele>
		<time>2013-08-31T01:50:50Z</time>
		</trkpt>

		<trkpt lat="37.863252" lon="-1.426762">
			<ele>619.000000</ele>
		<time>2013-08-31T01:50:53Z</time>
		</trkpt>

		<trkpt lat="37.863220" lon="-1.427023">
			<ele>622.000000</ele>
		<time>2013-08-31T01:50:56Z</time>
		</trkpt>

		<trkpt lat="37.863121" lon="-1.426937">
			<ele>629.000000</ele>
		<time>2013-08-31T01:50:59Z</time>
		</trkpt>

		<trkpt lat="37.862977" lon="-1.426880">
			<ele>632.000000</ele>
		<time>2013-08-31T01:51:02Z</time>
		</trkpt>

		<trkpt lat="37.862904" lon="-1.426649">
			<ele>631.000000</ele>
		<time>2013-08-31T01:51:05Z</time>
		</trkpt>

		<trkpt lat="37.863274" lon="-1.426449">
			<ele>625.000000</ele>
		<time>2013-08-31T01:51:08Z</time>
		</trkpt>

		<trkpt lat="37.863601" lon="-1.426527">
			<ele>620.000000</ele>
		<time>2013-08-31T01:51:11Z</time>
		</trkpt>

		<trkpt lat="37.863697" lon="-1.427074">
			<ele>618.000000</ele>
		<time>2013-08-31T01:51:14Z</time>
		</trkpt>

		<trkpt lat="37.863593" lon="-1.427376">
			<ele>620.000000</ele>
		<time>2013-08-31T01:51:17Z</time>
		</trkpt>

		<trkpt lat="37.863453" lon="-1.427424">
			<ele>625.000000</ele>
		<time>2013-08-31T01:51:20Z</time>
		</trkpt>

		<trkpt lat="37.863365" lon="-1.427486">
			<ele>628.000000</ele>
		<time>2013-08-31T01:51:23Z</time>
		</trkpt>

		<trkpt lat="37.863223" lon="-1.427450">
			<ele>626.000000</ele>
		<time>2013-08-31T01:51:26Z</time>
		</trkpt>

		<trkpt lat="37.863053" lon="-1.427526">
			<ele>622.000000</ele>
		<time>2013-08-31T01:51:29Z</time>
		</trkpt>

		<trkpt lat="37.862832" lon="-1.427662">
			<ele>615.000000</ele>
		<time>2013-08-31T01:51:32Z</time>
		</trkpt>

		<trkpt lat="37.862613" lon="-1.427680">
			<ele>611.000000</ele>
		<time>2013-08-31T01:51:35Z</time>
		</trkpt>

		<trkpt lat="37.862462" lon="-1.427567">
			<ele>608.000000</ele>
		<time>2013-08-31T01:51:38Z</time>
		</trkpt>

		<trkpt lat="37.862350" lon="-1.427299">
			<ele>601.000000</ele>
		<time>2013-08-31T01:51:41Z</time>
		</trkpt>

		<trkpt lat="37.862359" lon="-1.427018">
			<ele>595.000000</ele>
		<time>2013-08-31T01:51:44Z</time>
		</trkpt>

		<trkpt lat="37.862315" lon="-1.426716">
			<ele>587.000000</ele>
		<time>2013-08-31T01:51:47Z</time>
		</trkpt>

		<trkpt lat="37.862156" lon="-1.426607">
			<ele>582.000000</ele>
		<time>2013-08-31T01:51:50Z</time>
		</trkpt>

		<trkpt lat="37.861938" lon="-1.426761">
			<ele>576.000000</ele>
		<time>2013-08-31T01:51:53Z</time>
		</trkpt>

		<trkpt lat="37.861769" lon="-1.426986">
			<ele>568.000000</ele>
		<time>2013-08-31T01:51:56Z</time>
		</trkpt>

		<trkpt lat="37.861701" lon="-1.427379">
			<ele>562.000000</ele>
		<time>2013-08-31T01:51:59Z</time>
		</trkpt>

		<trkpt lat="37.861699" lon="-1.427842">
			<ele>554.000000</ele>
		<time>2013-08-31T01:52:02Z</time>
		</trkpt>

		<trkpt lat="37.861750" lon="-1.428289">
			<ele>551.000000</ele>
		<time>2013-08-31T01:52:05Z</time>
		</trkpt>

		<trkpt lat="37.861802" lon="-1.428724">
			<ele>547.000000</ele>
		<time>2013-08-31T01:52:08Z</time>
		</trkpt>

		<trkpt lat="37.861847" lon="-1.429121">
			<ele>542.000000</ele>
		<time>2013-08-31T01:52:11Z</time>
		</trkpt>

		<trkpt lat="37.861916" lon="-1.429546">
			<ele>537.000000</ele>
		<time>2013-08-31T01:52:14Z</time>
		</trkpt>

		<trkpt lat="37.861988" lon="-1.429982">
			<ele>533.000000</ele>
		<time>2013-08-31T01:52:17Z</time>
		</trkpt>

		<trkpt lat="37.862065" lon="-1.430439">
			<ele>527.000000</ele>
		<time>2013-08-31T01:52:20Z</time>
		</trkpt>

		<trkpt lat="37.862202" lon="-1.430787">
			<ele>524.000000</ele>
		<time>2013-08-31T01:52:23Z</time>
		</trkpt>

		<trkpt lat="37.862364" lon="-1.431167">
			<ele>519.000000</ele>
		<time>2013-08-31T01:52:26Z</time>
		</trkpt>

		<trkpt lat="37.862530" lon="-1.431538">
			<ele>515.000000</ele>
		<time>2013-08-31T01:52:29Z</time>
		</trkpt>

		<trkpt lat="37.862636" lon="-1.431890">
			<ele>516.000000</ele>
		<time>2013-08-31T01:52:32Z</time>
		</trkpt>

		<trkpt lat="37.862713" lon="-1.432206">
			<ele>517.000000</ele>
		<time>2013-08-31T01:52:35Z</time>
		</trkpt>

		<trkpt lat="37.862749" lon="-1.432598">
			<ele>517.000000</ele>
		<time>2013-08-31T01:52:38Z</time>
		</trkpt>

		<trkpt lat="37.862770" lon="-1.432962">
			<ele>520.000000</ele>
		<time>2013-08-31T01:52:41Z</time>
		</trkpt>

		<trkpt lat="37.862778" lon="-1.433313">
			<ele>522.000000</ele>
		<time>2013-08-31T01:52:44Z</time>
		</trkpt>

		<trkpt lat="37.862689" lon="-1.433594">
			<ele>524.000000</ele>
		<time>2013-08-31T01:52:47Z</time>
		</trkpt>

		<trkpt lat="37.862522" lon="-1.433658">
			<ele>525.000000</ele>
		<time>2013-08-31T01:52:50Z</time>
		</trkpt>

		<trkpt lat="37.862316" lon="-1.433557">
			<ele>525.000000</ele>
		<time>2013-08-31T01:52:53Z</time>
		</trkpt>

		<trkpt lat="37.862227" lon="-1.433352">
			<ele>527.000000</ele>
		<time>2013-08-31T01:52:56Z</time>
		</trkpt>

		<trkpt lat="37.862391" lon="-1.433172">
			<ele>530.000000</ele>
		<time>2013-08-31T01:52:59Z</time>
		</trkpt>

		<trkpt lat="37.862638" lon="-1.432968">
			<ele>533.000000</ele>
		<time>2013-08-31T01:53:02Z</time>
		</trkpt>

		<trkpt lat="37.862817" lon="-1.432755">
			<ele>536.000000</ele>
		<time>2013-08-31T01:53:05Z</time>
		</trkpt>

		<trkpt lat="37.862933" lon="-1.432521">
			<ele>535.000000</ele>
		<time>2013-08-31T01:53:08Z</time>
		</trkpt>

		<trkpt lat="37.862839" lon="-1.432329">
			<ele>534.000000</ele>
		<time>2013-08-31T01:53:11Z</time>
		</trkpt>

		<trkpt lat="37.862596" lon="-1.432463">
			<ele>533.000000</ele>
		<time>2013-08-31T01:53:14Z</time>
		</trkpt>

		<trkpt lat="37.862422" lon="-1.432721">
			<ele>532.000000</ele>
		<time>2013-08-31T01:53:17Z</time>
		</trkpt>

		<trkpt lat="37.862260" lon="-1.432984">
			<ele>531.000000</ele>
		<time>2013-08-31T01:53:20Z</time>
		</trkpt>

		<trkpt lat="37.862095" lon="-1.433305">
			<ele>525.000000</ele>
		<time>2013-08-31T01:53:23Z</time>
		</trkpt>

		<trkpt lat="37.861976" lon="-1.433695">
			<ele>520.000000</ele>
		<time>2013-08-31T01:53:26Z</time>
		</trkpt>

		<trkpt lat="37.861877" lon="-1.434111">
			<ele>516.000000</ele>
		<time>2013-08-31T01:53:29Z</time>
		</trkpt>

		<trkpt lat="37.861783" lon="-1.434539">
			<ele>512.000000</ele>
		<time>2013-08-31T01:53:32Z</time>
		</trkpt>

		<trkpt lat="37.861708" lon="-1.434978">
			<ele>510.000000</ele>
		<time>2013-08-31T01:53:35Z</time>
		</trkpt>

		<trkpt lat="37.861638" lon="-1.435409">
			<ele>507.000000</ele>
		<time>2013-08-31T01:53:38Z</time>
		</trkpt>

		<trkpt lat="37.861563" lon="-1.435820">
			<ele>505.000000</ele>
		<time>2013-08-31T01:53:41Z</time>
		</trkpt>

		<trkpt lat="37.861488" lon="-1.436227">
			<ele>504.000000</ele>
		<time>2013-08-31T01:53:44Z</time>
		</trkpt>

		<trkpt lat="37.861391" lon="-1.436645">
			<ele>502.000000</ele>
		<time>2013-08-31T01:53:47Z</time>
		</trkpt>

		<trkpt lat="37.861317" lon="-1.437025">
			<ele>502.000000</ele>
		<time>2013-08-31T01:53:50Z</time>
		</trkpt>

		<trkpt lat="37.861238" lon="-1.437405">
			<ele>501.000000</ele>
		<time>2013-08-31T01:53:53Z</time>
		</trkpt>

		<trkpt lat="37.861092" lon="-1.437751">
			<ele>504.000000</ele>
		<time>2013-08-31T01:53:56Z</time>
		</trkpt>

		<trkpt lat="37.860944" lon="-1.438023">
			<ele>508.000000</ele>
		<time>2013-08-31T01:53:59Z</time>
		</trkpt>

		<trkpt lat="37.860738" lon="-1.438194">
			<ele>510.000000</ele>
		<time>2013-08-31T01:54:02Z</time>
		</trkpt>

		<trkpt lat="37.860573" lon="-1.438173">
			<ele>511.000000</ele>
		<time>2013-08-31T01:54:05Z</time>
		</trkpt>

		<trkpt lat="37.860366" lon="-1.438039">
			<ele>512.000000</ele>
		<time>2013-08-31T01:54:08Z</time>
		</trkpt>

		<trkpt lat="37.860176" lon="-1.437936">
			<ele>514.000000</ele>
		<time>2013-08-31T01:54:11Z</time>
		</trkpt>

		<trkpt lat="37.860000" lon="-1.437872">
			<ele>514.000000</ele>
		<time>2013-08-31T01:54:14Z</time>
		</trkpt>

		<trkpt lat="37.859815" lon="-1.437775">
			<ele>515.000000</ele>
		<time>2013-08-31T01:54:17Z</time>
		</trkpt>

		<trkpt lat="37.859663" lon="-1.437661">
			<ele>517.000000</ele>
		<time>2013-08-31T01:54:20Z</time>
		</trkpt>

		<trkpt lat="37.859517" lon="-1.437726">
			<ele>516.000000</ele>
		<time>2013-08-31T01:54:23Z</time>
		</trkpt>

		<trkpt lat="37.859329" lon="-1.437844">
			<ele>515.000000</ele>
		<time>2013-08-31T01:54:26Z</time>
		</trkpt>

		<trkpt lat="37.859152" lon="-1.437850">
			<ele>518.000000</ele>
		<time>2013-08-31T01:54:29Z</time>
		</trkpt>

		<trkpt lat="37.859022" lon="-1.437785">
			<ele>523.000000</ele>
		<time>2013-08-31T01:54:32Z</time>
		</trkpt>

		<trkpt lat="37.858878" lon="-1.437580">
			<ele>528.000000</ele>
		<time>2013-08-31T01:54:35Z</time>
		</trkpt>

		<trkpt lat="37.858842" lon="-1.437431">
			<ele>534.000000</ele>
		<time>2013-08-31T01:54:38Z</time>
		</trkpt>

		<trkpt lat="37.858674" lon="-1.437440">
			<ele>534.000000</ele>
		<time>2013-08-31T01:54:41Z</time>
		</trkpt>

		<trkpt lat="37.858538" lon="-1.437804">
			<ele>533.000000</ele>
		<time>2013-08-31T01:54:44Z</time>
		</trkpt>

		<trkpt lat="37.858674" lon="-1.438277">
			<ele>535.000000</ele>
		<time>2013-08-31T01:54:47Z</time>
		</trkpt>

		<trkpt lat="37.859011" lon="-1.438581">
			<ele>536.000000</ele>
		<time>2013-08-31T01:54:50Z</time>
		</trkpt>

		<trkpt lat="37.859366" lon="-1.438529">
			<ele>538.000000</ele>
		<time>2013-08-31T01:54:53Z</time>
		</trkpt>

		<trkpt lat="37.859595" lon="-1.438312">
			<ele>540.000000</ele>
		<time>2013-08-31T01:54:56Z</time>
		</trkpt>

		<trkpt lat="37.859708" lon="-1.437945">
			<ele>543.000000</ele>
		<time>2013-08-31T01:54:59Z</time>
		</trkpt>

		<trkpt lat="37.859703" lon="-1.437626">
			<ele>551.000000</ele>
		<time>2013-08-31T01:55:02Z</time>
		</trkpt>

		<trkpt lat="37.859693" lon="-1.437406">
			<ele>556.000000</ele>
		<time>2013-08-31T01:55:05Z</time>
		</trkpt>

		<trkpt lat="37.859781" lon="-1.437149">
			<ele>557.000000</ele>
		<time>2013-08-31T01:55:08Z</time>
		</trkpt>

		<trkpt lat="37.860083" lon="-1.437025">
			<ele>559.000000</ele>
		<time>2013-08-31T01:55:11Z</time>
		</trkpt>

		<trkpt lat="37.860306" lon="-1.437337">
			<ele>561.000000</ele>
		<time>2013-08-31T01:55:14Z</time>
		</trkpt>

		<trkpt lat="37.860237" lon="-1.437648">
			<ele>565.000000</ele>
		<time>2013-08-31T01:55:17Z</time>
		</trkpt>

		<trkpt lat="37.860020" lon="-1.437914">
			<ele>569.000000</ele>
		<time>2013-08-31T01:55:20Z</time>
		</trkpt>

		<trkpt lat="37.859791" lon="-1.437955">
			<ele>573.000000</ele>
		<time>2013-08-31T01:55:23Z</time>
		</trkpt>

		<trkpt lat="37.859628" lon="-1.437787">
			<ele>572.000000</ele>
		<time>2013-08-31T01:55:26Z</time>
		</trkpt>

		<trkpt lat="37.859618" lon="-1.437491">
			<ele>574.000000</ele>
		<time>2013-08-31T01:55:29Z</time>
		</trkpt>

		<trkpt lat="37.859748" lon="-1.437287">
			<ele>576.000000</ele>
		<time>2013-08-31T01:55:32Z</time>
		</trkpt>

		<trkpt lat="37.859923" lon="-1.437125">
			<ele>579.000000</ele>
		<time>2013-08-31T01:55:35Z</time>
		</trkpt>

		<trkpt lat="37.860146" lon="-1.436963">
			<ele>581.000000</ele>
		<time>2013-08-31T01:55:38Z</time>
		</trkpt>

		<trkpt lat="37.860482" lon="-1.437020">
			<ele>583.000000</ele>
		<time>2013-08-31T01:55:41Z</time>
		</trkpt>

		<trkpt lat="37.860672" lon="-1.437381">
			<ele>585.000000</ele>
		<time>2013-08-31T01:55:44Z</time>
		</trkpt>

		<trkpt lat="37.860642" lon="-1.437684">
			<ele>588.000000</ele>
		<time>2013-08-31T01:55:47Z</time>
		</trkpt>

		<trkpt lat="37.860522" lon="-1.437920">
			<ele>593.000000</ele>
		<time>2013-08-31T01:55:50Z</time>
		</trkpt>

		<trkpt lat="37.860383" lon="-1.438108">
			<ele>596.000000</ele>
		<time>2013-08-31T01:55:53Z</time>
		</trkpt>

		<trkpt lat="37.860257" lon="-1.438295">
			<ele>594.000000</ele>
		<time>2013-08-31T01:55:56Z</time>
		</trkpt>

		<trkpt lat="37.860093" lon="-1.438388">
			<ele>594.000000</ele>
		<time>2013-08-31T01:55:59Z</time>
		</trkpt>

		<trkpt lat="37.859955" lon="-1.438276">
			<ele>593.000000</ele>
		<time>2013-08-31T01:56:02Z</time>
		</trkpt>

		<trkpt lat="37.859919" lon="-1.437953">
			<ele>589.000000</ele>
		<time>2013-08-31T01:56:05Z</time>
		</trkpt>

		<trkpt lat="37.860209" lon="-1.437746">
			<ele>588.000000</ele>
		<time>2013-08-31T01:56:08Z</time>
		</trkpt>

		<trkpt lat="37.860539" lon="-1.437816">
			<ele>587.000000</ele>
		<time>2013-08-31T01:56:11Z</time>
		</trkpt>

		<trkpt lat="37.860793" lon="-1.438183">
			<ele>586.000000</ele>
		<time>2013-08-31T01:56:14Z</time>
		</trkpt>

		<trkpt lat="37.860815" lon="-1.438608">
			<ele>589.000000</ele>
		<time>2013-08-31T01:56:17Z</time>
		</trkpt>

		<trkpt lat="37.860795" lon="-1.438954">
			<ele>589.000000</ele>
		<time>2013-08-31T01:56:20Z</time>
		</trkpt>

		<trkpt lat="37.860742" lon="-1.439344">
			<ele>589.000000</ele>
		<time>2013-08-31T01:56:23Z</time>
		</trkpt>

		<trkpt lat="37.860663" lon="-1.439727">
			<ele>589.000000</ele>
		<time>2013-08-31T01:56:26Z</time>
		</trkpt>

		<trkpt lat="37.860531" lon="-1.439930">
			<ele>592.000000</ele>
		<time>2013-08-31T01:56:29Z</time>
		</trkpt>

		<trkpt lat="37.860392" lon="-1.440079">
			<ele>594.000000</ele>
		<time>2013-08-31T01:56:32Z</time>
		</trkpt>

		<trkpt lat="37.860200" lon="-1.440085">
			<ele>593.000000</ele>
		<time>2013-08-31T01:56:35Z</time>
		</trkpt>

		<trkpt lat="37.860127" lon="-1.439827">
			<ele>597.000000</ele>
		<time>2013-08-31T01:56:38Z</time>
		</trkpt>

		<trkpt lat="37.860406" lon="-1.439557">
			<ele>600.000000</ele>
		<time>2013-08-31T01:56:41Z</time>
		</trkpt>

		<trkpt lat="37.860830" lon="-1.439682">
			<ele>600.000000</ele>
		<time>2013-08-31T01:56:44Z</time>
		</trkpt>

		<trkpt lat="37.860966" lon="-1.440132">
			<ele>598.000000</ele>
		<time>2013-08-31T01:56:47Z</time>
		</trkpt>

		<trkpt lat="37.860814" lon="-1.440343">
			<ele>600.000000</ele>
		<time>2013-08-31T01:56:50Z</time>
		</trkpt>

		<trkpt lat="37.860627" lon="-1.440336">
			<ele>604.000000</ele>
		<time>2013-08-31T01:56:53Z</time>
		</trkpt>

		<trkpt lat="37.860423" lon="-1.440273">
			<ele>608.000000</ele>
		<time>2013-08-31T01:56:56Z</time>
		</trkpt>

		<trkpt lat="37.860243" lon="-1.440355">
			<ele>611.000000</ele>
		<time>2013-08-31T01:56:59Z</time>
		</trkpt>

		<trkpt lat="37.860164" lon="-1.440684">
			<ele>612.000000</ele>
		<time>2013-08-31T01:57:02Z</time>
		</trkpt>

		<trkpt lat="37.860345" lon="-1.441033">
			<ele>614.000000</ele>
		<time>2013-08-31T01:57:05Z</time>
		</trkpt>

		<trkpt lat="37.860721" lon="-1.441137">
			<ele>613.000000</ele>
		<time>2013-08-31T01:57:08Z</time>
		</trkpt>

		<trkpt lat="37.861100" lon="-1.440917">
			<ele>612.000000</ele>
		<time>2013-08-31T01:57:11Z</time>
		</trkpt>

		<trkpt lat="37.861228" lon="-1.440593">
			<ele>614.000000</ele>
		<time>2013-08-31T01:57:14Z</time>
		</trkpt>

		<trkpt lat="37.861252" lon="-1.440271">
			<ele>617.000000</ele>
		<time>2013-08-31T01:57:17Z</time>
		</trkpt>

		<trkpt lat="37.861261" lon="-1.439979">
			<ele>624.000000</ele>
		<time>2013-08-31T01:57:20Z</time>
		</trkpt>

		<trkpt lat="37.861188" lon="-1.439718">
			<ele>629.000000</ele>
		<time>2013-08-31T01:57:23Z</time>
		</trkpt>

		<trkpt lat="37.861102" lon="-1.439561">
			<ele>637.000000</ele>
		<time>2013-08-31T01:57:26Z</time>
		</trkpt>

		<trkpt lat="37.861048" lon="-1.439386">
			<ele>643.000000</ele>
		<time>2013-08-31T01:57:29Z</time>
		</trkpt>

		<trkpt lat="37.861022" lon="-1.439229">
			<ele>647.000000</ele>
		<time>2013-08-31T01:57:32Z</time>
		</trkpt>

		<trkpt lat="37.861284" lon="-1.439146">
			<ele>651.000000</ele>
		<time>2013-08-31T01:57:35Z</time>
		</trkpt>

		<trkpt lat="37.861628" lon="-1.439426">
			<ele>652.000000</ele>
		<time>2013-08-31T01:57:38Z</time>
		</trkpt>

		<trkpt lat="37.861840" lon="-1.439828">
			<ele>657.000000</ele>
		<time>2013-08-31T01:57:41Z</time>
		</trkpt>

		<trkpt lat="37.861762" lon="-1.439840">
			<ele>663.000000</ele>
		<time>2013-08-31T01:57:44Z</time>
		</trkpt>

		<trkpt lat="37.861571" lon="-1.439767">
			<ele>669.000000</ele>
		<time>2013-08-31T01:57:47Z</time>
		</trkpt>

		<trkpt lat="37.861447" lon="-1.439643">
			<ele>676.000000</ele>
		<time>2013-08-31T01:57:50Z</time>
		</trkpt>

		<trkpt lat="37.861406" lon="-1.439478">
			<ele>684.000000</ele>
		<time>2013-08-31T01:57:53Z</time>
		</trkpt>

		<trkpt lat="37.861449" lon="-1.439220">
			<ele>689.000000</ele>
		<time>2013-08-31T01:57:56Z</time>
		</trkpt>

		<trkpt lat="37.861759" lon="-1.439167">
			<ele>695.000000</ele>
		<time>2013-08-31T01:57:59Z</time>
		</trkpt>

		<trkpt lat="37.861981" lon="-1.439408">
			<ele>703.000000</ele>
		<time>2013-08-31T01:58:02Z</time>
		</trkpt>

		<trkpt lat="37.861924" lon="-1.439606">
			<ele>712.000000</ele>
		<time>2013-08-31T01:58:05Z</time>
		</trkpt>

		<trkpt lat="37.861847" lon="-1.439717">
			<ele>719.000000</ele>
		<time>2013-08-31T01:58:08Z</time>
		</trkpt>

		<trkpt lat="37.861763" lon="-1.439615">
			<ele>723.000000</ele>
		<time>2013-08-31T01:58:11Z</time>
		</trkpt>

		<trkpt lat="37.862049" lon="-1.439510">
			<ele>728.000000</ele>
		<time>2013-08-31T01:58:14Z</time>
		</trkpt>

		<trkpt lat="37.862326" lon="-1.439703">
			<ele>737.000000</ele>
		<time>2013-08-31T01:58:17Z</time>
		</trkpt>

		<trkpt lat="37.862371" lon="-1.440004">
			<ele>746.000000</ele>
		<time>2013-08-31T01:58:20Z</time>
		</trkpt>

		<trkpt lat="37.862392" lon="-1.440391">
			<ele>751.000000</ele>
		<time>2013-08-31T01:58:23Z</time>
		</trkpt>

		<trkpt lat="37.862290" lon="-1.440242">
			<ele>754.000000</ele>
		<time>2013-08-31T01:58:26Z</time>
		</trkpt>

		<trkpt lat="37.862369" lon="-1.440030">
			<ele>758.000000</ele>
		<time>2013-08-31T01:58:29Z</time>
		</trkpt>

		<trkpt lat="37.862679" lon="-1.440052">
			<ele>763.000000</ele>
		<time>2013-08-31T01:58:32Z</time>
		</trkpt>

		<trkpt lat="37.863012" lon="-1.440237">
			<ele>770.000000</ele>
		<time>2013-08-31T01:58:35Z</time>
		</trkpt>

		<trkpt lat="37.863027" lon="-1.440567">
			<ele>773.000000</ele>
		<time>2013-08-31T01:58:38Z</time>
		</trkpt>

		<trkpt lat="37.862922" lon="-1.440656">
			<ele>782.000000</ele>
		<time>2013-08-31T01:58:42Z</time>
		</trkpt>

		<trkpt lat="37.862822" lon="-1.440604">
			<ele>786.000000</ele>
		<time>2013-08-31T01:58:45Z</time>
		</trkpt>

		<trkpt lat="37.862807" lon="-1.440281">
			<ele>788.000000</ele>
		<time>2013-08-31T01:58:48Z</time>
		</trkpt>

		<trkpt lat="37.862978" lon="-1.440171">
			<ele>792.000000</ele>
		<time>2013-08-31T01:58:51Z</time>
		</trkpt>

		<trkpt lat="37.863216" lon="-1.440342">
			<ele>799.000000</ele>
		<time>2013-08-31T01:58:54Z</time>
		</trkpt>

		<trkpt lat="37.863399" lon="-1.440641">
			<ele>804.000000</ele>
		<time>2013-08-31T01:58:57Z</time>
		</trkpt>

		<trkpt lat="37.863402" lon="-1.440925">
			<ele>808.000000</ele>
		<time>2013-08-31T01:59:00Z</time>
		</trkpt>

		<trkpt lat="37.863305" lon="-1.441035">
			<ele>811.000000</ele>
		<time>2013-08-31T01:59:03Z</time>
		</trkpt>

		<trkpt lat="37.863174" lon="-1.440964">
			<ele>815.000000</ele>
		<time>2013-08-31T01:59:06Z</time>
		</trkpt>

		<trkpt lat="37.863061" lon="-1.440814">
			<ele>817.000000</ele>
		<time>2013-08-31T01:59:09Z</time>
		</trkpt>

		<trkpt lat="37.862981" lon="-1.440536">
			<ele>821.000000</ele>
		<time>2013-08-31T01:59:12Z</time>
		</trkpt>

		<trkpt lat="37.863176" lon="-1.440217">
			<ele>825.000000</ele>
		<time>2013-08-31T01:59:15Z</time>
		</trkpt>

		<trkpt lat="37.863560" lon="-1.440065">
			<ele>829.000000</ele>
		<time>2013-08-31T01:59:18Z</time>
		</trkpt>

		<trkpt lat="37.863949" lon="-1.440161">
			<ele>833.000000</ele>
		<time>2013-08-31T01:59:21Z</time>
		</trkpt>

		<trkpt lat="37.864111" lon="-1.440530">
			<ele>838.000000</ele>
		<time>2013-08-31T01:59:24Z</time>
		</trkpt>

		<trkpt lat="37.863984" lon="-1.440841">
			<ele>841.000000</ele>
		<time>2013-08-31T01:59:27Z</time>
		</trkpt>

		<trkpt lat="37.863814" lon="-1.440991">
			<ele>847.000000</ele>
		<time>2013-08-31T01:59:30Z</time>
		</trkpt>

		<trkpt lat="37.863655" lon="-1.440997">
			<ele>850.000000</ele>
		<time>2013-08-31T01:59:33Z</time>
		</trkpt>

		<trkpt lat="37.863555" lon="-1.440735">
			<ele>851.000000</ele>
		<time>2013-08-31T01:59:36Z</time>
		</trkpt>

		<trkpt lat="37.863607" lon="-1.440387">
			<ele>854.000000</ele>
		<time>2013-08-31T01:59:39Z</time>
		</trkpt>

		<trkpt lat="37.863968" lon="-1.440199">
			<ele>857.000000</ele>
		<time>2013-08-31T01:59:42Z</time>
		</trkpt>

		<trkpt lat="37.864358" lon="-1.440350">
			<ele>860.000000</ele>
		<time>2013-08-31T01:59:45Z</time>
		</trkpt>

		<trkpt lat="37.864542" lon="-1.440622">
			<ele>865.000000</ele>
		<time>2013-08-31T01:59:48Z</time>
		</trkpt>

		<trkpt lat="37.864497" lon="-1.440803">
			<ele>869.000000</ele>
		<time>2013-08-31T01:59:51Z</time>
		</trkpt>

		<trkpt lat="37.864269" lon="-1.440796">
			<ele>871.000000</ele>
		<time>2013-08-31T01:59:54Z</time>
		</trkpt>

		<trkpt lat="37.864318" lon="-1.440421">
			<ele>876.000000</ele>
		<time>2013-08-31T01:59:57Z</time>
		</trkpt>

		<trkpt lat="37.864623" lon="-1.440236">
			<ele>879.000000</ele>
		<time>2013-08-31T02:00:00Z</time>
		</trkpt>

		<trkpt lat="37.864909" lon="-1.440411">
			<ele>881.000000</ele>
		<time>2013-08-31T02:00:03Z</time>
		</trkpt>

		<trkpt lat="37.865081" lon="-1.440711">
			<ele>884.000000</ele>
		<time>2013-08-31T02:00:06Z</time>
		</trkpt>

		<trkpt lat="37.865135" lon="-1.440947">
			<ele>886.000000</ele>
		<time>2013-08-31T02:00:09Z</time>
		</trkpt>

		<trkpt lat="37.865067" lon="-1.441050">
			<ele>889.000000</ele>
		<time>2013-08-31T02:00:12Z</time>
		</trkpt>

		<trkpt lat="37.864788" lon="-1.441188">
			<ele>891.000000</ele>
		<time>2013-08-31T02:00:15Z</time>
		</trkpt>

		<trkpt lat="37.864527" lon="-1.441093">
			<ele>896.000000</ele>
		<time>2013-08-31T02:00:18Z</time>
		</trkpt>

		<trkpt lat="37.864452" lon="-1.440859">
			<ele>902.000000</ele>
		<time>2013-08-31T02:00:21Z</time>
		</trkpt>

		<trkpt lat="37.864590" lon="-1.440573">
			<ele>910.000000</ele>
		<time>2013-08-31T02:00:24Z</time>
		</trkpt>

		<trkpt lat="37.864955" lon="-1.440701">
			<ele>914.000000</ele>
		<time>2013-08-31T02:00:27Z</time>
		</trkpt>

		<trkpt lat="37.865151" lon="-1.441033">
			<ele>918.000000</ele>
		<time>2013-08-31T02:00:30Z</time>
		</trkpt>

		<trkpt lat="37.865086" lon="-1.441238">
			<ele>922.000000</ele>
		<time>2013-08-31T02:00:33Z</time>
		</trkpt>

		<trkpt lat="37.864940" lon="-1.441236">
			<ele>927.000000</ele>
		<time>2013-08-31T02:00:36Z</time>
		</trkpt>

		<trkpt lat="37.864789" lon="-1.441003">
			<ele>929.000000</ele>
		<time>2013-08-31T02:00:39Z</time>
		</trkpt>

		<trkpt lat="37.864883" lon="-1.440692">
			<ele>936.000000</ele>
		<time>2013-08-31T02:00:42Z</time>
		</trkpt>

		<trkpt lat="37.865216" lon="-1.440433">
			<ele>943.000000</ele>
		<time>2013-08-31T02:00:45Z</time>
		</trkpt>

		<trkpt lat="37.865633" lon="-1.440305">
			<ele>946.000000</ele>
		<time>2013-08-31T02:00:48Z</time>
		</trkpt>

		<trkpt lat="37.865907" lon="-1.440574">
			<ele>949.000000</ele>
		<time>2013-08-31T02:00:51Z</time>
		</trkpt>

		<trkpt lat="37.865838" lon="-1.440900">
			<ele>951.000000</ele>
		<time>2013-08-31T02:00:54Z</time>
		</trkpt>

		<trkpt lat="37.865639" lon="-1.440984">
			<ele>953.000000</ele>
		<time>2013-08-31T02:00:57Z</time>
		</trkpt>

		<trkpt lat="37.865438" lon="-1.440858">
			<ele>958.000000</ele>
		<time>2013-08-31T02:01:00Z</time>
		</trkpt>

		<trkpt lat="37.865385" lon="-1.440602">
			<ele>964.000000</ele>
		<time>2013-08-31T02:01:03Z</time>
		</trkpt>

		<trkpt lat="37.865358" lon="-1.440313">
			<ele>970.000000</ele>
		<time>2013-08-31T02:01:06Z</time>
		</trkpt>

		<trkpt lat="37.865518" lon="-1.440028">
			<ele>972.000000</ele>
		<time>2013-08-31T02:01:09Z</time>
		</trkpt>

		<trkpt lat="37.865829" lon="-1.439951">
			<ele>975.000000</ele>
		<time>2013-08-31T02:01:12Z</time>
		</trkpt>

		<trkpt lat="37.866029" lon="-1.440200">
			<ele>977.000000</ele>
		<time>2013-08-31T02:01:15Z</time>
		</trkpt>

		<trkpt lat="37.866077" lon="-1.440510">
			<ele>980.000000</ele>
		<time>2013-08-31T02:01:18Z</time>
		</trkpt>

		<trkpt lat="37.865911" lon="-1.440644">
			<ele>987.000000</ele>
		<time>2013-08-31T02:01:21Z</time>
		</trkpt>

		<trkpt lat="37.865707" lon="-1.440661">
			<ele>993.000000</ele>
		<time>2013-08-31T02:01:24Z</time>
		</trkpt>

		<trkpt lat="37.865514" lon="-1.440579">
			<ele>996.000000</ele>
		<time>2013-08-31T02:01:27Z</time>
		</trkpt>

		<trkpt lat="37.865518" lon="-1.440258">
			<ele>999.000000</ele>
		<time>2013-08-31T02:01:30Z</time>
		</trkpt>

		<trkpt lat="37.865734" lon="-1.440011">
			<ele>1001.000000</ele>
		<time>2013-08-31T02:01:33Z</time>
		</trkpt>

		<trkpt lat="37.866047" lon="-1.439964">
			<ele>1004.000000</ele>
		<time>2013-08-31T02:01:36Z</time>
		</trkpt>

		<trkpt lat="37.866338" lon="-1.440090">
			<ele>1005.000000</ele>
		<time>2013-08-31T02:01:39Z</time>
		</trkpt>

		<trkpt lat="37.866524" lon="-1.440445">
			<ele>1005.000000</ele>
		<time>2013-08-31T02:01:42Z</time>
		</trkpt>

		<trkpt lat="37.866427" lon="-1.440687">
			<ele>1008.000000</ele>
		<time>2013-08-31T02:01:45Z</time>
		</trkpt>

		<trkpt lat="37.866225" lon="-1.440795">
			<ele>1009.000000</ele>
		<time>2013-08-31T02:01:48Z</time>
		</trkpt>

		<trkpt lat="37.866045" lon="-1.440581">
			<ele>1008.000000</ele>
		<time>2013-08-31T02:01:51Z</time>
		</trkpt>

		<trkpt lat="37.865984" lon="-1.440283">
			<ele>1012.000000</ele>
		<time>2013-08-31T02:01:54Z</time>
		</trkpt>

		<trkpt lat="37.866145" lon="-1.440027">
			<ele>1014.000000</ele>
		<time>2013-08-31T02:01:57Z</time>
		</trkpt>

		<trkpt lat="37.866455" lon="-1.439888">
			<ele>1016.000000</ele>
		<time>2013-08-31T02:02:00Z</time>
		</trkpt>

		<trkpt lat="37.866792" lon="-1.440006">
			<ele>1017.000000</ele>
		<time>2013-08-31T02:02:03Z</time>
		</trkpt>

		<trkpt lat="37.866894" lon="-1.440331">
			<ele>1019.000000</ele>
		<time>2013-08-31T02:02:06Z</time>
		</trkpt>

		<trkpt lat="37.866833" lon="-1.440610">
			<ele>1022.000000</ele>
		<time>2013-08-31T02:02:09Z</time>
		</trkpt>

		<trkpt lat="37.866682" lon="-1.440711">
			<ele>1021.000000</ele>
		<time>2013-08-31T02:02:12Z</time>
		</trkpt>

		<trkpt lat="37.866463" lon="-1.440559">
			<ele>1019.000000</ele>
		<time>2013-08-31T02:02:15Z</time>
		</trkpt>

		<trkpt lat="37.866377" lon="-1.440202">
			<ele>1020.000000</ele>
		<time>2013-08-31T02:02:18Z</time>
		</trkpt>

		<trkpt lat="37.866382" lon="-1.439888">
			<ele>1025.000000</ele>
		<time>2013-08-31T02:02:21Z</time>
		</trkpt>

		<trkpt lat="37.866408" lon="-1.439604">
			<ele>1027.000000</ele>
		<time>2013-08-31T02:02:24Z</time>
		</trkpt>

		<trkpt lat="37.866374" lon="-1.439347">
			<ele>1023.000000</ele>
		<time>2013-08-31T02:02:27Z</time>
		</trkpt>

		<trkpt lat="37.866186" lon="-1.439091">
			<ele>1013.000000</ele>
		<time>2013-08-31T02:02:30Z</time>
		</trkpt>

		<trkpt lat="37.865918" lon="-1.438960">
			<ele>1007.000000</ele>
		<time>2013-08-31T02:02:33Z</time>
		</trkpt>

		<trkpt lat="37.865610" lon="-1.438958">
			<ele>1000.000000</ele>
		<time>2013-08-31T02:02:36Z</time>
		</trkpt>

		<trkpt lat="37.865271" lon="-1.439180">
			<ele>995.000000</ele>
		<time>2013-08-31T02:02:39Z</time>
		</trkpt>

		<trkpt lat="37.865015" lon="-1.439495">
			<ele>990.000000</ele>
		<time>2013-08-31T02:02:42Z</time>
		</trkpt>

		<trkpt lat="37.864761" lon="-1.439883">
			<ele>985.000000</ele>
		<time>2013-08-31T02:02:45Z</time>
		</trkpt>

		<trkpt lat="37.864565" lon="-1.440233">
			<ele>983.000000</ele>
		<time>2013-08-31T02:02:48Z</time>
		</trkpt>

		<trkpt lat="37.864433" lon="-1.440664">
			<ele>981.000000</ele>
		<time>2013-08-31T02:02:51Z</time>
		</trkpt>

		<trkpt lat="37.864437" lon="-1.441083">
			<ele>984.000000</ele>
		<time>2013-08-31T02:02:54Z</time>
		</trkpt>

		<trkpt lat="37.864458" lon="-1.441442">
			<ele>985.000000</ele>
		<time>2013-08-31T02:02:57Z</time>
		</trkpt>

		<trkpt lat="37.864461" lon="-1.441869">
			<ele>982.000000</ele>
		<time>2013-08-31T02:03:00Z</time>
		</trkpt>

		<trkpt lat="37.864421" lon="-1.442270">
			<ele>976.000000</ele>
		<time>2013-08-31T02:03:03Z</time>
		</trkpt>

		<trkpt lat="37.864367" lon="-1.442694">
			<ele>970.000000</ele>
		<time>2013-08-31T02:03:06Z</time>
		</trkpt>

		<trkpt lat="37.864272" lon="-1.443129">
			<ele>967.000000</ele>
		<time>2013-08-31T02:03:09Z</time>
		</trkpt>

		<trkpt lat="37.864215" lon="-1.443545">
			<ele>968.000000</ele>
		<time>2013-08-31T02:03:12Z</time>
		</trkpt>

		<trkpt lat="37.864261" lon="-1.443949">
			<ele>968.000000</ele>
		<time>2013-08-31T02:03:15Z</time>
		</trkpt>

		<trkpt lat="37.864319" lon="-1.444422">
			<ele>962.000000</ele>
		<time>2013-08-31T02:03:18Z</time>
		</trkpt>

		<trkpt lat="37.864237" lon="-1.444854">
			<ele>956.000000</ele>
		<time>2013-08-31T02:03:21Z</time>
		</trkpt>

		<trkpt lat="37.864204" lon="-1.445274">
			<ele>949.000000</ele>
		<time>2013-08-31T02:03:24Z</time>
		</trkpt>

		<trkpt lat="37.864076" lon="-1.445631">
			<ele>944.000000</ele>
		<time>2013-08-31T02:03:27Z</time>
		</trkpt>

		<trkpt lat="37.863963" lon="-1.445988">
			<ele>938.000000</ele>
		<time>2013-08-31T02:03:30Z</time>
		</trkpt>

		<trkpt lat="37.863862" lon="-1.446267">
			<ele>935.000000</ele>
		<time>2013-08-31T02:03:33Z</time>
		</trkpt>

		<trkpt lat="37.863738" lon="-1.446503">
			<ele>932.000000</ele>
		<time>2013-08-31T02:03:36Z</time>
		</trkpt>

		<trkpt lat="37.863656" lon="-1.446754">
			<ele>930.000000</ele>
		<time>2013-08-31T02:03:39Z</time>
		</trkpt>

		<trkpt lat="37.863526" lon="-1.447011">
			<ele>926.000000</ele>
		<time>2013-08-31T02:03:42Z</time>
		</trkpt>

		<trkpt lat="37.863349" lon="-1.447255">
			<ele>923.000000</ele>
		<time>2013-08-31T02:03:45Z</time>
		</trkpt>

		<trkpt lat="37.863204" lon="-1.447464">
			<ele>920.000000</ele>
		<time>2013-08-31T02:03:48Z</time>
		</trkpt>

		<trkpt lat="37.863045" lon="-1.447671">
			<ele>917.000000</ele>
		<time>2013-08-31T02:03:51Z</time>
		</trkpt>

		<trkpt lat="37.862890" lon="-1.447799">
			<ele>915.000000</ele>
		<time>2013-08-31T02:03:54Z</time>
		</trkpt>

		<trkpt lat="37.862735" lon="-1.447888">
			<ele>912.000000</ele>
		<time>2013-08-31T02:03:57Z</time>
		</trkpt>

		<trkpt lat="37.862590" lon="-1.447973">
			<ele>909.000000</ele>
		<time>2013-08-31T02:04:00Z</time>
		</trkpt>

		<trkpt lat="37.862440" lon="-1.448084">
			<ele>906.000000</ele>
		<time>2013-08-31T02:04:03Z</time>
		</trkpt>

		<trkpt lat="37.862272" lon="-1.448243">
			<ele>903.000000</ele>
		<time>2013-08-31T02:04:06Z</time>
		</trkpt>

		<trkpt lat="37.862134" lon="-1.448457">
			<ele>901.000000</ele>
		<time>2013-08-31T02:04:09Z</time>
		</trkpt>

		<trkpt lat="37.862009" lon="-1.448731">
			<ele>896.000000</ele>
		<time>2013-08-31T02:04:12Z</time>
		</trkpt>

		<trkpt lat="37.861880" lon="-1.449008">
			<ele>894.000000</ele>
		<time>2013-08-31T02:04:15Z</time>
		</trkpt>

		<trkpt lat="37.861752" lon="-1.449279">
			<ele>891.000000</ele>
		<time>2013-08-31T02:04:18Z</time>
		</trkpt>

		<trkpt lat="37.861631" lon="-1.449579">
			<ele>888.000000</ele>
		<time>2013-08-31T02:04:21Z</time>
		</trkpt>

		<trkpt lat="37.861522" lon="-1.449891">
			<ele>885.000000</ele>
		<time>2013-08-31T02:04:24Z</time>
		</trkpt>

		<trkpt lat="37.861418" lon="-1.450228">
			<ele>881.000000</ele>
		<time>2013-08-31T02:04:27Z</time>
		</trkpt>

		<trkpt lat="37.861296" lon="-1.450569">
			<ele>878.000000</ele>
		<time>2013-08-31T02:04:30Z</time>
		</trkpt>

		<trkpt lat="37.861172" lon="-1.450885">
			<ele>874.000000</ele>
		<time>2013-08-31T02:04:33Z</time>
		</trkpt>

		<trkpt lat="37.861037" lon="-1.451228">
			<ele>869.000000</ele>
		<time>2013-08-31T02:04:36Z</time>
		</trkpt>

		<trkpt lat="37.860926" lon="-1.451554">
			<ele>864.000000</ele>
		<time>2013-08-31T02:04:39Z</time>
		</trkpt>

		<trkpt lat="37.860815" lon="-1.451894">
			<ele>857.000000</ele>
		<time>2013-08-31T02:04:42Z</time>
		</trkpt>

		<trkpt lat="37.860659" lon="-1.452217">
			<ele>850.000000</ele>
		<time>2013-08-31T02:04:45Z</time>
		</trkpt>

		<trkpt lat="37.860490" lon="-1.452491">
			<ele>843.000000</ele>
		<time>2013-08-31T02:04:48Z</time>
		</trkpt>

		<trkpt lat="37.860318" lon="-1.452762">
			<ele>836.000000</ele>
		<time>2013-08-31T02:04:51Z</time>
		</trkpt>

		<trkpt lat="37.860165" lon="-1.453016">
			<ele>831.000000</ele>
		<time>2013-08-31T02:04:54Z</time>
		</trkpt>

		<trkpt lat="37.860001" lon="-1.453258">
			<ele>826.000000</ele>
		<time>2013-08-31T02:04:57Z</time>
		</trkpt>

		<trkpt lat="37.859842" lon="-1.453452">
			<ele>822.000000</ele>
		<time>2013-08-31T02:05:00Z</time>
		</trkpt>

		<trkpt lat="37.859651" lon="-1.453590">
			<ele>817.000000</ele>
		<time>2013-08-31T02:05:03Z</time>
		</trkpt>

		<trkpt lat="37.859432" lon="-1.453691">
			<ele>816.000000</ele>
		<time>2013-08-31T02:05:06Z</time>
		</trkpt>

		<trkpt lat="37.859256" lon="-1.453683">
			<ele>819.000000</ele>
		<time>2013-08-31T02:05:09Z</time>
		</trkpt>

		<trkpt lat="37.859055" lon="-1.453558">
			<ele>819.000000</ele>
		<time>2013-08-31T02:05:12Z</time>
		</trkpt>

		<trkpt lat="37.858891" lon="-1.453324">
			<ele>817.000000</ele>
		<time>2013-08-31T02:05:15Z</time>
		</trkpt>

		<trkpt lat="37.858711" lon="-1.453105">
			<ele>811.000000</ele>
		<time>2013-08-31T02:05:18Z</time>
		</trkpt>

		<trkpt lat="37.858476" lon="-1.453057">
			<ele>811.000000</ele>
		<time>2013-08-31T02:05:21Z</time>
		</trkpt>

		<trkpt lat="37.858303" lon="-1.453197">
			<ele>807.000000</ele>
		<time>2013-08-31T02:05:24Z</time>
		</trkpt>

		<trkpt lat="37.858047" lon="-1.453400">
			<ele>800.000000</ele>
		<time>2013-08-31T02:05:27Z</time>
		</trkpt>

		<trkpt lat="37.857874" lon="-1.453628">
			<ele>796.000000</ele>
		<time>2013-08-31T02:05:30Z</time>
		</trkpt>

		<trkpt lat="37.857701" lon="-1.453846">
			<ele>791.000000</ele>
		<time>2013-08-31T02:05:33Z</time>
		</trkpt>

		<trkpt lat="37.857551" lon="-1.454184">
			<ele>787.000000</ele>
		<time>2013-08-31T02:05:36Z</time>
		</trkpt>

		<trkpt lat="37.857408" lon="-1.454518">
			<ele>782.000000</ele>
		<time>2013-08-31T02:05:39Z</time>
		</trkpt>

		<trkpt lat="37.857283" lon="-1.454864">
			<ele>779.000000</ele>
		<time>2013-08-31T02:05:42Z</time>
		</trkpt>

		<trkpt lat="37.857221" lon="-1.455229">
			<ele>774.000000</ele>
		<time>2013-08-31T02:05:45Z</time>
		</trkpt>

		<trkpt lat="37.857065" lon="-1.455611">
			<ele>769.000000</ele>
		<time>2013-08-31T02:05:48Z</time>
		</trkpt>

		<trkpt lat="37.856918" lon="-1.455961">
			<ele>765.000000</ele>
		<time>2013-08-31T02:05:51Z</time>
		</trkpt>

		<trkpt lat="37.856762" lon="-1.456317">
			<ele>761.000000</ele>
		<time>2013-08-31T02:05:54Z</time>
		</trkpt>

		<trkpt lat="37.856605" lon="-1.456703">
			<ele>755.000000</ele>
		<time>2013-08-31T02:05:57Z</time>
		</trkpt>

		<trkpt lat="37.856475" lon="-1.457083">
			<ele>751.000000</ele>
		<time>2013-08-31T02:06:00Z</time>
		</trkpt>

		<trkpt lat="37.856381" lon="-1.457438">
			<ele>746.000000</ele>
		<time>2013-08-31T02:06:03Z</time>
		</trkpt>

		<trkpt lat="37.856305" lon="-1.457760">
			<ele>743.000000</ele>
		<time>2013-08-31T02:06:06Z</time>
		</trkpt>

		<trkpt lat="37.856230" lon="-1.458049">
			<ele>741.000000</ele>
		<time>2013-08-31T02:06:09Z</time>
		</trkpt>

		<trkpt lat="37.856179" lon="-1.458460">
			<ele>737.000000</ele>
		<time>2013-08-31T02:06:12Z</time>
		</trkpt>

		<trkpt lat="37.856189" lon="-1.458762">
			<ele>738.000000</ele>
		<time>2013-08-31T02:06:15Z</time>
		</trkpt>

		<trkpt lat="37.856229" lon="-1.459035">
			<ele>737.000000</ele>
		<time>2013-08-31T02:06:18Z</time>
		</trkpt>

		<trkpt lat="37.856241" lon="-1.459454">
			<ele>734.000000</ele>
		<time>2013-08-31T02:06:21Z</time>
		</trkpt>

		<trkpt lat="37.856197" lon="-1.459843">
			<ele>735.000000</ele>
		<time>2013-08-31T02:06:24Z</time>
		</trkpt>

		<trkpt lat="37.856083" lon="-1.460179">
			<ele>736.000000</ele>
		<time>2013-08-31T02:06:27Z</time>
		</trkpt>

		<trkpt lat="37.855985" lon="-1.460512">
			<ele>731.000000</ele>
		<time>2013-08-31T02:06:30Z</time>
		</trkpt>

		<trkpt lat="37.855940" lon="-1.460965">
			<ele>724.000000</ele>
		<time>2013-08-31T02:06:33Z</time>
		</trkpt>

		<trkpt lat="37.855865" lon="-1.461388">
			<ele>717.000000</ele>
		<time>2013-08-31T02:06:36Z</time>
		</trkpt>

		<trkpt lat="37.855765" lon="-1.461801">
			<ele>710.000000</ele>
		<time>2013-08-31T02:06:39Z</time>
		</trkpt>

		<trkpt lat="37.855639" lon="-1.462174">
			<ele>703.000000</ele>
		<time>2013-08-31T02:06:42Z</time>
		</trkpt>

		<trkpt lat="37.855562" lon="-1.462545">
			<ele>698.000000</ele>
		<time>2013-08-31T02:06:45Z</time>
		</trkpt>

		<trkpt lat="37.855498" lon="-1.462914">
			<ele>692.000000</ele>
		<time>2013-08-31T02:06:48Z</time>
		</trkpt>

		<trkpt lat="37.855429" lon="-1.463243">
			<ele>688.000000</ele>
		<time>2013-08-31T02:06:51Z</time>
		</trkpt>

		<trkpt lat="37.855377" lon="-1.463559">
			<ele>682.000000</ele>
		<time>2013-08-31T02:06:54Z</time>
		</trkpt>

		<trkpt lat="37.855309" lon="-1.463921">
			<ele>675.000000</ele>
		<time>2013-08-31T02:06:57Z</time>
		</trkpt>

		<trkpt lat="37.855256" lon="-1.464248">
			<ele>670.000000</ele>
		<time>2013-08-31T02:07:00Z</time>
		</trkpt>

		<trkpt lat="37.855194" lon="-1.464568">
			<ele>665.000000</ele>
		<time>2013-08-31T02:07:03Z</time>
		</trkpt>

		<trkpt lat="37.855108" lon="-1.464941">
			<ele>658.000000</ele>
		<time>2013-08-31T02:07:06Z</time>
		</trkpt>

		<trkpt lat="37.855018" lon="-1.465338">
			<ele>649.000000</ele>
		<time>2013-08-31T02:07:09Z</time>
		</trkpt>

		<trkpt lat="37.854937" lon="-1.465698">
			<ele>640.000000</ele>
		<time>2013-08-31T02:07:12Z</time>
		</trkpt>

		<trkpt lat="37.854856" lon="-1.466156">
			<ele>629.000000</ele>
		<time>2013-08-31T02:07:15Z</time>
		</trkpt>

		<trkpt lat="37.854759" lon="-1.466488">
			<ele>624.000000</ele>
		<time>2013-08-31T02:07:18Z</time>
		</trkpt>

		<trkpt lat="37.854598" lon="-1.466738">
			<ele>624.000000</ele>
		<time>2013-08-31T02:07:21Z</time>
		</trkpt>

		<trkpt lat="37.854494" lon="-1.467029">
			<ele>622.000000</ele>
		<time>2013-08-31T02:07:24Z</time>
		</trkpt>

		<trkpt lat="37.854481" lon="-1.467379">
			<ele>624.000000</ele>
		<time>2013-08-31T02:07:27Z</time>
		</trkpt>

		<trkpt lat="37.854662" lon="-1.467817">
			<ele>626.000000</ele>
		<time>2013-08-31T02:07:30Z</time>
		</trkpt>

		<trkpt lat="37.854945" lon="-1.467957">
			<ele>629.000000</ele>
		<time>2013-08-31T02:07:33Z</time>
		</trkpt>

		<trkpt lat="37.855204" lon="-1.467756">
			<ele>634.000000</ele>
		<time>2013-08-31T02:07:36Z</time>
		</trkpt>

		<trkpt lat="37.855178" lon="-1.467499">
			<ele>639.000000</ele>
		<time>2013-08-31T02:07:39Z</time>
		</trkpt>

		<trkpt lat="37.854966" lon="-1.467484">
			<ele>641.000000</ele>
		<time>2013-08-31T02:07:42Z</time>
		</trkpt>

		<trkpt lat="37.854949" lon="-1.467936">
			<ele>647.000000</ele>
		<time>2013-08-31T02:07:45Z</time>
		</trkpt>

		<trkpt lat="37.855041" lon="-1.468287">
			<ele>658.000000</ele>
		<time>2013-08-31T02:07:48Z</time>
		</trkpt>

		<trkpt lat="37.855045" lon="-1.468638">
			<ele>661.000000</ele>
		<time>2013-08-31T02:07:51Z</time>
		</trkpt>

		<trkpt lat="37.854935" lon="-1.468937">
			<ele>660.000000</ele>
		<time>2013-08-31T02:07:54Z</time>
		</trkpt>

		<trkpt lat="37.854713" lon="-1.468979">
			<ele>661.000000</ele>
		<time>2013-08-31T02:07:57Z</time>
		</trkpt>

		<trkpt lat="37.854742" lon="-1.468766">
			<ele>664.000000</ele>
		<time>2013-08-31T02:08:00Z</time>
		</trkpt>

		<trkpt lat="37.855114" lon="-1.468626">
			<ele>669.000000</ele>
		<time>2013-08-31T02:08:03Z</time>
		</trkpt>

		<trkpt lat="37.855347" lon="-1.468750">
			<ele>679.000000</ele>
		<time>2013-08-31T02:08:06Z</time>
		</trkpt>

		<trkpt lat="37.855594" lon="-1.469003">
			<ele>683.000000</ele>
		<time>2013-08-31T02:08:09Z</time>
		</trkpt>

		<trkpt lat="37.855781" lon="-1.469388">
			<ele>687.000000</ele>
		<time>2013-08-31T02:08:12Z</time>
		</trkpt>

		<trkpt lat="37.855648" lon="-1.469715">
			<ele>689.000000</ele>
		<time>2013-08-31T02:08:15Z</time>
		</trkpt>

		<trkpt lat="37.855462" lon="-1.469785">
			<ele>689.000000</ele>
		<time>2013-08-31T02:08:18Z</time>
		</trkpt>

		<trkpt lat="37.855340" lon="-1.469624">
			<ele>694.000000</ele>
		<time>2013-08-31T02:08:21Z</time>
		</trkpt>

		<trkpt lat="37.855297" lon="-1.469506">
			<ele>702.000000</ele>
		<time>2013-08-31T02:08:24Z</time>
		</trkpt>

		<trkpt lat="37.855130" lon="-1.469310">
			<ele>706.000000</ele>
		<time>2013-08-31T02:08:27Z</time>
		</trkpt>

		<trkpt lat="37.855053" lon="-1.469118">
			<ele>711.000000</ele>
		<time>2013-08-31T02:08:30Z</time>
		</trkpt>

		<trkpt lat="37.855232" lon="-1.468909">
			<ele>712.000000</ele>
		<time>2013-08-31T02:08:33Z</time>
		</trkpt>

		<trkpt lat="37.855529" lon="-1.468830">
			<ele>715.000000</ele>
		<time>2013-08-31T02:08:36Z</time>
		</trkpt>

		<trkpt lat="37.855803" lon="-1.468845">
			<ele>720.000000</ele>
		<time>2013-08-31T02:08:39Z</time>
		</trkpt>

		<trkpt lat="37.856053" lon="-1.468820">
			<ele>725.000000</ele>
		<time>2013-08-31T02:08:42Z</time>
		</trkpt>

		<trkpt lat="37.856120" lon="-1.468626">
			<ele>723.000000</ele>
		<time>2013-08-31T02:08:45Z</time>
		</trkpt>

		<trkpt lat="37.855873" lon="-1.468449">
			<ele>719.000000</ele>
		<time>2013-08-31T02:08:48Z</time>
		</trkpt>

		<trkpt lat="37.855516" lon="-1.468564">
			<ele>713.000000</ele>
		<time>2013-08-31T02:08:51Z</time>
		</trkpt>

		<trkpt lat="37.855303" lon="-1.469038">
			<ele>711.000000</ele>
		<time>2013-08-31T02:08:54Z</time>
		</trkpt>

		<trkpt lat="37.855297" lon="-1.469428">
			<ele>714.000000</ele>
		<time>2013-08-31T02:08:57Z</time>
		</trkpt>

		<trkpt lat="37.855400" lon="-1.469860">
			<ele>717.000000</ele>
		<time>2013-08-31T02:09:00Z</time>
		</trkpt>

		<trkpt lat="37.855548" lon="-1.470264">
			<ele>721.000000</ele>
		<time>2013-08-31T02:09:03Z</time>
		</trkpt>

		<trkpt lat="37.855569" lon="-1.470753">
			<ele>721.000000</ele>
		<time>2013-08-31T02:09:06Z</time>
		</trkpt>

		<trkpt lat="37.855436" lon="-1.471106">
			<ele>727.000000</ele>
		<time>2013-08-31T02:09:09Z</time>
		</trkpt>

		<trkpt lat="37.855365" lon="-1.471360">
			<ele>736.000000</ele>
		<time>2013-08-31T02:09:12Z</time>
		</trkpt>

		<trkpt lat="37.855317" lon="-1.471734">
			<ele>740.000000</ele>
		<time>2013-08-31T02:09:15Z</time>
		</trkpt>

		<trkpt lat="37.855587" lon="-1.472159">
			<ele>742.000000</ele>
		<time>2013-08-31T02:09:19Z</time>
		</trkpt>

		<trkpt lat="37.855877" lon="-1.472093">
			<ele>748.000000</ele>
		<time>2013-08-31T02:09:22Z</time>
		</trkpt>

		<trkpt lat="37.855892" lon="-1.471946">
			<ele>755.000000</ele>
		<time>2013-08-31T02:09:25Z</time>
		</trkpt>

		<trkpt lat="37.855729" lon="-1.471897">
			<ele>762.000000</ele>
		<time>2013-08-31T02:09:28Z</time>
		</trkpt>

		<trkpt lat="37.855640" lon="-1.472133">
			<ele>766.000000</ele>
		<time>2013-08-31T02:09:31Z</time>
		</trkpt>

		<trkpt lat="37.855768" lon="-1.472612">
			<ele>773.000000</ele>
		<time>2013-08-31T02:09:34Z</time>
		</trkpt>

		<trkpt lat="37.856034" lon="-1.472968">
			<ele>779.000000</ele>
		<time>2013-08-31T02:09:37Z</time>
		</trkpt>

		<trkpt lat="37.856348" lon="-1.472983">
			<ele>786.000000</ele>
		<time>2013-08-31T02:09:40Z</time>
		</trkpt>

		<trkpt lat="37.856449" lon="-1.472753">
			<ele>791.000000</ele>
		<time>2013-08-31T02:09:43Z</time>
		</trkpt>

		<trkpt lat="37.856277" lon="-1.472637">
			<ele>798.000000</ele>
		<time>2013-08-31T02:09:46Z</time>
		</trkpt>

		<trkpt lat="37.856093" lon="-1.472693">
			<ele>806.000000</ele>
		<time>2013-08-31T02:09:49Z</time>
		</trkpt>

		<trkpt lat="37.855992" lon="-1.472922">
			<ele>814.000000</ele>
		<time>2013-08-31T02:09:52Z</time>
		</trkpt>

		<trkpt lat="37.855950" lon="-1.473332">
			<ele>820.000000</ele>
		<time>2013-08-31T02:09:55Z</time>
		</trkpt>

		<trkpt lat="37.856117" lon="-1.473878">
			<ele>825.000000</ele>
		<time>2013-08-31T02:09:58Z</time>
		</trkpt>

		<trkpt lat="37.856454" lon="-1.474010">
			<ele>830.000000</ele>
		<time>2013-08-31T02:10:01Z</time>
		</trkpt>

		<trkpt lat="37.856707" lon="-1.473880">
			<ele>838.000000</ele>
		<time>2013-08-31T02:10:04Z</time>
		</trkpt>

		<trkpt lat="37.856673" lon="-1.473676">
			<ele>846.000000</ele>
		<time>2013-08-31T02:10:07Z</time>
		</trkpt>

		<trkpt lat="37.856575" lon="-1.473730">
			<ele>854.000000</ele>
		<time>2013-08-31T02:10:10Z</time>
		</trkpt>

		<trkpt lat="37.856464" lon="-1.473871">
			<ele>860.000000</ele>
		<time>2013-08-31T02:10:13Z</time>
		</trkpt>

		<trkpt lat="37.856314" lon="-1.474098">
			<ele>864.000000</ele>
		<time>2013-08-31T02:10:16Z</time>
		</trkpt>

		<trkpt lat="37.856254" lon="-1.474469">
			<ele>872.000000</ele>
		<time>2013-08-31T02:10:19Z</time>
		</trkpt>

		<trkpt lat="37.856310" lon="-1.474993">
			<ele>881.000000</ele>
		<time>2013-08-31T02:10:22Z</time>
		</trkpt>

		<trkpt lat="37.856512" lon="-1.475394">
			<ele>885.000000</ele>
		<time>2013-08-31T02:10:25Z</time>
		</trkpt>

		<trkpt lat="37.856795" lon="-1.475359">
			<ele>890.000000</ele>
		<time>2013-08-31T02:10:28Z</time>
		</trkpt>

		<trkpt lat="37.856828" lon="-1.475146">
			<ele>897.000000</ele>
		<time>2013-08-31T02:10:31Z</time>
		</trkpt>

		<trkpt lat="37.856721" lon="-1.475052">
			<ele>905.000000</ele>
		<time>2013-08-31T02:10:34Z</time>
		</trkpt>

		<trkpt lat="37.856581" lon="-1.474969">
			<ele>914.000000</ele>
		<time>2013-08-31T02:10:37Z</time>
		</trkpt>

		<trkpt lat="37.856467" lon="-1.474909">
			<ele>921.000000</ele>
		<time>2013-08-31T02:10:40Z</time>
		</trkpt>

		<trkpt lat="37.856322" lon="-1.474934">
			<ele>925.000000</ele>
		<time>2013-08-31T02:10:43Z</time>
		</trkpt>

		<trkpt lat="37.856317" lon="-1.475354">
			<ele>931.000000</ele>
		<time>2013-08-31T02:10:46Z</time>
		</trkpt>

		<trkpt lat="37.856497" lon="-1.475800">
			<ele>937.000000</ele>
		<time>2013-08-31T02:10:49Z</time>
		</trkpt>

		<trkpt lat="37.856870" lon="-1.475936">
			<ele>946.000000</ele>
		<time>2013-08-31T02:10:52Z</time>
		</trkpt>

		<trkpt lat="37.857065" lon="-1.475763">
			<ele>957.000000</ele>
		<time>2013-08-31T02:10:55Z</time>
		</trkpt>

		<trkpt lat="37.857054" lon="-1.475513">
			<ele>964.000000</ele>
		<time>2013-08-31T02:10:58Z</time>
		</trkpt>

		<trkpt lat="37.856973" lon="-1.475415">
			<ele>971.000000</ele>
		<time>2013-08-31T02:11:01Z</time>
		</trkpt>

		<trkpt lat="37.856841" lon="-1.475664">
			<ele>977.000000</ele>
		<time>2013-08-31T02:11:04Z</time>
		</trkpt>

		<trkpt lat="37.856833" lon="-1.476036">
			<ele>984.000000</ele>
		<time>2013-08-31T02:11:07Z</time>
		</trkpt>

		<trkpt lat="37.856888" lon="-1.476403">
			<ele>995.000000</ele>
		<time>2013-08-31T02:11:10Z</time>
		</trkpt>

		<trkpt lat="37.857117" lon="-1.476762">
			<ele>1002.000000</ele>
		<time>2013-08-31T02:11:13Z</time>
		</trkpt>

		<trkpt lat="37.857523" lon="-1.476854">
			<ele>1009.000000</ele>
		<time>2013-08-31T02:11:16Z</time>
		</trkpt>

		<trkpt lat="37.857709" lon="-1.476679">
			<ele>1020.000000</ele>
		<time>2013-08-31T02:11:19Z</time>
		</trkpt>

		<trkpt lat="37.857738" lon="-1.476518">
			<ele>1030.000000</ele>
		<time>2013-08-31T02:11:22Z</time>
		</trkpt>

		<trkpt lat="37.857662" lon="-1.476381">
			<ele>1035.000000</ele>
		<time>2013-08-31T02:11:25Z</time>
		</trkpt>

		<trkpt lat="37.857520" lon="-1.476440">
			<ele>1044.000000</ele>
		<time>2013-08-31T02:11:29Z</time>
		</trkpt>

		<trkpt lat="37.857299" lon="-1.476859">
			<ele>1052.000000</ele>
		<time>2013-08-31T02:11:32Z</time>
		</trkpt>

		<trkpt lat="37.857073" lon="-1.476967">
			<ele>1059.000000</ele>
		<time>2013-08-31T02:11:35Z</time>
		</trkpt>

		<trkpt lat="37.856969" lon="-1.476804">
			<ele>1065.000000</ele>
		<time>2013-08-31T02:11:38Z</time>
		</trkpt>

		<trkpt lat="37.856997" lon="-1.476534">
			<ele>1071.000000</ele>
		<time>2013-08-31T02:11:41Z</time>
		</trkpt>

		<trkpt lat="37.857302" lon="-1.476438">
			<ele>1077.000000</ele>
		<time>2013-08-31T02:11:44Z</time>
		</trkpt>

		<trkpt lat="37.857685" lon="-1.476636">
			<ele>1084.000000</ele>
		<time>2013-08-31T02:11:47Z</time>
		</trkpt>

		<trkpt lat="37.857962" lon="-1.476833">
			<ele>1096.000000</ele>
		<time>2013-08-31T02:11:50Z</time>
		</trkpt>

		<trkpt lat="37.858168" lon="-1.477223">
			<ele>1103.000000</ele>
		<time>2013-08-31T02:11:53Z</time>
		</trkpt>

		<trkpt lat="37.858117" lon="-1.477564">
			<ele>1113.000000</ele>
		<time>2013-08-31T02:11:56Z</time>
		</trkpt>

		<trkpt lat="37.857973" lon="-1.477751">
			<ele>1123.000000</ele>
		<time>2013-08-31T02:11:59Z</time>
		</trkpt>

		<trkpt lat="37.857830" lon="-1.477805">
			<ele>1130.000000</ele>
		<time>2013-08-31T02:12:02Z</time>
		</trkpt>

		<trkpt lat="37.857896" lon="-1.477656">
			<ele>1137.000000</ele>
		<time>2013-08-31T02:12:05Z</time>
		</trkpt>

		<trkpt lat="37.858269" lon="-1.477725">
			<ele>1146.000000</ele>
		<time>2013-08-31T02:12:08Z</time>
		</trkpt>

		<trkpt lat="37.858525" lon="-1.477932">
			<ele>1155.000000</ele>
		<time>2013-08-31T02:12:11Z</time>
		</trkpt>

		<trkpt lat="37.858744" lon="-1.478295">
			<ele>1164.000000</ele>
		<time>2013-08-31T02:12:14Z</time>
		</trkpt>

		<trkpt lat="37.858840" lon="-1.478561">
			<ele>1176.000000</ele>
		<time>2013-08-31T02:12:17Z</time>
		</trkpt>

		<trkpt lat="37.858867" lon="-1.478809">
			<ele>1187.000000</ele>
		<time>2013-08-31T02:12:20Z</time>
		</trkpt>

		<trkpt lat="37.858814" lon="-1.478977">
			<ele>1196.000000</ele>
		<time>2013-08-31T02:12:23Z</time>
		</trkpt>

		<trkpt lat="37.858753" lon="-1.479055">
			<ele>1209.000000</ele>
		<time>2013-08-31T02:12:27Z</time>
		</trkpt>

		<trkpt lat="37.858855" lon="-1.478867">
			<ele>1216.000000</ele>
		<time>2013-08-31T02:12:30Z</time>
		</trkpt>

		<trkpt lat="37.859092" lon="-1.478715">
			<ele>1225.000000</ele>
		<time>2013-08-31T02:12:33Z</time>
		</trkpt>

		<trkpt lat="37.859425" lon="-1.478875">
			<ele>1234.000000</ele>
		<time>2013-08-31T02:12:36Z</time>
		</trkpt>

		<trkpt lat="37.859708" lon="-1.479218">
			<ele>1243.000000</ele>
		<time>2013-08-31T02:12:39Z</time>
		</trkpt>

		<trkpt lat="37.859786" lon="-1.479624">
			<ele>1254.000000</ele>
		<time>2013-08-31T02:12:42Z</time>
		</trkpt>

		<trkpt lat="37.859701" lon="-1.479978">
			<ele>1264.000000</ele>
		<time>2013-08-31T02:12:45Z</time>
		</trkpt>

		<trkpt lat="37.859574" lon="-1.480250">
			<ele>1274.000000</ele>
		<time>2013-08-31T02:12:48Z</time>
		</trkpt>

		<trkpt lat="37.859416" lon="-1.480290">
			<ele>1292.000000</ele>
		<time>2013-08-31T02:12:53Z</time>
		</trkpt>

		<trkpt lat="37.859467" lon="-1.480009">
			<ele>1301.000000</ele>
		<time>2013-08-31T02:12:56Z</time>
		</trkpt>

		<trkpt lat="37.859704" lon="-1.479713">
			<ele>1311.000000</ele>
		<time>2013-08-31T02:12:59Z</time>
		</trkpt>

		<trkpt lat="37.860065" lon="-1.479744">
			<ele>1320.000000</ele>
		<time>2013-08-31T02:13:02Z</time>
		</trkpt>

		<trkpt lat="37.860289" lon="-1.480128">
			<ele>1330.000000</ele>
		<time>2013-08-31T02:13:05Z</time>
		</trkpt>

		<trkpt lat="37.860336" lon="-1.480540">
			<ele>1340.000000</ele>
		<time>2013-08-31T02:13:08Z</time>
		</trkpt>

		<trkpt lat="37.860264" lon="-1.480990">
			<ele>1349.000000</ele>
		<time>2013-08-31T02:13:11Z</time>
		</trkpt>

		<trkpt lat="37.860142" lon="-1.481214">
			<ele>1364.000000</ele>
		<time>2013-08-31T02:13:15Z</time>
		</trkpt>

		<trkpt lat="37.860121" lon="-1.481180">
			<ele>1375.000000</ele>
		<time>2013-08-31T02:13:18Z</time>
		</trkpt>

		<trkpt lat="37.860285" lon="-1.481010">
			<ele>1386.000000</ele>
		<time>2013-08-31T02:13:21Z</time>
		</trkpt>

		<trkpt lat="37.860585" lon="-1.480856">
			<ele>1396.000000</ele>
		<time>2013-08-31T02:13:24Z</time>
		</trkpt>

		<trkpt lat="37.860895" lon="-1.480898">
			<ele>1406.000000</ele>
		<time>2013-08-31T02:13:27Z</time>
		</trkpt>

		<trkpt lat="37.861029" lon="-1.481204">
			<ele>1414.000000</ele>
		<time>2013-08-31T02:13:30Z</time>
		</trkpt>

		<trkpt lat="37.861018" lon="-1.481555">
			<ele>1424.000000</ele>
		<time>2013-08-31T02:13:33Z</time>
		</trkpt>

		<trkpt lat="37.860906" lon="-1.481806">
			<ele>1432.000000</ele>
		<time>2013-08-31T02:13:36Z</time>
		</trkpt>

		<trkpt lat="37.860644" lon="-1.481958">
			<ele>1446.000000</ele>
		<time>2013-08-31T02:13:40Z</time>
		</trkpt>

		<trkpt lat="37.860495" lon="-1.481797">
			<ele>1455.000000</ele>
		<time>2013-08-31T02:13:43Z</time>
		</trkpt>

		<trkpt lat="37.860709" lon="-1.481369">
			<ele>1466.000000</ele>
		<time>2013-08-31T02:13:46Z</time>
		</trkpt>

		<trkpt lat="37.861069" lon="-1.481088">
			<ele>1475.000000</ele>
		<time>2013-08-31T02:13:49Z</time>
		</trkpt>

		<trkpt lat="37.861397" lon="-1.481254">
			<ele>1481.000000</ele>
		<time>2013-08-31T02:13:52Z</time>
		</trkpt>

		<trkpt lat="37.861597" lon="-1.481660">
			<ele>1487.000000</ele>
		<time>2013-08-31T02:13:55Z</time>
		</trkpt>

		<trkpt lat="37.861628" lon="-1.482023">
			<ele>1495.000000</ele>
		<time>2013-08-31T02:13:58Z</time>
		</trkpt>

		<trkpt lat="37.861594" lon="-1.482209">
			<ele>1506.000000</ele>
		<time>2013-08-31T02:14:01Z</time>
		</trkpt>

		<trkpt lat="37.861531" lon="-1.482261">
			<ele>1515.000000</ele>
		<time>2013-08-31T02:14:04Z</time>
		</trkpt>

		<trkpt lat="37.861444" lon="-1.482170">
			<ele>1523.000000</ele>
		<time>2013-08-31T02:14:07Z</time>
		</trkpt>

		<trkpt lat="37.861410" lon="-1.481959">
			<ele>1534.000000</ele>
		<time>2013-08-31T02:14:11Z</time>
		</trkpt>

		<trkpt lat="37.861776" lon="-1.481861">
			<ele>1542.000000</ele>
		<time>2013-08-31T02:14:14Z</time>
		</trkpt>

		<trkpt lat="37.862221" lon="-1.482095">
			<ele>1547.000000</ele>
		<time>2013-08-31T02:14:17Z</time>
		</trkpt>

		<trkpt lat="37.862398" lon="-1.482490">
			<ele>1552.000000</ele>
		<time>2013-08-31T02:14:20Z</time>
		</trkpt>

		<trkpt lat="37.862309" lon="-1.482852">
			<ele>1558.000000</ele>
		<time>2013-08-31T02:14:23Z</time>
		</trkpt>

		<trkpt lat="37.862203" lon="-1.483065">
			<ele>1567.000000</ele>
		<time>2013-08-31T02:14:26Z</time>
		</trkpt>

		<trkpt lat="37.862062" lon="-1.483251">
			<ele>1575.000000</ele>
		<time>2013-08-31T02:14:29Z</time>
		</trkpt>

		<trkpt lat="37.861873" lon="-1.483345">
			<ele>1580.000000</ele>
		<time>2013-08-31T02:14:32Z</time>
		</trkpt>

		<trkpt lat="37.861695" lon="-1.483266">
			<ele>1588.000000</ele>
		<time>2013-08-31T02:14:35Z</time>
		</trkpt>

		<trkpt lat="37.861722" lon="-1.483030">
			<ele>1597.000000</ele>
		<time>2013-08-31T02:14:38Z</time>
		</trkpt>

		<trkpt lat="37.861995" lon="-1.482871">
			<ele>1605.000000</ele>
		<time>2013-08-31T02:14:41Z</time>
		</trkpt>

		<trkpt lat="37.862326" lon="-1.482953">
			<ele>1612.000000</ele>
		<time>2013-08-31T02:14:44Z</time>
		</trkpt>

		<trkpt lat="37.862589" lon="-1.483331">
			<ele>1618.000000</ele>
		<time>2013-08-31T02:14:47Z</time>
		</trkpt>

		<trkpt lat="37.862619" lon="-1.483752">
			<ele>1625.000000</ele>
		<time>2013-08-31T02:14:50Z</time>
		</trkpt>

		<trkpt lat="37.862531" lon="-1.484068">
			<ele>1633.000000</ele>
		<time>2013-08-31T02:14:53Z</time>
		</trkpt>

		<trkpt lat="37.862400" lon="-1.484103">
			<ele>1640.000000</ele>
		<time>2013-08-31T02:14:56Z</time>
		</trkpt>

		<trkpt lat="37.862408" lon="-1.483881">
			<ele>1648.000000</ele>
		<time>2013-08-31T02:14:59Z</time>
		</trkpt>

		<trkpt lat="37.862645" lon="-1.483621">
			<ele>1654.000000</ele>
		<time>2013-08-31T02:15:02Z</time>
		</trkpt>

		<trkpt lat="37.863028" lon="-1.483630">
			<ele>1660.000000</ele>
		<time>2013-08-31T02:15:05Z</time>
		</trkpt>

		<trkpt lat="37.863354" lon="-1.483741">
			<ele>1666.000000</ele>
		<time>2013-08-31T02:15:08Z</time>
		</trkpt>

		<trkpt lat="37.863525" lon="-1.484126">
			<ele>1669.000000</ele>
		<time>2013-08-31T02:15:11Z</time>
		</trkpt>

		<trkpt lat="37.863484" lon="-1.484401">
			<ele>1674.000000</ele>
		<time>2013-08-31T02:15:14Z</time>
		</trkpt>

		<trkpt lat="37.863382" lon="-1.484665">
			<ele>1678.000000</ele>
		<time>2013-08-31T02:15:17Z</time>
		</trkpt>

		<trkpt lat="37.863186" lon="-1.484769">
			<ele>1681.000000</ele>
		<time>2013-08-31T02:15:20Z</time>
		</trkpt>

		<trkpt lat="37.863033" lon="-1.484649">
			<ele>1690.000000</ele>
		<time>2013-08-31T02:15:23Z</time>
		</trkpt>

		<trkpt lat="37.863151" lon="-1.484264">
			<ele>1697.000000</ele>
		<time>2013-08-31T02:15:26Z</time>
		</trkpt>

		<trkpt lat="37.863437" lon="-1.483928">
			<ele>1704.000000</ele>
		<time>2013-08-31T02:15:29Z</time>
		</trkpt>

		<trkpt lat="37.863718" lon="-1.483994">
			<ele>1712.000000</ele>
		<time>2013-08-31T02:15:32Z</time>
		</trkpt>

		<trkpt lat="37.863933" lon="-1.484276">
			<ele>1717.000000</ele>
		<time>2013-08-31T02:15:35Z</time>
		</trkpt>

		<trkpt lat="37.863987" lon="-1.484635">
			<ele>1719.000000</ele>
		<time>2013-08-31T02:15:38Z</time>
		</trkpt>

		<trkpt lat="37.863895" lon="-1.484809">
			<ele>1726.000000</ele>
		<time>2013-08-31T02:15:41Z</time>
		</trkpt>

		<trkpt lat="37.863760" lon="-1.484949">
			<ele>1730.000000</ele>
		<time>2013-08-31T02:15:44Z</time>
		</trkpt>

		<trkpt lat="37.863594" lon="-1.485130">
			<ele>1734.000000</ele>
		<time>2013-08-31T02:15:47Z</time>
		</trkpt>

		<trkpt lat="37.863417" lon="-1.485340">
			<ele>1741.000000</ele>
		<time>2013-08-31T02:15:50Z</time>
		</trkpt>

		<trkpt lat="37.863318" lon="-1.485615">
			<ele>1748.000000</ele>
		<time>2013-08-31T02:15:53Z</time>
		</trkpt>

		<trkpt lat="37.863310" lon="-1.486050">
			<ele>1754.000000</ele>
		<time>2013-08-31T02:15:56Z</time>
		</trkpt>

		<trkpt lat="37.863492" lon="-1.486430">
			<ele>1760.000000</ele>
		<time>2013-08-31T02:15:59Z</time>
		</trkpt>

		<trkpt lat="37.863860" lon="-1.486606">
			<ele>1763.000000</ele>
		<time>2013-08-31T02:16:02Z</time>
		</trkpt>

		<trkpt lat="37.864239" lon="-1.486475">
			<ele>1764.000000</ele>
		<time>2013-08-31T02:16:05Z</time>
		</trkpt>

		<trkpt lat="37.864292" lon="-1.486149">
			<ele>1764.000000</ele>
		<time>2013-08-31T02:16:08Z</time>
		</trkpt>

		<trkpt lat="37.864081" lon="-1.485860">
			<ele>1763.000000</ele>
		<time>2013-08-31T02:16:11Z</time>
		</trkpt>

		<trkpt lat="37.863828" lon="-1.485924">
			<ele>1766.000000</ele>
		<time>2013-08-31T02:16:14Z</time>
		</trkpt>

		<trkpt lat="37.863637" lon="-1.486138">
			<ele>1774.000000</ele>
		<time>2013-08-31T02:16:17Z</time>
		</trkpt>

		<trkpt lat="37.863474" lon="-1.486486">
			<ele>1782.000000</ele>
		<time>2013-08-31T02:16:20Z</time>
		</trkpt>

		<trkpt lat="37.863348" lon="-1.486803">
			<ele>1792.000000</ele>
		<time>2013-08-31T02:16:23Z</time>
		</trkpt>

		<trkpt lat="37.863217" lon="-1.487165">
			<ele>1800.000000</ele>
		<time>2013-08-31T02:16:26Z</time>
		</trkpt>

		<trkpt lat="37.863097" lon="-1.487558">
			<ele>1810.000000</ele>
		<time>2013-08-31T02:16:29Z</time>
		</trkpt>

		<trkpt lat="37.863038" lon="-1.487882">
			<ele>1820.000000</ele>
		<time>2013-08-31T02:16:32Z</time>
		</trkpt>

		<trkpt lat="37.862971" lon="-1.488162">
			<ele>1831.000000</ele>
		<time>2013-08-31T02:16:35Z</time>
		</trkpt>

		<trkpt lat="37.862904" lon="-1.488445">
			<ele>1841.000000</ele>
		<time>2013-08-31T02:16:38Z</time>
		</trkpt>

		<trkpt lat="37.862990" lon="-1.488840">
			<ele>1849.000000</ele>
		<time>2013-08-31T02:16:41Z</time>
		</trkpt>

		<trkpt lat="37.863096" lon="-1.489226">
			<ele>1856.000000</ele>
		<time>2013-08-31T02:16:44Z</time>
		</trkpt>

		<trkpt lat="37.862997" lon="-1.489583">
			<ele>1861.000000</ele>
		<time>2013-08-31T02:16:47Z</time>
		</trkpt>

		<trkpt lat="37.862835" lon="-1.489883">
			<ele>1866.000000</ele>
		<time>2013-08-31T02:16:50Z</time>
		</trkpt>

		<trkpt lat="37.862627" lon="-1.490104">
			<ele>1870.000000</ele>
		<time>2013-08-31T02:16:53Z</time>
		</trkpt>

		<trkpt lat="37.862398" lon="-1.490418">
			<ele>1872.000000</ele>
		<time>2013-08-31T02:16:56Z</time>
		</trkpt>

		<trkpt lat="37.862181" lon="-1.490784">
			<ele>1876.000000</ele>
		<time>2013-08-31T02:16:59Z</time>
		</trkpt>

		<trkpt lat="37.861996" lon="-1.491073">
			<ele>1880.000000</ele>
		<time>2013-08-31T02:17:02Z</time>
		</trkpt>

		<trkpt lat="37.861809" lon="-1.491368">
			<ele>1882.000000</ele>
		<time>2013-08-31T02:17:05Z</time>
		</trkpt>

		<trkpt lat="37.861628" lon="-1.491687">
			<ele>1883.000000</ele>
		<time>2013-08-31T02:17:08Z</time>
		</trkpt>

		<trkpt lat="37.861445" lon="-1.492019">
			<ele>1885.000000</ele>
		<time>2013-08-31T02:17:11Z</time>
		</trkpt>

		<trkpt lat="37.861319" lon="-1.492353">
			<ele>1889.000000</ele>
		<time>2013-08-31T02:17:14Z</time>
		</trkpt>

		<trkpt lat="37.861283" lon="-1.492750">
			<ele>1890.000000</ele>
		<time>2013-08-31T02:17:17Z</time>
		</trkpt>

		<trkpt lat="37.861175" lon="-1.493204">
			<ele>1890.000000</ele>
		<time>2013-08-31T02:17:20Z</time>
		</trkpt>

		<trkpt lat="37.861022" lon="-1.493591">
			<ele>1889.000000</ele>
		<time>2013-08-31T02:17:23Z</time>
		</trkpt>

		<trkpt lat="37.860829" lon="-1.493960">
			<ele>1889.000000</ele>
		<time>2013-08-31T02:17:26Z</time>
		</trkpt>

		<trkpt lat="37.860635" lon="-1.494335">
			<ele>1888.000000</ele>
		<time>2013-08-31T02:17:29Z</time>
		</trkpt>

		<trkpt lat="37.860446" lon="-1.494707">
			<ele>1886.000000</ele>
		<time>2013-08-31T02:17:32Z</time>
		</trkpt>

		<trkpt lat="37.860204" lon="-1.495134">
			<ele>1880.000000</ele>
		<time>2013-08-31T02:17:35Z</time>
		</trkpt>

		<trkpt lat="37.859980" lon="-1.495517">
			<ele>1875.000000</ele>
		<time>2013-08-31T02:17:38Z</time>
		</trkpt>

		<trkpt lat="37.859744" lon="-1.495885">
			<ele>1873.000000</ele>
		<time>2013-08-31T02:17:41Z</time>
		</trkpt>

		<trkpt lat="37.859501" lon="-1.496236">
			<ele>1869.000000</ele>
		<time>2013-08-31T02:17:44Z</time>
		</trkpt>

		<trkpt lat="37.859244" lon="-1.496544">
			<ele>1867.000000</ele>
		<time>2013-08-31T02:17:47Z</time>
		</trkpt>

		<trkpt lat="37.858972" lon="-1.496906">
			<ele>1863.000000</ele>
		<time>2013-08-31T02:17:50Z</time>
		</trkpt>

		<trkpt lat="37.858687" lon="-1.497250">
			<ele>1860.000000</ele>
		<time>2013-08-31T02:17:53Z</time>
		</trkpt>

		<trkpt lat="37.858450" lon="-1.497547">
			<ele>1862.000000</ele>
		<time>2013-08-31T02:17:56Z</time>
		</trkpt>

		<trkpt lat="37.858204" lon="-1.497880">
			<ele>1861.000000</ele>
		<time>2013-08-31T02:17:59Z</time>
		</trkpt>

		<trkpt lat="37.857986" lon="-1.498202">
			<ele>1860.000000</ele>
		<time>2013-08-31T02:18:02Z</time>
		</trkpt>

		<trkpt lat="37.857710" lon="-1.498372">
			<ele>1854.000000</ele>
		<time>2013-08-31T02:18:05Z</time>
		</trkpt>

		<trkpt lat="37.857424" lon="-1.498582">
			<ele>1845.000000</ele>
		<time>2013-08-31T02:18:08Z</time>
		</trkpt>

		<trkpt lat="37.857068" lon="-1.498818">
			<ele>1840.000000</ele>
		<time>2013-08-31T02:18:11Z</time>
		</trkpt>

		<trkpt lat="37.856754" lon="-1.499085">
			<ele>1833.000000</ele>
		<time>2013-08-31T02:18:14Z</time>
		</trkpt>

		<trkpt lat="37.856472" lon="-1.499330">
			<ele>1829.000000</ele>
		<time>2013-08-31T02:18:17Z</time>
		</trkpt>

		<trkpt lat="37.856205" lon="-1.499591">
			<ele>1822.000000</ele>
		<time>2013-08-31T02:18:20Z</time>
		</trkpt>

		<trkpt lat="37.855921" lon="-1.499790">
			<ele>1821.000000</ele>
		<time>2013-08-31T02:18:23Z</time>
		</trkpt>

		<trkpt lat="37.855744" lon="-1.500073">
			<ele>1819.000000</ele>
		<time>2013-08-31T02:18:26Z</time>
		</trkpt>

		<trkpt lat="37.855594" lon="-1.500464">
			<ele>1813.000000</ele>
		<time>2013-08-31T02:18:29Z</time>
		</trkpt>

		<trkpt lat="37.855396" lon="-1.500675">
			<ele>1809.000000</ele>
		<time>2013-08-31T02:18:32Z</time>
		</trkpt>

		<trkpt lat="37.855191" lon="-1.500953">
			<ele>1799.000000</ele>
		<time>2013-08-31T02:18:35Z</time>
		</trkpt>

		<trkpt lat="37.854951" lon="-1.501187">
			<ele>1796.000000</ele>
		<time>2013-08-31T02:18:38Z</time>
		</trkpt>

		<trkpt lat="37.854724" lon="-1.501361">
			<ele>1790.000000</ele>
		<time>2013-08-31T02:18:41Z</time>
		</trkpt>

		<trkpt lat="37.854495" lon="-1.501589">
			<ele>1780.000000</ele>
		<time>2013-08-31T02:18:44Z</time>
		</trkpt>

		<trkpt lat="37.854297" lon="-1.501880">
			<ele>1772.000000</ele>
		<time>2013-08-31T02:18:47Z</time>
		</trkpt>

		<trkpt lat="37.854124" lon="-1.502197">
			<ele>1765.000000</ele>
		<time>2013-08-31T02:18:50Z</time>
		</trkpt>

		<trkpt lat="37.853983" lon="-1.502491">
			<ele>1760.000000</ele>
		<time>2013-08-31T02:18:53Z</time>
		</trkpt>

		<trkpt lat="37.853887" lon="-1.502755">
			<ele>1759.000000</ele>
		<time>2013-08-31T02:18:56Z</time>
		</trkpt>

		<trkpt lat="37.853812" lon="-1.503079">
			<ele>1757.000000</ele>
		<time>2013-08-31T02:18:59Z</time>
		</trkpt>

		<trkpt lat="37.853800" lon="-1.503434">
			<ele>1755.000000</ele>
		<time>2013-08-31T02:19:02Z</time>
		</trkpt>

		<trkpt lat="37.853824" lon="-1.503793">
			<ele>1751.000000</ele>
		<time>2013-08-31T02:19:05Z</time>
		</trkpt>

		<trkpt lat="37.853814" lon="-1.504197">
			<ele>1749.000000</ele>
		<time>2013-08-31T02:19:08Z</time>
		</trkpt>

		<trkpt lat="37.853790" lon="-1.504611">
			<ele>1747.000000</ele>
		<time>2013-08-31T02:19:11Z</time>
		</trkpt>

		<trkpt lat="37.853782" lon="-1.505008">
			<ele>1747.000000</ele>
		<time>2013-08-31T02:19:14Z</time>
		</trkpt>

		<trkpt lat="37.853777" lon="-1.505444">
			<ele>1748.000000</ele>
		<time>2013-08-31T02:19:17Z</time>
		</trkpt>

		<trkpt lat="37.853764" lon="-1.505855">
			<ele>1752.000000</ele>
		<time>2013-08-31T02:19:20Z</time>
		</trkpt>

		<trkpt lat="37.853740" lon="-1.506233">
			<ele>1756.000000</ele>
		<time>2013-08-31T02:19:23Z</time>
		</trkpt>

		<trkpt lat="37.853687" lon="-1.506671">
			<ele>1759.000000</ele>
		<time>2013-08-31T02:19:26Z</time>
		</trkpt>

		<trkpt lat="37.853615" lon="-1.507086">
			<ele>1763.000000</ele>
		<time>2013-08-31T02:19:29Z</time>
		</trkpt>

		<trkpt lat="37.853532" lon="-1.507505">
			<ele>1765.000000</ele>
		<time>2013-08-31T02:19:32Z</time>
		</trkpt>

		<trkpt lat="37.853481" lon="-1.507940">
			<ele>1768.000000</ele>
		<time>2013-08-31T02:19:35Z</time>
		</trkpt>

		<trkpt lat="37.853442" lon="-1.508380">
			<ele>1770.000000</ele>
		<time>2013-08-31T02:19:38Z</time>
		</trkpt>

		<trkpt lat="37.853378" lon="-1.508817">
			<ele>1770.000000</ele>
		<time>2013-08-31T02:19:41Z</time>
		</trkpt>

		<trkpt lat="37.853305" lon="-1.509178">
			<ele>1770.000000</ele>
		<time>2013-08-31T02:19:44Z</time>
		</trkpt>

		<trkpt lat="37.853242" lon="-1.509557">
			<ele>1769.000000</ele>
		<time>2013-08-31T02:19:47Z</time>
		</trkpt>

		<trkpt lat="37.853192" lon="-1.509905">
			<ele>1770.000000</ele>
		<time>2013-08-31T02:19:50Z</time>
		</trkpt>

		<trkpt lat="37.853138" lon="-1.510271">
			<ele>1769.000000</ele>
		<time>2013-08-31T02:19:53Z</time>
		</trkpt>

		<trkpt lat="37.853073" lon="-1.510659">
			<ele>1766.000000</ele>
		<time>2013-08-31T02:19:56Z</time>
		</trkpt>

		<trkpt lat="37.853004" lon="-1.511029">
			<ele>1763.000000</ele>
		<time>2013-08-31T02:19:59Z</time>
		</trkpt>

		<trkpt lat="37.852902" lon="-1.511372">
			<ele>1758.000000</ele>
		<time>2013-08-31T02:20:02Z</time>
		</trkpt>

		<trkpt lat="37.852767" lon="-1.511765">
			<ele>1753.000000</ele>
		<time>2013-08-31T02:20:05Z</time>
		</trkpt>

		<trkpt lat="37.852638" lon="-1.512135">
			<ele>1745.000000</ele>
		<time>2013-08-31T02:20:08Z</time>
		</trkpt>

		<trkpt lat="37.852482" lon="-1.512604">
			<ele>1735.000000</ele>
		<time>2013-08-31T02:20:11Z</time>
		</trkpt>

		<trkpt lat="37.852266" lon="-1.513033">
			<ele>1728.000000</ele>
		<time>2013-08-31T02:20:14Z</time>
		</trkpt>

		<trkpt lat="37.852041" lon="-1.513406">
			<ele>1723.000000</ele>
		<time>2013-08-31T02:20:17Z</time>
		</trkpt>

		<trkpt lat="37.851832" lon="-1.513728">
			<ele>1718.000000</ele>
		<time>2013-08-31T02:20:20Z</time>
		</trkpt>

		<trkpt lat="37.851640" lon="-1.514075">
			<ele>1714.000000</ele>
		<time>2013-08-31T02:20:23Z</time>
		</trkpt>

		<trkpt lat="37.851468" lon="-1.514411">
			<ele>1711.000000</ele>
		<time>2013-08-31T02:20:26Z</time>
		</trkpt>

		<trkpt lat="37.851271" lon="-1.514775">
			<ele>1704.000000</ele>
		<time>2013-08-31T02:20:29Z</time>
		</trkpt>

		<trkpt lat="37.851085" lon="-1.515145">
			<ele>1702.000000</ele>
		<time>2013-08-31T02:20:32Z</time>
		</trkpt>

		<trkpt lat="37.850880" lon="-1.515483">
			<ele>1697.000000</ele>
		<time>2013-08-31T02:20:35Z</time>
		</trkpt>

		<trkpt lat="37.850654" lon="-1.515841">
			<ele>1694.000000</ele>
		<time>2013-08-31T02:20:38Z</time>
		</trkpt>

		<trkpt lat="37.850457" lon="-1.516155">
			<ele>1691.000000</ele>
		<time>2013-08-31T02:20:41Z</time>
		</trkpt>

		<trkpt lat="37.850273" lon="-1.516468">
			<ele>1691.000000</ele>
		<time>2013-08-31T02:20:44Z</time>
		</trkpt>

		<trkpt lat="37.850116" lon="-1.516766">
			<ele>1690.000000</ele>
		<time>2013-08-31T02:20:47Z</time>
		</trkpt>

		<trkpt lat="37.849926" lon="-1.517119">
			<ele>1687.000000</ele>
		<time>2013-08-31T02:20:50Z</time>
		</trkpt>

		<trkpt lat="37.849738" lon="-1.517486">
			<ele>1685.000000</ele>
		<time>2013-08-31T02:20:53Z</time>
		</trkpt>

		<trkpt lat="37.849510" lon="-1.517828">
			<ele>1684.000000</ele>
		<time>2013-08-31T02:20:56Z</time>
		</trkpt>

		<trkpt lat="37.849268" lon="-1.518140">
			<ele>1685.000000</ele>
		<time>2013-08-31T02:20:59Z</time>
		</trkpt>

		<trkpt lat="37.849048" lon="-1.518486">
			<ele>1683.000000</ele>
		<time>2013-08-31T02:21:02Z</time>
		</trkpt>

		<trkpt lat="37.848870" lon="-1.518879">
			<ele>1682.000000</ele>
		<time>2013-08-31T02:21:05Z</time>
		</trkpt>

		<trkpt lat="37.848703" lon="-1.519300">
			<ele>1681.000000</ele>
		<time>2013-08-31T02:21:08Z</time>
		</trkpt>

		<trkpt lat="37.848541" lon="-1.519717">
			<ele>1679.000000</ele>
		<time>2013-08-31T02:21:11Z</time>
		</trkpt>

		<trkpt lat="37.848386" lon="-1.520157">
			<ele>1678.000000</ele>
		<time>2013-08-31T02:21:14Z</time>
		</trkpt>

		<trkpt lat="37.848243" lon="-1.520594">
			<ele>1676.000000</ele>
		<time>2013-08-31T02:21:17Z</time>
		</trkpt>

		<trkpt lat="37.848127" lon="-1.520983">
			<ele>1678.000000</ele>
		<time>2013-08-31T02:21:20Z</time>
		</trkpt>

		<trkpt lat="37.847988" lon="-1.521315">
			<ele>1679.000000</ele>
		<time>2013-08-31T02:21:23Z</time>
		</trkpt>

		<trkpt lat="37.847822" lon="-1.521702">
			<ele>1677.000000</ele>
		<time>2013-08-31T02:21:26Z</time>
		</trkpt>

		<trkpt lat="37.847662" lon="-1.522079">
			<ele>1675.000000</ele>
		<time>2013-08-31T02:21:29Z</time>
		</trkpt>

		<trkpt lat="37.847512" lon="-1.522485">
			<ele>1673.000000</ele>
		<time>2013-08-31T02:21:32Z</time>
		</trkpt>

		<trkpt lat="37.847391" lon="-1.522920">
			<ele>1671.000000</ele>
		<time>2013-08-31T02:21:35Z</time>
		</trkpt>

		<trkpt lat="37.847312" lon="-1.523331">
			<ele>1668.000000</ele>
		<time>2013-08-31T02:21:38Z</time>
		</trkpt>

		<trkpt lat="37.847243" lon="-1.523737">
			<ele>1664.000000</ele>
		<time>2013-08-31T02:21:41Z</time>
		</trkpt>

		<trkpt lat="37.847197" lon="-1.524165">
			<ele>1660.000000</ele>
		<time>2013-08-31T02:21:44Z</time>
		</trkpt>

		<trkpt lat="37.847187" lon="-1.524581">
			<ele>1657.000000</ele>
		<time>2013-08-31T02:21:47Z</time>
		</trkpt>

		<trkpt lat="37.847130" lon="-1.524948">
			<ele>1653.000000</ele>
		<time>2013-08-31T02:21:50Z</time>
		</trkpt>

		<trkpt lat="37.846874" lon="-1.525268">
			<ele>1646.000000</ele>
		<time>2013-08-31T02:21:53Z</time>
		</trkpt>

		<trkpt lat="37.846719" lon="-1.525659">
			<ele>1639.000000</ele>
		<time>2013-08-31T02:21:56Z</time>
		</trkpt>

		<trkpt lat="37.846630" lon="-1.526009">
			<ele>1635.000000</ele>
		<time>2013-08-31T02:21:59Z</time>
		</trkpt>

		<trkpt lat="37.846551" lon="-1.526341">
			<ele>1628.000000</ele>
		<time>2013-08-31T02:22:02Z</time>
		</trkpt>

		<trkpt lat="37.846447" lon="-1.526729">
			<ele>1620.000000</ele>
		<time>2013-08-31T02:22:05Z</time>
		</trkpt>

		<trkpt lat="37.846332" lon="-1.527150">
			<ele>1615.000000</ele>
		<time>2013-08-31T02:22:08Z</time>
		</trkpt>

		<trkpt lat="37.846191" lon="-1.527582">
			<ele>1610.000000</ele>
		<time>2013-08-31T02:22:11Z</time>
		</trkpt>

		<trkpt lat="37.846034" lon="-1.528022">
			<ele>1606.000000</ele>
		<time>2013-08-31T02:22:14Z</time>
		</trkpt>

		<trkpt lat="37.845872" lon="-1.528444">
			<ele>1602.000000</ele>
		<time>2013-08-31T02:22:17Z</time>
		</trkpt>

		<trkpt lat="37.845711" lon="-1.528928">
			<ele>1601.000000</ele>
		<time>2013-08-31T02:22:20Z</time>
		</trkpt>

		<trkpt lat="37.845558" lon="-1.529367">
			<ele>1604.000000</ele>
		<time>2013-08-31T02:22:23Z</time>
		</trkpt>

		<trkpt lat="37.845417" lon="-1.529801">
			<ele>1608.000000</ele>
		<time>2013-08-31T02:22:26Z</time>
		</trkpt>

		<trkpt lat="37.845279" lon="-1.530181">
			<ele>1612.000000</ele>
		<time>2013-08-31T02:22:29Z</time>
		</trkpt>

		<trkpt lat="37.845150" lon="-1.530542">
			<ele>1614.000000</ele>
		<time>2013-08-31T02:22:32Z</time>
		</trkpt>

		<trkpt lat="37.845021" lon="-1.531017">
			<ele>1613.000000</ele>
		<time>2013-08-31T02:22:35Z</time>
		</trkpt>

		<trkpt lat="37.844922" lon="-1.531487">
			<ele>1613.000000</ele>
		<time>2013-08-31T02:22:38Z</time>
		</trkpt>

		<trkpt lat="37.844859" lon="-1.531948">
			<ele>1613.000000</ele>
		<time>2013-08-31T02:22:41Z</time>
		</trkpt>

		<trkpt lat="37.844776" lon="-1.532387">
			<ele>1615.000000</ele>
		<time>2013-08-31T02:22:44Z</time>
		</trkpt>

		<trkpt lat="37.844690" lon="-1.532831">
			<ele>1617.000000</ele>
		<time>2013-08-31T02:22:47Z</time>
		</trkpt>

		<trkpt lat="37.844707" lon="-1.533289">
			<ele>1616.000000</ele>
		<time>2013-08-31T02:22:50Z</time>
		</trkpt>

		<trkpt lat="37.844723" lon="-1.533744">
			<ele>1616.000000</ele>
		<time>2013-08-31T02:22:53Z</time>
		</trkpt>

		<trkpt lat="37.844759" lon="-1.534193">
			<ele>1615.000000</ele>
		<time>2013-08-31T02:22:56Z</time>
		</trkpt>

		<trkpt lat="37.844807" lon="-1.534642">
			<ele>1617.000000</ele>
		<time>2013-08-31T02:22:59Z</time>
		</trkpt>

		<trkpt lat="37.844885" lon="-1.535037">
			<ele>1619.000000</ele>
		<time>2013-08-31T02:23:02Z</time>
		</trkpt>

		<trkpt lat="37.844987" lon="-1.535476">
			<ele>1617.000000</ele>
		<time>2013-08-31T02:23:05Z</time>
		</trkpt>

		<trkpt lat="37.845107" lon="-1.535907">
			<ele>1615.000000</ele>
		<time>2013-08-31T02:23:08Z</time>
		</trkpt>

		<trkpt lat="37.845185" lon="-1.536339">
			<ele>1614.000000</ele>
		<time>2013-08-31T02:23:11Z</time>
		</trkpt>

		<trkpt lat="37.845223" lon="-1.536722">
			<ele>1613.000000</ele>
		<time>2013-08-31T02:23:14Z</time>
		</trkpt>

		<trkpt lat="37.845230" lon="-1.537202">
			<ele>1611.000000</ele>
		<time>2013-08-31T02:23:17Z</time>
		</trkpt>

		<trkpt lat="37.845274" lon="-1.537700">
			<ele>1609.000000</ele>
		<time>2013-08-31T02:23:20Z</time>
		</trkpt>

		<trkpt lat="37.845346" lon="-1.538210">
			<ele>1605.000000</ele>
		<time>2013-08-31T02:23:23Z</time>
		</trkpt>

		<trkpt lat="37.845438" lon="-1.538670">
			<ele>1603.000000</ele>
		<time>2013-08-31T02:23:26Z</time>
		</trkpt>

		<trkpt lat="37.845651" lon="-1.539103">
			<ele>1601.000000</ele>
		<time>2013-08-31T02:23:29Z</time>
		</trkpt>

		<trkpt lat="37.845915" lon="-1.539432">
			<ele>1597.000000</ele>
		<time>2013-08-31T02:23:32Z</time>
		</trkpt>

		<trkpt lat="37.846214" lon="-1.539716">
			<ele>1596.000000</ele>
		<time>2013-08-31T02:23:35Z</time>
		</trkpt>

		<trkpt lat="37.846522" lon="-1.539902">
			<ele>1597.000000</ele>
		<time>2013-08-31T02:23:38Z</time>
		</trkpt>

		<trkpt lat="37.846801" lon="-1.540033">
			<ele>1599.000000</ele>
		<time>2013-08-31T02:23:41Z</time>
		</trkpt>

		<trkpt lat="37.847152" lon="-1.540089">
			<ele>1600.000000</ele>
		<time>2013-08-31T02:23:44Z</time>
		</trkpt>

		<trkpt lat="37.847450" lon="-1.540108">
			<ele>1602.000000</ele>
		<time>2013-08-31T02:23:47Z</time>
		</trkpt>

		<trkpt lat="37.847733" lon="-1.540263">
			<ele>1602.000000</ele>
		<time>2013-08-31T02:23:50Z</time>
		</trkpt>

		<trkpt lat="37.847896" lon="-1.540637">
			<ele>1601.000000</ele>
		<time>2013-08-31T02:23:53Z</time>
		</trkpt>

		<trkpt lat="37.847796" lon="-1.541057">
			<ele>1601.000000</ele>
		<time>2013-08-31T02:23:56Z</time>
		</trkpt>

		<trkpt lat="37.847581" lon="-1.541305">
			<ele>1601.000000</ele>
		<time>2013-08-31T02:23:59Z</time>
		</trkpt>

		<trkpt lat="37.847279" lon="-1.541365">
			<ele>1600.000000</ele>
		<time>2013-08-31T02:24:02Z</time>
		</trkpt>

		<trkpt lat="37.847032" lon="-1.541237">
			<ele>1602.000000</ele>
		<time>2013-08-31T02:24:05Z</time>
		</trkpt>

		<trkpt lat="37.846860" lon="-1.541008">
			<ele>1601.000000</ele>
		<time>2013-08-31T02:24:08Z</time>
		</trkpt>

		<trkpt lat="37.846741" lon="-1.540741">
			<ele>1603.000000</ele>
		<time>2013-08-31T02:24:11Z</time>
		</trkpt>

		<trkpt lat="37.846654" lon="-1.540542">
			<ele>1603.000000</ele>
		<time>2013-08-31T02:24:14Z</time>
		</trkpt>

		<trkpt lat="37.846589" lon="-1.540299">
			<ele>1602.000000</ele>
		<time>2013-08-31T02:24:17Z</time>
		</trkpt>

		<trkpt lat="37.846434" lon="-1.540108">
			<ele>1603.000000</ele>
		<time>2013-08-31T02:24:20Z</time>
		</trkpt>

		<trkpt lat="37.846216" lon="-1.540016">
			<ele>1603.000000</ele>
		<time>2013-08-31T02:24:23Z</time>
		</trkpt>

		<trkpt lat="37.845991" lon="-1.539953">
			<ele>1602.000000</ele>
		<time>2013-08-31T02:24:26Z</time>
		</trkpt>

		<trkpt lat="37.845807" lon="-1.539874">
			<ele>1602.000000</ele>
		<time>2013-08-31T02:24:29Z</time>
		</trkpt>

		<trkpt lat="37.845619" lon="-1.539756">
			<ele>1600.000000</ele>
		<time>2013-08-31T02:24:32Z</time>
		</trkpt>

		<trkpt lat="37.845436" lon="-1.539593">
			<ele>1599.000000</ele>
		<time>2013-08-31T02:24:35Z</time>
		</trkpt>

		<trkpt lat="37.845317" lon="-1.539397">
			<ele>1598.000000</ele>
		<time>2013-08-31T02:24:38Z</time>
		</trkpt>

		<trkpt lat="37.845241" lon="-1.539134">
			<ele>1597.000000</ele>
		<time>2013-08-31T02:24:41Z</time>
		</trkpt>

		<trkpt lat="37.845181" lon="-1.538923">
			<ele>1597.000000</ele>
		<time>2013-08-31T02:24:44Z</time>
		</trkpt>

		<trkpt lat="37.845158" lon="-1.538742">
			<ele>1595.000000</ele>
		<time>2013-08-31T02:24:47Z</time>
		</trkpt>

		<trkpt lat="37.844954" lon="-1.538577">
			<ele>1593.000000</ele>
		<time>2013-08-31T02:24:50Z</time>
		</trkpt>

		<trkpt lat="37.844743" lon="-1.538477">
			<ele>1592.000000</ele>
		<time>2013-08-31T02:24:53Z</time>
		</trkpt>

		<trkpt lat="37.844553" lon="-1.538378">
			<ele>1588.000000</ele>
		<time>2013-08-31T02:24:56Z</time>
		</trkpt>

		<trkpt lat="37.844490" lon="-1.538144">
			<ele>1587.000000</ele>
		<time>2013-08-31T02:24:59Z</time>
		</trkpt>

		<trkpt lat="37.844633" lon="-1.537934">
			<ele>1590.000000</ele>
		<time>2013-08-31T02:25:02Z</time>
		</trkpt>

		<trkpt lat="37.844649" lon="-1.537763">
			<ele>1591.000000</ele>
		<time>2013-08-31T02:25:05Z</time>
		</trkpt>

		<trkpt lat="37.844475" lon="-1.537646">
			<ele>1591.000000</ele>
		<time>2013-08-31T02:25:08Z</time>
		</trkpt>

		<trkpt lat="37.844226" lon="-1.537761">
			<ele>1593.000000</ele>
		<time>2013-08-31T02:25:11Z</time>
		</trkpt>

		<trkpt lat="37.843996" lon="-1.538030">
			<ele>1593.000000</ele>
		<time>2013-08-31T02:25:14Z</time>
		</trkpt>

		<trkpt lat="37.843910" lon="-1.538486">
			<ele>1602.000000</ele>
		<time>2013-08-31T02:25:17Z</time>
		</trkpt>

		<trkpt lat="37.843770" lon="-1.538691">
			<ele>1609.000000</ele>
		<time>2013-08-31T02:25:20Z</time>
		</trkpt>

		<trkpt lat="37.843480" lon="-1.538637">
			<ele>1614.000000</ele>
		<time>2013-08-31T02:25:23Z</time>
		</trkpt>

		<trkpt lat="37.843562" lon="-1.538352">
			<ele>1618.000000</ele>
		<time>2013-08-31T02:25:26Z</time>
		</trkpt>

		<trkpt lat="37.843891" lon="-1.538561">
			<ele>1620.000000</ele>
		<time>2013-08-31T02:25:29Z</time>
		</trkpt>

		<trkpt lat="37.843885" lon="-1.538957">
			<ele>1627.000000</ele>
		<time>2013-08-31T02:25:32Z</time>
		</trkpt>

		<trkpt lat="37.843959" lon="-1.539361">
			<ele>1636.000000</ele>
		<time>2013-08-31T02:25:35Z</time>
		</trkpt>

		<trkpt lat="37.844173" lon="-1.539916">
			<ele>1641.000000</ele>
		<time>2013-08-31T02:25:38Z</time>
		</trkpt>

		<trkpt lat="37.844499" lon="-1.540196">
			<ele>1648.000000</ele>
		<time>2013-08-31T02:25:41Z</time>
		</trkpt>

		<trkpt lat="37.844809" lon="-1.540242">
			<ele>1652.000000</ele>
		<time>2013-08-31T02:25:44Z</time>
		</trkpt>

		<trkpt lat="37.845015" lon="-1.540009">
			<ele>1647.000000</ele>
		<time>2013-08-31T02:25:47Z</time>
		</trkpt>

		<trkpt lat="37.844769" lon="-1.539803">
			<ele>1646.000000</ele>
		<time>2013-08-31T02:25:50Z</time>
		</trkpt>

		<trkpt lat="37.844522" lon="-1.539809">
			<ele>1648.000000</ele>
		<time>2013-08-31T02:25:53Z</time>
		</trkpt>

		<trkpt lat="37.844220" lon="-1.539972">
			<ele>1649.000000</ele>
		<time>2013-08-31T02:25:56Z</time>
		</trkpt>

		<trkpt lat="37.843963" lon="-1.540359">
			<ele>1655.000000</ele>
		<time>2013-08-31T02:25:59Z</time>
		</trkpt>

		<trkpt lat="37.843762" lon="-1.540634">
			<ele>1664.000000</ele>
		<time>2013-08-31T02:26:02Z</time>
		</trkpt>

		<trkpt lat="37.843568" lon="-1.540879">
			<ele>1669.000000</ele>
		<time>2013-08-31T02:26:05Z</time>
		</trkpt>

		<trkpt lat="37.843382" lon="-1.541095">
			<ele>1674.000000</ele>
		<time>2013-08-31T02:26:08Z</time>
		</trkpt>

		<trkpt lat="37.843146" lon="-1.540959">
			<ele>1682.000000</ele>
		<time>2013-08-31T02:26:11Z</time>
		</trkpt>

		<trkpt lat="37.842896" lon="-1.540888">
			<ele>1685.000000</ele>
		<time>2013-08-31T02:26:14Z</time>
		</trkpt>

		<trkpt lat="37.842773" lon="-1.540682">
			<ele>1686.000000</ele>
		<time>2013-08-31T02:26:17Z</time>
		</trkpt>

		<trkpt lat="37.842990" lon="-1.540487">
			<ele>1691.000000</ele>
		<time>2013-08-31T02:26:20Z</time>
		</trkpt>

		<trkpt lat="37.843239" lon="-1.540644">
			<ele>1697.000000</ele>
		<time>2013-08-31T02:26:23Z</time>
		</trkpt>

		<trkpt lat="37.843427" lon="-1.541115">
			<ele>1700.000000</ele>
		<time>2013-08-31T02:26:26Z</time>
		</trkpt>

		<trkpt lat="37.843374" lon="-1.541474">
			<ele>1709.000000</ele>
		<time>2013-08-31T02:26:29Z</time>
		</trkpt>

		<trkpt lat="37.843337" lon="-1.541890">
			<ele>1717.000000</ele>
		<time>2013-08-31T02:26:32Z</time>
		</trkpt>

		<trkpt lat="37.843205" lon="-1.542286">
			<ele>1721.000000</ele>
		<time>2013-08-31T02:26:35Z</time>
		</trkpt>

		<trkpt lat="37.842888" lon="-1.542458">
			<ele>1726.000000</ele>
		<time>2013-08-31T02:26:38Z</time>
		</trkpt>

		<trkpt lat="37.842768" lon="-1.542307">
			<ele>1731.000000</ele>
		<time>2013-08-31T02:26:41Z</time>
		</trkpt>

		<trkpt lat="37.842747" lon="-1.542073">
			<ele>1734.000000</ele>
		<time>2013-08-31T02:26:44Z</time>
		</trkpt>

		<trkpt lat="37.842779" lon="-1.541896">
			<ele>1739.000000</ele>
		<time>2013-08-31T02:26:47Z</time>
		</trkpt>

		<trkpt lat="37.842933" lon="-1.541745">
			<ele>1742.000000</ele>
		<time>2013-08-31T02:26:50Z</time>
		</trkpt>

		<trkpt lat="37.843154" lon="-1.541615">
			<ele>1748.000000</ele>
		<time>2013-08-31T02:26:53Z</time>
		</trkpt>

		<trkpt lat="37.843390" lon="-1.541561">
			<ele>1752.000000</ele>
		<time>2013-08-31T02:26:56Z</time>
		</trkpt>

		<trkpt lat="37.843679" lon="-1.541650">
			<ele>1756.000000</ele>
		<time>2013-08-31T02:26:59Z</time>
		</trkpt>

		<trkpt lat="37.843893" lon="-1.541959">
			<ele>1762.000000</ele>
		<time>2013-08-31T02:27:02Z</time>
		</trkpt>

		<trkpt lat="37.843975" lon="-1.542337">
			<ele>1766.000000</ele>
		<time>2013-08-31T02:27:05Z</time>
		</trkpt>

		<trkpt lat="37.843829" lon="-1.542680">
			<ele>1770.000000</ele>
		<time>2013-08-31T02:27:08Z</time>
		</trkpt>

		<trkpt lat="37.843665" lon="-1.542931">
			<ele>1777.000000</ele>
		<time>2013-08-31T02:27:11Z</time>
		</trkpt>

		<trkpt lat="37.843467" lon="-1.543139">
			<ele>1781.000000</ele>
		<time>2013-08-31T02:27:14Z</time>
		</trkpt>

		<trkpt lat="37.843213" lon="-1.543345">
			<ele>1784.000000</ele>
		<time>2013-08-31T02:27:17Z</time>
		</trkpt>

		<trkpt lat="37.842960" lon="-1.543520">
			<ele>1788.000000</ele>
		<time>2013-08-31T02:27:20Z</time>
		</trkpt>

		<trkpt lat="37.842700" lon="-1.543575">
			<ele>1791.000000</ele>
		<time>2013-08-31T02:27:23Z</time>
		</trkpt>

		<trkpt lat="37.842499" lon="-1.543476">
			<ele>1793.000000</ele>
		<time>2013-08-31T02:27:26Z</time>
		</trkpt>

		<trkpt lat="37.842421" lon="-1.543353">
			<ele>1796.000000</ele>
		<time>2013-08-31T02:27:29Z</time>
		</trkpt>

		<trkpt lat="37.842493" lon="-1.543232">
			<ele>1796.000000</ele>
		<time>2013-08-31T02:27:32Z</time>
		</trkpt>

		<trkpt lat="37.842659" lon="-1.543120">
			<ele>1799.000000</ele>
		<time>2013-08-31T02:27:35Z</time>
		</trkpt>

		<trkpt lat="37.842788" lon="-1.542963">
			<ele>1801.000000</ele>
		<time>2013-08-31T02:27:38Z</time>
		</trkpt>

		<trkpt lat="37.842893" lon="-1.542764">
			<ele>1807.000000</ele>
		<time>2013-08-31T02:27:41Z</time>
		</trkpt>

		<trkpt lat="37.843034" lon="-1.542732">
			<ele>1816.000000</ele>
		<time>2013-08-31T02:27:44Z</time>
		</trkpt>

		<trkpt lat="37.843159" lon="-1.543094">
			<ele>1824.000000</ele>
		<time>2013-08-31T02:27:47Z</time>
		</trkpt>

		<trkpt lat="37.843012" lon="-1.543615">
			<ele>1829.000000</ele>
		<time>2013-08-31T02:27:50Z</time>
		</trkpt>

		<trkpt lat="37.842775" lon="-1.543824">
			<ele>1836.000000</ele>
		<time>2013-08-31T02:27:53Z</time>
		</trkpt>

		<trkpt lat="37.842644" lon="-1.543724">
			<ele>1843.000000</ele>
		<time>2013-08-31T02:27:56Z</time>
		</trkpt>

		<trkpt lat="37.842660" lon="-1.543522">
			<ele>1851.000000</ele>
		<time>2013-08-31T02:27:59Z</time>
		</trkpt>

		<trkpt lat="37.842783" lon="-1.543395">
			<ele>1860.000000</ele>
		<time>2013-08-31T02:28:02Z</time>
		</trkpt>

		<trkpt lat="37.842987" lon="-1.543518">
			<ele>1866.000000</ele>
		<time>2013-08-31T02:28:05Z</time>
		</trkpt>

		<trkpt lat="37.843199" lon="-1.543856">
			<ele>1871.000000</ele>
		<time>2013-08-31T02:28:08Z</time>
		</trkpt>

		<trkpt lat="37.843116" lon="-1.544331">
			<ele>1879.000000</ele>
		<time>2013-08-31T02:28:11Z</time>
		</trkpt>

		<trkpt lat="37.842956" lon="-1.544679">
			<ele>1887.000000</ele>
		<time>2013-08-31T02:28:14Z</time>
		</trkpt>

		<trkpt lat="37.842661" lon="-1.544903">
			<ele>1892.000000</ele>
		<time>2013-08-31T02:28:17Z</time>
		</trkpt>

		<trkpt lat="37.842375" lon="-1.545011">
			<ele>1897.000000</ele>
		<time>2013-08-31T02:28:20Z</time>
		</trkpt>

		<trkpt lat="37.842270" lon="-1.544868">
			<ele>1902.000000</ele>
		<time>2013-08-31T02:28:23Z</time>
		</trkpt>

		<trkpt lat="37.842388" lon="-1.544841">
			<ele>1907.000000</ele>
		<time>2013-08-31T02:28:26Z</time>
		</trkpt>

		<trkpt lat="37.842557" lon="-1.545012">
			<ele>1917.000000</ele>
		<time>2013-08-31T02:28:29Z</time>
		</trkpt>

		<trkpt lat="37.842758" lon="-1.545164">
			<ele>1925.000000</ele>
		<time>2013-08-31T02:28:32Z</time>
		</trkpt>

		<trkpt lat="37.843063" lon="-1.545511">
			<ele>1928.000000</ele>
		<time>2013-08-31T02:28:35Z</time>
		</trkpt>

		<trkpt lat="37.842959" lon="-1.546100">
			<ele>1933.000000</ele>
		<time>2013-08-31T02:28:38Z</time>
		</trkpt>

		<trkpt lat="37.842625" lon="-1.546087">
			<ele>1939.000000</ele>
		<time>2013-08-31T02:28:41Z</time>
		</trkpt>

		<trkpt lat="37.842527" lon="-1.545861">
			<ele>1944.000000</ele>
		<time>2013-08-31T02:28:44Z</time>
		</trkpt>

		<trkpt lat="37.842585" lon="-1.545703">
			<ele>1953.000000</ele>
		<time>2013-08-31T02:28:47Z</time>
		</trkpt>

		<trkpt lat="37.842696" lon="-1.545698">
			<ele>1961.000000</ele>
		<time>2013-08-31T02:28:50Z</time>
		</trkpt>

		<trkpt lat="37.842941" lon="-1.545963">
			<ele>1966.000000</ele>
		<time>2013-08-31T02:28:53Z</time>
		</trkpt>

		<trkpt lat="37.843011" lon="-1.546270">
			<ele>1975.000000</ele>
		<time>2013-08-31T02:28:56Z</time>
		</trkpt>

		<trkpt lat="37.842896" lon="-1.546647">
			<ele>1978.000000</ele>
		<time>2013-08-31T02:28:59Z</time>
		</trkpt>

		<trkpt lat="37.842555" lon="-1.546816">
			<ele>1979.000000</ele>
		<time>2013-08-31T02:29:02Z</time>
		</trkpt>

		<trkpt lat="37.842355" lon="-1.546709">
			<ele>1985.000000</ele>
		<time>2013-08-31T02:29:05Z</time>
		</trkpt>

		<trkpt lat="37.842287" lon="-1.546542">
			<ele>1991.000000</ele>
		<time>2013-08-31T02:29:08Z</time>
		</trkpt>

		<trkpt lat="37.842314" lon="-1.546307">
			<ele>1997.000000</ele>
		<time>2013-08-31T02:29:11Z</time>
		</trkpt>

		<trkpt lat="37.842415" lon="-1.546129">
			<ele>2007.000000</ele>
		<time>2013-08-31T02:29:14Z</time>
		</trkpt>

		<trkpt lat="37.842583" lon="-1.546074">
			<ele>2012.000000</ele>
		<time>2013-08-31T02:29:17Z</time>
		</trkpt>

		<trkpt lat="37.842898" lon="-1.546148">
			<ele>2014.000000</ele>
		<time>2013-08-31T02:29:20Z</time>
		</trkpt>

		<trkpt lat="37.843186" lon="-1.546286">
			<ele>2019.000000</ele>
		<time>2013-08-31T02:29:23Z</time>
		</trkpt>

		<trkpt lat="37.843406" lon="-1.546571">
			<ele>2025.000000</ele>
		<time>2013-08-31T02:29:26Z</time>
		</trkpt>

		<trkpt lat="37.843607" lon="-1.546818">
			<ele>2030.000000</ele>
		<time>2013-08-31T02:29:29Z</time>
		</trkpt>

		<trkpt lat="37.843899" lon="-1.546989">
			<ele>2034.000000</ele>
		<time>2013-08-31T02:29:32Z</time>
		</trkpt>

		<trkpt lat="37.844205" lon="-1.546976">
			<ele>2039.000000</ele>
		<time>2013-08-31T02:29:35Z</time>
		</trkpt>

		<trkpt lat="37.844466" lon="-1.546977">
			<ele>2042.000000</ele>
		<time>2013-08-31T02:29:38Z</time>
		</trkpt>

		<trkpt lat="37.844787" lon="-1.546962">
			<ele>2045.000000</ele>
		<time>2013-08-31T02:29:41Z</time>
		</trkpt>

		<trkpt lat="37.845095" lon="-1.546886">
			<ele>2052.000000</ele>
		<time>2013-08-31T02:29:44Z</time>
		</trkpt>

		<trkpt lat="37.845400" lon="-1.546785">
			<ele>2054.000000</ele>
		<time>2013-08-31T02:29:47Z</time>
		</trkpt>

		<trkpt lat="37.845737" lon="-1.546661">
			<ele>2055.000000</ele>
		<time>2013-08-31T02:29:50Z</time>
		</trkpt>

		<trkpt lat="37.846036" lon="-1.546548">
			<ele>2057.000000</ele>
		<time>2013-08-31T02:29:53Z</time>
		</trkpt>

		<trkpt lat="37.846288" lon="-1.546455">
			<ele>2058.000000</ele>
		<time>2013-08-31T02:29:56Z</time>
		</trkpt>

		<trkpt lat="37.846573" lon="-1.546325">
			<ele>2055.000000</ele>
		<time>2013-08-31T02:29:59Z</time>
		</trkpt>

		<trkpt lat="37.846851" lon="-1.546246">
			<ele>2052.000000</ele>
		<time>2013-08-31T02:30:02Z</time>
		</trkpt>

		<trkpt lat="37.847119" lon="-1.546163">
			<ele>2047.000000</ele>
		<time>2013-08-31T02:30:05Z</time>
		</trkpt>

		<trkpt lat="37.847432" lon="-1.546093">
			<ele>2042.000000</ele>
		<time>2013-08-31T02:30:08Z</time>
		</trkpt>

		<trkpt lat="37.847702" lon="-1.546045">
			<ele>2039.000000</ele>
		<time>2013-08-31T02:30:11Z</time>
		</trkpt>

		<trkpt lat="37.848020" lon="-1.545991">
			<ele>2034.000000</ele>
		<time>2013-08-31T02:30:14Z</time>
		</trkpt>

		<trkpt lat="37.848336" lon="-1.545910">
			<ele>2032.000000</ele>
		<time>2013-08-31T02:30:17Z</time>
		</trkpt>

		<trkpt lat="37.848617" lon="-1.545796">
			<ele>2027.000000</ele>
		<time>2013-08-31T02:30:20Z</time>
		</trkpt>

		<trkpt lat="37.848873" lon="-1.545668">
			<ele>2023.000000</ele>
		<time>2013-08-31T02:30:23Z</time>
		</trkpt>

		<trkpt lat="37.849115" lon="-1.545545">
			<ele>2018.000000</ele>
		<time>2013-08-31T02:30:26Z</time>
		</trkpt>

		<trkpt lat="37.849385" lon="-1.545438">
			<ele>2013.000000</ele>
		<time>2013-08-31T02:30:29Z</time>
		</trkpt>

		<trkpt lat="37.849654" lon="-1.545371">
			<ele>2010.000000</ele>
		<time>2013-08-31T02:30:32Z</time>
		</trkpt>

		<trkpt lat="37.849919" lon="-1.545292">
			<ele>2006.000000</ele>
		<time>2013-08-31T02:30:35Z</time>
		</trkpt>

		<trkpt lat="37.850145" lon="-1.545233">
			<ele>2001.000000</ele>
		<time>2013-08-31T02:30:38Z</time>
		</trkpt>

		<trkpt lat="37.850430" lon="-1.545117">
			<ele>1995.000000</ele>
		<time>2013-08-31T02:30:41Z</time>
		</trkpt>

		<trkpt lat="37.850685" lon="-1.545007">
			<ele>1993.000000</ele>
		<time>2013-08-31T02:30:44Z</time>
		</trkpt>

		<trkpt lat="37.850951" lon="-1.544855">
			<ele>1987.000000</ele>
		<time>2013-08-31T02:30:47Z</time>
		</trkpt>

		<trkpt lat="37.851227" lon="-1.544639">
			<ele>1982.000000</ele>
		<time>2013-08-31T02:30:50Z</time>
		</trkpt>

		<trkpt lat="37.851417" lon="-1.544432">
			<ele>1977.000000</ele>
		<time>2013-08-31T02:30:53Z</time>
		</trkpt>

		<trkpt lat="37.851649" lon="-1.544224">
			<ele>1973.000000</ele>
		<time>2013-08-31T02:30:56Z</time>
		</trkpt>

		<trkpt lat="37.851874" lon="-1.543994">
			<ele>1969.000000</ele>
		<time>2013-08-31T02:30:59Z</time>
		</trkpt>

		<trkpt lat="37.852087" lon="-1.543792">
			<ele>1964.000000</ele>
		<time>2013-08-31T02:31:02Z</time>
		</trkpt>

		<trkpt lat="37.852329" lon="-1.543608">
			<ele>1960.000000</ele>
		<time>2013-08-31T02:31:05Z</time>
		</trkpt>

		<trkpt lat="37.852596" lon="-1.543445">
			<ele>1954.000000</ele>
		<time>2013-08-31T02:31:08Z</time>
		</trkpt>

		<trkpt lat="37.852854" lon="-1.543296">
			<ele>1948.000000</ele>
		<time>2013-08-31T02:31:11Z</time>
		</trkpt>

		<trkpt lat="37.853088" lon="-1.543139">
			<ele>1946.000000</ele>
		<time>2013-08-31T02:31:14Z</time>
		</trkpt>

		<trkpt lat="37.853314" lon="-1.542980">
			<ele>1942.000000</ele>
		<time>2013-08-31T02:31:17Z</time>
		</trkpt>

		<trkpt lat="37.853547" lon="-1.542787">
			<ele>1937.000000</ele>
		<time>2013-08-31T02:31:20Z</time>
		</trkpt>

		<trkpt lat="37.853822" lon="-1.542601">
			<ele>1933.000000</ele>
		<time>2013-08-31T02:31:23Z</time>
		</trkpt>

		<trkpt lat="37.854070" lon="-1.542485">
			<ele>1930.000000</ele>
		<time>2013-08-31T02:31:26Z</time>
		</trkpt>

		<trkpt lat="37.854332" lon="-1.542382">
			<ele>1926.000000</ele>
		<time>2013-08-31T02:31:29Z</time>
		</trkpt>

		<trkpt lat="37.854602" lon="-1.542290">
			<ele>1920.000000</ele>
		<time>2013-08-31T02:31:32Z</time>
		</trkpt>

		<trkpt lat="37.854865" lon="-1.542226">
			<ele>1913.000000</ele>
		<time>2013-08-31T02:31:35Z</time>
		</trkpt>

		<trkpt lat="37.855155" lon="-1.542150">
			<ele>1907.000000</ele>
		<time>2013-08-31T02:31:38Z</time>
		</trkpt>

		<trkpt lat="37.855475" lon="-1.542043">
			<ele>1903.000000</ele>
		<time>2013-08-31T02:31:41Z</time>
		</trkpt>

		<trkpt lat="37.855744" lon="-1.541952">
			<ele>1899.000000</ele>
		<time>2013-08-31T02:31:44Z</time>
		</trkpt>

		<trkpt lat="37.856050" lon="-1.541824">
			<ele>1897.000000</ele>
		<time>2013-08-31T02:31:47Z</time>
		</trkpt>

		<trkpt lat="37.856262" lon="-1.541758">
			<ele>1900.000000</ele>
		<time>2013-08-31T02:31:50Z</time>
		</trkpt>

		<trkpt lat="37.856502" lon="-1.541682">
			<ele>1900.000000</ele>
		<time>2013-08-31T02:31:53Z</time>
		</trkpt>

		<trkpt lat="37.856827" lon="-1.541614">
			<ele>1897.000000</ele>
		<time>2013-08-31T02:31:56Z</time>
		</trkpt>

		<trkpt lat="37.857129" lon="-1.541532">
			<ele>1894.000000</ele>
		<time>2013-08-31T02:31:59Z</time>
		</trkpt>

		<trkpt lat="37.857409" lon="-1.541443">
			<ele>1888.000000</ele>
		<time>2013-08-31T02:32:02Z</time>
		</trkpt>

		<trkpt lat="37.857651" lon="-1.541411">
			<ele>1882.000000</ele>
		<time>2013-08-31T02:32:05Z</time>
		</trkpt>

		<trkpt lat="37.857906" lon="-1.541383">
			<ele>1875.000000</ele>
		<time>2013-08-31T02:32:08Z</time>
		</trkpt>

		<trkpt lat="37.858163" lon="-1.541404">
			<ele>1873.000000</ele>
		<time>2013-08-31T02:32:11Z</time>
		</trkpt>

		<trkpt lat="37.858397" lon="-1.541423">
			<ele>1869.000000</ele>
		<time>2013-08-31T02:32:14Z</time>
		</trkpt>

		<trkpt lat="37.858655" lon="-1.541429">
			<ele>1864.000000</ele>
		<time>2013-08-31T02:32:17Z</time>
		</trkpt>

		<trkpt lat="37.858901" lon="-1.541436">
			<ele>1862.000000</ele>
		<time>2013-08-31T02:32:20Z</time>
		</trkpt>

		<trkpt lat="37.859139" lon="-1.541448">
			<ele>1859.000000</ele>
		<time>2013-08-31T02:32:23Z</time>
		</trkpt>

		<trkpt lat="37.859396" lon="-1.541415">
			<ele>1858.000000</ele>
		<time>2013-08-31T02:32:26Z</time>
		</trkpt>

		<trkpt lat="37.859640" lon="-1.541388">
			<ele>1858.000000</ele>
		<time>2013-08-31T02:32:29Z</time>
		</trkpt>

		<trkpt lat="37.859871" lon="-1.541368">
			<ele>1853.000000</ele>
		<time>2013-08-31T02:32:32Z</time>
		</trkpt>

		<trkpt lat="37.860138" lon="-1.541337">
			<ele>1849.000000</ele>
		<time>2013-08-31T02:32:35Z</time>
		</trkpt>

		<trkpt lat="37.860416" lon="-1.541293">
			<ele>1849.000000</ele>
		<time>2013-08-31T02:32:38Z</time>
		</trkpt>

		<trkpt lat="37.860673" lon="-1.541257">
			<ele>1849.000000</ele>
		<time>2013-08-31T02:32:41Z</time>
		</trkpt>

		<trkpt lat="37.860956" lon="-1.541230">
			<ele>1847.000000</ele>
		<time>2013-08-31T02:32:44Z</time>
		</trkpt>

		<trkpt lat="37.861198" lon="-1.541194">
			<ele>1847.000000</ele>
		<time>2013-08-31T02:32:47Z</time>
		</trkpt>

		<trkpt lat="37.861471" lon="-1.541162">
			<ele>1844.000000</ele>
		<time>2013-08-31T02:32:50Z</time>
		</trkpt>

		<trkpt lat="37.861777" lon="-1.541132">
			<ele>1841.000000</ele>
		<time>2013-08-31T02:32:53Z</time>
		</trkpt>

		<trkpt lat="37.862046" lon="-1.541100">
			<ele>1840.000000</ele>
		<time>2013-08-31T02:32:56Z</time>
		</trkpt>

		<trkpt lat="37.862325" lon="-1.541028">
			<ele>1837.000000</ele>
		<time>2013-08-31T02:32:59Z</time>
		</trkpt>

		<trkpt lat="37.862570" lon="-1.540900">
			<ele>1833.000000</ele>
		<time>2013-08-31T02:33:02Z</time>
		</trkpt>

		<trkpt lat="37.862815" lon="-1.540732">
			<ele>1829.000000</ele>
		<time>2013-08-31T02:33:05Z</time>
		</trkpt>

		<trkpt lat="37.863013" lon="-1.540518">
			<ele>1827.000000</ele>
		<time>2013-08-31T02:33:08Z</time>
		</trkpt>

		<trkpt lat="37.863245" lon="-1.540299">
			<ele>1823.000000</ele>
		<time>2013-08-31T02:33:11Z</time>
		</trkpt>

		<trkpt lat="37.863484" lon="-1.540114">
			<ele>1819.000000</ele>
		<time>2013-08-31T02:33:14Z</time>
		</trkpt>

		<trkpt lat="37.863729" lon="-1.539972">
			<ele>1814.000000</ele>
		<time>2013-08-31T02:33:17Z</time>
		</trkpt>

		<trkpt lat="37.863993" lon="-1.539862">
			<ele>1809.000000</ele>
		<time>2013-08-31T02:33:20Z</time>
		</trkpt>

		<trkpt lat="37.864232" lon="-1.539726">
			<ele>1805.000000</ele>
		<time>2013-08-31T02:33:23Z</time>
		</trkpt>

		<trkpt lat="37.864467" lon="-1.539548">
			<ele>1799.000000</ele>
		<time>2013-08-31T02:33:26Z</time>
		</trkpt>

		<trkpt lat="37.864681" lon="-1.539283">
			<ele>1794.000000</ele>
		<time>2013-08-31T02:33:29Z</time>
		</trkpt>

		<trkpt lat="37.864921" lon="-1.539077">
			<ele>1787.000000</ele>
		<time>2013-08-31T02:33:32Z</time>
		</trkpt>

		<trkpt lat="37.865257" lon="-1.538846">
			<ele>1779.000000</ele>
		<time>2013-08-31T02:33:36Z</time>
		</trkpt>

		<trkpt lat="37.865512" lon="-1.538693">
			<ele>1774.000000</ele>
		<time>2013-08-31T02:33:39Z</time>
		</trkpt>

		<trkpt lat="37.865752" lon="-1.538568">
			<ele>1770.000000</ele>
		<time>2013-08-31T02:33:42Z</time>
		</trkpt>

		<trkpt lat="37.866002" lon="-1.538452">
			<ele>1765.000000</ele>
		<time>2013-08-31T02:33:45Z</time>
		</trkpt>

		<trkpt lat="37.866244" lon="-1.538327">
			<ele>1761.000000</ele>
		<time>2013-08-31T02:33:48Z</time>
		</trkpt>

		<trkpt lat="37.866471" lon="-1.538230">
			<ele>1755.000000</ele>
		<time>2013-08-31T02:33:51Z</time>
		</trkpt>

		<trkpt lat="37.866700" lon="-1.538095">
			<ele>1746.000000</ele>
		<time>2013-08-31T02:33:54Z</time>
		</trkpt>

		<trkpt lat="37.866866" lon="-1.538052">
			<ele>1739.000000</ele>
		<time>2013-08-31T02:33:57Z</time>
		</trkpt>

		<trkpt lat="37.867094" lon="-1.537996">
			<ele>1730.000000</ele>
		<time>2013-08-31T02:34:00Z</time>
		</trkpt>

		<trkpt lat="37.867388" lon="-1.538016">
			<ele>1721.000000</ele>
		<time>2013-08-31T02:34:03Z</time>
		</trkpt>

		<trkpt lat="37.867641" lon="-1.538111">
			<ele>1713.000000</ele>
		<time>2013-08-31T02:34:06Z</time>
		</trkpt>

		<trkpt lat="37.867921" lon="-1.538206">
			<ele>1703.000000</ele>
		<time>2013-08-31T02:34:09Z</time>
		</trkpt>

		<trkpt lat="37.868253" lon="-1.538193">
			<ele>1700.000000</ele>
		<time>2013-08-31T02:34:12Z</time>
		</trkpt>

		<trkpt lat="37.868541" lon="-1.538143">
			<ele>1695.000000</ele>
		<time>2013-08-31T02:34:15Z</time>
		</trkpt>

		<trkpt lat="37.868757" lon="-1.538064">
			<ele>1692.000000</ele>
		<time>2013-08-31T02:34:18Z</time>
		</trkpt>

		<trkpt lat="37.868979" lon="-1.537981">
			<ele>1686.000000</ele>
		<time>2013-08-31T02:34:21Z</time>
		</trkpt>

		<trkpt lat="37.869172" lon="-1.537857">
			<ele>1684.000000</ele>
		<time>2013-08-31T02:34:24Z</time>
		</trkpt>

		<trkpt lat="37.869381" lon="-1.537730">
			<ele>1684.000000</ele>
		<time>2013-08-31T02:34:27Z</time>
		</trkpt>

		<trkpt lat="37.869574" lon="-1.537606">
			<ele>1684.000000</ele>
		<time>2013-08-31T02:34:30Z</time>
		</trkpt>

		<trkpt lat="37.869764" lon="-1.537532">
			<ele>1687.000000</ele>
		<time>2013-08-31T02:34:33Z</time>
		</trkpt>

		<trkpt lat="37.869946" lon="-1.537489">
			<ele>1688.000000</ele>
		<time>2013-08-31T02:34:36Z</time>
		</trkpt>

		<trkpt lat="37.870202" lon="-1.537421">
			<ele>1687.000000</ele>
		<time>2013-08-31T02:34:39Z</time>
		</trkpt>

		<trkpt lat="37.870434" lon="-1.537374">
			<ele>1688.000000</ele>
		<time>2013-08-31T02:34:42Z</time>
		</trkpt>

		<trkpt lat="37.870646" lon="-1.537360">
			<ele>1688.000000</ele>
		<time>2013-08-31T02:34:45Z</time>
		</trkpt>

		<trkpt lat="37.870856" lon="-1.537452">
			<ele>1691.000000</ele>
		<time>2013-08-31T02:34:48Z</time>
		</trkpt>

		<trkpt lat="37.871116" lon="-1.537569">
			<ele>1691.000000</ele>
		<time>2013-08-31T02:34:51Z</time>
		</trkpt>

		<trkpt lat="37.871397" lon="-1.537703">
			<ele>1692.000000</ele>
		<time>2013-08-31T02:34:54Z</time>
		</trkpt>

		<trkpt lat="37.871595" lon="-1.537816">
			<ele>1693.000000</ele>
		<time>2013-08-31T02:34:57Z</time>
		</trkpt>

		<trkpt lat="37.871802" lon="-1.537932">
			<ele>1691.000000</ele>
		<time>2013-08-31T02:35:00Z</time>
		</trkpt>

		<trkpt lat="37.872006" lon="-1.538068">
			<ele>1689.000000</ele>
		<time>2013-08-31T02:35:03Z</time>
		</trkpt>

		<trkpt lat="37.872214" lon="-1.538185">
			<ele>1686.000000</ele>
		<time>2013-08-31T02:35:06Z</time>
		</trkpt>

		<trkpt lat="37.872481" lon="-1.538317">
			<ele>1681.000000</ele>
		<time>2013-08-31T02:35:09Z</time>
		</trkpt>

		<trkpt lat="37.872777" lon="-1.538378">
			<ele>1677.000000</ele>
		<time>2013-08-31T02:35:12Z</time>
		</trkpt>

		<trkpt lat="37.873018" lon="-1.538304">
			<ele>1673.000000</ele>
		<time>2013-08-31T02:35:15Z</time>
		</trkpt>

		<trkpt lat="37.873188" lon="-1.538131">
			<ele>1669.000000</ele>
		<time>2013-08-31T02:35:18Z</time>
		</trkpt>

		<trkpt lat="37.873402" lon="-1.537978">
			<ele>1665.000000</ele>
		<time>2013-08-31T02:35:21Z</time>
		</trkpt>

		<trkpt lat="37.873707" lon="-1.538068">
			<ele>1663.000000</ele>
		<time>2013-08-31T02:35:24Z</time>
		</trkpt>

		<trkpt lat="37.873900" lon="-1.538262">
			<ele>1665.000000</ele>
		<time>2013-08-31T02:35:27Z</time>
		</trkpt>

		<trkpt lat="37.874048" lon="-1.538601">
			<ele>1665.000000</ele>
		<time>2013-08-31T02:35:30Z</time>
		</trkpt>

		<trkpt lat="37.874104" lon="-1.538948">
			<ele>1666.000000</ele>
		<time>2013-08-31T02:35:33Z</time>
		</trkpt>

		<trkpt lat="37.874104" lon="-1.539326">
			<ele>1667.000000</ele>
		<time>2013-08-31T02:35:36Z</time>
		</trkpt>

		<trkpt lat="37.874079" lon="-1.539740">
			<ele>1668.000000</ele>
		<time>2013-08-31T02:35:39Z</time>
		</trkpt>

		<trkpt lat="37.874052" lon="-1.540124">
			<ele>1668.000000</ele>
		<time>2013-08-31T02:35:42Z</time>
		</trkpt>

		<trkpt lat="37.874077" lon="-1.540558">
			<ele>1665.000000</ele>
		<time>2013-08-31T02:35:45Z</time>
		</trkpt>

		<trkpt lat="37.874053" lon="-1.540898">
			<ele>1665.000000</ele>
		<time>2013-08-31T02:35:48Z</time>
		</trkpt>

		<trkpt lat="37.873925" lon="-1.541218">
			<ele>1667.000000</ele>
		<time>2013-08-31T02:35:51Z</time>
		</trkpt>

		<trkpt lat="37.873771" lon="-1.541533">
			<ele>1666.000000</ele>
		<time>2013-08-31T02:35:54Z</time>
		</trkpt>

		<trkpt lat="37.873695" lon="-1.541896">
			<ele>1661.000000</ele>
		<time>2013-08-31T02:35:57Z</time>
		</trkpt>

		<trkpt lat="37.873672" lon="-1.542376">
			<ele>1657.000000</ele>
		<time>2013-08-31T02:36:00Z</time>
		</trkpt>

		<trkpt lat="37.873605" lon="-1.542872">
			<ele>1653.000000</ele>
		<time>2013-08-31T02:36:03Z</time>
		</trkpt>

		<trkpt lat="37.873575" lon="-1.543334">
			<ele>1647.000000</ele>
		<time>2013-08-31T02:36:06Z</time>
		</trkpt>

		<trkpt lat="37.873801" lon="-1.543676">
			<ele>1640.000000</ele>
		<time>2013-08-31T02:36:09Z</time>
		</trkpt>

		<trkpt lat="37.874097" lon="-1.543787">
			<ele>1635.000000</ele>
		<time>2013-08-31T02:36:12Z</time>
		</trkpt>

		<trkpt lat="37.874343" lon="-1.543834">
			<ele>1629.000000</ele>
		<time>2013-08-31T02:36:15Z</time>
		</trkpt>

		<trkpt lat="37.874610" lon="-1.543853">
			<ele>1621.000000</ele>
		<time>2013-08-31T02:36:18Z</time>
		</trkpt>

		<trkpt lat="37.874785" lon="-1.543810">
			<ele>1615.000000</ele>
		<time>2013-08-31T02:36:21Z</time>
		</trkpt>

		<trkpt lat="37.874947" lon="-1.543656">
			<ele>1607.000000</ele>
		<time>2013-08-31T02:36:24Z</time>
		</trkpt>

		<trkpt lat="37.875095" lon="-1.543441">
			<ele>1603.000000</ele>
		<time>2013-08-31T02:36:27Z</time>
		</trkpt>

		<trkpt lat="37.875264" lon="-1.543192">
			<ele>1598.000000</ele>
		<time>2013-08-31T02:36:30Z</time>
		</trkpt>

		<trkpt lat="37.875456" lon="-1.542961">
			<ele>1593.000000</ele>
		<time>2013-08-31T02:36:33Z</time>
		</trkpt>

		<trkpt lat="37.875590" lon="-1.542726">
			<ele>1588.000000</ele>
		<time>2013-08-31T02:36:36Z</time>
		</trkpt>

		<trkpt lat="37.875661" lon="-1.542481">
			<ele>1585.000000</ele>
		<time>2013-08-31T02:36:39Z</time>
		</trkpt>

		<trkpt lat="37.875674" lon="-1.542178">
			<ele>1581.000000</ele>
		<time>2013-08-31T02:36:42Z</time>
		</trkpt>

		<trkpt lat="37.875687" lon="-1.541897">
			<ele>1577.000000</ele>
		<time>2013-08-31T02:36:45Z</time>
		</trkpt>

		<trkpt lat="37.875710" lon="-1.541613">
			<ele>1573.000000</ele>
		<time>2013-08-31T02:36:48Z</time>
		</trkpt>

		<trkpt lat="37.875740" lon="-1.541322">
			<ele>1569.000000</ele>
		<time>2013-08-31T02:36:51Z</time>
		</trkpt>

		<trkpt lat="37.875761" lon="-1.541046">
			<ele>1567.000000</ele>
		<time>2013-08-31T02:36:54Z</time>
		</trkpt>

		<trkpt lat="37.875772" lon="-1.540774">
			<ele>1565.000000</ele>
		<time>2013-08-31T02:36:57Z</time>
		</trkpt>

		<trkpt lat="37.875769" lon="-1.540497">
			<ele>1561.000000</ele>
		<time>2013-08-31T02:37:00Z</time>
		</trkpt>

		<trkpt lat="37.875783" lon="-1.540162">
			<ele>1557.000000</ele>
		<time>2013-08-31T02:37:03Z</time>
		</trkpt>

		<trkpt lat="37.875761" lon="-1.539874">
			<ele>1559.000000</ele>
		<time>2013-08-31T02:37:06Z</time>
		</trkpt>

		<trkpt lat="37.875738" lon="-1.539704">
			<ele>1562.000000</ele>
		<time>2013-08-31T02:37:09Z</time>
		</trkpt>

		<trkpt lat="37.875593" lon="-1.539551">
			<ele>1561.000000</ele>
		<time>2013-08-31T02:37:12Z</time>
		</trkpt>

		<trkpt lat="37.875445" lon="-1.539404">
			<ele>1564.000000</ele>
		<time>2013-08-31T02:37:15Z</time>
		</trkpt>

		<trkpt lat="37.875374" lon="-1.539309">
			<ele>1564.000000</ele>
		<time>2013-08-31T02:37:18Z</time>
		</trkpt>

		<trkpt lat="37.875297" lon="-1.539091">
			<ele>1561.000000</ele>
		<time>2013-08-31T02:37:21Z</time>
		</trkpt>

		<trkpt lat="37.875210" lon="-1.538883">
			<ele>1559.000000</ele>
		<time>2013-08-31T02:37:24Z</time>
		</trkpt>

		<trkpt lat="37.875109" lon="-1.538681">
			<ele>1556.000000</ele>
		<time>2013-08-31T02:37:27Z</time>
		</trkpt>

		<trkpt lat="37.875058" lon="-1.538489">
			<ele>1554.000000</ele>
		<time>2013-08-31T02:37:30Z</time>
		</trkpt>

		<trkpt lat="37.875116" lon="-1.538262">
			<ele>1550.000000</ele>
		<time>2013-08-31T02:37:33Z</time>
		</trkpt>

		<trkpt lat="37.875210" lon="-1.538052">
			<ele>1548.000000</ele>
		<time>2013-08-31T02:37:36Z</time>
		</trkpt>

		<trkpt lat="37.875294" lon="-1.537836">
			<ele>1542.000000</ele>
		<time>2013-08-31T02:37:39Z</time>
		</trkpt>

		<trkpt lat="37.875441" lon="-1.537607">
			<ele>1537.000000</ele>
		<time>2013-08-31T02:37:42Z</time>
		</trkpt>

		<trkpt lat="37.875645" lon="-1.537452">
			<ele>1534.000000</ele>
		<time>2013-08-31T02:37:45Z</time>
		</trkpt>

		<trkpt lat="37.875840" lon="-1.537283">
			<ele>1531.000000</ele>
		<time>2013-08-31T02:37:48Z</time>
		</trkpt>

		<trkpt lat="37.876033" lon="-1.537067">
			<ele>1527.000000</ele>
		<time>2013-08-31T02:37:51Z</time>
		</trkpt>

		<trkpt lat="37.876214" lon="-1.536865">
			<ele>1526.000000</ele>
		<time>2013-08-31T02:37:54Z</time>
		</trkpt>

		<trkpt lat="37.876374" lon="-1.536706">
			<ele>1527.000000</ele>
		<time>2013-08-31T02:37:57Z</time>
		</trkpt>

		<trkpt lat="37.876527" lon="-1.536576">
			<ele>1527.000000</ele>
		<time>2013-08-31T02:38:00Z</time>
		</trkpt>

		<trkpt lat="37.876666" lon="-1.536447">
			<ele>1526.000000</ele>
		<time>2013-08-31T02:38:03Z</time>
		</trkpt>

		<trkpt lat="37.876846" lon="-1.536299">
			<ele>1524.000000</ele>
		<time>2013-08-31T02:38:06Z</time>
		</trkpt>

		<trkpt lat="37.877129" lon="-1.536256">
			<ele>1523.000000</ele>
		<time>2013-08-31T02:38:09Z</time>
		</trkpt>

		<trkpt lat="37.877378" lon="-1.536247">
			<ele>1523.000000</ele>
		<time>2013-08-31T02:38:12Z</time>
		</trkpt>

		<trkpt lat="37.877673" lon="-1.536312">
			<ele>1522.000000</ele>
		<time>2013-08-31T02:38:15Z</time>
		</trkpt>

		<trkpt lat="37.877953" lon="-1.536392">
			<ele>1523.000000</ele>
		<time>2013-08-31T02:38:18Z</time>
		</trkpt>

		<trkpt lat="37.878250" lon="-1.536571">
			<ele>1525.000000</ele>
		<time>2013-08-31T02:38:21Z</time>
		</trkpt>

		<trkpt lat="37.878489" lon="-1.536899">
			<ele>1528.000000</ele>
		<time>2013-08-31T02:38:24Z</time>
		</trkpt>

		<trkpt lat="37.878585" lon="-1.537341">
			<ele>1531.000000</ele>
		<time>2013-08-31T02:38:27Z</time>
		</trkpt>

		<trkpt lat="37.878475" lon="-1.537778">
			<ele>1533.000000</ele>
		<time>2013-08-31T02:38:30Z</time>
		</trkpt>

		<trkpt lat="37.878259" lon="-1.538048">
			<ele>1536.000000</ele>
		<time>2013-08-31T02:38:33Z</time>
		</trkpt>

		<trkpt lat="37.878018" lon="-1.538058">
			<ele>1536.000000</ele>
		<time>2013-08-31T02:38:36Z</time>
		</trkpt>

		<trkpt lat="37.877909" lon="-1.537811">
			<ele>1534.000000</ele>
		<time>2013-08-31T02:38:39Z</time>
		</trkpt>

		<trkpt lat="37.877917" lon="-1.537549">
			<ele>1532.000000</ele>
		<time>2013-08-31T02:38:42Z</time>
		</trkpt>

		<trkpt lat="37.878098" lon="-1.537332">
			<ele>1531.000000</ele>
		<time>2013-08-31T02:38:45Z</time>
		</trkpt>

		<trkpt lat="37.878307" lon="-1.537215">
			<ele>1532.000000</ele>
		<time>2013-08-31T02:38:48Z</time>
		</trkpt>

		<trkpt lat="37.878543" lon="-1.537134">
			<ele>1531.000000</ele>
		<time>2013-08-31T02:38:51Z</time>
		</trkpt>

		<trkpt lat="37.878814" lon="-1.537082">
			<ele>1532.000000</ele>
		<time>2013-08-31T02:38:54Z</time>
		</trkpt>

		<trkpt lat="37.879056" lon="-1.537036">
			<ele>1531.000000</ele>
		<time>2013-08-31T02:38:57Z</time>
		</trkpt>

		<trkpt lat="37.879335" lon="-1.536951">
			<ele>1529.000000</ele>
		<time>2013-08-31T02:39:00Z</time>
		</trkpt>

		<trkpt lat="37.879672" lon="-1.537062">
			<ele>1527.000000</ele>
		<time>2013-08-31T02:39:03Z</time>
		</trkpt>

		<trkpt lat="37.879940" lon="-1.537289">
			<ele>1527.000000</ele>
		<time>2013-08-31T02:39:06Z</time>
		</trkpt>

		<trkpt lat="37.880151" lon="-1.537663">
			<ele>1523.000000</ele>
		<time>2013-08-31T02:39:09Z</time>
		</trkpt>

		<trkpt lat="37.880210" lon="-1.538077">
			<ele>1522.000000</ele>
		<time>2013-08-31T02:39:12Z</time>
		</trkpt>

		<trkpt lat="37.880126" lon="-1.538450">
			<ele>1523.000000</ele>
		<time>2013-08-31T02:39:15Z</time>
		</trkpt>

		<trkpt lat="37.880023" lon="-1.538770">
			<ele>1523.000000</ele>
		<time>2013-08-31T02:39:18Z</time>
		</trkpt>

		<trkpt lat="37.879768" lon="-1.538947">
			<ele>1523.000000</ele>
		<time>2013-08-31T02:39:21Z</time>
		</trkpt>

		<trkpt lat="37.879573" lon="-1.538897">
			<ele>1524.000000</ele>
		<time>2013-08-31T02:39:24Z</time>
		</trkpt>

		<trkpt lat="37.879500" lon="-1.538683">
			<ele>1524.000000</ele>
		<time>2013-08-31T02:39:27Z</time>
		</trkpt>

		<trkpt lat="37.879634" lon="-1.538428">
			<ele>1524.000000</ele>
		<time>2013-08-31T02:39:30Z</time>
		</trkpt>

		<trkpt lat="37.879849" lon="-1.538293">
			<ele>1524.000000</ele>
		<time>2013-08-31T02:39:33Z</time>
		</trkpt>

		<trkpt lat="37.880110" lon="-1.538264">
			<ele>1524.000000</ele>
		<time>2013-08-31T02:39:36Z</time>
		</trkpt>

		<trkpt lat="37.880414" lon="-1.538335">
			<ele>1521.000000</ele>
		<time>2013-08-31T02:39:39Z</time>
		</trkpt>

		<trkpt lat="37.880768" lon="-1.538478">
			<ele>1518.000000</ele>
		<time>2013-08-31T02:39:42Z</time>
		</trkpt>

		<trkpt lat="37.881061" lon="-1.538691">
			<ele>1517.000000</ele>
		<time>2013-08-31T02:39:45Z</time>
		</trkpt>

		<trkpt lat="37.881337" lon="-1.538912">
			<ele>1515.000000</ele>
		<time>2013-08-31T02:39:48Z</time>
		</trkpt>

		<trkpt lat="37.881606" lon="-1.539118">
			<ele>1515.000000</ele>
		<time>2013-08-31T02:39:51Z</time>
		</trkpt>

		<trkpt lat="37.881882" lon="-1.539284">
			<ele>1513.000000</ele>
		<time>2013-08-31T02:39:54Z</time>
		</trkpt>

		<trkpt lat="37.882191" lon="-1.539488">
			<ele>1511.000000</ele>
		<time>2013-08-31T02:39:57Z</time>
		</trkpt>

		<trkpt lat="37.882470" lon="-1.539717">
			<ele>1511.000000</ele>
		<time>2013-08-31T02:40:00Z</time>
		</trkpt>

		<trkpt lat="37.882694" lon="-1.539975">
			<ele>1512.000000</ele>
		<time>2013-08-31T02:40:03Z</time>
		</trkpt>

		<trkpt lat="37.882932" lon="-1.540292">
			<ele>1512.000000</ele>
		<time>2013-08-31T02:40:06Z</time>
		</trkpt>

		<trkpt lat="37.883138" lon="-1.540627">
			<ele>1510.000000</ele>
		<time>2013-08-31T02:40:09Z</time>
		</trkpt>

		<trkpt lat="37.883303" lon="-1.541007">
			<ele>1509.000000</ele>
		<time>2013-08-31T02:40:12Z</time>
		</trkpt>

		<trkpt lat="37.883319" lon="-1.541455">
			<ele>1509.000000</ele>
		<time>2013-08-31T02:40:15Z</time>
		</trkpt>

		<trkpt lat="37.883171" lon="-1.541814">
			<ele>1509.000000</ele>
		<time>2013-08-31T02:40:18Z</time>
		</trkpt>

		<trkpt lat="37.882926" lon="-1.541951">
			<ele>1509.000000</ele>
		<time>2013-08-31T02:40:21Z</time>
		</trkpt>

		<trkpt lat="37.882739" lon="-1.541824">
			<ele>1506.000000</ele>
		<time>2013-08-31T02:40:24Z</time>
		</trkpt>

		<trkpt lat="37.882800" lon="-1.541548">
			<ele>1503.000000</ele>
		<time>2013-08-31T02:40:27Z</time>
		</trkpt>

		<trkpt lat="37.883022" lon="-1.541316">
			<ele>1503.000000</ele>
		<time>2013-08-31T02:40:30Z</time>
		</trkpt>

		<trkpt lat="37.883283" lon="-1.541126">
			<ele>1503.000000</ele>
		<time>2013-08-31T02:40:33Z</time>
		</trkpt>

		<trkpt lat="37.883588" lon="-1.540997">
			<ele>1501.000000</ele>
		<time>2013-08-31T02:40:36Z</time>
		</trkpt>

		<trkpt lat="37.883932" lon="-1.540927">
			<ele>1501.000000</ele>
		<time>2013-08-31T02:40:39Z</time>
		</trkpt>

		<trkpt lat="37.884237" lon="-1.540892">
			<ele>1504.000000</ele>
		<time>2013-08-31T02:40:42Z</time>
		</trkpt>

		<trkpt lat="37.884553" lon="-1.540881">
			<ele>1506.000000</ele>
		<time>2013-08-31T02:40:45Z</time>
		</trkpt>

		<trkpt lat="37.884838" lon="-1.540871">
			<ele>1506.000000</ele>
		<time>2013-08-31T02:40:48Z</time>
		</trkpt>

		<trkpt lat="37.885126" lon="-1.540855">
			<ele>1506.000000</ele>
		<time>2013-08-31T02:40:51Z</time>
		</trkpt>

		<trkpt lat="37.885402" lon="-1.540824">
			<ele>1506.000000</ele>
		<time>2013-08-31T02:40:54Z</time>
		</trkpt>

		<trkpt lat="37.885634" lon="-1.540770">
			<ele>1509.000000</ele>
		<time>2013-08-31T02:40:57Z</time>
		</trkpt>

		<trkpt lat="37.885856" lon="-1.540615">
			<ele>1511.000000</ele>
		<time>2013-08-31T02:41:00Z</time>
		</trkpt>

		<trkpt lat="37.886051" lon="-1.540433">
			<ele>1513.000000</ele>
		<time>2013-08-31T02:41:03Z</time>
		</trkpt>

		<trkpt lat="37.886275" lon="-1.540256">
			<ele>1519.000000</ele>
		<time>2013-08-31T02:41:06Z</time>
		</trkpt>

		<trkpt lat="37.886540" lon="-1.540436">
			<ele>1524.000000</ele>
		<time>2013-08-31T02:41:09Z</time>
		</trkpt>

		<trkpt lat="37.886678" lon="-1.540842">
			<ele>1522.000000</ele>
		<time>2013-08-31T02:41:12Z</time>
		</trkpt>

		<trkpt lat="37.886516" lon="-1.541125">
			<ele>1520.000000</ele>
		<time>2013-08-31T02:41:15Z</time>
		</trkpt>

		<trkpt lat="37.886283" lon="-1.541202">
			<ele>1522.000000</ele>
		<time>2013-08-31T02:41:18Z</time>
		</trkpt>

		<trkpt lat="37.886076" lon="-1.541238">
			<ele>1529.000000</ele>
		<time>2013-08-31T02:41:21Z</time>
		</trkpt>

		<trkpt lat="37.885951" lon="-1.541030">
			<ele>1531.000000</ele>
		<time>2013-08-31T02:41:24Z</time>
		</trkpt>

		<trkpt lat="37.886200" lon="-1.540663">
			<ele>1535.000000</ele>
		<time>2013-08-31T02:41:27Z</time>
		</trkpt>

		<trkpt lat="37.886538" lon="-1.540723">
			<ele>1540.000000</ele>
		<time>2013-08-31T02:41:30Z</time>
		</trkpt>

		<trkpt lat="37.886693" lon="-1.540971">
			<ele>1549.000000</ele>
		<time>2013-08-31T02:41:33Z</time>
		</trkpt>

		<trkpt lat="37.886840" lon="-1.541258">
			<ele>1554.000000</ele>
		<time>2013-08-31T02:41:36Z</time>
		</trkpt>

		<trkpt lat="37.886797" lon="-1.541598">
			<ele>1553.000000</ele>
		<time>2013-08-31T02:41:39Z</time>
		</trkpt>

		<trkpt lat="37.886598" lon="-1.541805">
			<ele>1556.000000</ele>
		<time>2013-08-31T02:41:42Z</time>
		</trkpt>

		<trkpt lat="37.886387" lon="-1.541837">
			<ele>1565.000000</ele>
		<time>2013-08-31T02:41:45Z</time>
		</trkpt>

		<trkpt lat="37.886279" lon="-1.541705">
			<ele>1568.000000</ele>
		<time>2013-08-31T02:41:48Z</time>
		</trkpt>

		<trkpt lat="37.886224" lon="-1.541368">
			<ele>1569.000000</ele>
		<time>2013-08-31T02:41:51Z</time>
		</trkpt>

		<trkpt lat="37.886544" lon="-1.541246">
			<ele>1572.000000</ele>
		<time>2013-08-31T02:41:54Z</time>
		</trkpt>

		<trkpt lat="37.886944" lon="-1.541461">
			<ele>1576.000000</ele>
		<time>2013-08-31T02:41:57Z</time>
		</trkpt>

		<trkpt lat="37.887197" lon="-1.541816">
			<ele>1580.000000</ele>
		<time>2013-08-31T02:42:00Z</time>
		</trkpt>

		<trkpt lat="37.887355" lon="-1.542198">
			<ele>1583.000000</ele>
		<time>2013-08-31T02:42:03Z</time>
		</trkpt>

		<trkpt lat="37.887442" lon="-1.542548">
			<ele>1587.000000</ele>
		<time>2013-08-31T02:42:06Z</time>
		</trkpt>

		<trkpt lat="37.887319" lon="-1.542901">
			<ele>1589.000000</ele>
		<time>2013-08-31T02:42:09Z</time>
		</trkpt>

		<trkpt lat="37.887056" lon="-1.543142">
			<ele>1591.000000</ele>
		<time>2013-08-31T02:42:12Z</time>
		</trkpt>

		<trkpt lat="37.886873" lon="-1.543008">
			<ele>1591.000000</ele>
		<time>2013-08-31T02:42:15Z</time>
		</trkpt>

		<trkpt lat="37.886933" lon="-1.542699">
			<ele>1590.000000</ele>
		<time>2013-08-31T02:42:18Z</time>
		</trkpt>

		<trkpt lat="37.887155" lon="-1.542456">
			<ele>1590.000000</ele>
		<time>2013-08-31T02:42:21Z</time>
		</trkpt>

		<trkpt lat="37.887450" lon="-1.542344">
			<ele>1593.000000</ele>
		<time>2013-08-31T02:42:24Z</time>
		</trkpt>

		<trkpt lat="37.887702" lon="-1.542367">
			<ele>1597.000000</ele>
		<time>2013-08-31T02:42:27Z</time>
		</trkpt>

		<trkpt lat="37.888004" lon="-1.542423">
			<ele>1598.000000</ele>
		<time>2013-08-31T02:42:30Z</time>
		</trkpt>

		<trkpt lat="37.888321" lon="-1.542629">
			<ele>1595.000000</ele>
		<time>2013-08-31T02:42:33Z</time>
		</trkpt>

		<trkpt lat="37.888483" lon="-1.543089">
			<ele>1595.000000</ele>
		<time>2013-08-31T02:42:36Z</time>
		</trkpt>

		<trkpt lat="37.888477" lon="-1.543570">
			<ele>1595.000000</ele>
		<time>2013-08-31T02:42:39Z</time>
		</trkpt>

		<trkpt lat="37.888344" lon="-1.543989">
			<ele>1593.000000</ele>
		<time>2013-08-31T02:42:42Z</time>
		</trkpt>

		<trkpt lat="37.888123" lon="-1.544270">
			<ele>1591.000000</ele>
		<time>2013-08-31T02:42:45Z</time>
		</trkpt>

		<trkpt lat="37.887886" lon="-1.544414">
			<ele>1593.000000</ele>
		<time>2013-08-31T02:42:48Z</time>
		</trkpt>

		<trkpt lat="37.887655" lon="-1.544389">
			<ele>1594.000000</ele>
		<time>2013-08-31T02:42:51Z</time>
		</trkpt>

		<trkpt lat="37.887479" lon="-1.544203">
			<ele>1596.000000</ele>
		<time>2013-08-31T02:42:54Z</time>
		</trkpt>

		<trkpt lat="37.887413" lon="-1.543951">
			<ele>1596.000000</ele>
		<time>2013-08-31T02:42:57Z</time>
		</trkpt>

		<trkpt lat="37.887312" lon="-1.543738">
			<ele>1597.000000</ele>
		<time>2013-08-31T02:43:00Z</time>
		</trkpt>

		<trkpt lat="37.887118" lon="-1.543672">
			<ele>1600.000000</ele>
		<time>2013-08-31T02:43:03Z</time>
		</trkpt>

		<trkpt lat="37.887017" lon="-1.543626">
			<ele>1605.000000</ele>
		<time>2013-08-31T02:43:06Z</time>
		</trkpt>

		<trkpt lat="37.886889" lon="-1.543489">
			<ele>1608.000000</ele>
		<time>2013-08-31T02:43:09Z</time>
		</trkpt>

		<trkpt lat="37.886822" lon="-1.543378">
			<ele>1612.000000</ele>
		<time>2013-08-31T02:43:12Z</time>
		</trkpt>

		<trkpt lat="37.886667" lon="-1.543411">
			<ele>1613.000000</ele>
		<time>2013-08-31T02:43:15Z</time>
		</trkpt>

		<trkpt lat="37.886530" lon="-1.543711">
			<ele>1618.000000</ele>
		<time>2013-08-31T02:43:18Z</time>
		</trkpt>

		<trkpt lat="37.886505" lon="-1.544086">
			<ele>1623.000000</ele>
		<time>2013-08-31T02:43:21Z</time>
		</trkpt>

		<trkpt lat="37.886717" lon="-1.544494">
			<ele>1624.000000</ele>
		<time>2013-08-31T02:43:24Z</time>
		</trkpt>

		<trkpt lat="37.887063" lon="-1.544568">
			<ele>1626.000000</ele>
		<time>2013-08-31T02:43:27Z</time>
		</trkpt>

		<trkpt lat="37.887275" lon="-1.544408">
			<ele>1628.000000</ele>
		<time>2013-08-31T02:43:30Z</time>
		</trkpt>

		<trkpt lat="37.887418" lon="-1.544179">
			<ele>1628.000000</ele>
		<time>2013-08-31T02:43:33Z</time>
		</trkpt>

		<trkpt lat="37.887357" lon="-1.543980">
			<ele>1629.000000</ele>
		<time>2013-08-31T02:43:36Z</time>
		</trkpt>

		<trkpt lat="37.887257" lon="-1.543835">
			<ele>1631.000000</ele>
		<time>2013-08-31T02:43:39Z</time>
		</trkpt>

		<trkpt lat="37.887130" lon="-1.543728">
			<ele>1634.000000</ele>
		<time>2013-08-31T02:43:42Z</time>
		</trkpt>

		<trkpt lat="37.887049" lon="-1.543559">
			<ele>1639.000000</ele>
		<time>2013-08-31T02:43:45Z</time>
		</trkpt>

		<trkpt lat="37.887017" lon="-1.543386">
			<ele>1642.000000</ele>
		<time>2013-08-31T02:43:48Z</time>
		</trkpt>

		<trkpt lat="37.887093" lon="-1.543172">
			<ele>1640.000000</ele>
		<time>2013-08-31T02:43:51Z</time>
		</trkpt>

		<trkpt lat="37.887311" lon="-1.543030">
			<ele>1638.000000</ele>
		<time>2013-08-31T02:43:54Z</time>
		</trkpt>

		<trkpt lat="37.887649" lon="-1.543242">
			<ele>1639.000000</ele>
		<time>2013-08-31T02:43:57Z</time>
		</trkpt>

		<trkpt lat="37.887894" lon="-1.543667">
			<ele>1639.000000</ele>
		<time>2013-08-31T02:44:00Z</time>
		</trkpt>

		<trkpt lat="37.887940" lon="-1.544144">
			<ele>1640.000000</ele>
		<time>2013-08-31T02:44:03Z</time>
		</trkpt>

		<trkpt lat="37.887845" lon="-1.544527">
			<ele>1637.000000</ele>
		<time>2013-08-31T02:44:06Z</time>
		</trkpt>

		<trkpt lat="37.887673" lon="-1.544694">
			<ele>1640.000000</ele>
		<time>2013-08-31T02:44:09Z</time>
		</trkpt>

		<trkpt lat="37.887532" lon="-1.544919">
			<ele>1642.000000</ele>
		<time>2013-08-31T02:44:12Z</time>
		</trkpt>

		<trkpt lat="37.887382" lon="-1.545205">
			<ele>1644.000000</ele>
		<time>2013-08-31T02:44:15Z</time>
		</trkpt>

		<trkpt lat="37.887314" lon="-1.545536">
			<ele>1645.000000</ele>
		<time>2013-08-31T02:44:18Z</time>
		</trkpt>

		<trkpt lat="37.887303" lon="-1.545966">
			<ele>1646.000000</ele>
		<time>2013-08-31T02:44:21Z</time>
		</trkpt>

		<trkpt lat="37.887441" lon="-1.546336">
			<ele>1646.000000</ele>
		<time>2013-08-31T02:44:24Z</time>
		</trkpt>

		<trkpt lat="37.887687" lon="-1.546638">
			<ele>1645.000000</ele>
		<time>2013-08-31T02:44:27Z</time>
		</trkpt>

		<trkpt lat="37.887969" lon="-1.546815">
			<ele>1646.000000</ele>
		<time>2013-08-31T02:44:30Z</time>
		</trkpt>

		<trkpt lat="37.888220" lon="-1.546872">
			<ele>1649.000000</ele>
		<time>2013-08-31T02:44:33Z</time>
		</trkpt>

		<trkpt lat="37.888483" lon="-1.546731">
			<ele>1650.000000</ele>
		<time>2013-08-31T02:44:36Z</time>
		</trkpt>

		<trkpt lat="37.888616" lon="-1.546506">
			<ele>1650.000000</ele>
		<time>2013-08-31T02:44:39Z</time>
		</trkpt>

		<trkpt lat="37.888573" lon="-1.546195">
			<ele>1651.000000</ele>
		<time>2013-08-31T02:44:42Z</time>
		</trkpt>

		<trkpt lat="37.888395" lon="-1.546061">
			<ele>1652.000000</ele>
		<time>2013-08-31T02:44:45Z</time>
		</trkpt>

		<trkpt lat="37.888156" lon="-1.546143">
			<ele>1653.000000</ele>
		<time>2013-08-31T02:44:48Z</time>
		</trkpt>

		<trkpt lat="37.887931" lon="-1.546437">
			<ele>1653.000000</ele>
		<time>2013-08-31T02:44:51Z</time>
		</trkpt>

		<trkpt lat="37.887759" lon="-1.546839">
			<ele>1655.000000</ele>
		<time>2013-08-31T02:44:54Z</time>
		</trkpt>

		<trkpt lat="37.887721" lon="-1.547253">
			<ele>1655.000000</ele>
		<time>2013-08-31T02:44:57Z</time>
		</trkpt>

		<trkpt lat="37.887758" lon="-1.547723">
			<ele>1650.000000</ele>
		<time>2013-08-31T02:45:00Z</time>
		</trkpt>

		<trkpt lat="37.887849" lon="-1.548141">
			<ele>1650.000000</ele>
		<time>2013-08-31T02:45:03Z</time>
		</trkpt>

		<trkpt lat="37.887813" lon="-1.548480">
			<ele>1648.000000</ele>
		<time>2013-08-31T02:45:06Z</time>
		</trkpt>

		<trkpt lat="37.887601" lon="-1.548745">
			<ele>1643.000000</ele>
		<time>2013-08-31T02:45:09Z</time>
		</trkpt>

		<trkpt lat="37.887304" lon="-1.548734">
			<ele>1643.000000</ele>
		<time>2013-08-31T02:45:12Z</time>
		</trkpt>

		<trkpt lat="37.887101" lon="-1.548607">
			<ele>1644.000000</ele>
		<time>2013-08-31T02:45:15Z</time>
		</trkpt>

		<trkpt lat="37.886941" lon="-1.548448">
			<ele>1646.000000</ele>
		<time>2013-08-31T02:45:18Z</time>
		</trkpt>

		<trkpt lat="37.886786" lon="-1.548345">
			<ele>1648.000000</ele>
		<time>2013-08-31T02:45:21Z</time>
		</trkpt>

		<trkpt lat="37.886649" lon="-1.548246">
			<ele>1647.000000</ele>
		<time>2013-08-31T02:45:24Z</time>
		</trkpt>

		<trkpt lat="37.886450" lon="-1.548282">
			<ele>1645.000000</ele>
		<time>2013-08-31T02:45:27Z</time>
		</trkpt>

		<trkpt lat="37.886319" lon="-1.548622">
			<ele>1646.000000</ele>
		<time>2013-08-31T02:45:30Z</time>
		</trkpt>

		<trkpt lat="37.886453" lon="-1.549030">
			<ele>1650.000000</ele>
		<time>2013-08-31T02:45:33Z</time>
		</trkpt>

		<trkpt lat="37.886768" lon="-1.549234">
			<ele>1653.000000</ele>
		<time>2013-08-31T02:45:36Z</time>
		</trkpt>

		<trkpt lat="37.887064" lon="-1.549158">
			<ele>1654.000000</ele>
		<time>2013-08-31T02:45:39Z</time>
		</trkpt>

		<trkpt lat="37.887177" lon="-1.548917">
			<ele>1654.000000</ele>
		<time>2013-08-31T02:45:42Z</time>
		</trkpt>

		<trkpt lat="37.887040" lon="-1.548698">
			<ele>1651.000000</ele>
		<time>2013-08-31T02:45:45Z</time>
		</trkpt>

		<trkpt lat="37.886840" lon="-1.548625">
			<ele>1649.000000</ele>
		<time>2013-08-31T02:45:48Z</time>
		</trkpt>

		<trkpt lat="37.886566" lon="-1.548796">
			<ele>1648.000000</ele>
		<time>2013-08-31T02:45:51Z</time>
		</trkpt>

		<trkpt lat="37.886358" lon="-1.549119">
			<ele>1652.000000</ele>
		<time>2013-08-31T02:45:54Z</time>
		</trkpt>

		<trkpt lat="37.886197" lon="-1.549420">
			<ele>1659.000000</ele>
		<time>2013-08-31T02:45:57Z</time>
		</trkpt>

		<trkpt lat="37.885963" lon="-1.549544">
			<ele>1664.000000</ele>
		<time>2013-08-31T02:46:00Z</time>
		</trkpt>

		<trkpt lat="37.885834" lon="-1.549351">
			<ele>1669.000000</ele>
		<time>2013-08-31T02:46:03Z</time>
		</trkpt>

		<trkpt lat="37.886097" lon="-1.549149">
			<ele>1676.000000</ele>
		<time>2013-08-31T02:46:06Z</time>
		</trkpt>

		<trkpt lat="37.886254" lon="-1.549593">
			<ele>1682.000000</ele>
		<time>2013-08-31T02:46:09Z</time>
		</trkpt>

		<trkpt lat="37.886127" lon="-1.549944">
			<ele>1688.000000</ele>
		<time>2013-08-31T02:46:12Z</time>
		</trkpt>

		<trkpt lat="37.885892" lon="-1.549964">
			<ele>1694.000000</ele>
		<time>2013-08-31T02:46:15Z</time>
		</trkpt>

		<trkpt lat="37.885820" lon="-1.549807">
			<ele>1702.000000</ele>
		<time>2013-08-31T02:46:18Z</time>
		</trkpt>

		<trkpt lat="37.885930" lon="-1.549606">
			<ele>1707.000000</ele>
		<time>2013-08-31T02:46:21Z</time>
		</trkpt>

		<trkpt lat="37.886235" lon="-1.549646">
			<ele>1711.000000</ele>
		<time>2013-08-31T02:46:24Z</time>
		</trkpt>

		<trkpt lat="37.886413" lon="-1.550033">
			<ele>1717.000000</ele>
		<time>2013-08-31T02:46:27Z</time>
		</trkpt>

		<trkpt lat="37.886435" lon="-1.550433">
			<ele>1723.000000</ele>
		<time>2013-08-31T02:46:30Z</time>
		</trkpt>

		<trkpt lat="37.886268" lon="-1.550758">
			<ele>1727.000000</ele>
		<time>2013-08-31T02:46:33Z</time>
		</trkpt>

		<trkpt lat="37.886007" lon="-1.550860">
			<ele>1732.000000</ele>
		<time>2013-08-31T02:46:36Z</time>
		</trkpt>

		<trkpt lat="37.885813" lon="-1.550781">
			<ele>1737.000000</ele>
		<time>2013-08-31T02:46:39Z</time>
		</trkpt>

		<trkpt lat="37.885681" lon="-1.550487">
			<ele>1740.000000</ele>
		<time>2013-08-31T02:46:42Z</time>
		</trkpt>

		<trkpt lat="37.885845" lon="-1.550205">
			<ele>1746.000000</ele>
		<time>2013-08-31T02:46:45Z</time>
		</trkpt>

		<trkpt lat="37.886129" lon="-1.550272">
			<ele>1752.000000</ele>
		<time>2013-08-31T02:46:48Z</time>
		</trkpt>

		<trkpt lat="37.886445" lon="-1.550481">
			<ele>1758.000000</ele>
		<time>2013-08-31T02:46:51Z</time>
		</trkpt>

		<trkpt lat="37.886581" lon="-1.550849">
			<ele>1763.000000</ele>
		<time>2013-08-31T02:46:54Z</time>
		</trkpt>

		<trkpt lat="37.886566" lon="-1.551209">
			<ele>1768.000000</ele>
		<time>2013-08-31T02:46:57Z</time>
		</trkpt>

		<trkpt lat="37.886364" lon="-1.551509">
			<ele>1771.000000</ele>
		<time>2013-08-31T02:47:00Z</time>
		</trkpt>

		<trkpt lat="37.886166" lon="-1.551545">
			<ele>1776.000000</ele>
		<time>2013-08-31T02:47:03Z</time>
		</trkpt>

		<trkpt lat="37.885935" lon="-1.551452">
			<ele>1780.000000</ele>
		<time>2013-08-31T02:47:06Z</time>
		</trkpt>

		<trkpt lat="37.885783" lon="-1.551188">
			<ele>1786.000000</ele>
		<time>2013-08-31T02:47:09Z</time>
		</trkpt>

		<trkpt lat="37.885764" lon="-1.550928">
			<ele>1792.000000</ele>
		<time>2013-08-31T02:47:12Z</time>
		</trkpt>

		<trkpt lat="37.885992" lon="-1.550663">
			<ele>1794.000000</ele>
		<time>2013-08-31T02:47:15Z</time>
		</trkpt>

		<trkpt lat="37.886352" lon="-1.550742">
			<ele>1798.000000</ele>
		<time>2013-08-31T02:47:18Z</time>
		</trkpt>

		<trkpt lat="37.886575" lon="-1.551017">
			<ele>1802.000000</ele>
		<time>2013-08-31T02:47:21Z</time>
		</trkpt>

		<trkpt lat="37.886616" lon="-1.551467">
			<ele>1803.000000</ele>
		<time>2013-08-31T02:47:24Z</time>
		</trkpt>

		<trkpt lat="37.886453" lon="-1.551825">
			<ele>1807.000000</ele>
		<time>2013-08-31T02:47:27Z</time>
		</trkpt>

		<trkpt lat="37.886288" lon="-1.552080">
			<ele>1814.000000</ele>
		<time>2013-08-31T02:47:30Z</time>
		</trkpt>

		<trkpt lat="37.886082" lon="-1.552430">
			<ele>1817.000000</ele>
		<time>2013-08-31T02:47:33Z</time>
		</trkpt>

		<trkpt lat="37.886009" lon="-1.552864">
			<ele>1823.000000</ele>
		<time>2013-08-31T02:47:36Z</time>
		</trkpt>

		<trkpt lat="37.886226" lon="-1.553193">
			<ele>1831.000000</ele>
		<time>2013-08-31T02:47:39Z</time>
		</trkpt>

		<trkpt lat="37.886555" lon="-1.553121">
			<ele>1834.000000</ele>
		<time>2013-08-31T02:47:42Z</time>
		</trkpt>

		<trkpt lat="37.886683" lon="-1.552832">
			<ele>1834.000000</ele>
		<time>2013-08-31T02:47:45Z</time>
		</trkpt>

		<trkpt lat="37.886507" lon="-1.552595">
			<ele>1833.000000</ele>
		<time>2013-08-31T02:47:48Z</time>
		</trkpt>

		<trkpt lat="37.886273" lon="-1.552588">
			<ele>1839.000000</ele>
		<time>2013-08-31T02:47:51Z</time>
		</trkpt>

		<trkpt lat="37.886092" lon="-1.552626">
			<ele>1847.000000</ele>
		<time>2013-08-31T02:47:54Z</time>
		</trkpt>

		<trkpt lat="37.885824" lon="-1.552785">
			<ele>1852.000000</ele>
		<time>2013-08-31T02:47:57Z</time>
		</trkpt>

		<trkpt lat="37.885593" lon="-1.553199">
			<ele>1858.000000</ele>
		<time>2013-08-31T02:48:00Z</time>
		</trkpt>

		<trkpt lat="37.885882" lon="-1.553730">
			<ele>1868.000000</ele>
		<time>2013-08-31T02:48:04Z</time>
		</trkpt>

		<trkpt lat="37.886206" lon="-1.553737">
			<ele>1875.000000</ele>
		<time>2013-08-31T02:48:07Z</time>
		</trkpt>

		<trkpt lat="37.886333" lon="-1.553510">
			<ele>1881.000000</ele>
		<time>2013-08-31T02:48:10Z</time>
		</trkpt>

		<trkpt lat="37.886176" lon="-1.553209">
			<ele>1884.000000</ele>
		<time>2013-08-31T02:48:13Z</time>
		</trkpt>

		<trkpt lat="37.885932" lon="-1.553111">
			<ele>1890.000000</ele>
		<time>2013-08-31T02:48:16Z</time>
		</trkpt>

		<trkpt lat="37.885781" lon="-1.553418">
			<ele>1900.000000</ele>
		<time>2013-08-31T02:48:19Z</time>
		</trkpt>

		<trkpt lat="37.885715" lon="-1.553831">
			<ele>1908.000000</ele>
		<time>2013-08-31T02:48:22Z</time>
		</trkpt>

		<trkpt lat="37.885919" lon="-1.554387">
			<ele>1910.000000</ele>
		<time>2013-08-31T02:48:25Z</time>
		</trkpt>

		<trkpt lat="37.886214" lon="-1.554615">
			<ele>1918.000000</ele>
		<time>2013-08-31T02:48:28Z</time>
		</trkpt>

		<trkpt lat="37.886401" lon="-1.554554">
			<ele>1924.000000</ele>
		<time>2013-08-31T02:48:31Z</time>
		</trkpt>

		<trkpt lat="37.886498" lon="-1.554307">
			<ele>1926.000000</ele>
		<time>2013-08-31T02:48:34Z</time>
		</trkpt>

		<trkpt lat="37.886485" lon="-1.554026">
			<ele>1930.000000</ele>
		<time>2013-08-31T02:48:37Z</time>
		</trkpt>

		<trkpt lat="37.886342" lon="-1.553770">
			<ele>1933.000000</ele>
		<time>2013-08-31T02:48:40Z</time>
		</trkpt>

		<trkpt lat="37.885985" lon="-1.553773">
			<ele>1938.000000</ele>
		<time>2013-08-31T02:48:43Z</time>
		</trkpt>

		<trkpt lat="37.885771" lon="-1.553852">
			<ele>1948.000000</ele>
		<time>2013-08-31T02:48:46Z</time>
		</trkpt>

		<trkpt lat="37.885519" lon="-1.553838">
			<ele>1956.000000</ele>
		<time>2013-08-31T02:48:49Z</time>
		</trkpt>

		<trkpt lat="37.885478" lon="-1.553625">
			<ele>1964.000000</ele>
		<time>2013-08-31T02:48:52Z</time>
		</trkpt>

		<trkpt lat="37.885657" lon="-1.553480">
			<ele>1970.000000</ele>
		<time>2013-08-31T02:48:55Z</time>
		</trkpt>

		<trkpt lat="37.885921" lon="-1.553598">
			<ele>1975.000000</ele>
		<time>2013-08-31T02:48:58Z</time>
		</trkpt>

		<trkpt lat="37.886026" lon="-1.553953">
			<ele>1981.000000</ele>
		<time>2013-08-31T02:49:01Z</time>
		</trkpt>

		<trkpt lat="37.885984" lon="-1.554290">
			<ele>1989.000000</ele>
		<time>2013-08-31T02:49:04Z</time>
		</trkpt>

		<trkpt lat="37.885755" lon="-1.554482">
			<ele>1996.000000</ele>
		<time>2013-08-31T02:49:07Z</time>
		</trkpt>

		<trkpt lat="37.885491" lon="-1.554372">
			<ele>2005.000000</ele>
		<time>2013-08-31T02:49:10Z</time>
		</trkpt>

		<trkpt lat="37.885404" lon="-1.554162">
			<ele>2012.000000</ele>
		<time>2013-08-31T02:49:13Z</time>
		</trkpt>

		<trkpt lat="37.885445" lon="-1.553845">
			<ele>2017.000000</ele>
		<time>2013-08-31T02:49:16Z</time>
		</trkpt>

		<trkpt lat="37.885593" lon="-1.553610">
			<ele>2023.000000</ele>
		<time>2013-08-31T02:49:19Z</time>
		</trkpt>

		<trkpt lat="37.885833" lon="-1.553532">
			<ele>2030.000000</ele>
		<time>2013-08-31T02:49:22Z</time>
		</trkpt>

		<trkpt lat="37.886064" lon="-1.553672">
			<ele>2035.000000</ele>
		<time>2013-08-31T02:49:25Z</time>
		</trkpt>

		<trkpt lat="37.886262" lon="-1.553909">
			<ele>2039.000000</ele>
		<time>2013-08-31T02:49:28Z</time>
		</trkpt>

		<trkpt lat="37.886340" lon="-1.554271">
			<ele>2045.000000</ele>
		<time>2013-08-31T02:49:31Z</time>
		</trkpt>

		<trkpt lat="37.886239" lon="-1.554723">
			<ele>2049.000000</ele>
		<time>2013-08-31T02:49:34Z</time>
		</trkpt>

		<trkpt lat="37.886044" lon="-1.555143">
			<ele>2055.000000</ele>
		<time>2013-08-31T02:49:37Z</time>
		</trkpt>

		<trkpt lat="37.885727" lon="-1.555482">
			<ele>2059.000000</ele>
		<time>2013-08-31T02:49:40Z</time>
		</trkpt>

		<trkpt lat="37.885422" lon="-1.555512">
			<ele>2066.000000</ele>
		<time>2013-08-31T02:49:43Z</time>
		</trkpt>

		<trkpt lat="37.885177" lon="-1.555408">
			<ele>2072.000000</ele>
		<time>2013-08-31T02:49:46Z</time>
		</trkpt>

		<trkpt lat="37.885025" lon="-1.555142">
			<ele>2077.000000</ele>
		<time>2013-08-31T02:49:49Z</time>
		</trkpt>

		<trkpt lat="37.884986" lon="-1.554854">
			<ele>2082.000000</ele>
		<time>2013-08-31T02:49:52Z</time>
		</trkpt>

		<trkpt lat="37.885092" lon="-1.554589">
			<ele>2087.000000</ele>
		<time>2013-08-31T02:49:55Z</time>
		</trkpt>

		<trkpt lat="37.885324" lon="-1.554643">
			<ele>2093.000000</ele>
		<time>2013-08-31T02:49:58Z</time>
		</trkpt>

		<trkpt lat="37.885557" lon="-1.554920">
			<ele>2099.000000</ele>
		<time>2013-08-31T02:50:01Z</time>
		</trkpt>

		<trkpt lat="37.885698" lon="-1.555288">
			<ele>2106.000000</ele>
		<time>2013-08-31T02:50:04Z</time>
		</trkpt>

		<trkpt lat="37.885747" lon="-1.555662">
			<ele>2111.000000</ele>
		<time>2013-08-31T02:50:07Z</time>
		</trkpt>

		<trkpt lat="37.885691" lon="-1.556127">
			<ele>2110.000000</ele>
		<time>2013-08-31T02:50:10Z</time>
		</trkpt>

		<trkpt lat="37.885408" lon="-1.556487">
			<ele>2112.000000</ele>
		<time>2013-08-31T02:50:13Z</time>
		</trkpt>

		<trkpt lat="37.885150" lon="-1.556608">
			<ele>2116.000000</ele>
		<time>2013-08-31T02:50:16Z</time>
		</trkpt>

		<trkpt lat="37.884850" lon="-1.556566">
			<ele>2116.000000</ele>
		<time>2013-08-31T02:50:19Z</time>
		</trkpt>

		<trkpt lat="37.884604" lon="-1.556314">
			<ele>2117.000000</ele>
		<time>2013-08-31T02:50:22Z</time>
		</trkpt>

		<trkpt lat="37.884500" lon="-1.556141">
			<ele>2123.000000</ele>
		<time>2013-08-31T02:50:25Z</time>
		</trkpt>

		<trkpt lat="37.884397" lon="-1.555920">
			<ele>2128.000000</ele>
		<time>2013-08-31T02:50:28Z</time>
		</trkpt>

		<trkpt lat="37.884421" lon="-1.555660">
			<ele>2131.000000</ele>
		<time>2013-08-31T02:50:31Z</time>
		</trkpt>

		<trkpt lat="37.884598" lon="-1.555506">
			<ele>2132.000000</ele>
		<time>2013-08-31T02:50:34Z</time>
		</trkpt>

		<trkpt lat="37.884878" lon="-1.555622">
			<ele>2137.000000</ele>
		<time>2013-08-31T02:50:37Z</time>
		</trkpt>

		<trkpt lat="37.885079" lon="-1.555844">
			<ele>2145.000000</ele>
		<time>2013-08-31T02:50:40Z</time>
		</trkpt>

		<trkpt lat="37.885155" lon="-1.556139">
			<ele>2152.000000</ele>
		<time>2013-08-31T02:50:43Z</time>
		</trkpt>

		<trkpt lat="37.885188" lon="-1.556497">
			<ele>2158.000000</ele>
		<time>2013-08-31T02:50:46Z</time>
		</trkpt>

		<trkpt lat="37.885079" lon="-1.556893">
			<ele>2161.000000</ele>
		<time>2013-08-31T02:50:49Z</time>
		</trkpt>

		<trkpt lat="37.884809" lon="-1.557135">
			<ele>2164.000000</ele>
		<time>2013-08-31T02:50:52Z</time>
		</trkpt>

		<trkpt lat="37.884465" lon="-1.557260">
			<ele>2164.000000</ele>
		<time>2013-08-31T02:50:55Z</time>
		</trkpt>

		<trkpt lat="37.884138" lon="-1.557250">
			<ele>2166.000000</ele>
		<time>2013-08-31T02:50:58Z</time>
		</trkpt>

		<trkpt lat="37.883850" lon="-1.557233">
			<ele>2171.000000</ele>
		<time>2013-08-31T02:51:01Z</time>
		</trkpt>

		<trkpt lat="37.883542" lon="-1.557142">
			<ele>2173.000000</ele>
		<time>2013-08-31T02:51:04Z</time>
		</trkpt>

		<trkpt lat="37.883398" lon="-1.556856">
			<ele>2175.000000</ele>
		<time>2013-08-31T02:51:07Z</time>
		</trkpt>

		<trkpt lat="37.883368" lon="-1.556544">
			<ele>2175.000000</ele>
		<time>2013-08-31T02:51:10Z</time>
		</trkpt>

		<trkpt lat="37.883395" lon="-1.556234">
			<ele>2176.000000</ele>
		<time>2013-08-31T02:51:13Z</time>
		</trkpt>

		<trkpt lat="37.883534" lon="-1.555917">
			<ele>2177.000000</ele>
		<time>2013-08-31T02:51:16Z</time>
		</trkpt>

		<trkpt lat="37.883663" lon="-1.555644">
			<ele>2178.000000</ele>
		<time>2013-08-31T02:51:19Z</time>
		</trkpt>

		<trkpt lat="37.883802" lon="-1.555360">
			<ele>2176.000000</ele>
		<time>2013-08-31T02:51:22Z</time>
		</trkpt>

		<trkpt lat="37.883900" lon="-1.555045">
			<ele>2174.000000</ele>
		<time>2013-08-31T02:51:25Z</time>
		</trkpt>

		<trkpt lat="37.883940" lon="-1.554684">
			<ele>2172.000000</ele>
		<time>2013-08-31T02:51:28Z</time>
		</trkpt>

		<trkpt lat="37.883855" lon="-1.554307">
			<ele>2171.000000</ele>
		<time>2013-08-31T02:51:31Z</time>
		</trkpt>

		<trkpt lat="37.883704" lon="-1.553973">
			<ele>2169.000000</ele>
		<time>2013-08-31T02:51:34Z</time>
		</trkpt>

		<trkpt lat="37.883589" lon="-1.553624">
			<ele>2166.000000</ele>
		<time>2013-08-31T02:51:37Z</time>
		</trkpt>

		<trkpt lat="37.883544" lon="-1.553265">
			<ele>2160.000000</ele>
		<time>2013-08-31T02:51:40Z</time>
		</trkpt>

		<trkpt lat="37.883459" lon="-1.552891">
			<ele>2152.000000</ele>
		<time>2013-08-31T02:51:43Z</time>
		</trkpt>

		<trkpt lat="37.883347" lon="-1.552560">
			<ele>2143.000000</ele>
		<time>2013-08-31T02:51:46Z</time>
		</trkpt>

		<trkpt lat="37.883163" lon="-1.552214">
			<ele>2134.000000</ele>
		<time>2013-08-31T02:51:49Z</time>
		</trkpt>

		<trkpt lat="37.882956" lon="-1.551931">
			<ele>2126.000000</ele>
		<time>2013-08-31T02:51:52Z</time>
		</trkpt>

		<trkpt lat="37.882674" lon="-1.551667">
			<ele>2118.000000</ele>
		<time>2013-08-31T02:51:55Z</time>
		</trkpt>

		<trkpt lat="37.882344" lon="-1.551525">
			<ele>2111.000000</ele>
		<time>2013-08-31T02:51:58Z</time>
		</trkpt>

		<trkpt lat="37.882030" lon="-1.551683">
			<ele>2103.000000</ele>
		<time>2013-08-31T02:52:01Z</time>
		</trkpt>

		<trkpt lat="37.881781" lon="-1.551873">
			<ele>2096.000000</ele>
		<time>2013-08-31T02:52:04Z</time>
		</trkpt>

		<trkpt lat="37.881555" lon="-1.552096">
			<ele>2088.000000</ele>
		<time>2013-08-31T02:52:07Z</time>
		</trkpt>

		<trkpt lat="37.881332" lon="-1.552379">
			<ele>2080.000000</ele>
		<time>2013-08-31T02:52:10Z</time>
		</trkpt>

		<trkpt lat="37.881345" lon="-1.552790">
			<ele>2073.000000</ele>
		<time>2013-08-31T02:52:13Z</time>
		</trkpt>

		<trkpt lat="37.881377" lon="-1.553168">
			<ele>2067.000000</ele>
		<time>2013-08-31T02:52:16Z</time>
		</trkpt>

		<trkpt lat="37.881490" lon="-1.553537">
			<ele>2061.000000</ele>
		<time>2013-08-31T02:52:19Z</time>
		</trkpt>

		<trkpt lat="37.881721" lon="-1.553768">
			<ele>2054.000000</ele>
		<time>2013-08-31T02:52:22Z</time>
		</trkpt>

		<trkpt lat="37.881997" lon="-1.553867">
			<ele>2048.000000</ele>
		<time>2013-08-31T02:52:25Z</time>
		</trkpt>

		<trkpt lat="37.882306" lon="-1.553936">
			<ele>2041.000000</ele>
		<time>2013-08-31T02:52:28Z</time>
		</trkpt>

		<trkpt lat="37.882700" lon="-1.553917">
			<ele>2033.000000</ele>
		<time>2013-08-31T02:52:31Z</time>
		</trkpt>

		<trkpt lat="37.882997" lon="-1.553894">
			<ele>2029.000000</ele>
		<time>2013-08-31T02:52:34Z</time>
		</trkpt>

		<trkpt lat="37.883268" lon="-1.553783">
			<ele>2022.000000</ele>
		<time>2013-08-31T02:52:37Z</time>
		</trkpt>

		<trkpt lat="37.883559" lon="-1.553702">
			<ele>2017.000000</ele>
		<time>2013-08-31T02:52:40Z</time>
		</trkpt>

		<trkpt lat="37.883813" lon="-1.553578">
			<ele>2011.000000</ele>
		<time>2013-08-31T02:52:43Z</time>
		</trkpt>

		<trkpt lat="37.884043" lon="-1.553442">
			<ele>2005.000000</ele>
		<time>2013-08-31T02:52:46Z</time>
		</trkpt>

		<trkpt lat="37.884293" lon="-1.553366">
			<ele>2000.000000</ele>
		<time>2013-08-31T02:52:49Z</time>
		</trkpt>

		<trkpt lat="37.884551" lon="-1.553385">
			<ele>1995.000000</ele>
		<time>2013-08-31T02:52:52Z</time>
		</trkpt>

		<trkpt lat="37.884862" lon="-1.553305">
			<ele>1990.000000</ele>
		<time>2013-08-31T02:52:55Z</time>
		</trkpt>

		<trkpt lat="37.885139" lon="-1.553403">
			<ele>1990.000000</ele>
		<time>2013-08-31T02:52:58Z</time>
		</trkpt>

		<trkpt lat="37.885413" lon="-1.553508">
			<ele>1987.000000</ele>
		<time>2013-08-31T02:53:01Z</time>
		</trkpt>

		<trkpt lat="37.885714" lon="-1.553732">
			<ele>1984.000000</ele>
		<time>2013-08-31T02:53:04Z</time>
		</trkpt>

		<trkpt lat="37.885934" lon="-1.554099">
			<ele>1983.000000</ele>
		<time>2013-08-31T02:53:07Z</time>
		</trkpt>

		<trkpt lat="37.886065" lon="-1.554546">
			<ele>1980.000000</ele>
		<time>2013-08-31T02:53:10Z</time>
		</trkpt>

		<trkpt lat="37.886196" lon="-1.554972">
			<ele>1980.000000</ele>
		<time>2013-08-31T02:53:13Z</time>
		</trkpt>

		<trkpt lat="37.886317" lon="-1.555394">
			<ele>1977.000000</ele>
		<time>2013-08-31T02:53:16Z</time>
		</trkpt>

		<trkpt lat="37.886455" lon="-1.555811">
			<ele>1978.000000</ele>
		<time>2013-08-31T02:53:19Z</time>
		</trkpt>

		<trkpt lat="37.886588" lon="-1.556234">
			<ele>1978.000000</ele>
		<time>2013-08-31T02:53:22Z</time>
		</trkpt>

		<trkpt lat="37.886607" lon="-1.556658">
			<ele>1986.000000</ele>
		<time>2013-08-31T02:53:25Z</time>
		</trkpt>

		<trkpt lat="37.886628" lon="-1.556959">
			<ele>1998.000000</ele>
		<time>2013-08-31T02:53:28Z</time>
		</trkpt>

		<trkpt lat="37.886656" lon="-1.557468">
			<ele>2006.000000</ele>
		<time>2013-08-31T02:53:31Z</time>
		</trkpt>

		<trkpt lat="37.886591" lon="-1.557886">
			<ele>2015.000000</ele>
		<time>2013-08-31T02:53:34Z</time>
		</trkpt>

		<trkpt lat="37.886314" lon="-1.558160">
			<ele>2023.000000</ele>
		<time>2013-08-31T02:53:37Z</time>
		</trkpt>

		<trkpt lat="37.885968" lon="-1.558217">
			<ele>2028.000000</ele>
		<time>2013-08-31T02:53:40Z</time>
		</trkpt>

		<trkpt lat="37.885815" lon="-1.558069">
			<ele>2034.000000</ele>
		<time>2013-08-31T02:53:43Z</time>
		</trkpt>

		<trkpt lat="37.885793" lon="-1.557851">
			<ele>2038.000000</ele>
		<time>2013-08-31T02:53:46Z</time>
		</trkpt>

		<trkpt lat="37.885943" lon="-1.557619">
			<ele>2039.000000</ele>
		<time>2013-08-31T02:53:49Z</time>
		</trkpt>

		<trkpt lat="37.886075" lon="-1.557619">
			<ele>2045.000000</ele>
		<time>2013-08-31T02:53:52Z</time>
		</trkpt>

		<trkpt lat="37.886271" lon="-1.557568">
			<ele>2052.000000</ele>
		<time>2013-08-31T02:53:55Z</time>
		</trkpt>

		<trkpt lat="37.886406" lon="-1.557317">
			<ele>2056.000000</ele>
		<time>2013-08-31T02:53:58Z</time>
		</trkpt>

		<trkpt lat="37.886543" lon="-1.557068">
			<ele>2061.000000</ele>
		<time>2013-08-31T02:54:01Z</time>
		</trkpt>

		<trkpt lat="37.886795" lon="-1.556880">
			<ele>2064.000000</ele>
		<time>2013-08-31T02:54:04Z</time>
		</trkpt>

		<trkpt lat="37.887070" lon="-1.556898">
			<ele>2068.000000</ele>
		<time>2013-08-31T02:54:07Z</time>
		</trkpt>

		<trkpt lat="37.887323" lon="-1.557011">
			<ele>2068.000000</ele>
		<time>2013-08-31T02:54:10Z</time>
		</trkpt>

		<trkpt lat="37.887570" lon="-1.557286">
			<ele>2073.000000</ele>
		<time>2013-08-31T02:54:13Z</time>
		</trkpt>

		<trkpt lat="37.887736" lon="-1.557600">
			<ele>2079.000000</ele>
		<time>2013-08-31T02:54:16Z</time>
		</trkpt>

		<trkpt lat="37.887854" lon="-1.558022">
			<ele>2083.000000</ele>
		<time>2013-08-31T02:54:19Z</time>
		</trkpt>

		<trkpt lat="37.887698" lon="-1.558460">
			<ele>2086.000000</ele>
		<time>2013-08-31T02:54:22Z</time>
		</trkpt>

		<trkpt lat="37.887416" lon="-1.558500">
			<ele>2091.000000</ele>
		<time>2013-08-31T02:54:25Z</time>
		</trkpt>

		<trkpt lat="37.887340" lon="-1.558103">
			<ele>2097.000000</ele>
		<time>2013-08-31T02:54:28Z</time>
		</trkpt>

		<trkpt lat="37.887614" lon="-1.557919">
			<ele>2102.000000</ele>
		<time>2013-08-31T02:54:31Z</time>
		</trkpt>

		<trkpt lat="37.887952" lon="-1.558082">
			<ele>2106.000000</ele>
		<time>2013-08-31T02:54:34Z</time>
		</trkpt>

		<trkpt lat="37.888160" lon="-1.558430">
			<ele>2114.000000</ele>
		<time>2013-08-31T02:54:37Z</time>
		</trkpt>

		<trkpt lat="37.888160" lon="-1.558820">
			<ele>2121.000000</ele>
		<time>2013-08-31T02:54:40Z</time>
		</trkpt>

		<trkpt lat="37.887965" lon="-1.559139">
			<ele>2124.000000</ele>
		<time>2013-08-31T02:54:43Z</time>
		</trkpt>

		<trkpt lat="37.887706" lon="-1.559106">
			<ele>2127.000000</ele>
		<time>2013-08-31T02:54:46Z</time>
		</trkpt>

		<trkpt lat="37.887543" lon="-1.558841">
			<ele>2128.000000</ele>
		<time>2013-08-31T02:54:49Z</time>
		</trkpt>

		<trkpt lat="37.887554" lon="-1.558436">
			<ele>2131.000000</ele>
		<time>2013-08-31T02:54:52Z</time>
		</trkpt>

		<trkpt lat="37.887674" lon="-1.558262">
			<ele>2138.000000</ele>
		<time>2013-08-31T02:54:55Z</time>
		</trkpt>

		<trkpt lat="37.887908" lon="-1.558132">
			<ele>2142.000000</ele>
		<time>2013-08-31T02:54:58Z</time>
		</trkpt>

		<trkpt lat="37.888201" lon="-1.558207">
			<ele>2149.000000</ele>
		<time>2013-08-31T02:55:01Z</time>
		</trkpt>

		<trkpt lat="37.888444" lon="-1.558379">
			<ele>2158.000000</ele>
		<time>2013-08-31T02:55:04Z</time>
		</trkpt>

		<trkpt lat="37.888589" lon="-1.558750">
			<ele>2164.000000</ele>
		<time>2013-08-31T02:55:07Z</time>
		</trkpt>

		<trkpt lat="37.888524" lon="-1.559101">
			<ele>2171.000000</ele>
		<time>2013-08-31T02:55:10Z</time>
		</trkpt>

		<trkpt lat="37.888301" lon="-1.559372">
			<ele>2174.000000</ele>
		<time>2013-08-31T02:55:13Z</time>
		</trkpt>

		<trkpt lat="37.887980" lon="-1.559508">
			<ele>2177.000000</ele>
		<time>2013-08-31T02:55:16Z</time>
		</trkpt>

		<trkpt lat="37.887712" lon="-1.559467">
			<ele>2182.000000</ele>
		<time>2013-08-31T02:55:19Z</time>
		</trkpt>

		<trkpt lat="37.887505" lon="-1.559257">
			<ele>2183.000000</ele>
		<time>2013-08-31T02:55:22Z</time>
		</trkpt>

		<trkpt lat="37.887348" lon="-1.558898">
			<ele>2182.000000</ele>
		<time>2013-08-31T02:55:25Z</time>
		</trkpt>

		<trkpt lat="37.887300" lon="-1.558530">
			<ele>2186.000000</ele>
		<time>2013-08-31T02:55:28Z</time>
		</trkpt>

		<trkpt lat="37.887417" lon="-1.558168">
			<ele>2190.000000</ele>
		<time>2013-08-31T02:55:31Z</time>
		</trkpt>

		<trkpt lat="37.887649" lon="-1.557966">
			<ele>2192.000000</ele>
		<time>2013-08-31T02:55:34Z</time>
		</trkpt>

		<trkpt lat="37.887917" lon="-1.557962">
			<ele>2193.000000</ele>
		<time>2013-08-31T02:55:37Z</time>
		</trkpt>

		<trkpt lat="37.888208" lon="-1.558258">
			<ele>2192.000000</ele>
		<time>2013-08-31T02:55:40Z</time>
		</trkpt>

		<trkpt lat="37.888412" lon="-1.558673">
			<ele>2193.000000</ele>
		<time>2013-08-31T02:55:43Z</time>
		</trkpt>

		<trkpt lat="37.888568" lon="-1.558934">
			<ele>2206.000000</ele>
		<time>2013-08-31T02:55:46Z</time>
		</trkpt>

		<trkpt lat="37.888768" lon="-1.558974">
			<ele>2211.000000</ele>
		<time>2013-08-31T02:55:49Z</time>
		</trkpt>

		<trkpt lat="37.889093" lon="-1.559165">
			<ele>2213.000000</ele>
		<time>2013-08-31T02:55:52Z</time>
		</trkpt>

		<trkpt lat="37.889073" lon="-1.559456">
			<ele>2219.000000</ele>
		<time>2013-08-31T02:55:55Z</time>
		</trkpt>

		<trkpt lat="37.888897" lon="-1.559700">
			<ele>2226.000000</ele>
		<time>2013-08-31T02:55:58Z</time>
		</trkpt>

		<trkpt lat="37.888574" lon="-1.559727">
			<ele>2229.000000</ele>
		<time>2013-08-31T02:56:01Z</time>
		</trkpt>

		<trkpt lat="37.888358" lon="-1.559427">
			<ele>2235.000000</ele>
		<time>2013-08-31T02:56:04Z</time>
		</trkpt>

		<trkpt lat="37.888276" lon="-1.559105">
			<ele>2240.000000</ele>
		<time>2013-08-31T02:56:07Z</time>
		</trkpt>

		<trkpt lat="37.888252" lon="-1.558746">
			<ele>2246.000000</ele>
		<time>2013-08-31T02:56:10Z</time>
		</trkpt>

		<trkpt lat="37.888446" lon="-1.558607">
			<ele>2251.000000</ele>
		<time>2013-08-31T02:56:13Z</time>
		</trkpt>

		<trkpt lat="37.888787" lon="-1.558565">
			<ele>2251.000000</ele>
		<time>2013-08-31T02:56:16Z</time>
		</trkpt>

		<trkpt lat="37.889134" lon="-1.558802">
			<ele>2255.000000</ele>
		<time>2013-08-31T02:56:19Z</time>
		</trkpt>

		<trkpt lat="37.889360" lon="-1.558981">
			<ele>2265.000000</ele>
		<time>2013-08-31T02:56:22Z</time>
		</trkpt>

		<trkpt lat="37.889516" lon="-1.559263">
			<ele>2269.000000</ele>
		<time>2013-08-31T02:56:25Z</time>
		</trkpt>

		<trkpt lat="37.889511" lon="-1.559579">
			<ele>2272.000000</ele>
		<time>2013-08-31T02:56:28Z</time>
		</trkpt>

		<trkpt lat="37.889310" lon="-1.559799">
			<ele>2274.000000</ele>
		<time>2013-08-31T02:56:31Z</time>
		</trkpt>

		<trkpt lat="37.889043" lon="-1.559752">
			<ele>2277.000000</ele>
		<time>2013-08-31T02:56:34Z</time>
		</trkpt>

		<trkpt lat="37.888829" lon="-1.559623">
			<ele>2278.000000</ele>
		<time>2013-08-31T02:56:37Z</time>
		</trkpt>

		<trkpt lat="37.888629" lon="-1.559382">
			<ele>2278.000000</ele>
		<time>2013-08-31T02:56:40Z</time>
		</trkpt>

		<trkpt lat="37.888542" lon="-1.559085">
			<ele>2281.000000</ele>
		<time>2013-08-31T02:56:43Z</time>
		</trkpt>

		<trkpt lat="37.888623" lon="-1.558789">
			<ele>2282.000000</ele>
		<time>2013-08-31T02:56:46Z</time>
		</trkpt>

		<trkpt lat="37.888821" lon="-1.558512">
			<ele>2283.000000</ele>
		<time>2013-08-31T02:56:49Z</time>
		</trkpt>

		<trkpt lat="37.889155" lon="-1.558502">
			<ele>2287.000000</ele>
		<time>2013-08-31T02:56:52Z</time>
		</trkpt>

		<trkpt lat="37.889444" lon="-1.558582">
			<ele>2289.000000</ele>
		<time>2013-08-31T02:56:55Z</time>
		</trkpt>

		<trkpt lat="37.889715" lon="-1.558862">
			<ele>2289.000000</ele>
		<time>2013-08-31T02:56:58Z</time>
		</trkpt>

		<trkpt lat="37.889877" lon="-1.559117">
			<ele>2294.000000</ele>
		<time>2013-08-31T02:57:01Z</time>
		</trkpt>

		<trkpt lat="37.889965" lon="-1.559302">
			<ele>2296.000000</ele>
		<time>2013-08-31T02:57:04Z</time>
		</trkpt>

		<trkpt lat="37.890039" lon="-1.559665">
			<ele>2291.000000</ele>
		<time>2013-08-31T02:57:07Z</time>
		</trkpt>

		<trkpt lat="37.890114" lon="-1.560001">
			<ele>2290.000000</ele>
		<time>2013-08-31T02:57:10Z</time>
		</trkpt>

		<trkpt lat="37.890228" lon="-1.560345">
			<ele>2287.000000</ele>
		<time>2013-08-31T02:57:13Z</time>
		</trkpt>

		<trkpt lat="37.890357" lon="-1.560662">
			<ele>2285.000000</ele>
		<time>2013-08-31T02:57:16Z</time>
		</trkpt>

		<trkpt lat="37.890564" lon="-1.560962">
			<ele>2282.000000</ele>
		<time>2013-08-31T02:57:19Z</time>
		</trkpt>

		<trkpt lat="37.890775" lon="-1.561253">
			<ele>2279.000000</ele>
		<time>2013-08-31T02:57:22Z</time>
		</trkpt>

		<trkpt lat="37.890922" lon="-1.561520">
			<ele>2277.000000</ele>
		<time>2013-08-31T02:57:25Z</time>
		</trkpt>

		<trkpt lat="37.891051" lon="-1.561841">
			<ele>2275.000000</ele>
		<time>2013-08-31T02:57:28Z</time>
		</trkpt>

		<trkpt lat="37.891186" lon="-1.562168">
			<ele>2273.000000</ele>
		<time>2013-08-31T02:57:31Z</time>
		</trkpt>

		<trkpt lat="37.891332" lon="-1.562512">
			<ele>2272.000000</ele>
		<time>2013-08-31T02:57:34Z</time>
		</trkpt>

		<trkpt lat="37.891367" lon="-1.562863">
			<ele>2270.000000</ele>
		<time>2013-08-31T02:57:37Z</time>
		</trkpt>

		<trkpt lat="37.891378" lon="-1.563185">
			<ele>2267.000000</ele>
		<time>2013-08-31T02:57:40Z</time>
		</trkpt>

		<trkpt lat="37.891483" lon="-1.563477">
			<ele>2265.000000</ele>
		<time>2013-08-31T02:57:43Z</time>
		</trkpt>

		<trkpt lat="37.891628" lon="-1.563730">
			<ele>2260.000000</ele>
		<time>2013-08-31T02:57:46Z</time>
		</trkpt>

		<trkpt lat="37.891752" lon="-1.564038">
			<ele>2256.000000</ele>
		<time>2013-08-31T02:57:49Z</time>
		</trkpt>

		<trkpt lat="37.891872" lon="-1.564301">
			<ele>2252.000000</ele>
		<time>2013-08-31T02:57:52Z</time>
		</trkpt>

		<trkpt lat="37.891989" lon="-1.564583">
			<ele>2248.000000</ele>
		<time>2013-08-31T02:57:55Z</time>
		</trkpt>

		<trkpt lat="37.892107" lon="-1.564874">
			<ele>2244.000000</ele>
		<time>2013-08-31T02:57:58Z</time>
		</trkpt>

		<trkpt lat="37.892215" lon="-1.565176">
			<ele>2240.000000</ele>
		<time>2013-08-31T02:58:01Z</time>
		</trkpt>

		<trkpt lat="37.892355" lon="-1.565420">
			<ele>2236.000000</ele>
		<time>2013-08-31T02:58:04Z</time>
		</trkpt>

		<trkpt lat="37.892476" lon="-1.565670">
			<ele>2232.000000</ele>
		<time>2013-08-31T02:58:07Z</time>
		</trkpt>

		<trkpt lat="37.892624" lon="-1.565940">
			<ele>2229.000000</ele>
		<time>2013-08-31T02:58:10Z</time>
		</trkpt>

		<trkpt lat="37.892770" lon="-1.566165">
			<ele>2226.000000</ele>
		<time>2013-08-31T02:58:13Z</time>
		</trkpt>

		<trkpt lat="37.892955" lon="-1.566429">
			<ele>2222.000000</ele>
		<time>2013-08-31T02:58:16Z</time>
		</trkpt>

		<trkpt lat="37.893144" lon="-1.566680">
			<ele>2220.000000</ele>
		<time>2013-08-31T02:58:19Z</time>
		</trkpt>

		<trkpt lat="37.893214" lon="-1.566936">
			<ele>2215.000000</ele>
		<time>2013-08-31T02:58:22Z</time>
		</trkpt>

		<trkpt lat="37.893203" lon="-1.567261">
			<ele>2212.000000</ele>
		<time>2013-08-31T02:58:25Z</time>
		</trkpt>

		<trkpt lat="37.893226" lon="-1.567563">
			<ele>2209.000000</ele>
		<time>2013-08-31T02:58:28Z</time>
		</trkpt>

		<trkpt lat="37.893273" lon="-1.567907">
			<ele>2205.000000</ele>
		<time>2013-08-31T02:58:31Z</time>
		</trkpt>

		<trkpt lat="37.893340" lon="-1.568242">
			<ele>2202.000000</ele>
		<time>2013-08-31T02:58:34Z</time>
		</trkpt>

		<trkpt lat="37.893384" lon="-1.568560">
			<ele>2198.000000</ele>
		<time>2013-08-31T02:58:37Z</time>
		</trkpt>

		<trkpt lat="37.893425" lon="-1.568868">
			<ele>2193.000000</ele>
		<time>2013-08-31T02:58:40Z</time>
		</trkpt>

		<trkpt lat="37.893462" lon="-1.569168">
			<ele>2189.000000</ele>
		<time>2013-08-31T02:58:43Z</time>
		</trkpt>

		<trkpt lat="37.893506" lon="-1.569487">
			<ele>2185.000000</ele>
		<time>2013-08-31T02:58:46Z</time>
		</trkpt>

		<trkpt lat="37.893548" lon="-1.569787">
			<ele>2182.000000</ele>
		<time>2013-08-31T02:58:49Z</time>
		</trkpt>

		<trkpt lat="37.893630" lon="-1.570068">
			<ele>2177.000000</ele>
		<time>2013-08-31T02:58:52Z</time>
		</trkpt>

		<trkpt lat="37.893693" lon="-1.570395">
			<ele>2173.000000</ele>
		<time>2013-08-31T02:58:55Z</time>
		</trkpt>

		<trkpt lat="37.893710" lon="-1.570718">
			<ele>2168.000000</ele>
		<time>2013-08-31T02:58:58Z</time>
		</trkpt>

		<trkpt lat="37.893739" lon="-1.571039">
			<ele>2165.000000</ele>
		<time>2013-08-31T02:59:01Z</time>
		</trkpt>

		<trkpt lat="37.893745" lon="-1.571358">
			<ele>2163.000000</ele>
		<time>2013-08-31T02:59:04Z</time>
		</trkpt>

		<trkpt lat="37.893722" lon="-1.571713">
			<ele>2160.000000</ele>
		<time>2013-08-31T02:59:07Z</time>
		</trkpt>

		<trkpt lat="37.893692" lon="-1.572056">
			<ele>2158.000000</ele>
		<time>2013-08-31T02:59:10Z</time>
		</trkpt>

		<trkpt lat="37.893679" lon="-1.572404">
			<ele>2156.000000</ele>
		<time>2013-08-31T02:59:13Z</time>
		</trkpt>

		<trkpt lat="37.893699" lon="-1.572757">
			<ele>2151.000000</ele>
		<time>2013-08-31T02:59:16Z</time>
		</trkpt>

		<trkpt lat="37.893753" lon="-1.573072">
			<ele>2148.000000</ele>
		<time>2013-08-31T02:59:19Z</time>
		</trkpt>

		<trkpt lat="37.893826" lon="-1.573436">
			<ele>2145.000000</ele>
		<time>2013-08-31T02:59:22Z</time>
		</trkpt>

		<trkpt lat="37.893900" lon="-1.573727">
			<ele>2142.000000</ele>
		<time>2013-08-31T02:59:25Z</time>
		</trkpt>

		<trkpt lat="37.893986" lon="-1.574020">
			<ele>2138.000000</ele>
		<time>2013-08-31T02:59:28Z</time>
		</trkpt>

		<trkpt lat="37.894095" lon="-1.574366">
			<ele>2133.000000</ele>
		<time>2013-08-31T02:59:31Z</time>
		</trkpt>

		<trkpt lat="37.894215" lon="-1.574651">
			<ele>2130.000000</ele>
		<time>2013-08-31T02:59:34Z</time>
		</trkpt>

		<trkpt lat="37.894328" lon="-1.574962">
			<ele>2126.000000</ele>
		<time>2013-08-31T02:59:37Z</time>
		</trkpt>

		<trkpt lat="37.894428" lon="-1.575281">
			<ele>2121.000000</ele>
		<time>2013-08-31T02:59:40Z</time>
		</trkpt>

		<trkpt lat="37.894532" lon="-1.575629">
			<ele>2117.000000</ele>
		<time>2013-08-31T02:59:43Z</time>
		</trkpt>

		<trkpt lat="37.894615" lon="-1.575996">
			<ele>2115.000000</ele>
		<time>2013-08-31T02:59:46Z</time>
		</trkpt>

		<trkpt lat="37.894668" lon="-1.576357">
			<ele>2113.000000</ele>
		<time>2013-08-31T02:59:49Z</time>
		</trkpt>

		<trkpt lat="37.894671" lon="-1.576711">
			<ele>2112.000000</ele>
		<time>2013-08-31T02:59:52Z</time>
		</trkpt>

		<trkpt lat="37.894674" lon="-1.577082">
			<ele>2111.000000</ele>
		<time>2013-08-31T02:59:55Z</time>
		</trkpt>

		<trkpt lat="37.894670" lon="-1.577462">
			<ele>2106.000000</ele>
		<time>2013-08-31T02:59:58Z</time>
		</trkpt>

		<trkpt lat="37.894633" lon="-1.577838">
			<ele>2101.000000</ele>
		<time>2013-08-31T03:00:01Z</time>
		</trkpt>

		<trkpt lat="37.894593" lon="-1.578210">
			<ele>2096.000000</ele>
		<time>2013-08-31T03:00:04Z</time>
		</trkpt>

		<trkpt lat="37.894554" lon="-1.578557">
			<ele>2093.000000</ele>
		<time>2013-08-31T03:00:07Z</time>
		</trkpt>

		<trkpt lat="37.894516" lon="-1.578919">
			<ele>2090.000000</ele>
		<time>2013-08-31T03:00:10Z</time>
		</trkpt>

		<trkpt lat="37.894513" lon="-1.579282">
			<ele>2088.000000</ele>
		<time>2013-08-31T03:00:13Z</time>
		</trkpt>

		<trkpt lat="37.894543" lon="-1.579646">
			<ele>2085.000000</ele>
		<time>2013-08-31T03:00:16Z</time>
		</trkpt>

		<trkpt lat="37.894564" lon="-1.579991">
			<ele>2083.000000</ele>
		<time>2013-08-31T03:00:19Z</time>
		</trkpt>

		<trkpt lat="37.894607" lon="-1.580353">
			<ele>2078.000000</ele>
		<time>2013-08-31T03:00:22Z</time>
		</trkpt>

		<trkpt lat="37.894635" lon="-1.580701">
			<ele>2075.000000</ele>
		<time>2013-08-31T03:00:25Z</time>
		</trkpt>

		<trkpt lat="37.894657" lon="-1.581008">
			<ele>2073.000000</ele>
		<time>2013-08-31T03:00:28Z</time>
		</trkpt>

		<trkpt lat="37.894655" lon="-1.581413">
			<ele>2066.000000</ele>
		<time>2013-08-31T03:00:31Z</time>
		</trkpt>

		<trkpt lat="37.894653" lon="-1.581751">
			<ele>2062.000000</ele>
		<time>2013-08-31T03:00:34Z</time>
		</trkpt>

		<trkpt lat="37.894659" lon="-1.582117">
			<ele>2057.000000</ele>
		<time>2013-08-31T03:00:37Z</time>
		</trkpt>

		<trkpt lat="37.894633" lon="-1.582451">
			<ele>2052.000000</ele>
		<time>2013-08-31T03:00:40Z</time>
		</trkpt>

		<trkpt lat="37.894590" lon="-1.582771">
			<ele>2048.000000</ele>
		<time>2013-08-31T03:00:43Z</time>
		</trkpt>

		<trkpt lat="37.894561" lon="-1.583151">
			<ele>2044.000000</ele>
		<time>2013-08-31T03:00:46Z</time>
		</trkpt>

		<trkpt lat="37.894594" lon="-1.583501">
			<ele>2041.000000</ele>
		<time>2013-08-31T03:00:49Z</time>
		</trkpt>

		<trkpt lat="37.894623" lon="-1.583873">
			<ele>2033.000000</ele>
		<time>2013-08-31T03:00:52Z</time>
		</trkpt>

		<trkpt lat="37.894676" lon="-1.584246">
			<ele>2027.000000</ele>
		<time>2013-08-31T03:00:55Z</time>
		</trkpt>

		<trkpt lat="37.894709" lon="-1.584617">
			<ele>2020.000000</ele>
		<time>2013-08-31T03:00:58Z</time>
		</trkpt>

		<trkpt lat="37.894745" lon="-1.584987">
			<ele>2013.000000</ele>
		<time>2013-08-31T03:01:01Z</time>
		</trkpt>

		<trkpt lat="37.894812" lon="-1.585396">
			<ele>2006.000000</ele>
		<time>2013-08-31T03:01:04Z</time>
		</trkpt>

		<trkpt lat="37.894765" lon="-1.585761">
			<ele>2002.000000</ele>
		<time>2013-08-31T03:01:07Z</time>
		</trkpt>

		<trkpt lat="37.894695" lon="-1.586122">
			<ele>2001.000000</ele>
		<time>2013-08-31T03:01:10Z</time>
		</trkpt>

		<trkpt lat="37.894633" lon="-1.586459">
			<ele>1999.000000</ele>
		<time>2013-08-31T03:01:13Z</time>
		</trkpt>

		<trkpt lat="37.894549" lon="-1.586805">
			<ele>1997.000000</ele>
		<time>2013-08-31T03:01:16Z</time>
		</trkpt>

		<trkpt lat="37.894430" lon="-1.587145">
			<ele>1993.000000</ele>
		<time>2013-08-31T03:01:19Z</time>
		</trkpt>

		<trkpt lat="37.894289" lon="-1.587523">
			<ele>1989.000000</ele>
		<time>2013-08-31T03:01:22Z</time>
		</trkpt>

		<trkpt lat="37.894140" lon="-1.587891">
			<ele>1985.000000</ele>
		<time>2013-08-31T03:01:25Z</time>
		</trkpt>

		<trkpt lat="37.894024" lon="-1.588255">
			<ele>1982.000000</ele>
		<time>2013-08-31T03:01:28Z</time>
		</trkpt>

		<trkpt lat="37.893944" lon="-1.588623">
			<ele>1979.000000</ele>
		<time>2013-08-31T03:01:31Z</time>
		</trkpt>

		<trkpt lat="37.893843" lon="-1.588944">
			<ele>1977.000000</ele>
		<time>2013-08-31T03:01:34Z</time>
		</trkpt>

		<trkpt lat="37.893733" lon="-1.589280">
			<ele>1975.000000</ele>
		<time>2013-08-31T03:01:37Z</time>
		</trkpt>

		<trkpt lat="37.893627" lon="-1.589638">
			<ele>1971.000000</ele>
		<time>2013-08-31T03:01:40Z</time>
		</trkpt>

		<trkpt lat="37.893518" lon="-1.590052">
			<ele>1967.000000</ele>
		<time>2013-08-31T03:01:43Z</time>
		</trkpt>

		<trkpt lat="37.893440" lon="-1.590463">
			<ele>1964.000000</ele>
		<time>2013-08-31T03:01:46Z</time>
		</trkpt>

		<trkpt lat="37.893378" lon="-1.590960">
			<ele>1960.000000</ele>
		<time>2013-08-31T03:01:49Z</time>
		</trkpt>

		<trkpt lat="37.893371" lon="-1.591444">
			<ele>1958.000000</ele>
		<time>2013-08-31T03:01:52Z</time>
		</trkpt>

		<trkpt lat="37.893352" lon="-1.591965">
			<ele>1955.000000</ele>
		<time>2013-08-31T03:01:55Z</time>
		</trkpt>

		<trkpt lat="37.893286" lon="-1.592453">
			<ele>1957.000000</ele>
		<time>2013-08-31T03:01:58Z</time>
		</trkpt>

		<trkpt lat="37.893243" lon="-1.592852">
			<ele>1961.000000</ele>
		<time>2013-08-31T03:02:01Z</time>
		</trkpt>

		<trkpt lat="37.893256" lon="-1.593259">
			<ele>1963.000000</ele>
		<time>2013-08-31T03:02:04Z</time>
		</trkpt>

		<trkpt lat="37.893280" lon="-1.593658">
			<ele>1968.000000</ele>
		<time>2013-08-31T03:02:07Z</time>
		</trkpt>

		<trkpt lat="37.893218" lon="-1.594044">
			<ele>1974.000000</ele>
		<time>2013-08-31T03:02:10Z</time>
		</trkpt>

		<trkpt lat="37.893054" lon="-1.594451">
			<ele>1977.000000</ele>
		<time>2013-08-31T03:02:13Z</time>
		</trkpt>

		<trkpt lat="37.892828" lon="-1.594809">
			<ele>1982.000000</ele>
		<time>2013-08-31T03:02:16Z</time>
		</trkpt>

		<trkpt lat="37.892524" lon="-1.595037">
			<ele>1984.000000</ele>
		<time>2013-08-31T03:02:19Z</time>
		</trkpt>

		<trkpt lat="37.892243" lon="-1.595099">
			<ele>1984.000000</ele>
		<time>2013-08-31T03:02:22Z</time>
		</trkpt>

		<trkpt lat="37.891969" lon="-1.594950">
			<ele>1986.000000</ele>
		<time>2013-08-31T03:02:25Z</time>
		</trkpt>

		<trkpt lat="37.891673" lon="-1.594806">
			<ele>1992.000000</ele>
		<time>2013-08-31T03:02:28Z</time>
		</trkpt>

		<trkpt lat="37.891357" lon="-1.594802">
			<ele>1997.000000</ele>
		<time>2013-08-31T03:02:31Z</time>
		</trkpt>

		<trkpt lat="37.891039" lon="-1.594829">
			<ele>2000.000000</ele>
		<time>2013-08-31T03:02:34Z</time>
		</trkpt>

		<trkpt lat="37.890721" lon="-1.594996">
			<ele>2004.000000</ele>
		<time>2013-08-31T03:02:37Z</time>
		</trkpt>

		<trkpt lat="37.890397" lon="-1.595261">
			<ele>2006.000000</ele>
		<time>2013-08-31T03:02:40Z</time>
		</trkpt>

		<trkpt lat="37.890139" lon="-1.595556">
			<ele>2006.000000</ele>
		<time>2013-08-31T03:02:43Z</time>
		</trkpt>

		<trkpt lat="37.889896" lon="-1.595873">
			<ele>2004.000000</ele>
		<time>2013-08-31T03:02:46Z</time>
		</trkpt>

		<trkpt lat="37.889846" lon="-1.596301">
			<ele>2002.000000</ele>
		<time>2013-08-31T03:02:49Z</time>
		</trkpt>

		<trkpt lat="37.889910" lon="-1.596694">
			<ele>2000.000000</ele>
		<time>2013-08-31T03:02:52Z</time>
		</trkpt>

		<trkpt lat="37.890108" lon="-1.597068">
			<ele>1999.000000</ele>
		<time>2013-08-31T03:02:55Z</time>
		</trkpt>

		<trkpt lat="37.890414" lon="-1.597270">
			<ele>2000.000000</ele>
		<time>2013-08-31T03:02:58Z</time>
		</trkpt>

		<trkpt lat="37.890753" lon="-1.597300">
			<ele>2003.000000</ele>
		<time>2013-08-31T03:03:01Z</time>
		</trkpt>

		<trkpt lat="37.891013" lon="-1.597165">
			<ele>2007.000000</ele>
		<time>2013-08-31T03:03:04Z</time>
		</trkpt>

		<trkpt lat="37.891139" lon="-1.597006">
			<ele>2009.000000</ele>
		<time>2013-08-31T03:03:07Z</time>
		</trkpt>

		<trkpt lat="37.891251" lon="-1.596782">
			<ele>2009.000000</ele>
		<time>2013-08-31T03:03:10Z</time>
		</trkpt>

		<trkpt lat="37.891286" lon="-1.596489">
			<ele>2006.000000</ele>
		<time>2013-08-31T03:03:13Z</time>
		</trkpt>

		<trkpt lat="37.891254" lon="-1.596110">
			<ele>2003.000000</ele>
		<time>2013-08-31T03:03:16Z</time>
		</trkpt>

		<trkpt lat="37.891095" lon="-1.595723">
			<ele>2006.000000</ele>
		<time>2013-08-31T03:03:19Z</time>
		</trkpt>

		<trkpt lat="37.890952" lon="-1.595478">
			<ele>2013.000000</ele>
		<time>2013-08-31T03:03:22Z</time>
		</trkpt>

		<trkpt lat="37.890897" lon="-1.595185">
			<ele>2017.000000</ele>
		<time>2013-08-31T03:03:25Z</time>
		</trkpt>

		<trkpt lat="37.891057" lon="-1.595006">
			<ele>2018.000000</ele>
		<time>2013-08-31T03:03:28Z</time>
		</trkpt>

		<trkpt lat="37.891294" lon="-1.595261">
			<ele>2018.000000</ele>
		<time>2013-08-31T03:03:31Z</time>
		</trkpt>

		<trkpt lat="37.891304" lon="-1.595752">
			<ele>2017.000000</ele>
		<time>2013-08-31T03:03:34Z</time>
		</trkpt>

		<trkpt lat="37.891056" lon="-1.596104">
			<ele>2019.000000</ele>
		<time>2013-08-31T03:03:37Z</time>
		</trkpt>

		<trkpt lat="37.890749" lon="-1.596197">
			<ele>2024.000000</ele>
		<time>2013-08-31T03:03:40Z</time>
		</trkpt>

		<trkpt lat="37.890427" lon="-1.595900">
			<ele>2024.000000</ele>
		<time>2013-08-31T03:03:43Z</time>
		</trkpt>

		<trkpt lat="37.890258" lon="-1.595580">
			<ele>2028.000000</ele>
		<time>2013-08-31T03:03:46Z</time>
		</trkpt>

		<trkpt lat="37.890271" lon="-1.595283">
			<ele>2029.000000</ele>
		<time>2013-08-31T03:03:49Z</time>
		</trkpt>

		<trkpt lat="37.890429" lon="-1.595004">
			<ele>2030.000000</ele>
		<time>2013-08-31T03:03:52Z</time>
		</trkpt>

		<trkpt lat="37.890684" lon="-1.594881">
			<ele>2034.000000</ele>
		<time>2013-08-31T03:03:55Z</time>
		</trkpt>

		<trkpt lat="37.890940" lon="-1.595128">
			<ele>2036.000000</ele>
		<time>2013-08-31T03:03:58Z</time>
		</trkpt>

		<trkpt lat="37.891057" lon="-1.595513">
			<ele>2039.000000</ele>
		<time>2013-08-31T03:04:01Z</time>
		</trkpt>

		<trkpt lat="37.891001" lon="-1.596007">
			<ele>2040.000000</ele>
		<time>2013-08-31T03:04:04Z</time>
		</trkpt>

		<trkpt lat="37.890736" lon="-1.596344">
			<ele>2042.000000</ele>
		<time>2013-08-31T03:04:07Z</time>
		</trkpt>

		<trkpt lat="37.890424" lon="-1.596443">
			<ele>2042.000000</ele>
		<time>2013-08-31T03:04:10Z</time>
		</trkpt>

		<trkpt lat="37.890132" lon="-1.596218">
			<ele>2041.000000</ele>
		<time>2013-08-31T03:04:13Z</time>
		</trkpt>

		<trkpt lat="37.890000" lon="-1.595866">
			<ele>2041.000000</ele>
		<time>2013-08-31T03:04:16Z</time>
		</trkpt>

		<trkpt lat="37.890025" lon="-1.595485">
			<ele>2039.000000</ele>
		<time>2013-08-31T03:04:19Z</time>
		</trkpt>

		<trkpt lat="37.890231" lon="-1.595155">
			<ele>2041.000000</ele>
		<time>2013-08-31T03:04:22Z</time>
		</trkpt>

		<trkpt lat="37.890348" lon="-1.594980">
			<ele>2045.000000</ele>
		<time>2013-08-31T03:04:25Z</time>
		</trkpt>

		<trkpt lat="37.890425" lon="-1.594667">
			<ele>2043.000000</ele>
		<time>2013-08-31T03:04:28Z</time>
		</trkpt>

		<trkpt lat="37.890328" lon="-1.594360">
			<ele>2041.000000</ele>
		<time>2013-08-31T03:04:31Z</time>
		</trkpt>

		<trkpt lat="37.890125" lon="-1.594133">
			<ele>2040.000000</ele>
		<time>2013-08-31T03:04:34Z</time>
		</trkpt>

		<trkpt lat="37.889871" lon="-1.594101">
			<ele>2038.000000</ele>
		<time>2013-08-31T03:04:37Z</time>
		</trkpt>

		<trkpt lat="37.889593" lon="-1.594153">
			<ele>2035.000000</ele>
		<time>2013-08-31T03:04:40Z</time>
		</trkpt>

		<trkpt lat="37.889313" lon="-1.594222">
			<ele>2034.000000</ele>
		<time>2013-08-31T03:04:43Z</time>
		</trkpt>

		<trkpt lat="37.889033" lon="-1.594277">
			<ele>2032.000000</ele>
		<time>2013-08-31T03:04:46Z</time>
		</trkpt>

		<trkpt lat="37.888763" lon="-1.594307">
			<ele>2031.000000</ele>
		<time>2013-08-31T03:04:49Z</time>
		</trkpt>

		<trkpt lat="37.888443" lon="-1.594374">
			<ele>2028.000000</ele>
		<time>2013-08-31T03:04:52Z</time>
		</trkpt>

		<trkpt lat="37.888179" lon="-1.594473">
			<ele>2026.000000</ele>
		<time>2013-08-31T03:04:55Z</time>
		</trkpt>

		<trkpt lat="37.887937" lon="-1.594670">
			<ele>2021.000000</ele>
		<time>2013-08-31T03:04:58Z</time>
		</trkpt>

		<trkpt lat="37.887773" lon="-1.594907">
			<ele>2021.000000</ele>
		<time>2013-08-31T03:05:01Z</time>
		</trkpt>

		<trkpt lat="37.887615" lon="-1.595126">
			<ele>2021.000000</ele>
		<time>2013-08-31T03:05:04Z</time>
		</trkpt>

		<trkpt lat="37.887458" lon="-1.595358">
			<ele>2018.000000</ele>
		<time>2013-08-31T03:05:07Z</time>
		</trkpt>

		<trkpt lat="37.887285" lon="-1.595624">
			<ele>2016.000000</ele>
		<time>2013-08-31T03:05:10Z</time>
		</trkpt>

		<trkpt lat="37.887082" lon="-1.595894">
			<ele>2015.000000</ele>
		<time>2013-08-31T03:05:13Z</time>
		</trkpt>

		<trkpt lat="37.886861" lon="-1.596123">
			<ele>2014.000000</ele>
		<time>2013-08-31T03:05:16Z</time>
		</trkpt>

		<trkpt lat="37.886627" lon="-1.596309">
			<ele>2013.000000</ele>
		<time>2013-08-31T03:05:19Z</time>
		</trkpt>

		<trkpt lat="37.886365" lon="-1.596480">
			<ele>2012.000000</ele>
		<time>2013-08-31T03:05:22Z</time>
		</trkpt>

		<trkpt lat="37.886097" lon="-1.596641">
			<ele>2012.000000</ele>
		<time>2013-08-31T03:05:25Z</time>
		</trkpt>

		<trkpt lat="37.885842" lon="-1.596788">
			<ele>2011.000000</ele>
		<time>2013-08-31T03:05:28Z</time>
		</trkpt>

		<trkpt lat="37.885596" lon="-1.596954">
			<ele>2011.000000</ele>
		<time>2013-08-31T03:05:31Z</time>
		</trkpt>

		<trkpt lat="37.885387" lon="-1.597109">
			<ele>2010.000000</ele>
		<time>2013-08-31T03:05:34Z</time>
		</trkpt>

		<trkpt lat="37.885182" lon="-1.597313">
			<ele>2008.000000</ele>
		<time>2013-08-31T03:05:37Z</time>
		</trkpt>

		<trkpt lat="37.884994" lon="-1.597581">
			<ele>2006.000000</ele>
		<time>2013-08-31T03:05:40Z</time>
		</trkpt>

		<trkpt lat="37.884811" lon="-1.597858">
			<ele>2005.000000</ele>
		<time>2013-08-31T03:05:43Z</time>
		</trkpt>

		<trkpt lat="37.884647" lon="-1.598137">
			<ele>2003.000000</ele>
		<time>2013-08-31T03:05:46Z</time>
		</trkpt>

		<trkpt lat="37.884488" lon="-1.598448">
			<ele>2002.000000</ele>
		<time>2013-08-31T03:05:49Z</time>
		</trkpt>

		<trkpt lat="37.884328" lon="-1.598760">
			<ele>2001.000000</ele>
		<time>2013-08-31T03:05:52Z</time>
		</trkpt>

		<trkpt lat="37.884153" lon="-1.599061">
			<ele>2001.000000</ele>
		<time>2013-08-31T03:05:55Z</time>
		</trkpt>

		<trkpt lat="37.883968" lon="-1.599333">
			<ele>1999.000000</ele>
		<time>2013-08-31T03:05:58Z</time>
		</trkpt>

		<trkpt lat="37.883733" lon="-1.599533">
			<ele>1996.000000</ele>
		<time>2013-08-31T03:06:01Z</time>
		</trkpt>

		<trkpt lat="37.883481" lon="-1.599733">
			<ele>1992.000000</ele>
		<time>2013-08-31T03:06:04Z</time>
		</trkpt>

		<trkpt lat="37.883203" lon="-1.599936">
			<ele>1986.000000</ele>
		<time>2013-08-31T03:06:07Z</time>
		</trkpt>

		<trkpt lat="37.882929" lon="-1.600119">
			<ele>1981.000000</ele>
		<time>2013-08-31T03:06:10Z</time>
		</trkpt>

		<trkpt lat="37.882682" lon="-1.600330">
			<ele>1977.000000</ele>
		<time>2013-08-31T03:06:13Z</time>
		</trkpt>

		<trkpt lat="37.882421" lon="-1.600530">
			<ele>1973.000000</ele>
		<time>2013-08-31T03:06:16Z</time>
		</trkpt>

		<trkpt lat="37.882148" lon="-1.600712">
			<ele>1971.000000</ele>
		<time>2013-08-31T03:06:19Z</time>
		</trkpt>

		<trkpt lat="37.881882" lon="-1.600887">
			<ele>1967.000000</ele>
		<time>2013-08-31T03:06:22Z</time>
		</trkpt>

		<trkpt lat="37.881630" lon="-1.601082">
			<ele>1966.000000</ele>
		<time>2013-08-31T03:06:25Z</time>
		</trkpt>

		<trkpt lat="37.881375" lon="-1.601287">
			<ele>1963.000000</ele>
		<time>2013-08-31T03:06:28Z</time>
		</trkpt>

		<trkpt lat="37.881105" lon="-1.601478">
			<ele>1958.000000</ele>
		<time>2013-08-31T03:06:31Z</time>
		</trkpt>

		<trkpt lat="37.880835" lon="-1.601687">
			<ele>1955.000000</ele>
		<time>2013-08-31T03:06:34Z</time>
		</trkpt>

		<trkpt lat="37.880626" lon="-1.601911">
			<ele>1952.000000</ele>
		<time>2013-08-31T03:06:37Z</time>
		</trkpt>

		<trkpt lat="37.880385" lon="-1.602180">
			<ele>1946.000000</ele>
		<time>2013-08-31T03:06:40Z</time>
		</trkpt>

		<trkpt lat="37.880150" lon="-1.602391">
			<ele>1943.000000</ele>
		<time>2013-08-31T03:06:43Z</time>
		</trkpt>

		<trkpt lat="37.879863" lon="-1.602587">
			<ele>1936.000000</ele>
		<time>2013-08-31T03:06:46Z</time>
		</trkpt>

		<trkpt lat="37.879564" lon="-1.602736">
			<ele>1934.000000</ele>
		<time>2013-08-31T03:06:49Z</time>
		</trkpt>

		<trkpt lat="37.879361" lon="-1.602813">
			<ele>1937.000000</ele>
		<time>2013-08-31T03:06:52Z</time>
		</trkpt>

		<trkpt lat="37.879137" lon="-1.602859">
			<ele>1937.000000</ele>
		<time>2013-08-31T03:06:55Z</time>
		</trkpt>

		<trkpt lat="37.878855" lon="-1.602875">
			<ele>1935.000000</ele>
		<time>2013-08-31T03:06:58Z</time>
		</trkpt>

		<trkpt lat="37.878553" lon="-1.602884">
			<ele>1933.000000</ele>
		<time>2013-08-31T03:07:01Z</time>
		</trkpt>

		<trkpt lat="37.878234" lon="-1.602889">
			<ele>1931.000000</ele>
		<time>2013-08-31T03:07:04Z</time>
		</trkpt>

		<trkpt lat="37.877939" lon="-1.602888">
			<ele>1929.000000</ele>
		<time>2013-08-31T03:07:07Z</time>
		</trkpt>

		<trkpt lat="37.877641" lon="-1.602922">
			<ele>1926.000000</ele>
		<time>2013-08-31T03:07:10Z</time>
		</trkpt>

		<trkpt lat="37.877336" lon="-1.602951">
			<ele>1922.000000</ele>
		<time>2013-08-31T03:07:13Z</time>
		</trkpt>

		<trkpt lat="37.877040" lon="-1.602970">
			<ele>1919.000000</ele>
		<time>2013-08-31T03:07:16Z</time>
		</trkpt>

		<trkpt lat="37.876745" lon="-1.602995">
			<ele>1917.000000</ele>
		<time>2013-08-31T03:07:19Z</time>
		</trkpt>

		<trkpt lat="37.876455" lon="-1.603013">
			<ele>1915.000000</ele>
		<time>2013-08-31T03:07:22Z</time>
		</trkpt>

		<trkpt lat="37.876190" lon="-1.603004">
			<ele>1913.000000</ele>
		<time>2013-08-31T03:07:25Z</time>
		</trkpt>

		<trkpt lat="37.875938" lon="-1.602959">
			<ele>1913.000000</ele>
		<time>2013-08-31T03:07:28Z</time>
		</trkpt>

		<trkpt lat="37.875681" lon="-1.602887">
			<ele>1912.000000</ele>
		<time>2013-08-31T03:07:31Z</time>
		</trkpt>

		<trkpt lat="37.875429" lon="-1.602779">
			<ele>1912.000000</ele>
		<time>2013-08-31T03:07:34Z</time>
		</trkpt>

		<trkpt lat="37.875222" lon="-1.602664">
			<ele>1911.000000</ele>
		<time>2013-08-31T03:07:37Z</time>
		</trkpt>

		<trkpt lat="37.874959" lon="-1.602543">
			<ele>1910.000000</ele>
		<time>2013-08-31T03:07:40Z</time>
		</trkpt>

		<trkpt lat="37.874728" lon="-1.602439">
			<ele>1908.000000</ele>
		<time>2013-08-31T03:07:43Z</time>
		</trkpt>

		<trkpt lat="37.874456" lon="-1.602321">
			<ele>1906.000000</ele>
		<time>2013-08-31T03:07:46Z</time>
		</trkpt>

		<trkpt lat="37.874205" lon="-1.602193">
			<ele>1901.000000</ele>
		<time>2013-08-31T03:07:49Z</time>
		</trkpt>

		<trkpt lat="37.873966" lon="-1.602064">
			<ele>1901.000000</ele>
		<time>2013-08-31T03:07:52Z</time>
		</trkpt>

		<trkpt lat="37.873737" lon="-1.601979">
			<ele>1906.000000</ele>
		<time>2013-08-31T03:07:55Z</time>
		</trkpt>

		<trkpt lat="37.873547" lon="-1.601851">
			<ele>1911.000000</ele>
		<time>2013-08-31T03:07:58Z</time>
		</trkpt>

		<trkpt lat="37.873390" lon="-1.601665">
			<ele>1918.000000</ele>
		<time>2013-08-31T03:08:01Z</time>
		</trkpt>

		<trkpt lat="37.873424" lon="-1.601411">
			<ele>1924.000000</ele>
		<time>2013-08-31T03:08:04Z</time>
		</trkpt>

		<trkpt lat="37.873535" lon="-1.601190">
			<ele>1929.000000</ele>
		<time>2013-08-31T03:08:07Z</time>
		</trkpt>

		<trkpt lat="37.873735" lon="-1.601057">
			<ele>1931.000000</ele>
		<time>2013-08-31T03:08:10Z</time>
		</trkpt>

		<trkpt lat="37.873992" lon="-1.601243">
			<ele>1931.000000</ele>
		<time>2013-08-31T03:08:13Z</time>
		</trkpt>

		<trkpt lat="37.874039" lon="-1.601611">
			<ele>1933.000000</ele>
		<time>2013-08-31T03:08:16Z</time>
		</trkpt>

		<trkpt lat="37.874001" lon="-1.601781">
			<ele>1939.000000</ele>
		<time>2013-08-31T03:08:19Z</time>
		</trkpt>

		<trkpt lat="37.873886" lon="-1.601982">
			<ele>1942.000000</ele>
		<time>2013-08-31T03:08:22Z</time>
		</trkpt>

		<trkpt lat="37.873681" lon="-1.602174">
			<ele>1945.000000</ele>
		<time>2013-08-31T03:08:25Z</time>
		</trkpt>

		<trkpt lat="37.873433" lon="-1.602207">
			<ele>1945.000000</ele>
		<time>2013-08-31T03:08:28Z</time>
		</trkpt>

		<trkpt lat="37.873189" lon="-1.602038">
			<ele>1945.000000</ele>
		<time>2013-08-31T03:08:31Z</time>
		</trkpt>

		<trkpt lat="37.872993" lon="-1.601828">
			<ele>1949.000000</ele>
		<time>2013-08-31T03:08:34Z</time>
		</trkpt>

		<trkpt lat="37.872816" lon="-1.601614">
			<ele>1951.000000</ele>
		<time>2013-08-31T03:08:37Z</time>
		</trkpt>

		<trkpt lat="37.872819" lon="-1.601240">
			<ele>1953.000000</ele>
		<time>2013-08-31T03:08:40Z</time>
		</trkpt>

		<trkpt lat="37.873008" lon="-1.601003">
			<ele>1956.000000</ele>
		<time>2013-08-31T03:08:43Z</time>
		</trkpt>

		<trkpt lat="37.873288" lon="-1.600970">
			<ele>1958.000000</ele>
		<time>2013-08-31T03:08:46Z</time>
		</trkpt>

		<trkpt lat="37.873459" lon="-1.601169">
			<ele>1961.000000</ele>
		<time>2013-08-31T03:08:49Z</time>
		</trkpt>

		<trkpt lat="37.873410" lon="-1.601514">
			<ele>1962.000000</ele>
		<time>2013-08-31T03:08:52Z</time>
		</trkpt>

		<trkpt lat="37.873110" lon="-1.601666">
			<ele>1966.000000</ele>
		<time>2013-08-31T03:08:55Z</time>
		</trkpt>

		<trkpt lat="37.872814" lon="-1.601613">
			<ele>1971.000000</ele>
		<time>2013-08-31T03:08:58Z</time>
		</trkpt>

		<trkpt lat="37.872593" lon="-1.601385">
			<ele>1974.000000</ele>
		<time>2013-08-31T03:09:01Z</time>
		</trkpt>

		<trkpt lat="37.872557" lon="-1.601024">
			<ele>1977.000000</ele>
		<time>2013-08-31T03:09:04Z</time>
		</trkpt>

		<trkpt lat="37.872699" lon="-1.600722">
			<ele>1981.000000</ele>
		<time>2013-08-31T03:09:07Z</time>
		</trkpt>

		<trkpt lat="37.872957" lon="-1.600612">
			<ele>1983.000000</ele>
		<time>2013-08-31T03:09:10Z</time>
		</trkpt>

		<trkpt lat="37.873151" lon="-1.600806">
			<ele>1986.000000</ele>
		<time>2013-08-31T03:09:13Z</time>
		</trkpt>

		<trkpt lat="37.873174" lon="-1.601063">
			<ele>1988.000000</ele>
		<time>2013-08-31T03:09:16Z</time>
		</trkpt>

		<trkpt lat="37.873003" lon="-1.601269">
			<ele>1992.000000</ele>
		<time>2013-08-31T03:09:19Z</time>
		</trkpt>

		<trkpt lat="37.872793" lon="-1.601382">
			<ele>1997.000000</ele>
		<time>2013-08-31T03:09:22Z</time>
		</trkpt>

		<trkpt lat="37.872524" lon="-1.601420">
			<ele>1999.000000</ele>
		<time>2013-08-31T03:09:25Z</time>
		</trkpt>

		<trkpt lat="37.872257" lon="-1.601178">
			<ele>2004.000000</ele>
		<time>2013-08-31T03:09:28Z</time>
		</trkpt>

		<trkpt lat="37.872191" lon="-1.600850">
			<ele>2010.000000</ele>
		<time>2013-08-31T03:09:31Z</time>
		</trkpt>

		<trkpt lat="37.872322" lon="-1.600607">
			<ele>2013.000000</ele>
		<time>2013-08-31T03:09:34Z</time>
		</trkpt>

		<trkpt lat="37.872573" lon="-1.600526">
			<ele>2011.000000</ele>
		<time>2013-08-31T03:09:37Z</time>
		</trkpt>

		<trkpt lat="37.872760" lon="-1.600729">
			<ele>2010.000000</ele>
		<time>2013-08-31T03:09:40Z</time>
		</trkpt>

		<trkpt lat="37.872784" lon="-1.600937">
			<ele>2012.000000</ele>
		<time>2013-08-31T03:09:43Z</time>
		</trkpt>

		<trkpt lat="37.872549" lon="-1.601090">
			<ele>2015.000000</ele>
		<time>2013-08-31T03:09:46Z</time>
		</trkpt>

		<trkpt lat="37.872198" lon="-1.601088">
			<ele>2017.000000</ele>
		<time>2013-08-31T03:09:49Z</time>
		</trkpt>

		<trkpt lat="37.871796" lon="-1.600994">
			<ele>2019.000000</ele>
		<time>2013-08-31T03:09:52Z</time>
		</trkpt>

		<trkpt lat="37.871440" lon="-1.600839">
			<ele>2022.000000</ele>
		<time>2013-08-31T03:09:55Z</time>
		</trkpt>

		<trkpt lat="37.871224" lon="-1.600616">
			<ele>2024.000000</ele>
		<time>2013-08-31T03:09:58Z</time>
		</trkpt>

		<trkpt lat="37.871064" lon="-1.600334">
			<ele>2023.000000</ele>
		<time>2013-08-31T03:10:01Z</time>
		</trkpt>

		<trkpt lat="37.871163" lon="-1.599986">
			<ele>2020.000000</ele>
		<time>2013-08-31T03:10:04Z</time>
		</trkpt>

		<trkpt lat="37.871442" lon="-1.599902">
			<ele>2016.000000</ele>
		<time>2013-08-31T03:10:07Z</time>
		</trkpt>

		<trkpt lat="37.871633" lon="-1.600147">
			<ele>2015.000000</ele>
		<time>2013-08-31T03:10:10Z</time>
		</trkpt>

		<trkpt lat="37.871768" lon="-1.600418">
			<ele>2016.000000</ele>
		<time>2013-08-31T03:10:13Z</time>
		</trkpt>

		<trkpt lat="37.871886" lon="-1.600756">
			<ele>2013.000000</ele>
		<time>2013-08-31T03:10:16Z</time>
		</trkpt>

		<trkpt lat="37.871944" lon="-1.601133">
			<ele>2009.000000</ele>
		<time>2013-08-31T03:10:19Z</time>
		</trkpt>

		<trkpt lat="37.871753" lon="-1.601408">
			<ele>2009.000000</ele>
		<time>2013-08-31T03:10:22Z</time>
		</trkpt>

		<trkpt lat="37.871385" lon="-1.601626">
			<ele>2010.000000</ele>
		<time>2013-08-31T03:10:25Z</time>
		</trkpt>

		<trkpt lat="37.871054" lon="-1.601812">
			<ele>2012.000000</ele>
		<time>2013-08-31T03:10:28Z</time>
		</trkpt>

		<trkpt lat="37.870786" lon="-1.601996">
			<ele>2014.000000</ele>
		<time>2013-08-31T03:10:31Z</time>
		</trkpt>

		<trkpt lat="37.870549" lon="-1.602187">
			<ele>2016.000000</ele>
		<time>2013-08-31T03:10:34Z</time>
		</trkpt>

		<trkpt lat="37.870306" lon="-1.602318">
			<ele>2017.000000</ele>
		<time>2013-08-31T03:10:37Z</time>
		</trkpt>

		<trkpt lat="37.870107" lon="-1.602439">
			<ele>2015.000000</ele>
		<time>2013-08-31T03:10:40Z</time>
		</trkpt>

		<trkpt lat="37.869824" lon="-1.602420">
			<ele>2012.000000</ele>
		<time>2013-08-31T03:10:43Z</time>
		</trkpt>

		<trkpt lat="37.869537" lon="-1.602208">
			<ele>2012.000000</ele>
		<time>2013-08-31T03:10:46Z</time>
		</trkpt>

		<trkpt lat="37.869251" lon="-1.601977">
			<ele>2010.000000</ele>
		<time>2013-08-31T03:10:49Z</time>
		</trkpt>

		<trkpt lat="37.868963" lon="-1.601818">
			<ele>2008.000000</ele>
		<time>2013-08-31T03:10:52Z</time>
		</trkpt>

		<trkpt lat="37.868650" lon="-1.601698">
			<ele>2006.000000</ele>
		<time>2013-08-31T03:10:55Z</time>
		</trkpt>

		<trkpt lat="37.868389" lon="-1.601627">
			<ele>2005.000000</ele>
		<time>2013-08-31T03:10:58Z</time>
		</trkpt>

		<trkpt lat="37.868102" lon="-1.601531">
			<ele>2003.000000</ele>
		<time>2013-08-31T03:11:01Z</time>
		</trkpt>

		<trkpt lat="37.867808" lon="-1.601419">
			<ele>2002.000000</ele>
		<time>2013-08-31T03:11:04Z</time>
		</trkpt>

		<trkpt lat="37.867525" lon="-1.601312">
			<ele>2000.000000</ele>
		<time>2013-08-31T03:11:07Z</time>
		</trkpt>

		<trkpt lat="37.867251" lon="-1.601160">
			<ele>1998.000000</ele>
		<time>2013-08-31T03:11:10Z</time>
		</trkpt>

		<trkpt lat="37.866992" lon="-1.600988">
			<ele>1995.000000</ele>
		<time>2013-08-31T03:11:13Z</time>
		</trkpt>

		<trkpt lat="37.866726" lon="-1.600762">
			<ele>1992.000000</ele>
		<time>2013-08-31T03:11:16Z</time>
		</trkpt>

		<trkpt lat="37.866490" lon="-1.600566">
			<ele>1992.000000</ele>
		<time>2013-08-31T03:11:19Z</time>
		</trkpt>

		<trkpt lat="37.866274" lon="-1.600402">
			<ele>1987.000000</ele>
		<time>2013-08-31T03:11:22Z</time>
		</trkpt>

		<trkpt lat="37.866070" lon="-1.600222">
			<ele>1983.000000</ele>
		<time>2013-08-31T03:11:25Z</time>
		</trkpt>

		<trkpt lat="37.865893" lon="-1.600039">
			<ele>1979.000000</ele>
		<time>2013-08-31T03:11:28Z</time>
		</trkpt>

		<trkpt lat="37.865702" lon="-1.599779">
			<ele>1973.000000</ele>
		<time>2013-08-31T03:11:31Z</time>
		</trkpt>

		<trkpt lat="37.865431" lon="-1.599631">
			<ele>1970.000000</ele>
		<time>2013-08-31T03:11:34Z</time>
		</trkpt>

		<trkpt lat="37.865163" lon="-1.599504">
			<ele>1966.000000</ele>
		<time>2013-08-31T03:11:37Z</time>
		</trkpt>

		<trkpt lat="37.864883" lon="-1.599351">
			<ele>1961.000000</ele>
		<time>2013-08-31T03:11:40Z</time>
		</trkpt>

		<trkpt lat="37.864621" lon="-1.599233">
			<ele>1956.000000</ele>
		<time>2013-08-31T03:11:43Z</time>
		</trkpt>

		<trkpt lat="37.864308" lon="-1.599137">
			<ele>1952.000000</ele>
		<time>2013-08-31T03:11:46Z</time>
		</trkpt>

		<trkpt lat="37.863992" lon="-1.599064">
			<ele>1947.000000</ele>
		<time>2013-08-31T03:11:49Z</time>
		</trkpt>

		<trkpt lat="37.863751" lon="-1.598996">
			<ele>1941.000000</ele>
		<time>2013-08-31T03:11:52Z</time>
		</trkpt>

		<trkpt lat="37.863487" lon="-1.598914">
			<ele>1936.000000</ele>
		<time>2013-08-31T03:11:55Z</time>
		</trkpt>

		<trkpt lat="37.863236" lon="-1.598811">
			<ele>1933.000000</ele>
		<time>2013-08-31T03:11:58Z</time>
		</trkpt>

		<trkpt lat="37.862975" lon="-1.598679">
			<ele>1928.000000</ele>
		<time>2013-08-31T03:12:01Z</time>
		</trkpt>

		<trkpt lat="37.862689" lon="-1.598565">
			<ele>1922.000000</ele>
		<time>2013-08-31T03:12:04Z</time>
		</trkpt>

		<trkpt lat="37.862427" lon="-1.598399">
			<ele>1917.000000</ele>
		<time>2013-08-31T03:12:07Z</time>
		</trkpt>

		<trkpt lat="37.862210" lon="-1.598196">
			<ele>1912.000000</ele>
		<time>2013-08-31T03:12:10Z</time>
		</trkpt>

		<trkpt lat="37.861992" lon="-1.598058">
			<ele>1910.000000</ele>
		<time>2013-08-31T03:12:13Z</time>
		</trkpt>

		<trkpt lat="37.861773" lon="-1.597912">
			<ele>1907.000000</ele>
		<time>2013-08-31T03:12:16Z</time>
		</trkpt>

		<trkpt lat="37.861592" lon="-1.597734">
			<ele>1904.000000</ele>
		<time>2013-08-31T03:12:19Z</time>
		</trkpt>

		<trkpt lat="37.861428" lon="-1.597563">
			<ele>1902.000000</ele>
		<time>2013-08-31T03:12:22Z</time>
		</trkpt>

		<trkpt lat="37.861268" lon="-1.597408">
			<ele>1897.000000</ele>
		<time>2013-08-31T03:12:25Z</time>
		</trkpt>

		<trkpt lat="37.861022" lon="-1.597289">
			<ele>1892.000000</ele>
		<time>2013-08-31T03:12:28Z</time>
		</trkpt>

		<trkpt lat="37.860776" lon="-1.597217">
			<ele>1888.000000</ele>
		<time>2013-08-31T03:12:31Z</time>
		</trkpt>

		<trkpt lat="37.860511" lon="-1.597163">
			<ele>1884.000000</ele>
		<time>2013-08-31T03:12:34Z</time>
		</trkpt>

		<trkpt lat="37.860285" lon="-1.597107">
			<ele>1881.000000</ele>
		<time>2013-08-31T03:12:37Z</time>
		</trkpt>

		<trkpt lat="37.860050" lon="-1.597034">
			<ele>1878.000000</ele>
		<time>2013-08-31T03:12:40Z</time>
		</trkpt>

		<trkpt lat="37.859832" lon="-1.596975">
			<ele>1875.000000</ele>
		<time>2013-08-31T03:12:43Z</time>
		</trkpt>

		<trkpt lat="37.859605" lon="-1.596873">
			<ele>1870.000000</ele>
		<time>2013-08-31T03:12:46Z</time>
		</trkpt>

		<trkpt lat="37.859363" lon="-1.596736">
			<ele>1866.000000</ele>
		<time>2013-08-31T03:12:49Z</time>
		</trkpt>

		<trkpt lat="37.859140" lon="-1.596597">
			<ele>1864.000000</ele>
		<time>2013-08-31T03:12:52Z</time>
		</trkpt>

		<trkpt lat="37.858951" lon="-1.596465">
			<ele>1862.000000</ele>
		<time>2013-08-31T03:12:55Z</time>
		</trkpt>

		<trkpt lat="37.858738" lon="-1.596352">
			<ele>1859.000000</ele>
		<time>2013-08-31T03:12:58Z</time>
		</trkpt>

		<trkpt lat="37.858574" lon="-1.596202">
			<ele>1856.000000</ele>
		<time>2013-08-31T03:13:01Z</time>
		</trkpt>

		<trkpt lat="37.858391" lon="-1.596037">
			<ele>1852.000000</ele>
		<time>2013-08-31T03:13:04Z</time>
		</trkpt>

		<trkpt lat="37.858175" lon="-1.595887">
			<ele>1849.000000</ele>
		<time>2013-08-31T03:13:07Z</time>
		</trkpt>

		<trkpt lat="37.857963" lon="-1.595786">
			<ele>1848.000000</ele>
		<time>2013-08-31T03:13:10Z</time>
		</trkpt>

		<trkpt lat="37.857721" lon="-1.595660">
			<ele>1845.000000</ele>
		<time>2013-08-31T03:13:13Z</time>
		</trkpt>

		<trkpt lat="37.857517" lon="-1.595507">
			<ele>1845.000000</ele>
		<time>2013-08-31T03:13:16Z</time>
		</trkpt>

		<trkpt lat="37.857361" lon="-1.595343">
			<ele>1845.000000</ele>
		<time>2013-08-31T03:13:19Z</time>
		</trkpt>

		<trkpt lat="37.857227" lon="-1.595218">
			<ele>1845.000000</ele>
		<time>2013-08-31T03:13:22Z</time>
		</trkpt>

		<trkpt lat="37.857022" lon="-1.595087">
			<ele>1846.000000</ele>
		<time>2013-08-31T03:13:25Z</time>
		</trkpt>

		<trkpt lat="37.856845" lon="-1.594977">
			<ele>1845.000000</ele>
		<time>2013-08-31T03:13:28Z</time>
		</trkpt>

		<trkpt lat="37.856636" lon="-1.594866">
			<ele>1843.000000</ele>
		<time>2013-08-31T03:13:31Z</time>
		</trkpt>

		<trkpt lat="37.856405" lon="-1.594754">
			<ele>1841.000000</ele>
		<time>2013-08-31T03:13:34Z</time>
		</trkpt>

		<trkpt lat="37.856170" lon="-1.594636">
			<ele>1839.000000</ele>
		<time>2013-08-31T03:13:37Z</time>
		</trkpt>

		<trkpt lat="37.855915" lon="-1.594478">
			<ele>1837.000000</ele>
		<time>2013-08-31T03:13:40Z</time>
		</trkpt>

		<trkpt lat="37.855662" lon="-1.594325">
			<ele>1836.000000</ele>
		<time>2013-08-31T03:13:43Z</time>
		</trkpt>

		<trkpt lat="37.855430" lon="-1.594173">
			<ele>1836.000000</ele>
		<time>2013-08-31T03:13:46Z</time>
		</trkpt>

		<trkpt lat="37.855197" lon="-1.594018">
			<ele>1836.000000</ele>
		<time>2013-08-31T03:13:49Z</time>
		</trkpt>

		<trkpt lat="37.854958" lon="-1.593858">
			<ele>1836.000000</ele>
		<time>2013-08-31T03:13:52Z</time>
		</trkpt>

		<trkpt lat="37.854715" lon="-1.593792">
			<ele>1837.000000</ele>
		<time>2013-08-31T03:13:55Z</time>
		</trkpt>

		<trkpt lat="37.854434" lon="-1.593776">
			<ele>1836.000000</ele>
		<time>2013-08-31T03:13:58Z</time>
		</trkpt>

		<trkpt lat="37.854165" lon="-1.593737">
			<ele>1837.000000</ele>
		<time>2013-08-31T03:14:01Z</time>
		</trkpt>

		<trkpt lat="37.853894" lon="-1.593729">
			<ele>1837.000000</ele>
		<time>2013-08-31T03:14:04Z</time>
		</trkpt>

		<trkpt lat="37.853623" lon="-1.593651">
			<ele>1835.000000</ele>
		<time>2013-08-31T03:14:07Z</time>
		</trkpt>

		<trkpt lat="37.853388" lon="-1.593513">
			<ele>1832.000000</ele>
		<time>2013-08-31T03:14:10Z</time>
		</trkpt>

		<trkpt lat="37.853183" lon="-1.593319">
			<ele>1829.000000</ele>
		<time>2013-08-31T03:14:13Z</time>
		</trkpt>

		<trkpt lat="37.852956" lon="-1.593110">
			<ele>1824.000000</ele>
		<time>2013-08-31T03:14:16Z</time>
		</trkpt>

		<trkpt lat="37.852724" lon="-1.592958">
			<ele>1823.000000</ele>
		<time>2013-08-31T03:14:19Z</time>
		</trkpt>

		<trkpt lat="37.852501" lon="-1.592784">
			<ele>1819.000000</ele>
		<time>2013-08-31T03:14:22Z</time>
		</trkpt>

		<trkpt lat="37.852313" lon="-1.592599">
			<ele>1819.000000</ele>
		<time>2013-08-31T03:14:25Z</time>
		</trkpt>

		<trkpt lat="37.852060" lon="-1.592501">
			<ele>1817.000000</ele>
		<time>2013-08-31T03:14:28Z</time>
		</trkpt>

		<trkpt lat="37.851802" lon="-1.592333">
			<ele>1814.000000</ele>
		<time>2013-08-31T03:14:31Z</time>
		</trkpt>

		<trkpt lat="37.851568" lon="-1.592150">
			<ele>1811.000000</ele>
		<time>2013-08-31T03:14:34Z</time>
		</trkpt>

		<trkpt lat="37.851324" lon="-1.591988">
			<ele>1805.000000</ele>
		<time>2013-08-31T03:14:37Z</time>
		</trkpt>

		<trkpt lat="37.851074" lon="-1.591819">
			<ele>1798.000000</ele>
		<time>2013-08-31T03:14:40Z</time>
		</trkpt>

		<trkpt lat="37.850822" lon="-1.591633">
			<ele>1791.000000</ele>
		<time>2013-08-31T03:14:43Z</time>
		</trkpt>

		<trkpt lat="37.850578" lon="-1.591422">
			<ele>1783.000000</ele>
		<time>2013-08-31T03:14:46Z</time>
		</trkpt>

		<trkpt lat="37.850360" lon="-1.591267">
			<ele>1778.000000</ele>
		<time>2013-08-31T03:14:49Z</time>
		</trkpt>

		<trkpt lat="37.850142" lon="-1.591095">
			<ele>1771.000000</ele>
		<time>2013-08-31T03:14:52Z</time>
		</trkpt>

		<trkpt lat="37.849934" lon="-1.590919">
			<ele>1765.000000</ele>
		<time>2013-08-31T03:14:55Z</time>
		</trkpt>

		<trkpt lat="37.849699" lon="-1.590739">
			<ele>1759.000000</ele>
		<time>2013-08-31T03:14:58Z</time>
		</trkpt>

		<trkpt lat="37.849458" lon="-1.590564">
			<ele>1754.000000</ele>
		<time>2013-08-31T03:15:01Z</time>
		</trkpt>

		<trkpt lat="37.849220" lon="-1.590386">
			<ele>1749.000000</ele>
		<time>2013-08-31T03:15:04Z</time>
		</trkpt>

		<trkpt lat="37.849006" lon="-1.590178">
			<ele>1744.000000</ele>
		<time>2013-08-31T03:15:07Z</time>
		</trkpt>

		<trkpt lat="37.848781" lon="-1.589938">
			<ele>1739.000000</ele>
		<time>2013-08-31T03:15:10Z</time>
		</trkpt>

		<trkpt lat="37.848563" lon="-1.589693">
			<ele>1734.000000</ele>
		<time>2013-08-31T03:15:13Z</time>
		</trkpt>

		<trkpt lat="37.848417" lon="-1.589421">
			<ele>1730.000000</ele>
		<time>2013-08-31T03:15:16Z</time>
		</trkpt>

		<trkpt lat="37.848263" lon="-1.589117">
			<ele>1727.000000</ele>
		<time>2013-08-31T03:15:19Z</time>
		</trkpt>

		<trkpt lat="37.848129" lon="-1.588867">
			<ele>1725.000000</ele>
		<time>2013-08-31T03:15:22Z</time>
		</trkpt>

		<trkpt lat="37.847967" lon="-1.588579">
			<ele>1720.000000</ele>
		<time>2013-08-31T03:15:25Z</time>
		</trkpt>

		<trkpt lat="37.847814" lon="-1.588284">
			<ele>1717.000000</ele>
		<time>2013-08-31T03:15:28Z</time>
		</trkpt>

		<trkpt lat="37.847688" lon="-1.588034">
			<ele>1716.000000</ele>
		<time>2013-08-31T03:15:31Z</time>
		</trkpt>

		<trkpt lat="37.847612" lon="-1.587725">
			<ele>1712.000000</ele>
		<time>2013-08-31T03:15:34Z</time>
		</trkpt>

		<trkpt lat="37.847572" lon="-1.587453">
			<ele>1710.000000</ele>
		<time>2013-08-31T03:15:37Z</time>
		</trkpt>

		<trkpt lat="37.847524" lon="-1.587144">
			<ele>1706.000000</ele>
		<time>2013-08-31T03:15:40Z</time>
		</trkpt>

		<trkpt lat="37.847450" lon="-1.586843">
			<ele>1704.000000</ele>
		<time>2013-08-31T03:15:43Z</time>
		</trkpt>

		<trkpt lat="37.847378" lon="-1.586559">
			<ele>1701.000000</ele>
		<time>2013-08-31T03:15:46Z</time>
		</trkpt>

		<trkpt lat="37.847301" lon="-1.586295">
			<ele>1699.000000</ele>
		<time>2013-08-31T03:15:49Z</time>
		</trkpt>

		<trkpt lat="37.847211" lon="-1.586016">
			<ele>1696.000000</ele>
		<time>2013-08-31T03:15:52Z</time>
		</trkpt>

		<trkpt lat="37.847108" lon="-1.585714">
			<ele>1692.000000</ele>
		<time>2013-08-31T03:15:55Z</time>
		</trkpt>

		<trkpt lat="37.846992" lon="-1.585429">
			<ele>1689.000000</ele>
		<time>2013-08-31T03:15:58Z</time>
		</trkpt>

		<trkpt lat="37.846880" lon="-1.585097">
			<ele>1686.000000</ele>
		<time>2013-08-31T03:16:01Z</time>
		</trkpt>

		<trkpt lat="37.846796" lon="-1.584844">
			<ele>1688.000000</ele>
		<time>2013-08-31T03:16:04Z</time>
		</trkpt>

		<trkpt lat="37.846742" lon="-1.584618">
			<ele>1685.000000</ele>
		<time>2013-08-31T03:16:07Z</time>
		</trkpt>

		<trkpt lat="37.846647" lon="-1.584346">
			<ele>1685.000000</ele>
		<time>2013-08-31T03:16:10Z</time>
		</trkpt>

		<trkpt lat="37.846574" lon="-1.584136">
			<ele>1684.000000</ele>
		<time>2013-08-31T03:16:13Z</time>
		</trkpt>

		<trkpt lat="37.846467" lon="-1.583851">
			<ele>1682.000000</ele>
		<time>2013-08-31T03:16:16Z</time>
		</trkpt>

		<trkpt lat="37.846346" lon="-1.583570">
			<ele>1682.000000</ele>
		<time>2013-08-31T03:16:19Z</time>
		</trkpt>

		<trkpt lat="37.846242" lon="-1.583337">
			<ele>1683.000000</ele>
		<time>2013-08-31T03:16:22Z</time>
		</trkpt>

		<trkpt lat="37.846145" lon="-1.583048">
			<ele>1682.000000</ele>
		<time>2013-08-31T03:16:25Z</time>
		</trkpt>

		<trkpt lat="37.846150" lon="-1.582771">
			<ele>1681.000000</ele>
		<time>2013-08-31T03:16:28Z</time>
		</trkpt>

		<trkpt lat="37.846160" lon="-1.582529">
			<ele>1680.000000</ele>
		<time>2013-08-31T03:16:31Z</time>
		</trkpt>

		<trkpt lat="37.846257" lon="-1.582272">
			<ele>1680.000000</ele>
		<time>2013-08-31T03:16:34Z</time>
		</trkpt>

		<trkpt lat="37.846332" lon="-1.582024">
			<ele>1681.000000</ele>
		<time>2013-08-31T03:16:37Z</time>
		</trkpt>

		<trkpt lat="37.846353" lon="-1.581786">
			<ele>1680.000000</ele>
		<time>2013-08-31T03:16:40Z</time>
		</trkpt>

		<trkpt lat="37.846345" lon="-1.581534">
			<ele>1678.000000</ele>
		<time>2013-08-31T03:16:43Z</time>
		</trkpt>

		<trkpt lat="37.846223" lon="-1.581285">
			<ele>1676.000000</ele>
		<time>2013-08-31T03:16:46Z</time>
		</trkpt>

		<trkpt lat="37.846114" lon="-1.581096">
			<ele>1677.000000</ele>
		<time>2013-08-31T03:16:49Z</time>
		</trkpt>

		<trkpt lat="37.846112" lon="-1.580894">
			<ele>1678.000000</ele>
		<time>2013-08-31T03:16:52Z</time>
		</trkpt>

		<trkpt lat="37.846192" lon="-1.580664">
			<ele>1678.000000</ele>
		<time>2013-08-31T03:16:55Z</time>
		</trkpt>

		<trkpt lat="37.846293" lon="-1.580408">
			<ele>1676.000000</ele>
		<time>2013-08-31T03:16:58Z</time>
		</trkpt>

		<trkpt lat="37.846311" lon="-1.580143">
			<ele>1673.000000</ele>
		<time>2013-08-31T03:17:01Z</time>
		</trkpt>

		<trkpt lat="37.846249" lon="-1.579881">
			<ele>1671.000000</ele>
		<time>2013-08-31T03:17:04Z</time>
		</trkpt>

		<trkpt lat="37.846160" lon="-1.579652">
			<ele>1668.000000</ele>
		<time>2013-08-31T03:17:07Z</time>
		</trkpt>

		<trkpt lat="37.846049" lon="-1.579429">
			<ele>1664.000000</ele>
		<time>2013-08-31T03:17:10Z</time>
		</trkpt>

		<trkpt lat="37.845913" lon="-1.579266">
			<ele>1663.000000</ele>
		<time>2013-08-31T03:17:13Z</time>
		</trkpt>

		<trkpt lat="37.845817" lon="-1.579148">
			<ele>1664.000000</ele>
		<time>2013-08-31T03:17:16Z</time>
		</trkpt>

		<trkpt lat="37.845729" lon="-1.578981">
			<ele>1662.000000</ele>
		<time>2013-08-31T03:17:19Z</time>
		</trkpt>

		<trkpt lat="37.845676" lon="-1.578754">
			<ele>1658.000000</ele>
		<time>2013-08-31T03:17:22Z</time>
		</trkpt>

		<trkpt lat="37.845601" lon="-1.578540">
			<ele>1654.000000</ele>
		<time>2013-08-31T03:17:25Z</time>
		</trkpt>

		<trkpt lat="37.845447" lon="-1.578379">
			<ele>1652.000000</ele>
		<time>2013-08-31T03:17:28Z</time>
		</trkpt>

		<trkpt lat="37.845353" lon="-1.578228">
			<ele>1651.000000</ele>
		<time>2013-08-31T03:17:31Z</time>
		</trkpt>

		<trkpt lat="37.845216" lon="-1.578047">
			<ele>1645.000000</ele>
		<time>2013-08-31T03:17:34Z</time>
		</trkpt>

		<trkpt lat="37.845101" lon="-1.577824">
			<ele>1639.000000</ele>
		<time>2013-08-31T03:17:37Z</time>
		</trkpt>

		<trkpt lat="37.844987" lon="-1.577594">
			<ele>1633.000000</ele>
		<time>2013-08-31T03:17:40Z</time>
		</trkpt>

		<trkpt lat="37.844852" lon="-1.577363">
			<ele>1626.000000</ele>
		<time>2013-08-31T03:17:43Z</time>
		</trkpt>

		<trkpt lat="37.844677" lon="-1.577154">
			<ele>1619.000000</ele>
		<time>2013-08-31T03:17:46Z</time>
		</trkpt>

		<trkpt lat="37.844447" lon="-1.576994">
			<ele>1613.000000</ele>
		<time>2013-08-31T03:17:49Z</time>
		</trkpt>

		<trkpt lat="37.844276" lon="-1.576888">
			<ele>1612.000000</ele>
		<time>2013-08-31T03:17:52Z</time>
		</trkpt>

		<trkpt lat="37.844065" lon="-1.576710">
			<ele>1606.000000</ele>
		<time>2013-08-31T03:17:55Z</time>
		</trkpt>

		<trkpt lat="37.843874" lon="-1.576510">
			<ele>1603.000000</ele>
		<time>2013-08-31T03:17:58Z</time>
		</trkpt>

		<trkpt lat="37.843721" lon="-1.576339">
			<ele>1603.000000</ele>
		<time>2013-08-31T03:18:01Z</time>
		</trkpt>

		<trkpt lat="37.843590" lon="-1.576160">
			<ele>1602.000000</ele>
		<time>2013-08-31T03:18:04Z</time>
		</trkpt>

		<trkpt lat="37.843441" lon="-1.575918">
			<ele>1600.000000</ele>
		<time>2013-08-31T03:18:07Z</time>
		</trkpt>

		<trkpt lat="37.843334" lon="-1.575722">
			<ele>1602.000000</ele>
		<time>2013-08-31T03:18:10Z</time>
		</trkpt>

		<trkpt lat="37.843279" lon="-1.575596">
			<ele>1605.000000</ele>
		<time>2013-08-31T03:18:13Z</time>
		</trkpt>

		<trkpt lat="37.843306" lon="-1.575355">
			<ele>1604.000000</ele>
		<time>2013-08-31T03:18:16Z</time>
		</trkpt>

		<trkpt lat="37.843379" lon="-1.575194">
			<ele>1605.000000</ele>
		<time>2013-08-31T03:18:19Z</time>
		</trkpt>

		<trkpt lat="37.843445" lon="-1.575035">
			<ele>1607.000000</ele>
		<time>2013-08-31T03:18:22Z</time>
		</trkpt>

		<trkpt lat="37.843442" lon="-1.574919">
			<ele>1607.000000</ele>
		<time>2013-08-31T03:18:25Z</time>
		</trkpt>

		<trkpt lat="37.843352" lon="-1.574706">
			<ele>1604.000000</ele>
		<time>2013-08-31T03:18:28Z</time>
		</trkpt>

		<trkpt lat="37.843259" lon="-1.574563">
			<ele>1607.000000</ele>
		<time>2013-08-31T03:18:31Z</time>
		</trkpt>

		<trkpt lat="37.843335" lon="-1.574411">
			<ele>1609.000000</ele>
		<time>2013-08-31T03:18:35Z</time>
		</trkpt>

		<trkpt lat="37.843558" lon="-1.574379">
			<ele>1608.000000</ele>
		<time>2013-08-31T03:18:38Z</time>
		</trkpt>

		<trkpt lat="37.843823" lon="-1.574565">
			<ele>1607.000000</ele>
		<time>2013-08-31T03:18:41Z</time>
		</trkpt>

		<trkpt lat="37.844053" lon="-1.574984">
			<ele>1604.000000</ele>
		<time>2013-08-31T03:18:44Z</time>
		</trkpt>

		<trkpt lat="37.844030" lon="-1.575554">
			<ele>1603.000000</ele>
		<time>2013-08-31T03:18:47Z</time>
		</trkpt>

		<trkpt lat="37.843825" lon="-1.575856">
			<ele>1604.000000</ele>
		<time>2013-08-31T03:18:50Z</time>
		</trkpt>

		<trkpt lat="37.843588" lon="-1.576032">
			<ele>1605.000000</ele>
		<time>2013-08-31T03:18:53Z</time>
		</trkpt>

		<trkpt lat="37.843339" lon="-1.576052">
			<ele>1607.000000</ele>
		<time>2013-08-31T03:18:56Z</time>
		</trkpt>

		<trkpt lat="37.843129" lon="-1.576004">
			<ele>1609.000000</ele>
		<time>2013-08-31T03:18:59Z</time>
		</trkpt>

		<trkpt lat="37.842959" lon="-1.575849">
			<ele>1609.000000</ele>
		<time>2013-08-31T03:19:02Z</time>
		</trkpt>

		<trkpt lat="37.842817" lon="-1.575692">
			<ele>1610.000000</ele>
		<time>2013-08-31T03:19:05Z</time>
		</trkpt>

		<trkpt lat="37.842654" lon="-1.575538">
			<ele>1611.000000</ele>
		<time>2013-08-31T03:19:08Z</time>
		</trkpt>

		<trkpt lat="37.842455" lon="-1.575421">
			<ele>1613.000000</ele>
		<time>2013-08-31T03:19:11Z</time>
		</trkpt>

		<trkpt lat="37.842224" lon="-1.575394">
			<ele>1615.000000</ele>
		<time>2013-08-31T03:19:14Z</time>
		</trkpt>

		<trkpt lat="37.841998" lon="-1.575556">
			<ele>1616.000000</ele>
		<time>2013-08-31T03:19:17Z</time>
		</trkpt>

		<trkpt lat="37.841817" lon="-1.575761">
			<ele>1614.000000</ele>
		<time>2013-08-31T03:19:20Z</time>
		</trkpt>

		<trkpt lat="37.841540" lon="-1.575837">
			<ele>1611.000000</ele>
		<time>2013-08-31T03:19:23Z</time>
		</trkpt>

		<trkpt lat="37.841369" lon="-1.575701">
			<ele>1610.000000</ele>
		<time>2013-08-31T03:19:26Z</time>
		</trkpt>

		<trkpt lat="37.841270" lon="-1.575562">
			<ele>1606.000000</ele>
		<time>2013-08-31T03:19:29Z</time>
		</trkpt>

		<trkpt lat="37.841227" lon="-1.575319">
			<ele>1602.000000</ele>
		<time>2013-08-31T03:19:32Z</time>
		</trkpt>

		<trkpt lat="37.841203" lon="-1.575139">
			<ele>1599.000000</ele>
		<time>2013-08-31T03:19:35Z</time>
		</trkpt>

		<trkpt lat="37.841205" lon="-1.574926">
			<ele>1595.000000</ele>
		<time>2013-08-31T03:19:38Z</time>
		</trkpt>

		<trkpt lat="37.841195" lon="-1.574689">
			<ele>1591.000000</ele>
		<time>2013-08-31T03:19:41Z</time>
		</trkpt>

		<trkpt lat="37.841187" lon="-1.574477">
			<ele>1587.000000</ele>
		<time>2013-08-31T03:19:44Z</time>
		</trkpt>

		<trkpt lat="37.841153" lon="-1.574189">
			<ele>1584.000000</ele>
		<time>2013-08-31T03:19:47Z</time>
		</trkpt>

		<trkpt lat="37.841100" lon="-1.573954">
			<ele>1583.000000</ele>
		<time>2013-08-31T03:19:50Z</time>
		</trkpt>

		<trkpt lat="37.841025" lon="-1.573695">
			<ele>1579.000000</ele>
		<time>2013-08-31T03:19:53Z</time>
		</trkpt>

		<trkpt lat="37.840994" lon="-1.573496">
			<ele>1577.000000</ele>
		<time>2013-08-31T03:19:56Z</time>
		</trkpt>

		<trkpt lat="37.840947" lon="-1.573223">
			<ele>1571.000000</ele>
		<time>2013-08-31T03:19:59Z</time>
		</trkpt>

		<trkpt lat="37.840853" lon="-1.572978">
			<ele>1570.000000</ele>
		<time>2013-08-31T03:20:02Z</time>
		</trkpt>

		<trkpt lat="37.840786" lon="-1.572821">
			<ele>1569.000000</ele>
		<time>2013-08-31T03:20:05Z</time>
		</trkpt>

		<trkpt lat="37.840659" lon="-1.572587">
			<ele>1564.000000</ele>
		<time>2013-08-31T03:20:08Z</time>
		</trkpt>

		<trkpt lat="37.840563" lon="-1.572391">
			<ele>1562.000000</ele>
		<time>2013-08-31T03:20:11Z</time>
		</trkpt>

		<trkpt lat="37.840447" lon="-1.572202">
			<ele>1557.000000</ele>
		<time>2013-08-31T03:20:14Z</time>
		</trkpt>

		<trkpt lat="37.840349" lon="-1.571985">
			<ele>1551.000000</ele>
		<time>2013-08-31T03:20:17Z</time>
		</trkpt>

		<trkpt lat="37.840275" lon="-1.571797">
			<ele>1545.000000</ele>
		<time>2013-08-31T03:20:20Z</time>
		</trkpt>

		<trkpt lat="37.840186" lon="-1.571567">
			<ele>1538.000000</ele>
		<time>2013-08-31T03:20:23Z</time>
		</trkpt>

		<trkpt lat="37.840117" lon="-1.571378">
			<ele>1531.000000</ele>
		<time>2013-08-31T03:20:26Z</time>
		</trkpt>

		<trkpt lat="37.840037" lon="-1.571176">
			<ele>1521.000000</ele>
		<time>2013-08-31T03:20:29Z</time>
		</trkpt>

		<trkpt lat="37.839962" lon="-1.570965">
			<ele>1511.000000</ele>
		<time>2013-08-31T03:20:32Z</time>
		</trkpt>

		<trkpt lat="37.839924" lon="-1.570714">
			<ele>1501.000000</ele>
		<time>2013-08-31T03:20:35Z</time>
		</trkpt>

		<trkpt lat="37.839816" lon="-1.570548">
			<ele>1493.000000</ele>
		<time>2013-08-31T03:20:38Z</time>
		</trkpt>

		<trkpt lat="37.839718" lon="-1.570375">
			<ele>1482.000000</ele>
		<time>2013-08-31T03:20:41Z</time>
		</trkpt>

		<trkpt lat="37.839604" lon="-1.570148">
			<ele>1471.000000</ele>
		<time>2013-08-31T03:20:44Z</time>
		</trkpt>

		<trkpt lat="37.839486" lon="-1.569850">
			<ele>1460.000000</ele>
		<time>2013-08-31T03:20:47Z</time>
		</trkpt>

		<trkpt lat="37.839275" lon="-1.569657">
			<ele>1449.000000</ele>
		<time>2013-08-31T03:20:50Z</time>
		</trkpt>

		<trkpt lat="37.839065" lon="-1.569474">
			<ele>1442.000000</ele>
		<time>2013-08-31T03:20:53Z</time>
		</trkpt>

		<trkpt lat="37.838863" lon="-1.569269">
			<ele>1435.000000</ele>
		<time>2013-08-31T03:20:56Z</time>
		</trkpt>

		<trkpt lat="37.838666" lon="-1.569048">
			<ele>1426.000000</ele>
		<time>2013-08-31T03:20:59Z</time>
		</trkpt>

		<trkpt lat="37.838488" lon="-1.568858">
			<ele>1419.000000</ele>
		<time>2013-08-31T03:21:02Z</time>
		</trkpt>

		<trkpt lat="37.838290" lon="-1.568628">
			<ele>1411.000000</ele>
		<time>2013-08-31T03:21:05Z</time>
		</trkpt>

		<trkpt lat="37.838085" lon="-1.568406">
			<ele>1404.000000</ele>
		<time>2013-08-31T03:21:08Z</time>
		</trkpt>

		<trkpt lat="37.837876" lon="-1.568195">
			<ele>1396.000000</ele>
		<time>2013-08-31T03:21:11Z</time>
		</trkpt>

		<trkpt lat="37.837723" lon="-1.567993">
			<ele>1390.000000</ele>
		<time>2013-08-31T03:21:14Z</time>
		</trkpt>

		<trkpt lat="37.837577" lon="-1.567763">
			<ele>1382.000000</ele>
		<time>2013-08-31T03:21:17Z</time>
		</trkpt>

		<trkpt lat="37.837434" lon="-1.567498">
			<ele>1374.000000</ele>
		<time>2013-08-31T03:21:20Z</time>
		</trkpt>

		<trkpt lat="37.837302" lon="-1.567264">
			<ele>1367.000000</ele>
		<time>2013-08-31T03:21:23Z</time>
		</trkpt>

		<trkpt lat="37.837180" lon="-1.567021">
			<ele>1358.000000</ele>
		<time>2013-08-31T03:21:26Z</time>
		</trkpt>

		<trkpt lat="37.837046" lon="-1.566772">
			<ele>1350.000000</ele>
		<time>2013-08-31T03:21:29Z</time>
		</trkpt>

		<trkpt lat="37.836888" lon="-1.566540">
			<ele>1342.000000</ele>
		<time>2013-08-31T03:21:32Z</time>
		</trkpt>

		<trkpt lat="37.836725" lon="-1.566345">
			<ele>1334.000000</ele>
		<time>2013-08-31T03:21:35Z</time>
		</trkpt>

		<trkpt lat="37.836536" lon="-1.566136">
			<ele>1328.000000</ele>
		<time>2013-08-31T03:21:38Z</time>
		</trkpt>

		<trkpt lat="37.836362" lon="-1.566034">
			<ele>1326.000000</ele>
		<time>2013-08-31T03:21:41Z</time>
		</trkpt>

		<trkpt lat="37.836178" lon="-1.565899">
			<ele>1320.000000</ele>
		<time>2013-08-31T03:21:44Z</time>
		</trkpt>

		<trkpt lat="37.836016" lon="-1.565765">
			<ele>1314.000000</ele>
		<time>2013-08-31T03:21:47Z</time>
		</trkpt>

		<trkpt lat="37.835893" lon="-1.565622">
			<ele>1305.000000</ele>
		<time>2013-08-31T03:21:50Z</time>
		</trkpt>

		<trkpt lat="37.835706" lon="-1.565414">
			<ele>1298.000000</ele>
		<time>2013-08-31T03:21:53Z</time>
		</trkpt>

		<trkpt lat="37.835573" lon="-1.565279">
			<ele>1296.000000</ele>
		<time>2013-08-31T03:21:56Z</time>
		</trkpt>

		<trkpt lat="37.835391" lon="-1.565079">
			<ele>1287.000000</ele>
		<time>2013-08-31T03:21:59Z</time>
		</trkpt>

		<trkpt lat="37.835242" lon="-1.564868">
			<ele>1281.000000</ele>
		<time>2013-08-31T03:22:02Z</time>
		</trkpt>

		<trkpt lat="37.835043" lon="-1.564691">
			<ele>1272.000000</ele>
		<time>2013-08-31T03:22:05Z</time>
		</trkpt>

		<trkpt lat="37.834848" lon="-1.564497">
			<ele>1263.000000</ele>
		<time>2013-08-31T03:22:08Z</time>
		</trkpt>

		<trkpt lat="37.834694" lon="-1.564319">
			<ele>1253.000000</ele>
		<time>2013-08-31T03:22:11Z</time>
		</trkpt>

		<trkpt lat="37.834540" lon="-1.564105">
			<ele>1244.000000</ele>
		<time>2013-08-31T03:22:14Z</time>
		</trkpt>

		<trkpt lat="37.834340" lon="-1.563975">
			<ele>1237.000000</ele>
		<time>2013-08-31T03:22:17Z</time>
		</trkpt>

		<trkpt lat="37.834144" lon="-1.563861">
			<ele>1231.000000</ele>
		<time>2013-08-31T03:22:20Z</time>
		</trkpt>

		<trkpt lat="37.833936" lon="-1.563730">
			<ele>1225.000000</ele>
		<time>2013-08-31T03:22:23Z</time>
		</trkpt>

		<trkpt lat="37.833723" lon="-1.563611">
			<ele>1218.000000</ele>
		<time>2013-08-31T03:22:26Z</time>
		</trkpt>

		<trkpt lat="37.833490" lon="-1.563560">
			<ele>1213.000000</ele>
		<time>2013-08-31T03:22:29Z</time>
		</trkpt>

		<trkpt lat="37.833230" lon="-1.563551">
			<ele>1205.000000</ele>
		<time>2013-08-31T03:22:32Z</time>
		</trkpt>

		<trkpt lat="37.832962" lon="-1.563564">
			<ele>1197.000000</ele>
		<time>2013-08-31T03:22:35Z</time>
		</trkpt>

		<trkpt lat="37.832662" lon="-1.563626">
			<ele>1186.000000</ele>
		<time>2013-08-31T03:22:38Z</time>
		</trkpt>

		<trkpt lat="37.832383" lon="-1.563853">
			<ele>1178.000000</ele>
		<time>2013-08-31T03:22:41Z</time>
		</trkpt>

		<trkpt lat="37.832128" lon="-1.564081">
			<ele>1173.000000</ele>
		<time>2013-08-31T03:22:44Z</time>
		</trkpt>

		<trkpt lat="37.831831" lon="-1.564273">
			<ele>1171.000000</ele>
		<time>2013-08-31T03:22:47Z</time>
		</trkpt>

		<trkpt lat="37.831572" lon="-1.564411">
			<ele>1174.000000</ele>
		<time>2013-08-31T03:22:50Z</time>
		</trkpt>

		<trkpt lat="37.831376" lon="-1.564522">
			<ele>1180.000000</ele>
		<time>2013-08-31T03:22:53Z</time>
		</trkpt>

		<trkpt lat="37.831263" lon="-1.564606">
			<ele>1185.000000</ele>
		<time>2013-08-31T03:22:56Z</time>
		</trkpt>

		<trkpt lat="37.831072" lon="-1.564667">
			<ele>1183.000000</ele>
		<time>2013-08-31T03:22:59Z</time>
		</trkpt>

		<trkpt lat="37.830938" lon="-1.564541">
			<ele>1182.000000</ele>
		<time>2013-08-31T03:23:02Z</time>
		</trkpt>

		<trkpt lat="37.830811" lon="-1.564489">
			<ele>1181.000000</ele>
		<time>2013-08-31T03:23:05Z</time>
		</trkpt>

		<trkpt lat="37.830680" lon="-1.564360">
			<ele>1179.000000</ele>
		<time>2013-08-31T03:23:08Z</time>
		</trkpt>

		<trkpt lat="37.830555" lon="-1.564268">
			<ele>1181.000000</ele>
		<time>2013-08-31T03:23:11Z</time>
		</trkpt>

		<trkpt lat="37.830472" lon="-1.564102">
			<ele>1183.000000</ele>
		<time>2013-08-31T03:23:14Z</time>
		</trkpt>

		<trkpt lat="37.830401" lon="-1.563906">
			<ele>1186.000000</ele>
		<time>2013-08-31T03:23:17Z</time>
		</trkpt>

		<trkpt lat="37.830313" lon="-1.563861">
			<ele>1190.000000</ele>
		<time>2013-08-31T03:23:20Z</time>
		</trkpt>

		<trkpt lat="37.830110" lon="-1.563990">
			<ele>1192.000000</ele>
		<time>2013-08-31T03:23:23Z</time>
		</trkpt>

		<trkpt lat="37.830064" lon="-1.564402">
			<ele>1195.000000</ele>
		<time>2013-08-31T03:23:26Z</time>
		</trkpt>

		<trkpt lat="37.830352" lon="-1.564823">
			<ele>1196.000000</ele>
		<time>2013-08-31T03:23:29Z</time>
		</trkpt>

		<trkpt lat="37.830696" lon="-1.564833">
			<ele>1197.000000</ele>
		<time>2013-08-31T03:23:32Z</time>
		</trkpt>

		<trkpt lat="37.830883" lon="-1.564658">
			<ele>1201.000000</ele>
		<time>2013-08-31T03:23:35Z</time>
		</trkpt>

		<trkpt lat="37.830968" lon="-1.564490">
			<ele>1206.000000</ele>
		<time>2013-08-31T03:23:38Z</time>
		</trkpt>

		<trkpt lat="37.830925" lon="-1.564248">
			<ele>1207.000000</ele>
		<time>2013-08-31T03:23:41Z</time>
		</trkpt>

		<trkpt lat="37.830832" lon="-1.564087">
			<ele>1211.000000</ele>
		<time>2013-08-31T03:23:44Z</time>
		</trkpt>

		<trkpt lat="37.830800" lon="-1.563904">
			<ele>1214.000000</ele>
		<time>2013-08-31T03:23:47Z</time>
		</trkpt>

		<trkpt lat="37.830932" lon="-1.563637">
			<ele>1216.000000</ele>
		<time>2013-08-31T03:23:50Z</time>
		</trkpt>

		<trkpt lat="37.831179" lon="-1.563493">
			<ele>1221.000000</ele>
		<time>2013-08-31T03:23:53Z</time>
		</trkpt>

		<trkpt lat="37.831520" lon="-1.563541">
			<ele>1226.000000</ele>
		<time>2013-08-31T03:23:56Z</time>
		</trkpt>

		<trkpt lat="37.831654" lon="-1.563986">
			<ele>1230.000000</ele>
		<time>2013-08-31T03:23:59Z</time>
		</trkpt>

		<trkpt lat="37.831577" lon="-1.564454">
			<ele>1234.000000</ele>
		<time>2013-08-31T03:24:02Z</time>
		</trkpt>

		<trkpt lat="37.831332" lon="-1.564754">
			<ele>1240.000000</ele>
		<time>2013-08-31T03:24:05Z</time>
		</trkpt>

		<trkpt lat="37.831130" lon="-1.564747">
			<ele>1249.000000</ele>
		<time>2013-08-31T03:24:08Z</time>
		</trkpt>

		<trkpt lat="37.831002" lon="-1.564622">
			<ele>1254.000000</ele>
		<time>2013-08-31T03:24:11Z</time>
		</trkpt>

		<trkpt lat="37.831006" lon="-1.564358">
			<ele>1257.000000</ele>
		<time>2013-08-31T03:24:14Z</time>
		</trkpt>

		<trkpt lat="37.831152" lon="-1.564173">
			<ele>1264.000000</ele>
		<time>2013-08-31T03:24:17Z</time>
		</trkpt>

		<trkpt lat="37.831340" lon="-1.564009">
			<ele>1270.000000</ele>
		<time>2013-08-31T03:24:20Z</time>
		</trkpt>

		<trkpt lat="37.831540" lon="-1.563840">
			<ele>1275.000000</ele>
		<time>2013-08-31T03:24:23Z</time>
		</trkpt>

		<trkpt lat="37.831787" lon="-1.563733">
			<ele>1280.000000</ele>
		<time>2013-08-31T03:24:26Z</time>
		</trkpt>

		<trkpt lat="37.832132" lon="-1.563820">
			<ele>1284.000000</ele>
		<time>2013-08-31T03:24:29Z</time>
		</trkpt>

		<trkpt lat="37.832385" lon="-1.564116">
			<ele>1290.000000</ele>
		<time>2013-08-31T03:24:32Z</time>
		</trkpt>

		<trkpt lat="37.832372" lon="-1.564529">
			<ele>1296.000000</ele>
		<time>2013-08-31T03:24:35Z</time>
		</trkpt>

		<trkpt lat="37.832124" lon="-1.564859">
			<ele>1301.000000</ele>
		<time>2013-08-31T03:24:38Z</time>
		</trkpt>

		<trkpt lat="37.831797" lon="-1.564863">
			<ele>1307.000000</ele>
		<time>2013-08-31T03:24:41Z</time>
		</trkpt>

		<trkpt lat="37.831589" lon="-1.564665">
			<ele>1313.000000</ele>
		<time>2013-08-31T03:24:44Z</time>
		</trkpt>

		<trkpt lat="37.831592" lon="-1.564391">
			<ele>1317.000000</ele>
		<time>2013-08-31T03:24:47Z</time>
		</trkpt>

		<trkpt lat="37.831804" lon="-1.564229">
			<ele>1322.000000</ele>
		<time>2013-08-31T03:24:50Z</time>
		</trkpt>

		<trkpt lat="37.832139" lon="-1.564300">
			<ele>1324.000000</ele>
		<time>2013-08-31T03:24:53Z</time>
		</trkpt>

		<trkpt lat="37.832456" lon="-1.564471">
			<ele>1328.000000</ele>
		<time>2013-08-31T03:24:56Z</time>
		</trkpt>

		<trkpt lat="37.832674" lon="-1.564691">
			<ele>1334.000000</ele>
		<time>2013-08-31T03:24:59Z</time>
		</trkpt>

		<trkpt lat="37.832904" lon="-1.565093">
			<ele>1337.000000</ele>
		<time>2013-08-31T03:25:02Z</time>
		</trkpt>

		<trkpt lat="37.832756" lon="-1.565526">
			<ele>1342.000000</ele>
		<time>2013-08-31T03:25:05Z</time>
		</trkpt>

		<trkpt lat="37.832394" lon="-1.565567">
			<ele>1347.000000</ele>
		<time>2013-08-31T03:25:08Z</time>
		</trkpt>

		<trkpt lat="37.832212" lon="-1.565339">
			<ele>1352.000000</ele>
		<time>2013-08-31T03:25:11Z</time>
		</trkpt>

		<trkpt lat="37.832289" lon="-1.565042">
			<ele>1356.000000</ele>
		<time>2013-08-31T03:25:14Z</time>
		</trkpt>

		<trkpt lat="37.832541" lon="-1.564903">
			<ele>1361.000000</ele>
		<time>2013-08-31T03:25:17Z</time>
		</trkpt>

		<trkpt lat="37.832837" lon="-1.564948">
			<ele>1366.000000</ele>
		<time>2013-08-31T03:25:20Z</time>
		</trkpt>

		<trkpt lat="37.833106" lon="-1.565268">
			<ele>1369.000000</ele>
		<time>2013-08-31T03:25:23Z</time>
		</trkpt>

		<trkpt lat="37.832951" lon="-1.565845">
			<ele>1373.000000</ele>
		<time>2013-08-31T03:25:26Z</time>
		</trkpt>

		<trkpt lat="37.832637" lon="-1.565903">
			<ele>1376.000000</ele>
		<time>2013-08-31T03:25:29Z</time>
		</trkpt>

		<trkpt lat="37.832468" lon="-1.565684">
			<ele>1382.000000</ele>
		<time>2013-08-31T03:25:32Z</time>
		</trkpt>

		<trkpt lat="37.832479" lon="-1.565398">
			<ele>1386.000000</ele>
		<time>2013-08-31T03:25:35Z</time>
		</trkpt>

		<trkpt lat="37.832678" lon="-1.565210">
			<ele>1388.000000</ele>
		<time>2013-08-31T03:25:38Z</time>
		</trkpt>

		<trkpt lat="37.833017" lon="-1.565265">
			<ele>1390.000000</ele>
		<time>2013-08-31T03:25:41Z</time>
		</trkpt>

		<trkpt lat="37.833303" lon="-1.565459">
			<ele>1393.000000</ele>
		<time>2013-08-31T03:25:44Z</time>
		</trkpt>

		<trkpt lat="37.833555" lon="-1.565653">
			<ele>1397.000000</ele>
		<time>2013-08-31T03:25:47Z</time>
		</trkpt>

		<trkpt lat="37.833779" lon="-1.565997">
			<ele>1399.000000</ele>
		<time>2013-08-31T03:25:50Z</time>
		</trkpt>

		<trkpt lat="37.833722" lon="-1.566486">
			<ele>1400.000000</ele>
		<time>2013-08-31T03:25:53Z</time>
		</trkpt>

		<trkpt lat="37.833579" lon="-1.566788">
			<ele>1407.000000</ele>
		<time>2013-08-31T03:25:56Z</time>
		</trkpt>

		<trkpt lat="37.833380" lon="-1.567022">
			<ele>1407.000000</ele>
		<time>2013-08-31T03:25:59Z</time>
		</trkpt>

		<trkpt lat="37.833059" lon="-1.566922">
			<ele>1408.000000</ele>
		<time>2013-08-31T03:26:02Z</time>
		</trkpt>

		<trkpt lat="37.832943" lon="-1.566697">
			<ele>1414.000000</ele>
		<time>2013-08-31T03:26:05Z</time>
		</trkpt>

		<trkpt lat="37.832982" lon="-1.566457">
			<ele>1416.000000</ele>
		<time>2013-08-31T03:26:08Z</time>
		</trkpt>

		<trkpt lat="37.833270" lon="-1.566252">
			<ele>1418.000000</ele>
		<time>2013-08-31T03:26:11Z</time>
		</trkpt>

		<trkpt lat="37.833598" lon="-1.566293">
			<ele>1421.000000</ele>
		<time>2013-08-31T03:26:14Z</time>
		</trkpt>

		<trkpt lat="37.833815" lon="-1.566613">
			<ele>1427.000000</ele>
		<time>2013-08-31T03:26:17Z</time>
		</trkpt>

		<trkpt lat="37.833830" lon="-1.567088">
			<ele>1430.000000</ele>
		<time>2013-08-31T03:26:20Z</time>
		</trkpt>

		<trkpt lat="37.833613" lon="-1.567362">
			<ele>1434.000000</ele>
		<time>2013-08-31T03:26:23Z</time>
		</trkpt>

		<trkpt lat="37.833327" lon="-1.567443">
			<ele>1436.000000</ele>
		<time>2013-08-31T03:26:26Z</time>
		</trkpt>

		<trkpt lat="37.833095" lon="-1.567279">
			<ele>1439.000000</ele>
		<time>2013-08-31T03:26:29Z</time>
		</trkpt>

		<trkpt lat="37.832984" lon="-1.567064">
			<ele>1444.000000</ele>
		<time>2013-08-31T03:26:32Z</time>
		</trkpt>

		<trkpt lat="37.833009" lon="-1.566830">
			<ele>1448.000000</ele>
		<time>2013-08-31T03:26:35Z</time>
		</trkpt>

		<trkpt lat="37.833060" lon="-1.566680">
			<ele>1453.000000</ele>
		<time>2013-08-31T03:26:38Z</time>
		</trkpt>

		<trkpt lat="37.833225" lon="-1.566540">
			<ele>1457.000000</ele>
		<time>2013-08-31T03:26:41Z</time>
		</trkpt>

		<trkpt lat="37.833580" lon="-1.566615">
			<ele>1460.000000</ele>
		<time>2013-08-31T03:26:44Z</time>
		</trkpt>

		<trkpt lat="37.833890" lon="-1.566906">
			<ele>1464.000000</ele>
		<time>2013-08-31T03:26:47Z</time>
		</trkpt>

		<trkpt lat="37.834115" lon="-1.567314">
			<ele>1467.000000</ele>
		<time>2013-08-31T03:26:50Z</time>
		</trkpt>

		<trkpt lat="37.834048" lon="-1.567827">
			<ele>1471.000000</ele>
		<time>2013-08-31T03:26:53Z</time>
		</trkpt>

		<trkpt lat="37.833838" lon="-1.568171">
			<ele>1474.000000</ele>
		<time>2013-08-31T03:26:56Z</time>
		</trkpt>

		<trkpt lat="37.833562" lon="-1.568318">
			<ele>1476.000000</ele>
		<time>2013-08-31T03:26:59Z</time>
		</trkpt>

		<trkpt lat="37.833371" lon="-1.568139">
			<ele>1475.000000</ele>
		<time>2013-08-31T03:27:02Z</time>
		</trkpt>

		<trkpt lat="37.833404" lon="-1.567958">
			<ele>1477.000000</ele>
		<time>2013-08-31T03:27:05Z</time>
		</trkpt>

		<trkpt lat="37.833565" lon="-1.567792">
			<ele>1480.000000</ele>
		<time>2013-08-31T03:27:08Z</time>
		</trkpt>

		<trkpt lat="37.833757" lon="-1.567662">
			<ele>1485.000000</ele>
		<time>2013-08-31T03:27:11Z</time>
		</trkpt>

		<trkpt lat="37.833866" lon="-1.567558">
			<ele>1491.000000</ele>
		<time>2013-08-31T03:27:14Z</time>
		</trkpt>

		<trkpt lat="37.833944" lon="-1.567429">
			<ele>1497.000000</ele>
		<time>2013-08-31T03:27:17Z</time>
		</trkpt>

		<trkpt lat="37.833918" lon="-1.567296">
			<ele>1502.000000</ele>
		<time>2013-08-31T03:27:20Z</time>
		</trkpt>

		<trkpt lat="37.833749" lon="-1.567186">
			<ele>1505.000000</ele>
		<time>2013-08-31T03:27:23Z</time>
		</trkpt>

		<trkpt lat="37.833456" lon="-1.567465">
			<ele>1509.000000</ele>
		<time>2013-08-31T03:27:26Z</time>
		</trkpt>

		<trkpt lat="37.833374" lon="-1.567977">
			<ele>1516.000000</ele>
		<time>2013-08-31T03:27:29Z</time>
		</trkpt>

		<trkpt lat="37.833505" lon="-1.568507">
			<ele>1521.000000</ele>
		<time>2013-08-31T03:27:32Z</time>
		</trkpt>

		<trkpt lat="37.833825" lon="-1.568882">
			<ele>1525.000000</ele>
		<time>2013-08-31T03:27:35Z</time>
		</trkpt>

		<trkpt lat="37.834139" lon="-1.568980">
			<ele>1530.000000</ele>
		<time>2013-08-31T03:27:38Z</time>
		</trkpt>

		<trkpt lat="37.834368" lon="-1.568872">
			<ele>1534.000000</ele>
		<time>2013-08-31T03:27:41Z</time>
		</trkpt>

		<trkpt lat="37.834476" lon="-1.568716">
			<ele>1538.000000</ele>
		<time>2013-08-31T03:27:44Z</time>
		</trkpt>

		<trkpt lat="37.834413" lon="-1.568521">
			<ele>1543.000000</ele>
		<time>2013-08-31T03:27:47Z</time>
		</trkpt>

		<trkpt lat="37.834206" lon="-1.568430">
			<ele>1546.000000</ele>
		<time>2013-08-31T03:27:50Z</time>
		</trkpt>

		<trkpt lat="37.833981" lon="-1.568459">
			<ele>1552.000000</ele>
		<time>2013-08-31T03:27:53Z</time>
		</trkpt>

		<trkpt lat="37.833734" lon="-1.568554">
			<ele>1557.000000</ele>
		<time>2013-08-31T03:27:56Z</time>
		</trkpt>

		<trkpt lat="37.833613" lon="-1.568427">
			<ele>1562.000000</ele>
		<time>2013-08-31T03:27:59Z</time>
		</trkpt>

		<trkpt lat="37.833736" lon="-1.568317">
			<ele>1564.000000</ele>
		<time>2013-08-31T03:28:02Z</time>
		</trkpt>

		<trkpt lat="37.834069" lon="-1.568438">
			<ele>1564.000000</ele>
		<time>2013-08-31T03:28:05Z</time>
		</trkpt>

		<trkpt lat="37.834316" lon="-1.568755">
			<ele>1570.000000</ele>
		<time>2013-08-31T03:28:08Z</time>
		</trkpt>

		<trkpt lat="37.834385" lon="-1.569161">
			<ele>1575.000000</ele>
		<time>2013-08-31T03:28:11Z</time>
		</trkpt>

		<trkpt lat="37.834421" lon="-1.569746">
			<ele>1575.000000</ele>
		<time>2013-08-31T03:28:14Z</time>
		</trkpt>

		<trkpt lat="37.834248" lon="-1.570240">
			<ele>1580.000000</ele>
		<time>2013-08-31T03:28:17Z</time>
		</trkpt>

		<trkpt lat="37.834059" lon="-1.570600">
			<ele>1587.000000</ele>
		<time>2013-08-31T03:28:20Z</time>
		</trkpt>

		<trkpt lat="37.833864" lon="-1.570900">
			<ele>1589.000000</ele>
		<time>2013-08-31T03:28:23Z</time>
		</trkpt>

		<trkpt lat="37.833575" lon="-1.571014">
			<ele>1590.000000</ele>
		<time>2013-08-31T03:28:26Z</time>
		</trkpt>

		<trkpt lat="37.833388" lon="-1.570866">
			<ele>1593.000000</ele>
		<time>2013-08-31T03:28:29Z</time>
		</trkpt>

		<trkpt lat="37.833364" lon="-1.570625">
			<ele>1595.000000</ele>
		<time>2013-08-31T03:28:32Z</time>
		</trkpt>

		<trkpt lat="37.833518" lon="-1.570434">
			<ele>1596.000000</ele>
		<time>2013-08-31T03:28:35Z</time>
		</trkpt>

		<trkpt lat="37.833718" lon="-1.570347">
			<ele>1598.000000</ele>
		<time>2013-08-31T03:28:38Z</time>
		</trkpt>

		<trkpt lat="37.833936" lon="-1.570321">
			<ele>1602.000000</ele>
		<time>2013-08-31T03:28:41Z</time>
		</trkpt>

		<trkpt lat="37.834201" lon="-1.570381">
			<ele>1603.000000</ele>
		<time>2013-08-31T03:28:44Z</time>
		</trkpt>

		<trkpt lat="37.834471" lon="-1.570491">
			<ele>1604.000000</ele>
		<time>2013-08-31T03:28:47Z</time>
		</trkpt>

		<trkpt lat="37.834733" lon="-1.570705">
			<ele>1606.000000</ele>
		<time>2013-08-31T03:28:50Z</time>
		</trkpt>

		<trkpt lat="37.834983" lon="-1.570994">
			<ele>1607.000000</ele>
		<time>2013-08-31T03:28:53Z</time>
		</trkpt>

		<trkpt lat="37.835163" lon="-1.571382">
			<ele>1607.000000</ele>
		<time>2013-08-31T03:28:56Z</time>
		</trkpt>

		<trkpt lat="37.835181" lon="-1.571950">
			<ele>1607.000000</ele>
		<time>2013-08-31T03:28:59Z</time>
		</trkpt>

		<trkpt lat="37.834957" lon="-1.572406">
			<ele>1608.000000</ele>
		<time>2013-08-31T03:29:02Z</time>
		</trkpt>

		<trkpt lat="37.834676" lon="-1.572587">
			<ele>1610.000000</ele>
		<time>2013-08-31T03:29:05Z</time>
		</trkpt>

		<trkpt lat="37.834420" lon="-1.572523">
			<ele>1611.000000</ele>
		<time>2013-08-31T03:29:08Z</time>
		</trkpt>

		<trkpt lat="37.834249" lon="-1.572413">
			<ele>1616.000000</ele>
		<time>2013-08-31T03:29:11Z</time>
		</trkpt>

		<trkpt lat="37.834173" lon="-1.572306">
			<ele>1618.000000</ele>
		<time>2013-08-31T03:29:14Z</time>
		</trkpt>

		<trkpt lat="37.834102" lon="-1.572115">
			<ele>1619.000000</ele>
		<time>2013-08-31T03:29:17Z</time>
		</trkpt>

		<trkpt lat="37.834044" lon="-1.571906">
			<ele>1620.000000</ele>
		<time>2013-08-31T03:29:20Z</time>
		</trkpt>

		<trkpt lat="37.833977" lon="-1.571763">
			<ele>1624.000000</ele>
		<time>2013-08-31T03:29:23Z</time>
		</trkpt>

		<trkpt lat="37.833889" lon="-1.571614">
			<ele>1624.000000</ele>
		<time>2013-08-31T03:29:26Z</time>
		</trkpt>

		<trkpt lat="37.833853" lon="-1.571410">
			<ele>1625.000000</ele>
		<time>2013-08-31T03:29:29Z</time>
		</trkpt>

		<trkpt lat="37.833779" lon="-1.571296">
			<ele>1628.000000</ele>
		<time>2013-08-31T03:29:32Z</time>
		</trkpt>

		<trkpt lat="37.833661" lon="-1.571140">
			<ele>1629.000000</ele>
		<time>2013-08-31T03:29:35Z</time>
		</trkpt>

		<trkpt lat="37.833567" lon="-1.570988">
			<ele>1630.000000</ele>
		<time>2013-08-31T03:29:38Z</time>
		</trkpt>

		<trkpt lat="37.833530" lon="-1.570849">
			<ele>1631.000000</ele>
		<time>2013-08-31T03:29:41Z</time>
		</trkpt>

		<trkpt lat="37.833527" lon="-1.570700">
			<ele>1630.000000</ele>
		<time>2013-08-31T03:29:44Z</time>
		</trkpt>

		<trkpt lat="37.833526" lon="-1.570483">
			<ele>1629.000000</ele>
		<time>2013-08-31T03:29:47Z</time>
		</trkpt>

		<trkpt lat="37.833523" lon="-1.570328">
			<ele>1628.000000</ele>
		<time>2013-08-31T03:29:50Z</time>
		</trkpt>

		<trkpt lat="37.833527" lon="-1.570125">
			<ele>1626.000000</ele>
		<time>2013-08-31T03:29:53Z</time>
		</trkpt>

		<trkpt lat="37.833564" lon="-1.569930">
			<ele>1627.000000</ele>
		<time>2013-08-31T03:29:56Z</time>
		</trkpt>

		<trkpt lat="37.833594" lon="-1.569751">
			<ele>1629.000000</ele>
		<time>2013-08-31T03:29:59Z</time>
		</trkpt>

		<trkpt lat="37.833639" lon="-1.569564">
			<ele>1632.000000</ele>
		<time>2013-08-31T03:30:02Z</time>
		</trkpt>

		<trkpt lat="37.833664" lon="-1.569417">
			<ele>1635.000000</ele>
		<time>2013-08-31T03:30:05Z</time>
		</trkpt>

		<trkpt lat="37.833567" lon="-1.569280">
			<ele>1636.000000</ele>
		<time>2013-08-31T03:30:08Z</time>
		</trkpt>

		<trkpt lat="37.833447" lon="-1.569153">
			<ele>1638.000000</ele>
		<time>2013-08-31T03:30:11Z</time>
		</trkpt>

		<trkpt lat="37.833462" lon="-1.569014">
			<ele>1639.000000</ele>
		<time>2013-08-31T03:30:14Z</time>
		</trkpt>

		<trkpt lat="37.833553" lon="-1.568846">
			<ele>1640.000000</ele>
		<time>2013-08-31T03:30:17Z</time>
		</trkpt>

		<trkpt lat="37.833644" lon="-1.568714">
			<ele>1640.000000</ele>
		<time>2013-08-31T03:30:20Z</time>
		</trkpt>

		<trkpt lat="37.833719" lon="-1.568600">
			<ele>1642.000000</ele>
		<time>2013-08-31T03:30:23Z</time>
		</trkpt>

		<trkpt lat="37.833775" lon="-1.568492">
			<ele>1640.000000</ele>
		<time>2013-08-31T03:30:26Z</time>
		</trkpt>

		<trkpt lat="37.833786" lon="-1.568271">
			<ele>1637.000000</ele>
		<time>2013-08-31T03:30:29Z</time>
		</trkpt>

		<trkpt lat="37.833797" lon="-1.568117">
			<ele>1643.000000</ele>
		<time>2013-08-31T03:30:33Z</time>
		</trkpt>

		<trkpt lat="37.833823" lon="-1.568048">
			<ele>1647.000000</ele>
		<time>2013-08-31T03:30:36Z</time>
		</trkpt>

		<trkpt lat="37.833971" lon="-1.567955">
			<ele>1649.000000</ele>
		<time>2013-08-31T03:30:39Z</time>
		</trkpt>

		<trkpt lat="37.834171" lon="-1.567916">
			<ele>1651.000000</ele>
		<time>2013-08-31T03:30:42Z</time>
		</trkpt>

		<trkpt lat="37.834315" lon="-1.567851">
			<ele>1647.000000</ele>
		<time>2013-08-31T03:30:45Z</time>
		</trkpt>

		<trkpt lat="37.834422" lon="-1.567606">
			<ele>1638.000000</ele>
		<time>2013-08-31T03:30:48Z</time>
		</trkpt>

		<trkpt lat="37.834437" lon="-1.567415">
			<ele>1634.000000</ele>
		<time>2013-08-31T03:30:51Z</time>
		</trkpt>

		<trkpt lat="37.834424" lon="-1.567143">
			<ele>1631.000000</ele>
		<time>2013-08-31T03:30:54Z</time>
		</trkpt>

		<trkpt lat="37.834338" lon="-1.566897">
			<ele>1635.000000</ele>
		<time>2013-08-31T03:30:57Z</time>
		</trkpt>

		<trkpt lat="37.834171" lon="-1.566854">
			<ele>1644.000000</ele>
		<time>2013-08-31T03:31:00Z</time>
		</trkpt>

		<trkpt lat="37.834042" lon="-1.566641">
			<ele>1648.000000</ele>
		<time>2013-08-31T03:31:03Z</time>
		</trkpt>

		<trkpt lat="37.833927" lon="-1.566414">
			<ele>1651.000000</ele>
		<time>2013-08-31T03:31:06Z</time>
		</trkpt>

		<trkpt lat="37.833792" lon="-1.566195">
			<ele>1650.000000</ele>
		<time>2013-08-31T03:31:09Z</time>
		</trkpt>

		<trkpt lat="37.833690" lon="-1.565945">
			<ele>1648.000000</ele>
		<time>2013-08-31T03:31:12Z</time>
		</trkpt>

		<trkpt lat="37.833633" lon="-1.565761">
			<ele>1646.000000</ele>
		<time>2013-08-31T03:31:15Z</time>
		</trkpt>

		<trkpt lat="37.833489" lon="-1.565535">
			<ele>1644.000000</ele>
		<time>2013-08-31T03:31:18Z</time>
		</trkpt>

		<trkpt lat="37.833295" lon="-1.565451">
			<ele>1644.000000</ele>
		<time>2013-08-31T03:31:21Z</time>
		</trkpt>

		<trkpt lat="37.833143" lon="-1.565283">
			<ele>1640.000000</ele>
		<time>2013-08-31T03:31:24Z</time>
		</trkpt>

		<trkpt lat="37.833014" lon="-1.565007">
			<ele>1636.000000</ele>
		<time>2013-08-31T03:31:27Z</time>
		</trkpt>

		<trkpt lat="37.832902" lon="-1.564754">
			<ele>1634.000000</ele>
		<time>2013-08-31T03:31:30Z</time>
		</trkpt>

		<trkpt lat="37.832839" lon="-1.564512">
			<ele>1631.000000</ele>
		<time>2013-08-31T03:31:33Z</time>
		</trkpt>

		<trkpt lat="37.832805" lon="-1.564256">
			<ele>1626.000000</ele>
		<time>2013-08-31T03:31:36Z</time>
		</trkpt>

		<trkpt lat="37.832851" lon="-1.564008">
			<ele>1622.000000</ele>
		<time>2013-08-31T03:31:39Z</time>
		</trkpt>

		<trkpt lat="37.832928" lon="-1.563820">
			<ele>1620.000000</ele>
		<time>2013-08-31T03:31:42Z</time>
		</trkpt>

		<trkpt lat="37.833037" lon="-1.563601">
			<ele>1616.000000</ele>
		<time>2013-08-31T03:31:45Z</time>
		</trkpt>

		<trkpt lat="37.833173" lon="-1.563375">
			<ele>1613.000000</ele>
		<time>2013-08-31T03:31:48Z</time>
		</trkpt>

		<trkpt lat="37.833353" lon="-1.563244">
			<ele>1613.000000</ele>
		<time>2013-08-31T03:31:51Z</time>
		</trkpt>

		<trkpt lat="37.833485" lon="-1.563066">
			<ele>1611.000000</ele>
		<time>2013-08-31T03:31:54Z</time>
		</trkpt>

		<trkpt lat="37.833562" lon="-1.562922">
			<ele>1610.000000</ele>
		<time>2013-08-31T03:31:57Z</time>
		</trkpt>

		<trkpt lat="37.833661" lon="-1.562736">
			<ele>1608.000000</ele>
		<time>2013-08-31T03:32:00Z</time>
		</trkpt>

		<trkpt lat="37.833771" lon="-1.562546">
			<ele>1608.000000</ele>
		<time>2013-08-31T03:32:03Z</time>
		</trkpt>

		<trkpt lat="37.833896" lon="-1.562398">
			<ele>1610.000000</ele>
		<time>2013-08-31T03:32:06Z</time>
		</trkpt>

		<trkpt lat="37.834071" lon="-1.562288">
			<ele>1610.000000</ele>
		<time>2013-08-31T03:32:09Z</time>
		</trkpt>

		<trkpt lat="37.834216" lon="-1.562135">
			<ele>1608.000000</ele>
		<time>2013-08-31T03:32:12Z</time>
		</trkpt>

		<trkpt lat="37.834354" lon="-1.561993">
			<ele>1605.000000</ele>
		<time>2013-08-31T03:32:15Z</time>
		</trkpt>

		<trkpt lat="37.834457" lon="-1.561833">
			<ele>1600.000000</ele>
		<time>2013-08-31T03:32:18Z</time>
		</trkpt>

		<trkpt lat="37.834559" lon="-1.561653">
			<ele>1596.000000</ele>
		<time>2013-08-31T03:32:21Z</time>
		</trkpt>

		<trkpt lat="37.834646" lon="-1.561469">
			<ele>1591.000000</ele>
		<time>2013-08-31T03:32:24Z</time>
		</trkpt>

		<trkpt lat="37.834706" lon="-1.561261">
			<ele>1587.000000</ele>
		<time>2013-08-31T03:32:27Z</time>
		</trkpt>

		<trkpt lat="37.834721" lon="-1.561070">
			<ele>1583.000000</ele>
		<time>2013-08-31T03:32:30Z</time>
		</trkpt>

		<trkpt lat="37.834721" lon="-1.560880">
			<ele>1581.000000</ele>
		<time>2013-08-31T03:32:33Z</time>
		</trkpt>

		<trkpt lat="37.834737" lon="-1.560694">
			<ele>1578.000000</ele>
		<time>2013-08-31T03:32:36Z</time>
		</trkpt>

		<trkpt lat="37.834755" lon="-1.560520">
			<ele>1573.000000</ele>
		<time>2013-08-31T03:32:39Z</time>
		</trkpt>

		<trkpt lat="37.834770" lon="-1.560336">
			<ele>1566.000000</ele>
		<time>2013-08-31T03:32:42Z</time>
		</trkpt>

		<trkpt lat="37.834770" lon="-1.560115">
			<ele>1558.000000</ele>
		<time>2013-08-31T03:32:45Z</time>
		</trkpt>

		<trkpt lat="37.834746" lon="-1.559962">
			<ele>1553.000000</ele>
		<time>2013-08-31T03:32:48Z</time>
		</trkpt>

		<trkpt lat="37.834735" lon="-1.559762">
			<ele>1548.000000</ele>
		<time>2013-08-31T03:32:51Z</time>
		</trkpt>

		<trkpt lat="37.834703" lon="-1.559534">
			<ele>1540.000000</ele>
		<time>2013-08-31T03:32:54Z</time>
		</trkpt>

		<trkpt lat="37.834653" lon="-1.559328">
			<ele>1536.000000</ele>
		<time>2013-08-31T03:32:57Z</time>
		</trkpt>

		<trkpt lat="37.834689" lon="-1.559047">
			<ele>1536.000000</ele>
		<time>2013-08-31T03:33:00Z</time>
		</trkpt>

		<trkpt lat="37.834728" lon="-1.558784">
			<ele>1536.000000</ele>
		<time>2013-08-31T03:33:03Z</time>
		</trkpt>

		<trkpt lat="37.834779" lon="-1.558499">
			<ele>1535.000000</ele>
		<time>2013-08-31T03:33:06Z</time>
		</trkpt>

		<trkpt lat="37.834813" lon="-1.558280">
			<ele>1536.000000</ele>
		<time>2013-08-31T03:33:09Z</time>
		</trkpt>

		<trkpt lat="37.834846" lon="-1.558013">
			<ele>1537.000000</ele>
		<time>2013-08-31T03:33:12Z</time>
		</trkpt>

		<trkpt lat="37.834882" lon="-1.557818">
			<ele>1543.000000</ele>
		<time>2013-08-31T03:33:15Z</time>
		</trkpt>

		<trkpt lat="37.834961" lon="-1.557653">
			<ele>1546.000000</ele>
		<time>2013-08-31T03:33:18Z</time>
		</trkpt>

		<trkpt lat="37.835007" lon="-1.557402">
			<ele>1545.000000</ele>
		<time>2013-08-31T03:33:21Z</time>
		</trkpt>

		<trkpt lat="37.835039" lon="-1.557138">
			<ele>1544.000000</ele>
		<time>2013-08-31T03:33:24Z</time>
		</trkpt>

		<trkpt lat="37.835068" lon="-1.556850">
			<ele>1543.000000</ele>
		<time>2013-08-31T03:33:27Z</time>
		</trkpt>

		<trkpt lat="37.835129" lon="-1.556580">
			<ele>1541.000000</ele>
		<time>2013-08-31T03:33:30Z</time>
		</trkpt>

		<trkpt lat="37.835170" lon="-1.556280">
			<ele>1540.000000</ele>
		<time>2013-08-31T03:33:33Z</time>
		</trkpt>

		<trkpt lat="37.835235" lon="-1.556048">
			<ele>1539.000000</ele>
		<time>2013-08-31T03:33:36Z</time>
		</trkpt>

		<trkpt lat="37.835416" lon="-1.555764">
			<ele>1533.000000</ele>
		<time>2013-08-31T03:33:39Z</time>
		</trkpt>

		<trkpt lat="37.835598" lon="-1.555498">
			<ele>1528.000000</ele>
		<time>2013-08-31T03:33:42Z</time>
		</trkpt>

		<trkpt lat="37.835725" lon="-1.555279">
			<ele>1524.000000</ele>
		<time>2013-08-31T03:33:45Z</time>
		</trkpt>

		<trkpt lat="37.835810" lon="-1.554981">
			<ele>1518.000000</ele>
		<time>2013-08-31T03:33:48Z</time>
		</trkpt>

		<trkpt lat="37.835784" lon="-1.554746">
			<ele>1514.000000</ele>
		<time>2013-08-31T03:33:51Z</time>
		</trkpt>

		<trkpt lat="37.835748" lon="-1.554549">
			<ele>1512.000000</ele>
		<time>2013-08-31T03:33:54Z</time>
		</trkpt>

		<trkpt lat="37.835719" lon="-1.554345">
			<ele>1511.000000</ele>
		<time>2013-08-31T03:33:57Z</time>
		</trkpt>

		<trkpt lat="37.835747" lon="-1.554143">
			<ele>1509.000000</ele>
		<time>2013-08-31T03:34:00Z</time>
		</trkpt>

		<trkpt lat="37.835758" lon="-1.553901">
			<ele>1508.000000</ele>
		<time>2013-08-31T03:34:03Z</time>
		</trkpt>

		<trkpt lat="37.835755" lon="-1.553702">
			<ele>1508.000000</ele>
		<time>2013-08-31T03:34:06Z</time>
		</trkpt>

		<trkpt lat="37.835765" lon="-1.553381">
			<ele>1506.000000</ele>
		<time>2013-08-31T03:34:09Z</time>
		</trkpt>

		<trkpt lat="37.835753" lon="-1.553091">
			<ele>1511.000000</ele>
		<time>2013-08-31T03:34:12Z</time>
		</trkpt>

		<trkpt lat="37.835805" lon="-1.552834">
			<ele>1510.000000</ele>
		<time>2013-08-31T03:34:15Z</time>
		</trkpt>

		<trkpt lat="37.835768" lon="-1.552467">
			<ele>1506.000000</ele>
		<time>2013-08-31T03:34:18Z</time>
		</trkpt>

		<trkpt lat="37.835733" lon="-1.552134">
			<ele>1506.000000</ele>
		<time>2013-08-31T03:34:21Z</time>
		</trkpt>

		<trkpt lat="37.835709" lon="-1.551832">
			<ele>1505.000000</ele>
		<time>2013-08-31T03:34:24Z</time>
		</trkpt>

		<trkpt lat="37.835690" lon="-1.551518">
			<ele>1504.000000</ele>
		<time>2013-08-31T03:34:27Z</time>
		</trkpt>

		<trkpt lat="37.835708" lon="-1.551222">
			<ele>1501.000000</ele>
		<time>2013-08-31T03:34:30Z</time>
		</trkpt>

		<trkpt lat="37.835731" lon="-1.550925">
			<ele>1499.000000</ele>
		<time>2013-08-31T03:34:33Z</time>
		</trkpt>

		<trkpt lat="37.835731" lon="-1.550597">
			<ele>1494.000000</ele>
		<time>2013-08-31T03:34:36Z</time>
		</trkpt>

		<trkpt lat="37.835776" lon="-1.550410">
			<ele>1496.000000</ele>
		<time>2013-08-31T03:34:39Z</time>
		</trkpt>

		<trkpt lat="37.835899" lon="-1.550213">
			<ele>1495.000000</ele>
		<time>2013-08-31T03:34:42Z</time>
		</trkpt>

		<trkpt lat="37.835972" lon="-1.549916">
			<ele>1492.000000</ele>
		<time>2013-08-31T03:34:45Z</time>
		</trkpt>

		<trkpt lat="37.835998" lon="-1.549660">
			<ele>1493.000000</ele>
		<time>2013-08-31T03:34:48Z</time>
		</trkpt>

		<trkpt lat="37.835973" lon="-1.549402">
			<ele>1493.000000</ele>
		<time>2013-08-31T03:34:51Z</time>
		</trkpt>

		<trkpt lat="37.835903" lon="-1.549180">
			<ele>1493.000000</ele>
		<time>2013-08-31T03:34:54Z</time>
		</trkpt>

		<trkpt lat="37.835848" lon="-1.548955">
			<ele>1493.000000</ele>
		<time>2013-08-31T03:34:57Z</time>
		</trkpt>

		<trkpt lat="37.835787" lon="-1.548748">
			<ele>1494.000000</ele>
		<time>2013-08-31T03:35:00Z</time>
		</trkpt>

		<trkpt lat="37.835679" lon="-1.548549">
			<ele>1492.000000</ele>
		<time>2013-08-31T03:35:03Z</time>
		</trkpt>

		<trkpt lat="37.835590" lon="-1.548330">
			<ele>1490.000000</ele>
		<time>2013-08-31T03:35:06Z</time>
		</trkpt>

		<trkpt lat="37.835551" lon="-1.548091">
			<ele>1487.000000</ele>
		<time>2013-08-31T03:35:09Z</time>
		</trkpt>

		<trkpt lat="37.835507" lon="-1.547900">
			<ele>1486.000000</ele>
		<time>2013-08-31T03:35:12Z</time>
		</trkpt>

		<trkpt lat="37.835460" lon="-1.547681">
			<ele>1481.000000</ele>
		<time>2013-08-31T03:35:15Z</time>
		</trkpt>

		<trkpt lat="37.835449" lon="-1.547475">
			<ele>1477.000000</ele>
		<time>2013-08-31T03:35:18Z</time>
		</trkpt>

		<trkpt lat="37.835419" lon="-1.547217">
			<ele>1471.000000</ele>
		<time>2013-08-31T03:35:21Z</time>
		</trkpt>

		<trkpt lat="37.835379" lon="-1.546992">
			<ele>1467.000000</ele>
		<time>2013-08-31T03:35:24Z</time>
		</trkpt>

		<trkpt lat="37.835322" lon="-1.546788">
			<ele>1462.000000</ele>
		<time>2013-08-31T03:35:27Z</time>
		</trkpt>

		<trkpt lat="37.835242" lon="-1.546567">
			<ele>1457.000000</ele>
		<time>2013-08-31T03:35:30Z</time>
		</trkpt>

		<trkpt lat="37.835182" lon="-1.546344">
			<ele>1452.000000</ele>
		<time>2013-08-31T03:35:33Z</time>
		</trkpt>

		<trkpt lat="37.835177" lon="-1.546125">
			<ele>1446.000000</ele>
		<time>2013-08-31T03:35:36Z</time>
		</trkpt>

		<trkpt lat="37.835148" lon="-1.545909">
			<ele>1441.000000</ele>
		<time>2013-08-31T03:35:39Z</time>
		</trkpt>

		<trkpt lat="37.835102" lon="-1.545700">
			<ele>1437.000000</ele>
		<time>2013-08-31T03:35:42Z</time>
		</trkpt>

		<trkpt lat="37.835026" lon="-1.545451">
			<ele>1434.000000</ele>
		<time>2013-08-31T03:35:45Z</time>
		</trkpt>

		<trkpt lat="37.834952" lon="-1.545219">
			<ele>1432.000000</ele>
		<time>2013-08-31T03:35:48Z</time>
		</trkpt>

		<trkpt lat="37.834887" lon="-1.545045">
			<ele>1430.000000</ele>
		<time>2013-08-31T03:35:51Z</time>
		</trkpt>

		<trkpt lat="37.834828" lon="-1.544841">
			<ele>1423.000000</ele>
		<time>2013-08-31T03:35:54Z</time>
		</trkpt>

		<trkpt lat="37.834769" lon="-1.544660">
			<ele>1419.000000</ele>
		<time>2013-08-31T03:35:57Z</time>
		</trkpt>

		<trkpt lat="37.834715" lon="-1.544480">
			<ele>1414.000000</ele>
		<time>2013-08-31T03:36:00Z</time>
		</trkpt>

		<trkpt lat="37.834664" lon="-1.544313">
			<ele>1410.000000</ele>
		<time>2013-08-31T03:36:03Z</time>
		</trkpt>

		<trkpt lat="37.834629" lon="-1.544134">
			<ele>1407.000000</ele>
		<time>2013-08-31T03:36:06Z</time>
		</trkpt>

		<trkpt lat="37.834608" lon="-1.543944">
			<ele>1405.000000</ele>
		<time>2013-08-31T03:36:09Z</time>
		</trkpt>

		<trkpt lat="37.834579" lon="-1.543730">
			<ele>1401.000000</ele>
		<time>2013-08-31T03:36:12Z</time>
		</trkpt>

		<trkpt lat="37.834552" lon="-1.543430">
			<ele>1397.000000</ele>
		<time>2013-08-31T03:36:15Z</time>
		</trkpt>

		<trkpt lat="37.834500" lon="-1.543194">
			<ele>1396.000000</ele>
		<time>2013-08-31T03:36:18Z</time>
		</trkpt>

		<trkpt lat="37.834491" lon="-1.542946">
			<ele>1391.000000</ele>
		<time>2013-08-31T03:36:21Z</time>
		</trkpt>

		<trkpt lat="37.834444" lon="-1.542675">
			<ele>1387.000000</ele>
		<time>2013-08-31T03:36:24Z</time>
		</trkpt>

		<trkpt lat="37.834368" lon="-1.542448">
			<ele>1383.000000</ele>
		<time>2013-08-31T03:36:27Z</time>
		</trkpt>

		<trkpt lat="37.834293" lon="-1.542161">
			<ele>1379.000000</ele>
		<time>2013-08-31T03:36:30Z</time>
		</trkpt>

		<trkpt lat="37.834290" lon="-1.541905">
			<ele>1376.000000</ele>
		<time>2013-08-31T03:36:33Z</time>
		</trkpt>

		<trkpt lat="37.834302" lon="-1.541552">
			<ele>1370.000000</ele>
		<time>2013-08-31T03:36:36Z</time>
		</trkpt>

		<trkpt lat="37.834334" lon="-1.541250">
			<ele>1368.000000</ele>
		<time>2013-08-31T03:36:39Z</time>
		</trkpt>

		<trkpt lat="37.834337" lon="-1.540939">
			<ele>1364.000000</ele>
		<time>2013-08-31T03:36:42Z</time>
		</trkpt>

		<trkpt lat="37.834314" lon="-1.540649">
			<ele>1363.000000</ele>
		<time>2013-08-31T03:36:45Z</time>
		</trkpt>

		<trkpt lat="37.834292" lon="-1.540379">
			<ele>1366.000000</ele>
		<time>2013-08-31T03:36:48Z</time>
		</trkpt>

		<trkpt lat="37.834278" lon="-1.540124">
			<ele>1367.000000</ele>
		<time>2013-08-31T03:36:51Z</time>
		</trkpt>

		<trkpt lat="37.834228" lon="-1.539875">
			<ele>1369.000000</ele>
		<time>2013-08-31T03:36:54Z</time>
		</trkpt>

		<trkpt lat="37.834052" lon="-1.539740">
			<ele>1370.000000</ele>
		<time>2013-08-31T03:36:57Z</time>
		</trkpt>

		<trkpt lat="37.833888" lon="-1.539600">
			<ele>1368.000000</ele>
		<time>2013-08-31T03:37:00Z</time>
		</trkpt>

		<trkpt lat="37.833806" lon="-1.539363">
			<ele>1364.000000</ele>
		<time>2013-08-31T03:37:03Z</time>
		</trkpt>

		<trkpt lat="37.833753" lon="-1.539109">
			<ele>1363.000000</ele>
		<time>2013-08-31T03:37:06Z</time>
		</trkpt>

		<trkpt lat="37.833725" lon="-1.538861">
			<ele>1363.000000</ele>
		<time>2013-08-31T03:37:09Z</time>
		</trkpt>

		<trkpt lat="37.833718" lon="-1.538658">
			<ele>1362.000000</ele>
		<time>2013-08-31T03:37:12Z</time>
		</trkpt>

		<trkpt lat="37.833718" lon="-1.538396">
			<ele>1360.000000</ele>
		<time>2013-08-31T03:37:15Z</time>
		</trkpt>

		<trkpt lat="37.833614" lon="-1.538192">
			<ele>1364.000000</ele>
		<time>2013-08-31T03:37:18Z</time>
		</trkpt>

		<trkpt lat="37.833625" lon="-1.538010">
			<ele>1368.000000</ele>
		<time>2013-08-31T03:37:21Z</time>
		</trkpt>

		<trkpt lat="37.833832" lon="-1.537808">
			<ele>1371.000000</ele>
		<time>2013-08-31T03:37:24Z</time>
		</trkpt>

		<trkpt lat="37.834144" lon="-1.537912">
			<ele>1376.000000</ele>
		<time>2013-08-31T03:37:27Z</time>
		</trkpt>

		<trkpt lat="37.834262" lon="-1.538333">
			<ele>1379.000000</ele>
		<time>2013-08-31T03:37:30Z</time>
		</trkpt>

		<trkpt lat="37.834073" lon="-1.538757">
			<ele>1379.000000</ele>
		<time>2013-08-31T03:37:33Z</time>
		</trkpt>

		<trkpt lat="37.833810" lon="-1.538997">
			<ele>1383.000000</ele>
		<time>2013-08-31T03:37:36Z</time>
		</trkpt>

		<trkpt lat="37.833538" lon="-1.539137">
			<ele>1388.000000</ele>
		<time>2013-08-31T03:37:39Z</time>
		</trkpt>

		<trkpt lat="37.833268" lon="-1.539282">
			<ele>1392.000000</ele>
		<time>2013-08-31T03:37:42Z</time>
		</trkpt>

		<trkpt lat="37.832979" lon="-1.539282">
			<ele>1396.000000</ele>
		<time>2013-08-31T03:37:45Z</time>
		</trkpt>

		<trkpt lat="37.832812" lon="-1.539095">
			<ele>1398.000000</ele>
		<time>2013-08-31T03:37:48Z</time>
		</trkpt>

		<trkpt lat="37.832752" lon="-1.538875">
			<ele>1400.000000</ele>
		<time>2013-08-31T03:37:51Z</time>
		</trkpt>

		<trkpt lat="37.832775" lon="-1.538642">
			<ele>1402.000000</ele>
		<time>2013-08-31T03:37:54Z</time>
		</trkpt>

		<trkpt lat="37.832912" lon="-1.538505">
			<ele>1404.000000</ele>
		<time>2013-08-31T03:37:57Z</time>
		</trkpt>

		<trkpt lat="37.833184" lon="-1.538503">
			<ele>1406.000000</ele>
		<time>2013-08-31T03:38:00Z</time>
		</trkpt>

		<trkpt lat="37.833393" lon="-1.538525">
			<ele>1412.000000</ele>
		<time>2013-08-31T03:38:03Z</time>
		</trkpt>

		<trkpt lat="37.833503" lon="-1.538357">
			<ele>1416.000000</ele>
		<time>2013-08-31T03:38:06Z</time>
		</trkpt>

		<trkpt lat="37.833431" lon="-1.538113">
			<ele>1420.000000</ele>
		<time>2013-08-31T03:38:09Z</time>
		</trkpt>

		<trkpt lat="37.833227" lon="-1.538002">
			<ele>1425.000000</ele>
		<time>2013-08-31T03:38:12Z</time>
		</trkpt>

		<trkpt lat="37.832948" lon="-1.537975">
			<ele>1426.000000</ele>
		<time>2013-08-31T03:38:15Z</time>
		</trkpt>

		<trkpt lat="37.832673" lon="-1.538269">
			<ele>1424.000000</ele>
		<time>2013-08-31T03:38:18Z</time>
		</trkpt>

		<trkpt lat="37.832567" lon="-1.538773">
			<ele>1421.000000</ele>
		<time>2013-08-31T03:38:21Z</time>
		</trkpt>

		<trkpt lat="37.832769" lon="-1.539167">
			<ele>1419.000000</ele>
		<time>2013-08-31T03:38:24Z</time>
		</trkpt>

		<trkpt lat="37.833014" lon="-1.539291">
			<ele>1420.000000</ele>
		<time>2013-08-31T03:38:27Z</time>
		</trkpt>

		<trkpt lat="37.833251" lon="-1.539318">
			<ele>1426.000000</ele>
		<time>2013-08-31T03:38:30Z</time>
		</trkpt>

		<trkpt lat="37.833453" lon="-1.539321">
			<ele>1434.000000</ele>
		<time>2013-08-31T03:38:33Z</time>
		</trkpt>

		<trkpt lat="37.833661" lon="-1.539581">
			<ele>1437.000000</ele>
		<time>2013-08-31T03:38:36Z</time>
		</trkpt>

		<trkpt lat="37.833742" lon="-1.539981">
			<ele>1442.000000</ele>
		<time>2013-08-31T03:38:39Z</time>
		</trkpt>

		<trkpt lat="37.833524" lon="-1.540313">
			<ele>1447.000000</ele>
		<time>2013-08-31T03:38:42Z</time>
		</trkpt>

		<trkpt lat="37.833204" lon="-1.540323">
			<ele>1452.000000</ele>
		<time>2013-08-31T03:38:45Z</time>
		</trkpt>

		<trkpt lat="37.832994" lon="-1.540175">
			<ele>1459.000000</ele>
		<time>2013-08-31T03:38:48Z</time>
		</trkpt>

		<trkpt lat="37.832982" lon="-1.539946">
			<ele>1464.000000</ele>
		<time>2013-08-31T03:38:51Z</time>
		</trkpt>

		<trkpt lat="37.833241" lon="-1.539787">
			<ele>1469.000000</ele>
		<time>2013-08-31T03:38:54Z</time>
		</trkpt>

		<trkpt lat="37.833544" lon="-1.539853">
			<ele>1473.000000</ele>
		<time>2013-08-31T03:38:57Z</time>
		</trkpt>

		<trkpt lat="37.833748" lon="-1.540152">
			<ele>1477.000000</ele>
		<time>2013-08-31T03:39:00Z</time>
		</trkpt>

		<trkpt lat="37.833762" lon="-1.540700">
			<ele>1483.000000</ele>
		<time>2013-08-31T03:39:03Z</time>
		</trkpt>

		<trkpt lat="37.833548" lon="-1.541120">
			<ele>1488.000000</ele>
		<time>2013-08-31T03:39:06Z</time>
		</trkpt>

		<trkpt lat="37.833254" lon="-1.541335">
			<ele>1494.000000</ele>
		<time>2013-08-31T03:39:09Z</time>
		</trkpt>

		<trkpt lat="37.832968" lon="-1.541349">
			<ele>1499.000000</ele>
		<time>2013-08-31T03:39:12Z</time>
		</trkpt>

		<trkpt lat="37.832741" lon="-1.541201">
			<ele>1504.000000</ele>
		<time>2013-08-31T03:39:15Z</time>
		</trkpt>

		<trkpt lat="37.832540" lon="-1.541043">
			<ele>1508.000000</ele>
		<time>2013-08-31T03:39:18Z</time>
		</trkpt>

		<trkpt lat="37.832402" lon="-1.540862">
			<ele>1510.000000</ele>
		<time>2013-08-31T03:39:21Z</time>
		</trkpt>

		<trkpt lat="37.832418" lon="-1.540648">
			<ele>1508.000000</ele>
		<time>2013-08-31T03:39:24Z</time>
		</trkpt>

		<trkpt lat="37.832582" lon="-1.540490">
			<ele>1505.000000</ele>
		<time>2013-08-31T03:39:27Z</time>
		</trkpt>

		<trkpt lat="37.832801" lon="-1.540393">
			<ele>1500.000000</ele>
		<time>2013-08-31T03:39:30Z</time>
		</trkpt>

		<trkpt lat="37.833033" lon="-1.540320">
			<ele>1498.000000</ele>
		<time>2013-08-31T03:39:33Z</time>
		</trkpt>

		<trkpt lat="37.833253" lon="-1.540289">
			<ele>1499.000000</ele>
		<time>2013-08-31T03:39:36Z</time>
		</trkpt>

		<trkpt lat="37.833469" lon="-1.540302">
			<ele>1501.000000</ele>
		<time>2013-08-31T03:39:39Z</time>
		</trkpt>

		<trkpt lat="37.833665" lon="-1.540322">
			<ele>1505.000000</ele>
		<time>2013-08-31T03:39:42Z</time>
		</trkpt>

		<trkpt lat="37.833835" lon="-1.540316">
			<ele>1506.000000</ele>
		<time>2013-08-31T03:39:45Z</time>
		</trkpt>

		<trkpt lat="37.834062" lon="-1.540286">
			<ele>1506.000000</ele>
		<time>2013-08-31T03:39:48Z</time>
		</trkpt>

		<trkpt lat="37.834295" lon="-1.540306">
			<ele>1506.000000</ele>
		<time>2013-08-31T03:39:51Z</time>
		</trkpt>

		<trkpt lat="37.834526" lon="-1.540341">
			<ele>1508.000000</ele>
		<time>2013-08-31T03:39:54Z</time>
		</trkpt>

		<trkpt lat="37.834723" lon="-1.540238">
			<ele>1510.000000</ele>
		<time>2013-08-31T03:39:57Z</time>
		</trkpt>

		<trkpt lat="37.834847" lon="-1.540046">
			<ele>1513.000000</ele>
		<time>2013-08-31T03:40:00Z</time>
		</trkpt>

		<trkpt lat="37.834932" lon="-1.539810">
			<ele>1516.000000</ele>
		<time>2013-08-31T03:40:03Z</time>
		</trkpt>

		<trkpt lat="37.834847" lon="-1.539592">
			<ele>1518.000000</ele>
		<time>2013-08-31T03:40:06Z</time>
		</trkpt>

		<trkpt lat="37.834665" lon="-1.539386">
			<ele>1517.000000</ele>
		<time>2013-08-31T03:40:09Z</time>
		</trkpt>

		<trkpt lat="37.834422" lon="-1.539320">
			<ele>1515.000000</ele>
		<time>2013-08-31T03:40:12Z</time>
		</trkpt>

		<trkpt lat="37.834110" lon="-1.539472">
			<ele>1509.000000</ele>
		<time>2013-08-31T03:40:15Z</time>
		</trkpt>

		<trkpt lat="37.833886" lon="-1.539940">
			<ele>1504.000000</ele>
		<time>2013-08-31T03:40:18Z</time>
		</trkpt>

		<trkpt lat="37.833920" lon="-1.540382">
			<ele>1504.000000</ele>
		<time>2013-08-31T03:40:21Z</time>
		</trkpt>

		<trkpt lat="37.834066" lon="-1.540744">
			<ele>1504.000000</ele>
		<time>2013-08-31T03:40:24Z</time>
		</trkpt>

		<trkpt lat="37.834378" lon="-1.540927">
			<ele>1501.000000</ele>
		<time>2013-08-31T03:40:27Z</time>
		</trkpt>

		<trkpt lat="37.834606" lon="-1.540851">
			<ele>1501.000000</ele>
		<time>2013-08-31T03:40:30Z</time>
		</trkpt>

		<trkpt lat="37.834776" lon="-1.540616">
			<ele>1500.000000</ele>
		<time>2013-08-31T03:40:33Z</time>
		</trkpt>

		<trkpt lat="37.834933" lon="-1.540483">
			<ele>1502.000000</ele>
		<time>2013-08-31T03:40:36Z</time>
		</trkpt>

		<trkpt lat="37.835113" lon="-1.540378">
			<ele>1499.000000</ele>
		<time>2013-08-31T03:40:39Z</time>
		</trkpt>

		<trkpt lat="37.835238" lon="-1.540181">
			<ele>1499.000000</ele>
		<time>2013-08-31T03:40:42Z</time>
		</trkpt>

		<trkpt lat="37.835341" lon="-1.540023">
			<ele>1502.000000</ele>
		<time>2013-08-31T03:40:45Z</time>
		</trkpt>

		<trkpt lat="37.835436" lon="-1.539857">
			<ele>1505.000000</ele>
		<time>2013-08-31T03:40:48Z</time>
		</trkpt>

		<trkpt lat="37.835459" lon="-1.539710">
			<ele>1510.000000</ele>
		<time>2013-08-31T03:40:51Z</time>
		</trkpt>

		<trkpt lat="37.835384" lon="-1.539557">
			<ele>1514.000000</ele>
		<time>2013-08-31T03:40:54Z</time>
		</trkpt>

		<trkpt lat="37.835202" lon="-1.539436">
			<ele>1518.000000</ele>
		<time>2013-08-31T03:40:57Z</time>
		</trkpt>

		<trkpt lat="37.834999" lon="-1.539294">
			<ele>1521.000000</ele>
		<time>2013-08-31T03:41:00Z</time>
		</trkpt>

		<trkpt lat="37.834825" lon="-1.539104">
			<ele>1524.000000</ele>
		<time>2013-08-31T03:41:03Z</time>
		</trkpt>

		<trkpt lat="37.834647" lon="-1.538947">
			<ele>1527.000000</ele>
		<time>2013-08-31T03:41:06Z</time>
		</trkpt>

		<trkpt lat="37.834459" lon="-1.538812">
			<ele>1530.000000</ele>
		<time>2013-08-31T03:41:09Z</time>
		</trkpt>

		<trkpt lat="37.834269" lon="-1.538683">
			<ele>1533.000000</ele>
		<time>2013-08-31T03:41:12Z</time>
		</trkpt>

		<trkpt lat="37.834111" lon="-1.538524">
			<ele>1535.000000</ele>
		<time>2013-08-31T03:41:15Z</time>
		</trkpt>

		<trkpt lat="37.833944" lon="-1.538470">
			<ele>1539.000000</ele>
		<time>2013-08-31T03:41:18Z</time>
		</trkpt>

		<trkpt lat="37.833682" lon="-1.538606">
			<ele>1540.000000</ele>
		<time>2013-08-31T03:41:21Z</time>
		</trkpt>

		<trkpt lat="37.833447" lon="-1.538857">
			<ele>1543.000000</ele>
		<time>2013-08-31T03:41:24Z</time>
		</trkpt>

		<trkpt lat="37.833233" lon="-1.539035">
			<ele>1542.000000</ele>
		<time>2013-08-31T03:41:27Z</time>
		</trkpt>

		<trkpt lat="37.832991" lon="-1.539001">
			<ele>1540.000000</ele>
		<time>2013-08-31T03:41:30Z</time>
		</trkpt>

		<trkpt lat="37.832831" lon="-1.538886">
			<ele>1537.000000</ele>
		<time>2013-08-31T03:41:33Z</time>
		</trkpt>

		<trkpt lat="37.832759" lon="-1.538716">
			<ele>1534.000000</ele>
		<time>2013-08-31T03:41:36Z</time>
		</trkpt>

		<trkpt lat="37.832709" lon="-1.538531">
			<ele>1528.000000</ele>
		<time>2013-08-31T03:41:39Z</time>
		</trkpt>

		<trkpt lat="37.832668" lon="-1.538303">
			<ele>1522.000000</ele>
		<time>2013-08-31T03:41:42Z</time>
		</trkpt>

		<trkpt lat="37.832618" lon="-1.538112">
			<ele>1515.000000</ele>
		<time>2013-08-31T03:41:45Z</time>
		</trkpt>

		<trkpt lat="37.832604" lon="-1.537908">
			<ele>1507.000000</ele>
		<time>2013-08-31T03:41:48Z</time>
		</trkpt>

		<trkpt lat="37.832609" lon="-1.537727">
			<ele>1500.000000</ele>
		<time>2013-08-31T03:41:51Z</time>
		</trkpt>

		<trkpt lat="37.832644" lon="-1.537537">
			<ele>1493.000000</ele>
		<time>2013-08-31T03:41:54Z</time>
		</trkpt>

		<trkpt lat="37.832671" lon="-1.537385">
			<ele>1489.000000</ele>
		<time>2013-08-31T03:41:57Z</time>
		</trkpt>

		<trkpt lat="37.832706" lon="-1.537196">
			<ele>1485.000000</ele>
		<time>2013-08-31T03:42:00Z</time>
		</trkpt>

		<trkpt lat="37.832757" lon="-1.536965">
			<ele>1480.000000</ele>
		<time>2013-08-31T03:42:03Z</time>
		</trkpt>

		<trkpt lat="37.832789" lon="-1.536741">
			<ele>1476.000000</ele>
		<time>2013-08-31T03:42:06Z</time>
		</trkpt>

		<trkpt lat="37.832805" lon="-1.536557">
			<ele>1471.000000</ele>
		<time>2013-08-31T03:42:09Z</time>
		</trkpt>

		<trkpt lat="37.832825" lon="-1.536337">
			<ele>1464.000000</ele>
		<time>2013-08-31T03:42:12Z</time>
		</trkpt>

		<trkpt lat="37.832736" lon="-1.536160">
			<ele>1460.000000</ele>
		<time>2013-08-31T03:42:15Z</time>
		</trkpt>

		<trkpt lat="37.832678" lon="-1.535944">
			<ele>1456.000000</ele>
		<time>2013-08-31T03:42:18Z</time>
		</trkpt>

		<trkpt lat="37.832601" lon="-1.535718">
			<ele>1457.000000</ele>
		<time>2013-08-31T03:42:21Z</time>
		</trkpt>

		<trkpt lat="37.832538" lon="-1.535571">
			<ele>1458.000000</ele>
		<time>2013-08-31T03:42:24Z</time>
		</trkpt>

		<trkpt lat="37.832472" lon="-1.535324">
			<ele>1456.000000</ele>
		<time>2013-08-31T03:42:27Z</time>
		</trkpt>

		<trkpt lat="37.832427" lon="-1.535062">
			<ele>1455.000000</ele>
		<time>2013-08-31T03:42:30Z</time>
		</trkpt>

		<trkpt lat="37.832384" lon="-1.534833">
			<ele>1456.000000</ele>
		<time>2013-08-31T03:42:33Z</time>
		</trkpt>

		<trkpt lat="37.832271" lon="-1.534629">
			<ele>1457.000000</ele>
		<time>2013-08-31T03:42:36Z</time>
		</trkpt>

		<trkpt lat="37.832140" lon="-1.534504">
			<ele>1458.000000</ele>
		<time>2013-08-31T03:42:39Z</time>
		</trkpt>

		<trkpt lat="37.832002" lon="-1.534375">
			<ele>1459.000000</ele>
		<time>2013-08-31T03:42:42Z</time>
		</trkpt>

		<trkpt lat="37.831910" lon="-1.534196">
			<ele>1460.000000</ele>
		<time>2013-08-31T03:42:45Z</time>
		</trkpt>

		<trkpt lat="37.831843" lon="-1.533998">
			<ele>1460.000000</ele>
		<time>2013-08-31T03:42:48Z</time>
		</trkpt>

		<trkpt lat="37.831779" lon="-1.533790">
			<ele>1461.000000</ele>
		<time>2013-08-31T03:42:51Z</time>
		</trkpt>

		<trkpt lat="37.831687" lon="-1.533599">
			<ele>1461.000000</ele>
		<time>2013-08-31T03:42:54Z</time>
		</trkpt>

		<trkpt lat="37.831558" lon="-1.533339">
			<ele>1461.000000</ele>
		<time>2013-08-31T03:42:57Z</time>
		</trkpt>

		<trkpt lat="37.831437" lon="-1.533093">
			<ele>1463.000000</ele>
		<time>2013-08-31T03:43:00Z</time>
		</trkpt>

		<trkpt lat="37.831286" lon="-1.533017">
			<ele>1465.000000</ele>
		<time>2013-08-31T03:43:03Z</time>
		</trkpt>

		<trkpt lat="37.831068" lon="-1.532967">
			<ele>1465.000000</ele>
		<time>2013-08-31T03:43:06Z</time>
		</trkpt>

		<trkpt lat="37.830874" lon="-1.532895">
			<ele>1469.000000</ele>
		<time>2013-08-31T03:43:09Z</time>
		</trkpt>

		<trkpt lat="37.830700" lon="-1.532886">
			<ele>1470.000000</ele>
		<time>2013-08-31T03:43:12Z</time>
		</trkpt>

		<trkpt lat="37.830425" lon="-1.533022">
			<ele>1473.000000</ele>
		<time>2013-08-31T03:43:15Z</time>
		</trkpt>

		<trkpt lat="37.830238" lon="-1.533205">
			<ele>1480.000000</ele>
		<time>2013-08-31T03:43:18Z</time>
		</trkpt>

		<trkpt lat="37.830067" lon="-1.533290">
			<ele>1483.000000</ele>
		<time>2013-08-31T03:43:21Z</time>
		</trkpt>

		<trkpt lat="37.829929" lon="-1.533197">
			<ele>1486.000000</ele>
		<time>2013-08-31T03:43:24Z</time>
		</trkpt>

		<trkpt lat="37.829999" lon="-1.533037">
			<ele>1488.000000</ele>
		<time>2013-08-31T03:43:27Z</time>
		</trkpt>

		<trkpt lat="37.830177" lon="-1.532863">
			<ele>1487.000000</ele>
		<time>2013-08-31T03:43:30Z</time>
		</trkpt>

		<trkpt lat="37.830333" lon="-1.532716">
			<ele>1487.000000</ele>
		<time>2013-08-31T03:43:33Z</time>
		</trkpt>

		<trkpt lat="37.830493" lon="-1.532562">
			<ele>1491.000000</ele>
		<time>2013-08-31T03:43:36Z</time>
		</trkpt>

		<trkpt lat="37.830810" lon="-1.532513">
			<ele>1498.000000</ele>
		<time>2013-08-31T03:43:39Z</time>
		</trkpt>

		<trkpt lat="37.831097" lon="-1.532763">
			<ele>1508.000000</ele>
		<time>2013-08-31T03:43:42Z</time>
		</trkpt>

		<trkpt lat="37.831125" lon="-1.533208">
			<ele>1518.000000</ele>
		<time>2013-08-31T03:43:45Z</time>
		</trkpt>

		<trkpt lat="37.830805" lon="-1.533456">
			<ele>1524.000000</ele>
		<time>2013-08-31T03:43:48Z</time>
		</trkpt>

		<trkpt lat="37.830605" lon="-1.533377">
			<ele>1530.000000</ele>
		<time>2013-08-31T03:43:51Z</time>
		</trkpt>

		<trkpt lat="37.830457" lon="-1.533243">
			<ele>1540.000000</ele>
		<time>2013-08-31T03:43:54Z</time>
		</trkpt>

		<trkpt lat="37.830416" lon="-1.533071">
			<ele>1548.000000</ele>
		<time>2013-08-31T03:43:57Z</time>
		</trkpt>

		<trkpt lat="37.830686" lon="-1.533035">
			<ele>1557.000000</ele>
		<time>2013-08-31T03:44:00Z</time>
		</trkpt>

		<trkpt lat="37.830958" lon="-1.533388">
			<ele>1565.000000</ele>
		<time>2013-08-31T03:44:03Z</time>
		</trkpt>

		<trkpt lat="37.831103" lon="-1.533922">
			<ele>1573.000000</ele>
		<time>2013-08-31T03:44:06Z</time>
		</trkpt>

		<trkpt lat="37.830963" lon="-1.534220">
			<ele>1580.000000</ele>
		<time>2013-08-31T03:44:09Z</time>
		</trkpt>

		<trkpt lat="37.830684" lon="-1.534250">
			<ele>1589.000000</ele>
		<time>2013-08-31T03:44:12Z</time>
		</trkpt>

		<trkpt lat="37.830450" lon="-1.534044">
			<ele>1598.000000</ele>
		<time>2013-08-31T03:44:15Z</time>
		</trkpt>

		<trkpt lat="37.830548" lon="-1.533932">
			<ele>1608.000000</ele>
		<time>2013-08-31T03:44:18Z</time>
		</trkpt>

		<trkpt lat="37.830877" lon="-1.533940">
			<ele>1617.000000</ele>
		<time>2013-08-31T03:44:21Z</time>
		</trkpt>

		<trkpt lat="37.831313" lon="-1.534079">
			<ele>1624.000000</ele>
		<time>2013-08-31T03:44:24Z</time>
		</trkpt>

		<trkpt lat="37.831566" lon="-1.534489">
			<ele>1634.000000</ele>
		<time>2013-08-31T03:44:27Z</time>
		</trkpt>

		<trkpt lat="37.831431" lon="-1.534888">
			<ele>1642.000000</ele>
		<time>2013-08-31T03:44:30Z</time>
		</trkpt>

		<trkpt lat="37.831139" lon="-1.535183">
			<ele>1646.000000</ele>
		<time>2013-08-31T03:44:33Z</time>
		</trkpt>

		<trkpt lat="37.830844" lon="-1.535138">
			<ele>1653.000000</ele>
		<time>2013-08-31T03:44:36Z</time>
		</trkpt>

		<trkpt lat="37.830537" lon="-1.535021">
			<ele>1663.000000</ele>
		<time>2013-08-31T03:44:39Z</time>
		</trkpt>

		<trkpt lat="37.830536" lon="-1.534828">
			<ele>1669.000000</ele>
		<time>2013-08-31T03:44:42Z</time>
		</trkpt>

		<trkpt lat="37.830931" lon="-1.534855">
			<ele>1672.000000</ele>
		<time>2013-08-31T03:44:45Z</time>
		</trkpt>

		<trkpt lat="37.831266" lon="-1.535022">
			<ele>1678.000000</ele>
		<time>2013-08-31T03:44:48Z</time>
		</trkpt>

		<trkpt lat="37.831554" lon="-1.535352">
			<ele>1685.000000</ele>
		<time>2013-08-31T03:44:51Z</time>
		</trkpt>

		<trkpt lat="37.831670" lon="-1.535827">
			<ele>1693.000000</ele>
		<time>2013-08-31T03:44:54Z</time>
		</trkpt>

		<trkpt lat="37.831641" lon="-1.536270">
			<ele>1700.000000</ele>
		<time>2013-08-31T03:44:57Z</time>
		</trkpt>

		<trkpt lat="37.831423" lon="-1.536647">
			<ele>1704.000000</ele>
		<time>2013-08-31T03:45:00Z</time>
		</trkpt>

		<trkpt lat="37.831118" lon="-1.536780">
			<ele>1710.000000</ele>
		<time>2013-08-31T03:45:03Z</time>
		</trkpt>

		<trkpt lat="37.830873" lon="-1.536822">
			<ele>1719.000000</ele>
		<time>2013-08-31T03:45:06Z</time>
		</trkpt>

		<trkpt lat="37.830615" lon="-1.536880">
			<ele>1724.000000</ele>
		<time>2013-08-31T03:45:09Z</time>
		</trkpt>

		<trkpt lat="37.830464" lon="-1.537239">
			<ele>1730.000000</ele>
		<time>2013-08-31T03:45:12Z</time>
		</trkpt>

		<trkpt lat="37.830405" lon="-1.537728">
			<ele>1734.000000</ele>
		<time>2013-08-31T03:45:15Z</time>
		</trkpt>

		<trkpt lat="37.830539" lon="-1.538283">
			<ele>1735.000000</ele>
		<time>2013-08-31T03:45:18Z</time>
		</trkpt>

		<trkpt lat="37.830775" lon="-1.538620">
			<ele>1739.000000</ele>
		<time>2013-08-31T03:45:21Z</time>
		</trkpt>

		<trkpt lat="37.831066" lon="-1.538780">
			<ele>1740.000000</ele>
		<time>2013-08-31T03:45:24Z</time>
		</trkpt>

		<trkpt lat="37.831405" lon="-1.538815">
			<ele>1745.000000</ele>
		<time>2013-08-31T03:45:27Z</time>
		</trkpt>

		<trkpt lat="37.831589" lon="-1.538817">
			<ele>1755.000000</ele>
		<time>2013-08-31T03:45:30Z</time>
		</trkpt>

		<trkpt lat="37.831806" lon="-1.538777">
			<ele>1758.000000</ele>
		<time>2013-08-31T03:45:33Z</time>
		</trkpt>

		<trkpt lat="37.831940" lon="-1.538570">
			<ele>1759.000000</ele>
		<time>2013-08-31T03:45:36Z</time>
		</trkpt>

		<trkpt lat="37.831957" lon="-1.538299">
			<ele>1761.000000</ele>
		<time>2013-08-31T03:45:39Z</time>
		</trkpt>

		<trkpt lat="37.831951" lon="-1.538051">
			<ele>1763.000000</ele>
		<time>2013-08-31T03:45:42Z</time>
		</trkpt>

		<trkpt lat="37.831924" lon="-1.537808">
			<ele>1766.000000</ele>
		<time>2013-08-31T03:45:45Z</time>
		</trkpt>

		<trkpt lat="37.831808" lon="-1.537611">
			<ele>1771.000000</ele>
		<time>2013-08-31T03:45:48Z</time>
		</trkpt>

		<trkpt lat="37.831697" lon="-1.537492">
			<ele>1779.000000</ele>
		<time>2013-08-31T03:45:51Z</time>
		</trkpt>

		<trkpt lat="37.831648" lon="-1.537341">
			<ele>1785.000000</ele>
		<time>2013-08-31T03:45:54Z</time>
		</trkpt>

		<trkpt lat="37.832029" lon="-1.537288">
			<ele>1791.000000</ele>
		<time>2013-08-31T03:45:57Z</time>
		</trkpt>

		<trkpt lat="37.832374" lon="-1.537511">
			<ele>1799.000000</ele>
		<time>2013-08-31T03:46:00Z</time>
		</trkpt>

		<trkpt lat="37.832339" lon="-1.538004">
			<ele>1804.000000</ele>
		<time>2013-08-31T03:46:03Z</time>
		</trkpt>

		<trkpt lat="37.832074" lon="-1.538372">
			<ele>1809.000000</ele>
		<time>2013-08-31T03:46:06Z</time>
		</trkpt>

		<trkpt lat="37.831745" lon="-1.538499">
			<ele>1817.000000</ele>
		<time>2013-08-31T03:46:09Z</time>
		</trkpt>

		<trkpt lat="37.831535" lon="-1.538455">
			<ele>1824.000000</ele>
		<time>2013-08-31T03:46:12Z</time>
		</trkpt>

		<trkpt lat="37.831325" lon="-1.538281">
			<ele>1827.000000</ele>
		<time>2013-08-31T03:46:15Z</time>
		</trkpt>

		<trkpt lat="37.831368" lon="-1.538016">
			<ele>1828.000000</ele>
		<time>2013-08-31T03:46:18Z</time>
		</trkpt>

		<trkpt lat="37.831679" lon="-1.538006">
			<ele>1832.000000</ele>
		<time>2013-08-31T03:46:21Z</time>
		</trkpt>

		<trkpt lat="37.831980" lon="-1.538233">
			<ele>1838.000000</ele>
		<time>2013-08-31T03:46:24Z</time>
		</trkpt>

		<trkpt lat="37.832156" lon="-1.538630">
			<ele>1843.000000</ele>
		<time>2013-08-31T03:46:27Z</time>
		</trkpt>

		<trkpt lat="37.832157" lon="-1.539132">
			<ele>1848.000000</ele>
		<time>2013-08-31T03:46:30Z</time>
		</trkpt>

		<trkpt lat="37.831979" lon="-1.539567">
			<ele>1854.000000</ele>
		<time>2013-08-31T03:46:33Z</time>
		</trkpt>

		<trkpt lat="37.831721" lon="-1.539675">
			<ele>1860.000000</ele>
		<time>2013-08-31T03:46:36Z</time>
		</trkpt>

		<trkpt lat="37.831479" lon="-1.539621">
			<ele>1865.000000</ele>
		<time>2013-08-31T03:46:39Z</time>
		</trkpt>

		<trkpt lat="37.831286" lon="-1.539418">
			<ele>1868.000000</ele>
		<time>2013-08-31T03:46:42Z</time>
		</trkpt>

		<trkpt lat="37.831167" lon="-1.539216">
			<ele>1870.000000</ele>
		<time>2013-08-31T03:46:45Z</time>
		</trkpt>

		<trkpt lat="37.831192" lon="-1.538955">
			<ele>1871.000000</ele>
		<time>2013-08-31T03:46:48Z</time>
		</trkpt>

		<trkpt lat="37.831208" lon="-1.538747">
			<ele>1873.000000</ele>
		<time>2013-08-31T03:46:51Z</time>
		</trkpt>

		<trkpt lat="37.831202" lon="-1.538539">
			<ele>1875.000000</ele>
		<time>2013-08-31T03:46:54Z</time>
		</trkpt>

		<trkpt lat="37.831197" lon="-1.538335">
			<ele>1876.000000</ele>
		<time>2013-08-31T03:46:57Z</time>
		</trkpt>

		<trkpt lat="37.831274" lon="-1.538108">
			<ele>1875.000000</ele>
		<time>2013-08-31T03:47:00Z</time>
		</trkpt>

		<trkpt lat="37.831319" lon="-1.537874">
			<ele>1873.000000</ele>
		<time>2013-08-31T03:47:03Z</time>
		</trkpt>

		<trkpt lat="37.831297" lon="-1.537625">
			<ele>1870.000000</ele>
		<time>2013-08-31T03:47:06Z</time>
		</trkpt>

		<trkpt lat="37.831248" lon="-1.537357">
			<ele>1871.000000</ele>
		<time>2013-08-31T03:47:09Z</time>
		</trkpt>

		<trkpt lat="37.831206" lon="-1.537138">
			<ele>1872.000000</ele>
		<time>2013-08-31T03:47:12Z</time>
		</trkpt>

		<trkpt lat="37.831188" lon="-1.536848">
			<ele>1872.000000</ele>
		<time>2013-08-31T03:47:15Z</time>
		</trkpt>

		<trkpt lat="37.831239" lon="-1.536548">
			<ele>1874.000000</ele>
		<time>2013-08-31T03:47:18Z</time>
		</trkpt>

		<trkpt lat="37.831286" lon="-1.536304">
			<ele>1875.000000</ele>
		<time>2013-08-31T03:47:21Z</time>
		</trkpt>

		<trkpt lat="37.831300" lon="-1.535981">
			<ele>1874.000000</ele>
		<time>2013-08-31T03:47:24Z</time>
		</trkpt>

		<trkpt lat="37.831287" lon="-1.535639">
			<ele>1876.000000</ele>
		<time>2013-08-31T03:47:27Z</time>
		</trkpt>

		<trkpt lat="37.831276" lon="-1.535319">
			<ele>1876.000000</ele>
		<time>2013-08-31T03:47:30Z</time>
		</trkpt>

		<trkpt lat="37.831256" lon="-1.534991">
			<ele>1877.000000</ele>
		<time>2013-08-31T03:47:33Z</time>
		</trkpt>

		<trkpt lat="37.831191" lon="-1.534689">
			<ele>1880.000000</ele>
		<time>2013-08-31T03:47:36Z</time>
		</trkpt>

		<trkpt lat="37.831181" lon="-1.534444">
			<ele>1883.000000</ele>
		<time>2013-08-31T03:47:39Z</time>
		</trkpt>

		<trkpt lat="37.831255" lon="-1.534135">
			<ele>1883.000000</ele>
		<time>2013-08-31T03:47:42Z</time>
		</trkpt>

		<trkpt lat="37.831241" lon="-1.533814">
			<ele>1883.000000</ele>
		<time>2013-08-31T03:47:45Z</time>
		</trkpt>

		<trkpt lat="37.831219" lon="-1.533514">
			<ele>1885.000000</ele>
		<time>2013-08-31T03:47:48Z</time>
		</trkpt>

		<trkpt lat="37.831205" lon="-1.533234">
			<ele>1886.000000</ele>
		<time>2013-08-31T03:47:51Z</time>
		</trkpt>

		<trkpt lat="37.831210" lon="-1.532979">
			<ele>1888.000000</ele>
		<time>2013-08-31T03:47:54Z</time>
		</trkpt>

		<trkpt lat="37.831224" lon="-1.532697">
			<ele>1886.000000</ele>
		<time>2013-08-31T03:47:57Z</time>
		</trkpt>

		<trkpt lat="37.831251" lon="-1.532380">
			<ele>1883.000000</ele>
		<time>2013-08-31T03:48:00Z</time>
		</trkpt>

		<trkpt lat="37.831249" lon="-1.532111">
			<ele>1884.000000</ele>
		<time>2013-08-31T03:48:03Z</time>
		</trkpt>

		<trkpt lat="37.831104" lon="-1.531914">
			<ele>1885.000000</ele>
		<time>2013-08-31T03:48:06Z</time>
		</trkpt>

		<trkpt lat="37.830887" lon="-1.531741">
			<ele>1884.000000</ele>
		<time>2013-08-31T03:48:09Z</time>
		</trkpt>

		<trkpt lat="37.830621" lon="-1.531534">
			<ele>1882.000000</ele>
		<time>2013-08-31T03:48:12Z</time>
		</trkpt>

		<trkpt lat="37.830388" lon="-1.531332">
			<ele>1883.000000</ele>
		<time>2013-08-31T03:48:15Z</time>
		</trkpt>

		<trkpt lat="37.830175" lon="-1.531091">
			<ele>1881.000000</ele>
		<time>2013-08-31T03:48:18Z</time>
		</trkpt>

		<trkpt lat="37.829977" lon="-1.530807">
			<ele>1881.000000</ele>
		<time>2013-08-31T03:48:21Z</time>
		</trkpt>

		<trkpt lat="37.829823" lon="-1.530535">
			<ele>1881.000000</ele>
		<time>2013-08-31T03:48:24Z</time>
		</trkpt>

		<trkpt lat="37.829680" lon="-1.530227">
			<ele>1880.000000</ele>
		<time>2013-08-31T03:48:27Z</time>
		</trkpt>

		<trkpt lat="37.829527" lon="-1.529885">
			<ele>1881.000000</ele>
		<time>2013-08-31T03:48:30Z</time>
		</trkpt>

		<trkpt lat="37.829374" lon="-1.529577">
			<ele>1879.000000</ele>
		<time>2013-08-31T03:48:33Z</time>
		</trkpt>

		<trkpt lat="37.829232" lon="-1.529223">
			<ele>1873.000000</ele>
		<time>2013-08-31T03:48:36Z</time>
		</trkpt>

		<trkpt lat="37.829218" lon="-1.528879">
			<ele>1869.000000</ele>
		<time>2013-08-31T03:48:39Z</time>
		</trkpt>

		<trkpt lat="37.829196" lon="-1.528537">
			<ele>1859.000000</ele>
		<time>2013-08-31T03:48:42Z</time>
		</trkpt>

		<trkpt lat="37.829224" lon="-1.528188">
			<ele>1851.000000</ele>
		<time>2013-08-31T03:48:45Z</time>
		</trkpt>

		<trkpt lat="37.829240" lon="-1.527846">
			<ele>1845.000000</ele>
		<time>2013-08-31T03:48:48Z</time>
		</trkpt>

		<trkpt lat="37.829262" lon="-1.527524">
			<ele>1839.000000</ele>
		<time>2013-08-31T03:48:51Z</time>
		</trkpt>

		<trkpt lat="37.829307" lon="-1.527192">
			<ele>1830.000000</ele>
		<time>2013-08-31T03:48:54Z</time>
		</trkpt>

		<trkpt lat="37.829348" lon="-1.526902">
			<ele>1825.000000</ele>
		<time>2013-08-31T03:48:57Z</time>
		</trkpt>

		<trkpt lat="37.829380" lon="-1.526628">
			<ele>1822.000000</ele>
		<time>2013-08-31T03:49:00Z</time>
		</trkpt>

		<trkpt lat="37.829389" lon="-1.526296">
			<ele>1816.000000</ele>
		<time>2013-08-31T03:49:03Z</time>
		</trkpt>

		<trkpt lat="37.829454" lon="-1.525993">
			<ele>1812.000000</ele>
		<time>2013-08-31T03:49:06Z</time>
		</trkpt>

		<trkpt lat="37.829516" lon="-1.525680">
			<ele>1808.000000</ele>
		<time>2013-08-31T03:49:09Z</time>
		</trkpt>

		<trkpt lat="37.829573" lon="-1.525389">
			<ele>1806.000000</ele>
		<time>2013-08-31T03:49:12Z</time>
		</trkpt>

		<trkpt lat="37.829637" lon="-1.525144">
			<ele>1802.000000</ele>
		<time>2013-08-31T03:49:15Z</time>
		</trkpt>

		<trkpt lat="37.829736" lon="-1.524886">
			<ele>1796.000000</ele>
		<time>2013-08-31T03:49:18Z</time>
		</trkpt>

		<trkpt lat="37.829797" lon="-1.524615">
			<ele>1792.000000</ele>
		<time>2013-08-31T03:49:21Z</time>
		</trkpt>

		<trkpt lat="37.829852" lon="-1.524330">
			<ele>1787.000000</ele>
		<time>2013-08-31T03:49:24Z</time>
		</trkpt>

		<trkpt lat="37.829904" lon="-1.524042">
			<ele>1783.000000</ele>
		<time>2013-08-31T03:49:27Z</time>
		</trkpt>

		<trkpt lat="37.829938" lon="-1.523788">
			<ele>1779.000000</ele>
		<time>2013-08-31T03:49:30Z</time>
		</trkpt>

		<trkpt lat="37.829981" lon="-1.523537">
			<ele>1774.000000</ele>
		<time>2013-08-31T03:49:33Z</time>
		</trkpt>

		<trkpt lat="37.830032" lon="-1.523292">
			<ele>1769.000000</ele>
		<time>2013-08-31T03:49:36Z</time>
		</trkpt>

		<trkpt lat="37.830060" lon="-1.523083">
			<ele>1765.000000</ele>
		<time>2013-08-31T03:49:39Z</time>
		</trkpt>

		<trkpt lat="37.830082" lon="-1.522872">
			<ele>1761.000000</ele>
		<time>2013-08-31T03:49:42Z</time>
		</trkpt>

		<trkpt lat="37.830137" lon="-1.522609">
			<ele>1756.000000</ele>
		<time>2013-08-31T03:49:45Z</time>
		</trkpt>

		<trkpt lat="37.830185" lon="-1.522403">
			<ele>1751.000000</ele>
		<time>2013-08-31T03:49:48Z</time>
		</trkpt>

		<trkpt lat="37.830278" lon="-1.522175">
			<ele>1747.000000</ele>
		<time>2013-08-31T03:49:51Z</time>
		</trkpt>

		<trkpt lat="37.830376" lon="-1.521941">
			<ele>1743.000000</ele>
		<time>2013-08-31T03:49:54Z</time>
		</trkpt>

		<trkpt lat="37.830468" lon="-1.521726">
			<ele>1739.000000</ele>
		<time>2013-08-31T03:49:57Z</time>
		</trkpt>

		<trkpt lat="37.830581" lon="-1.521496">
			<ele>1734.000000</ele>
		<time>2013-08-31T03:50:00Z</time>
		</trkpt>

		<trkpt lat="37.830673" lon="-1.521261">
			<ele>1728.000000</ele>
		<time>2013-08-31T03:50:03Z</time>
		</trkpt>

		<trkpt lat="37.830754" lon="-1.520988">
			<ele>1720.000000</ele>
		<time>2013-08-31T03:50:06Z</time>
		</trkpt>

		<trkpt lat="37.830791" lon="-1.520713">
			<ele>1716.000000</ele>
		<time>2013-08-31T03:50:09Z</time>
		</trkpt>

		<trkpt lat="37.830802" lon="-1.520465">
			<ele>1710.000000</ele>
		<time>2013-08-31T03:50:12Z</time>
		</trkpt>

		<trkpt lat="37.830791" lon="-1.520154">
			<ele>1704.000000</ele>
		<time>2013-08-31T03:50:15Z</time>
		</trkpt>

		<trkpt lat="37.830771" lon="-1.519913">
			<ele>1701.000000</ele>
		<time>2013-08-31T03:50:18Z</time>
		</trkpt>

		<trkpt lat="37.830745" lon="-1.519650">
			<ele>1696.000000</ele>
		<time>2013-08-31T03:50:21Z</time>
		</trkpt>

		<trkpt lat="37.830733" lon="-1.519420">
			<ele>1692.000000</ele>
		<time>2013-08-31T03:50:24Z</time>
		</trkpt>

		<trkpt lat="37.830796" lon="-1.519199">
			<ele>1683.000000</ele>
		<time>2013-08-31T03:50:27Z</time>
		</trkpt>

		<trkpt lat="37.830875" lon="-1.518953">
			<ele>1676.000000</ele>
		<time>2013-08-31T03:50:30Z</time>
		</trkpt>

		<trkpt lat="37.830954" lon="-1.518712">
			<ele>1670.000000</ele>
		<time>2013-08-31T03:50:33Z</time>
		</trkpt>

		<trkpt lat="37.831036" lon="-1.518461">
			<ele>1666.000000</ele>
		<time>2013-08-31T03:50:36Z</time>
		</trkpt>

		<trkpt lat="37.831102" lon="-1.518250">
			<ele>1664.000000</ele>
		<time>2013-08-31T03:50:39Z</time>
		</trkpt>

		<trkpt lat="37.831191" lon="-1.518010">
			<ele>1661.000000</ele>
		<time>2013-08-31T03:50:42Z</time>
		</trkpt>

		<trkpt lat="37.831272" lon="-1.517773">
			<ele>1659.000000</ele>
		<time>2013-08-31T03:50:45Z</time>
		</trkpt>

		<trkpt lat="37.831317" lon="-1.517582">
			<ele>1658.000000</ele>
		<time>2013-08-31T03:50:48Z</time>
		</trkpt>

		<trkpt lat="37.831335" lon="-1.517360">
			<ele>1659.000000</ele>
		<time>2013-08-31T03:50:51Z</time>
		</trkpt>

		<trkpt lat="37.831330" lon="-1.517159">
			<ele>1662.000000</ele>
		<time>2013-08-31T03:50:54Z</time>
		</trkpt>

		<trkpt lat="37.831299" lon="-1.516932">
			<ele>1660.000000</ele>
		<time>2013-08-31T03:50:57Z</time>
		</trkpt>

		<trkpt lat="37.831276" lon="-1.516642">
			<ele>1659.000000</ele>
		<time>2013-08-31T03:51:00Z</time>
		</trkpt>

		<trkpt lat="37.831289" lon="-1.516401">
			<ele>1660.000000</ele>
		<time>2013-08-31T03:51:03Z</time>
		</trkpt>

		<trkpt lat="37.831337" lon="-1.516073">
			<ele>1660.000000</ele>
		<time>2013-08-31T03:51:06Z</time>
		</trkpt>

		<trkpt lat="37.831378" lon="-1.515754">
			<ele>1662.000000</ele>
		<time>2013-08-31T03:51:09Z</time>
		</trkpt>

		<trkpt lat="37.831427" lon="-1.515453">
			<ele>1664.000000</ele>
		<time>2013-08-31T03:51:12Z</time>
		</trkpt>

		<trkpt lat="37.831470" lon="-1.515096">
			<ele>1666.000000</ele>
		<time>2013-08-31T03:51:15Z</time>
		</trkpt>

		<trkpt lat="37.831486" lon="-1.514760">
			<ele>1670.000000</ele>
		<time>2013-08-31T03:51:18Z</time>
		</trkpt>

		<trkpt lat="37.831515" lon="-1.514580">
			<ele>1676.000000</ele>
		<time>2013-08-31T03:51:21Z</time>
		</trkpt>

		<trkpt lat="37.831598" lon="-1.514264">
			<ele>1678.000000</ele>
		<time>2013-08-31T03:51:24Z</time>
		</trkpt>

		<trkpt lat="37.831696" lon="-1.514050">
			<ele>1687.000000</ele>
		<time>2013-08-31T03:51:27Z</time>
		</trkpt>

		<trkpt lat="37.831845" lon="-1.513916">
			<ele>1694.000000</ele>
		<time>2013-08-31T03:51:30Z</time>
		</trkpt>

		<trkpt lat="37.832049" lon="-1.513768">
			<ele>1700.000000</ele>
		<time>2013-08-31T03:51:33Z</time>
		</trkpt>

		<trkpt lat="37.832202" lon="-1.513555">
			<ele>1706.000000</ele>
		<time>2013-08-31T03:51:36Z</time>
		</trkpt>

		<trkpt lat="37.832265" lon="-1.513230">
			<ele>1711.000000</ele>
		<time>2013-08-31T03:51:39Z</time>
		</trkpt>

		<trkpt lat="37.832324" lon="-1.512912">
			<ele>1714.000000</ele>
		<time>2013-08-31T03:51:42Z</time>
		</trkpt>

		<trkpt lat="37.832397" lon="-1.512584">
			<ele>1712.000000</ele>
		<time>2013-08-31T03:51:45Z</time>
		</trkpt>

		<trkpt lat="37.832520" lon="-1.512190">
			<ele>1710.000000</ele>
		<time>2013-08-31T03:51:48Z</time>
		</trkpt>

		<trkpt lat="37.832605" lon="-1.511893">
			<ele>1714.000000</ele>
		<time>2013-08-31T03:51:51Z</time>
		</trkpt>

		<trkpt lat="37.832694" lon="-1.511579">
			<ele>1713.000000</ele>
		<time>2013-08-31T03:51:54Z</time>
		</trkpt>

		<trkpt lat="37.832757" lon="-1.511205">
			<ele>1711.000000</ele>
		<time>2013-08-31T03:51:57Z</time>
		</trkpt>

		<trkpt lat="37.832820" lon="-1.510881">
			<ele>1715.000000</ele>
		<time>2013-08-31T03:52:00Z</time>
		</trkpt>

		<trkpt lat="37.832857" lon="-1.510585">
			<ele>1719.000000</ele>
		<time>2013-08-31T03:52:03Z</time>
		</trkpt>

		<trkpt lat="37.832908" lon="-1.510275">
			<ele>1722.000000</ele>
		<time>2013-08-31T03:52:06Z</time>
		</trkpt>

		<trkpt lat="37.833003" lon="-1.509948">
			<ele>1721.000000</ele>
		<time>2013-08-31T03:52:09Z</time>
		</trkpt>

		<trkpt lat="37.833163" lon="-1.509656">
			<ele>1721.000000</ele>
		<time>2013-08-31T03:52:12Z</time>
		</trkpt>

		<trkpt lat="37.833284" lon="-1.509362">
			<ele>1722.000000</ele>
		<time>2013-08-31T03:52:15Z</time>
		</trkpt>

		<trkpt lat="37.833427" lon="-1.509102">
			<ele>1725.000000</ele>
		<time>2013-08-31T03:52:18Z</time>
		</trkpt>

		<trkpt lat="37.833566" lon="-1.508820">
			<ele>1727.000000</ele>
		<time>2013-08-31T03:52:21Z</time>
		</trkpt>

		<trkpt lat="37.833682" lon="-1.508580">
			<ele>1728.000000</ele>
		<time>2013-08-31T03:52:24Z</time>
		</trkpt>

		<trkpt lat="37.833814" lon="-1.508270">
			<ele>1727.000000</ele>
		<time>2013-08-31T03:52:27Z</time>
		</trkpt>

		<trkpt lat="37.833939" lon="-1.507966">
			<ele>1727.000000</ele>
		<time>2013-08-31T03:52:30Z</time>
		</trkpt>

		<trkpt lat="37.834006" lon="-1.507732">
			<ele>1728.000000</ele>
		<time>2013-08-31T03:52:33Z</time>
		</trkpt>

		<trkpt lat="37.834051" lon="-1.507391">
			<ele>1724.000000</ele>
		<time>2013-08-31T03:52:36Z</time>
		</trkpt>

		<trkpt lat="37.834134" lon="-1.507090">
			<ele>1725.000000</ele>
		<time>2013-08-31T03:52:39Z</time>
		</trkpt>

		<trkpt lat="37.834226" lon="-1.506783">
			<ele>1723.000000</ele>
		<time>2013-08-31T03:52:42Z</time>
		</trkpt>

		<trkpt lat="37.834333" lon="-1.506480">
			<ele>1722.000000</ele>
		<time>2013-08-31T03:52:45Z</time>
		</trkpt>

		<trkpt lat="37.834444" lon="-1.506241">
			<ele>1722.000000</ele>
		<time>2013-08-31T03:52:48Z</time>
		</trkpt>

		<trkpt lat="37.834556" lon="-1.505968">
			<ele>1722.000000</ele>
		<time>2013-08-31T03:52:51Z</time>
		</trkpt>

		<trkpt lat="37.834603" lon="-1.505733">
			<ele>1726.000000</ele>
		<time>2013-08-31T03:52:54Z</time>
		</trkpt>

		<trkpt lat="37.834562" lon="-1.505524">
			<ele>1726.000000</ele>
		<time>2013-08-31T03:52:57Z</time>
		</trkpt>

		<trkpt lat="37.834475" lon="-1.505230">
			<ele>1725.000000</ele>
		<time>2013-08-31T03:53:00Z</time>
		</trkpt>

		<trkpt lat="37.834520" lon="-1.504942">
			<ele>1727.000000</ele>
		<time>2013-08-31T03:53:03Z</time>
		</trkpt>

		<trkpt lat="37.834614" lon="-1.504653">
			<ele>1728.000000</ele>
		<time>2013-08-31T03:53:06Z</time>
		</trkpt>

		<trkpt lat="37.834712" lon="-1.504346">
			<ele>1726.000000</ele>
		<time>2013-08-31T03:53:09Z</time>
		</trkpt>

		<trkpt lat="37.834798" lon="-1.504078">
			<ele>1725.000000</ele>
		<time>2013-08-31T03:53:12Z</time>
		</trkpt>

		<trkpt lat="37.834922" lon="-1.503804">
			<ele>1721.000000</ele>
		<time>2013-08-31T03:53:15Z</time>
		</trkpt>

		<trkpt lat="37.835080" lon="-1.503515">
			<ele>1717.000000</ele>
		<time>2013-08-31T03:53:18Z</time>
		</trkpt>

		<trkpt lat="37.835303" lon="-1.503209">
			<ele>1712.000000</ele>
		<time>2013-08-31T03:53:21Z</time>
		</trkpt>

		<trkpt lat="37.835459" lon="-1.502926">
			<ele>1709.000000</ele>
		<time>2013-08-31T03:53:24Z</time>
		</trkpt>

		<trkpt lat="37.835601" lon="-1.502681">
			<ele>1706.000000</ele>
		<time>2013-08-31T03:53:27Z</time>
		</trkpt>

		<trkpt lat="37.835762" lon="-1.502418">
			<ele>1704.000000</ele>
		<time>2013-08-31T03:53:30Z</time>
		</trkpt>

		<trkpt lat="37.835935" lon="-1.502250">
			<ele>1708.000000</ele>
		<time>2013-08-31T03:53:33Z</time>
		</trkpt>

		<trkpt lat="37.836143" lon="-1.502137">
			<ele>1714.000000</ele>
		<time>2013-08-31T03:53:36Z</time>
		</trkpt>

		<trkpt lat="37.836430" lon="-1.502106">
			<ele>1717.000000</ele>
		<time>2013-08-31T03:53:39Z</time>
		</trkpt>

		<trkpt lat="37.836750" lon="-1.502290">
			<ele>1718.000000</ele>
		<time>2013-08-31T03:53:42Z</time>
		</trkpt>

		<trkpt lat="37.836983" lon="-1.502629">
			<ele>1720.000000</ele>
		<time>2013-08-31T03:53:45Z</time>
		</trkpt>

		<trkpt lat="37.837135" lon="-1.502994">
			<ele>1725.000000</ele>
		<time>2013-08-31T03:53:48Z</time>
		</trkpt>

		<trkpt lat="37.837340" lon="-1.503328">
			<ele>1727.000000</ele>
		<time>2013-08-31T03:53:51Z</time>
		</trkpt>

		<trkpt lat="37.837652" lon="-1.503505">
			<ele>1728.000000</ele>
		<time>2013-08-31T03:53:54Z</time>
		</trkpt>

		<trkpt lat="37.837982" lon="-1.503525">
			<ele>1732.000000</ele>
		<time>2013-08-31T03:53:57Z</time>
		</trkpt>

		<trkpt lat="37.838234" lon="-1.503341">
			<ele>1734.000000</ele>
		<time>2013-08-31T03:54:00Z</time>
		</trkpt>

		<trkpt lat="37.838313" lon="-1.503032">
			<ele>1737.000000</ele>
		<time>2013-08-31T03:54:03Z</time>
		</trkpt>

		<trkpt lat="37.838244" lon="-1.502851">
			<ele>1738.000000</ele>
		<time>2013-08-31T03:54:06Z</time>
		</trkpt>

		<trkpt lat="37.838008" lon="-1.502851">
			<ele>1735.000000</ele>
		<time>2013-08-31T03:54:09Z</time>
		</trkpt>

		<trkpt lat="37.837796" lon="-1.503057">
			<ele>1734.000000</ele>
		<time>2013-08-31T03:54:12Z</time>
		</trkpt>

		<trkpt lat="37.837642" lon="-1.503396">
			<ele>1736.000000</ele>
		<time>2013-08-31T03:54:15Z</time>
		</trkpt>

		<trkpt lat="37.837545" lon="-1.503733">
			<ele>1742.000000</ele>
		<time>2013-08-31T03:54:18Z</time>
		</trkpt>

		<trkpt lat="37.837395" lon="-1.504065">
			<ele>1746.000000</ele>
		<time>2013-08-31T03:54:21Z</time>
		</trkpt>

		<trkpt lat="37.837150" lon="-1.504262">
			<ele>1750.000000</ele>
		<time>2013-08-31T03:54:24Z</time>
		</trkpt>

		<trkpt lat="37.836935" lon="-1.504139">
			<ele>1755.000000</ele>
		<time>2013-08-31T03:54:27Z</time>
		</trkpt>

		<trkpt lat="37.836827" lon="-1.503855">
			<ele>1758.000000</ele>
		<time>2013-08-31T03:54:30Z</time>
		</trkpt>

		<trkpt lat="37.836987" lon="-1.503558">
			<ele>1761.000000</ele>
		<time>2013-08-31T03:54:33Z</time>
		</trkpt>

		<trkpt lat="37.837273" lon="-1.503438">
			<ele>1765.000000</ele>
		<time>2013-08-31T03:54:36Z</time>
		</trkpt>

		<trkpt lat="37.837601" lon="-1.503534">
			<ele>1768.000000</ele>
		<time>2013-08-31T03:54:39Z</time>
		</trkpt>

		<trkpt lat="37.837915" lon="-1.503760">
			<ele>1771.000000</ele>
		<time>2013-08-31T03:54:42Z</time>
		</trkpt>

		<trkpt lat="37.838165" lon="-1.504013">
			<ele>1774.000000</ele>
		<time>2013-08-31T03:54:45Z</time>
		</trkpt>

		<trkpt lat="37.838347" lon="-1.504421">
			<ele>1776.000000</ele>
		<time>2013-08-31T03:54:48Z</time>
		</trkpt>

		<trkpt lat="37.838314" lon="-1.504880">
			<ele>1779.000000</ele>
		<time>2013-08-31T03:54:51Z</time>
		</trkpt>

		<trkpt lat="37.838118" lon="-1.505234">
			<ele>1782.000000</ele>
		<time>2013-08-31T03:54:54Z</time>
		</trkpt>

		<trkpt lat="37.837851" lon="-1.505405">
			<ele>1787.000000</ele>
		<time>2013-08-31T03:54:57Z</time>
		</trkpt>

		<trkpt lat="37.837608" lon="-1.505236">
			<ele>1791.000000</ele>
		<time>2013-08-31T03:55:00Z</time>
		</trkpt>

		<trkpt lat="37.837506" lon="-1.504972">
			<ele>1796.000000</ele>
		<time>2013-08-31T03:55:03Z</time>
		</trkpt>

		<trkpt lat="37.837455" lon="-1.504715">
			<ele>1800.000000</ele>
		<time>2013-08-31T03:55:06Z</time>
		</trkpt>

		<trkpt lat="37.837534" lon="-1.504419">
			<ele>1802.000000</ele>
		<time>2013-08-31T03:55:09Z</time>
		</trkpt>

		<trkpt lat="37.837754" lon="-1.504176">
			<ele>1805.000000</ele>
		<time>2013-08-31T03:55:12Z</time>
		</trkpt>

		<trkpt lat="37.837978" lon="-1.503993">
			<ele>1807.000000</ele>
		<time>2013-08-31T03:55:15Z</time>
		</trkpt>

		<trkpt lat="37.838241" lon="-1.503840">
			<ele>1809.000000</ele>
		<time>2013-08-31T03:55:18Z</time>
		</trkpt>

		<trkpt lat="37.838480" lon="-1.503651">
			<ele>1809.000000</ele>
		<time>2013-08-31T03:55:21Z</time>
		</trkpt>

		<trkpt lat="37.838725" lon="-1.503378">
			<ele>1802.000000</ele>
		<time>2013-08-31T03:55:24Z</time>
		</trkpt>

		<trkpt lat="37.838959" lon="-1.503065">
			<ele>1796.000000</ele>
		<time>2013-08-31T03:55:27Z</time>
		</trkpt>

		<trkpt lat="37.839191" lon="-1.502784">
			<ele>1790.000000</ele>
		<time>2013-08-31T03:55:30Z</time>
		</trkpt>

		<trkpt lat="37.839404" lon="-1.502482">
			<ele>1784.000000</ele>
		<time>2013-08-31T03:55:33Z</time>
		</trkpt>

		<trkpt lat="37.839581" lon="-1.502211">
			<ele>1778.000000</ele>
		<time>2013-08-31T03:55:36Z</time>
		</trkpt>

		<trkpt lat="37.839799" lon="-1.501922">
			<ele>1772.000000</ele>
		<time>2013-08-31T03:55:39Z</time>
		</trkpt>

		<trkpt lat="37.839998" lon="-1.501647">
			<ele>1766.000000</ele>
		<time>2013-08-31T03:55:42Z</time>
		</trkpt>

		<trkpt lat="37.840213" lon="-1.501340">
			<ele>1757.000000</ele>
		<time>2013-08-31T03:55:45Z</time>
		</trkpt>

		<trkpt lat="37.840421" lon="-1.501038">
			<ele>1749.000000</ele>
		<time>2013-08-31T03:55:48Z</time>
		</trkpt>

		<trkpt lat="37.840589" lon="-1.500767">
			<ele>1743.000000</ele>
		<time>2013-08-31T03:55:51Z</time>
		</trkpt>

		<trkpt lat="37.840751" lon="-1.500521">
			<ele>1736.000000</ele>
		<time>2013-08-31T03:55:54Z</time>
		</trkpt>

		<trkpt lat="37.840897" lon="-1.500270">
			<ele>1728.000000</ele>
		<time>2013-08-31T03:55:57Z</time>
		</trkpt>

		<trkpt lat="37.841047" lon="-1.500007">
			<ele>1719.000000</ele>
		<time>2013-08-31T03:56:00Z</time>
		</trkpt>

		<trkpt lat="37.841171" lon="-1.499751">
			<ele>1713.000000</ele>
		<time>2013-08-31T03:56:03Z</time>
		</trkpt>

		<trkpt lat="37.841236" lon="-1.499470">
			<ele>1705.000000</ele>
		<time>2013-08-31T03:56:06Z</time>
		</trkpt>

		<trkpt lat="37.841359" lon="-1.499207">
			<ele>1696.000000</ele>
		<time>2013-08-31T03:56:09Z</time>
		</trkpt>

		<trkpt lat="37.841461" lon="-1.499007">
			<ele>1691.000000</ele>
		<time>2013-08-31T03:56:12Z</time>
		</trkpt>

		<trkpt lat="37.841592" lon="-1.498803">
			<ele>1682.000000</ele>
		<time>2013-08-31T03:56:15Z</time>
		</trkpt>

		<trkpt lat="37.841720" lon="-1.498590">
			<ele>1677.000000</ele>
		<time>2013-08-31T03:56:18Z</time>
		</trkpt>

		<trkpt lat="37.841842" lon="-1.498383">
			<ele>1670.000000</ele>
		<time>2013-08-31T03:56:21Z</time>
		</trkpt>

		<trkpt lat="37.841978" lon="-1.498155">
			<ele>1662.000000</ele>
		<time>2013-08-31T03:56:24Z</time>
		</trkpt>

		<trkpt lat="37.842106" lon="-1.497909">
			<ele>1654.000000</ele>
		<time>2013-08-31T03:56:27Z</time>
		</trkpt>

		<trkpt lat="37.842223" lon="-1.497657">
			<ele>1646.000000</ele>
		<time>2013-08-31T03:56:30Z</time>
		</trkpt>

		<trkpt lat="37.842344" lon="-1.497394">
			<ele>1639.000000</ele>
		<time>2013-08-31T03:56:33Z</time>
		</trkpt>

		<trkpt lat="37.842483" lon="-1.497142">
			<ele>1630.000000</ele>
		<time>2013-08-31T03:56:36Z</time>
		</trkpt>

		<trkpt lat="37.842617" lon="-1.496875">
			<ele>1620.000000</ele>
		<time>2013-08-31T03:56:39Z</time>
		</trkpt>

		<trkpt lat="37.842752" lon="-1.496597">
			<ele>1610.000000</ele>
		<time>2013-08-31T03:56:42Z</time>
		</trkpt>

		<trkpt lat="37.842896" lon="-1.496283">
			<ele>1600.000000</ele>
		<time>2013-08-31T03:56:45Z</time>
		</trkpt>

		<trkpt lat="37.843047" lon="-1.495975">
			<ele>1591.000000</ele>
		<time>2013-08-31T03:56:48Z</time>
		</trkpt>

		<trkpt lat="37.843211" lon="-1.495670">
			<ele>1586.000000</ele>
		<time>2013-08-31T03:56:51Z</time>
		</trkpt>

		<trkpt lat="37.843348" lon="-1.495393">
			<ele>1583.000000</ele>
		<time>2013-08-31T03:56:54Z</time>
		</trkpt>

		<trkpt lat="37.843497" lon="-1.495069">
			<ele>1581.000000</ele>
		<time>2013-08-31T03:56:57Z</time>
		</trkpt>

		<trkpt lat="37.843596" lon="-1.494781">
			<ele>1580.000000</ele>
		<time>2013-08-31T03:57:00Z</time>
		</trkpt>

		<trkpt lat="37.843753" lon="-1.494460">
			<ele>1581.000000</ele>
		<time>2013-08-31T03:57:03Z</time>
		</trkpt>

		<trkpt lat="37.843895" lon="-1.494137">
			<ele>1581.000000</ele>
		<time>2013-08-31T03:57:06Z</time>
		</trkpt>

		<trkpt lat="37.844032" lon="-1.493807">
			<ele>1581.000000</ele>
		<time>2013-08-31T03:57:09Z</time>
		</trkpt>

		<trkpt lat="37.844170" lon="-1.493445">
			<ele>1581.000000</ele>
		<time>2013-08-31T03:57:12Z</time>
		</trkpt>

		<trkpt lat="37.844302" lon="-1.493083">
			<ele>1580.000000</ele>
		<time>2013-08-31T03:57:15Z</time>
		</trkpt>

		<trkpt lat="37.844445" lon="-1.492740">
			<ele>1580.000000</ele>
		<time>2013-08-31T03:57:18Z</time>
		</trkpt>

		<trkpt lat="37.844591" lon="-1.492432">
			<ele>1579.000000</ele>
		<time>2013-08-31T03:57:21Z</time>
		</trkpt>

		<trkpt lat="37.844753" lon="-1.492126">
			<ele>1577.000000</ele>
		<time>2013-08-31T03:57:24Z</time>
		</trkpt>

		<trkpt lat="37.844921" lon="-1.491850">
			<ele>1575.000000</ele>
		<time>2013-08-31T03:57:27Z</time>
		</trkpt>

		<trkpt lat="37.845074" lon="-1.491597">
			<ele>1572.000000</ele>
		<time>2013-08-31T03:57:30Z</time>
		</trkpt>

		<trkpt lat="37.845253" lon="-1.491291">
			<ele>1568.000000</ele>
		<time>2013-08-31T03:57:33Z</time>
		</trkpt>

		<trkpt lat="37.845435" lon="-1.491000">
			<ele>1565.000000</ele>
		<time>2013-08-31T03:57:36Z</time>
		</trkpt>

		<trkpt lat="37.845614" lon="-1.490682">
			<ele>1561.000000</ele>
		<time>2013-08-31T03:57:39Z</time>
		</trkpt>

		<trkpt lat="37.845769" lon="-1.490375">
			<ele>1558.000000</ele>
		<time>2013-08-31T03:57:42Z</time>
		</trkpt>

		<trkpt lat="37.845935" lon="-1.490038">
			<ele>1554.000000</ele>
		<time>2013-08-31T03:57:45Z</time>
		</trkpt>

		<trkpt lat="37.846097" lon="-1.489720">
			<ele>1551.000000</ele>
		<time>2013-08-31T03:57:48Z</time>
		</trkpt>

		<trkpt lat="37.846269" lon="-1.489424">
			<ele>1547.000000</ele>
		<time>2013-08-31T03:57:51Z</time>
		</trkpt>

		<trkpt lat="37.846481" lon="-1.489106">
			<ele>1542.000000</ele>
		<time>2013-08-31T03:57:54Z</time>
		</trkpt>

		<trkpt lat="37.846672" lon="-1.488803">
			<ele>1538.000000</ele>
		<time>2013-08-31T03:57:57Z</time>
		</trkpt>

		<trkpt lat="37.846879" lon="-1.488506">
			<ele>1533.000000</ele>
		<time>2013-08-31T03:58:00Z</time>
		</trkpt>

		<trkpt lat="37.847121" lon="-1.488218">
			<ele>1529.000000</ele>
		<time>2013-08-31T03:58:03Z</time>
		</trkpt>

		<trkpt lat="37.847370" lon="-1.487944">
			<ele>1524.000000</ele>
		<time>2013-08-31T03:58:06Z</time>
		</trkpt>

		<trkpt lat="37.847616" lon="-1.487680">
			<ele>1517.000000</ele>
		<time>2013-08-31T03:58:09Z</time>
		</trkpt>

		<trkpt lat="37.847837" lon="-1.487412">
			<ele>1512.000000</ele>
		<time>2013-08-31T03:58:12Z</time>
		</trkpt>

		<trkpt lat="37.848019" lon="-1.487164">
			<ele>1506.000000</ele>
		<time>2013-08-31T03:58:15Z</time>
		</trkpt>

		<trkpt lat="37.848177" lon="-1.486825">
			<ele>1498.000000</ele>
		<time>2013-08-31T03:58:18Z</time>
		</trkpt>

		<trkpt lat="37.848229" lon="-1.486539">
			<ele>1493.000000</ele>
		<time>2013-08-31T03:58:21Z</time>
		</trkpt>

		<trkpt lat="37.848309" lon="-1.486216">
			<ele>1488.000000</ele>
		<time>2013-08-31T03:58:24Z</time>
		</trkpt>

		<trkpt lat="37.848389" lon="-1.485891">
			<ele>1485.000000</ele>
		<time>2013-08-31T03:58:27Z</time>
		</trkpt>

		<trkpt lat="37.848462" lon="-1.485569">
			<ele>1481.000000</ele>
		<time>2013-08-31T03:58:30Z</time>
		</trkpt>

		<trkpt lat="37.848526" lon="-1.485281">
			<ele>1478.000000</ele>
		<time>2013-08-31T03:58:33Z</time>
		</trkpt>

		<trkpt lat="37.848616" lon="-1.485019">
			<ele>1474.000000</ele>
		<time>2013-08-31T03:58:36Z</time>
		</trkpt>

		<trkpt lat="37.848760" lon="-1.484698">
			<ele>1469.000000</ele>
		<time>2013-08-31T03:58:39Z</time>
		</trkpt>

		<trkpt lat="37.848909" lon="-1.484457">
			<ele>1466.000000</ele>
		<time>2013-08-31T03:58:42Z</time>
		</trkpt>

		<trkpt lat="37.849080" lon="-1.484149">
			<ele>1458.000000</ele>
		<time>2013-08-31T03:58:45Z</time>
		</trkpt>

		<trkpt lat="37.849234" lon="-1.483828">
			<ele>1454.000000</ele>
		<time>2013-08-31T03:58:48Z</time>
		</trkpt>

		<trkpt lat="37.849384" lon="-1.483494">
			<ele>1450.000000</ele>
		<time>2013-08-31T03:58:51Z</time>
		</trkpt>

		<trkpt lat="37.849476" lon="-1.483144">
			<ele>1444.000000</ele>
		<time>2013-08-31T03:58:54Z</time>
		</trkpt>

		<trkpt lat="37.849502" lon="-1.482790">
			<ele>1439.000000</ele>
		<time>2013-08-31T03:58:57Z</time>
		</trkpt>

		<trkpt lat="37.849550" lon="-1.482424">
			<ele>1435.000000</ele>
		<time>2013-08-31T03:59:00Z</time>
		</trkpt>

		<trkpt lat="37.849603" lon="-1.482050">
			<ele>1433.000000</ele>
		<time>2013-08-31T03:59:03Z</time>
		</trkpt>

		<trkpt lat="37.849665" lon="-1.481692">
			<ele>1432.000000</ele>
		<time>2013-08-31T03:59:06Z</time>
		</trkpt>

		<trkpt lat="37.849722" lon="-1.481349">
			<ele>1430.000000</ele>
		<time>2013-08-31T03:59:09Z</time>
		</trkpt>

		<trkpt lat="37.849775" lon="-1.481012">
			<ele>1427.000000</ele>
		<time>2013-08-31T03:59:12Z</time>
		</trkpt>

		<trkpt lat="37.849834" lon="-1.480634">
			<ele>1424.000000</ele>
		<time>2013-08-31T03:59:15Z</time>
		</trkpt>

		<trkpt lat="37.849880" lon="-1.480301">
			<ele>1423.000000</ele>
		<time>2013-08-31T03:59:18Z</time>
		</trkpt>

		<trkpt lat="37.849969" lon="-1.479926">
			<ele>1419.000000</ele>
		<time>2013-08-31T03:59:21Z</time>
		</trkpt>

		<trkpt lat="37.850068" lon="-1.479591">
			<ele>1418.000000</ele>
		<time>2013-08-31T03:59:24Z</time>
		</trkpt>

		<trkpt lat="37.850198" lon="-1.479273">
			<ele>1416.000000</ele>
		<time>2013-08-31T03:59:27Z</time>
		</trkpt>

		<trkpt lat="37.850358" lon="-1.478909">
			<ele>1415.000000</ele>
		<time>2013-08-31T03:59:30Z</time>
		</trkpt>

		<trkpt lat="37.850487" lon="-1.478576">
			<ele>1414.000000</ele>
		<time>2013-08-31T03:59:33Z</time>
		</trkpt>

		<trkpt lat="37.850602" lon="-1.478237">
			<ele>1412.000000</ele>
		<time>2013-08-31T03:59:36Z</time>
		</trkpt>

		<trkpt lat="37.850716" lon="-1.477918">
			<ele>1409.000000</ele>
		<time>2013-08-31T03:59:39Z</time>
		</trkpt>

		<trkpt lat="37.850850" lon="-1.477589">
			<ele>1404.000000</ele>
		<time>2013-08-31T03:59:42Z</time>
		</trkpt>

		<trkpt lat="37.850985" lon="-1.477267">
			<ele>1400.000000</ele>
		<time>2013-08-31T03:59:45Z</time>
		</trkpt>

		<trkpt lat="37.851109" lon="-1.476956">
			<ele>1397.000000</ele>
		<time>2013-08-31T03:59:48Z</time>
		</trkpt>

		<trkpt lat="37.851236" lon="-1.476645">
			<ele>1394.000000</ele>
		<time>2013-08-31T03:59:51Z</time>
		</trkpt>

		<trkpt lat="37.851332" lon="-1.476353">
			<ele>1390.000000</ele>
		<time>2013-08-31T03:59:54Z</time>
		</trkpt>

		<trkpt lat="37.851435" lon="-1.476074">
			<ele>1387.000000</ele>
		<time>2013-08-31T03:59:57Z</time>
		</trkpt>

		<trkpt lat="37.851517" lon="-1.475813">
			<ele>1386.000000</ele>
		<time>2013-08-31T04:00:00Z</time>
		</trkpt>

		<trkpt lat="37.851602" lon="-1.475526">
			<ele>1385.000000</ele>
		<time>2013-08-31T04:00:03Z</time>
		</trkpt>

		<trkpt lat="37.851680" lon="-1.475210">
			<ele>1383.000000</ele>
		<time>2013-08-31T04:00:06Z</time>
		</trkpt>

		<trkpt lat="37.851731" lon="-1.474924">
			<ele>1381.000000</ele>
		<time>2013-08-31T04:00:09Z</time>
		</trkpt>

		<trkpt lat="37.851787" lon="-1.474634">
			<ele>1378.000000</ele>
		<time>2013-08-31T04:00:12Z</time>
		</trkpt>

		<trkpt lat="37.851858" lon="-1.474333">
			<ele>1376.000000</ele>
		<time>2013-08-31T04:00:15Z</time>
		</trkpt>

		<trkpt lat="37.851951" lon="-1.474027">
			<ele>1375.000000</ele>
		<time>2013-08-31T04:00:18Z</time>
		</trkpt>

		<trkpt lat="37.852052" lon="-1.473732">
			<ele>1373.000000</ele>
		<time>2013-08-31T04:00:21Z</time>
		</trkpt>

		<trkpt lat="37.852137" lon="-1.473466">
			<ele>1374.000000</ele>
		<time>2013-08-31T04:00:24Z</time>
		</trkpt>

		<trkpt lat="37.852216" lon="-1.473202">
			<ele>1373.000000</ele>
		<time>2013-08-31T04:00:27Z</time>
		</trkpt>

		<trkpt lat="37.852305" lon="-1.472926">
			<ele>1373.000000</ele>
		<time>2013-08-31T04:00:30Z</time>
		</trkpt>

		<trkpt lat="37.852412" lon="-1.472716">
			<ele>1373.000000</ele>
		<time>2013-08-31T04:00:33Z</time>
		</trkpt>

		<trkpt lat="37.852568" lon="-1.472495">
			<ele>1370.000000</ele>
		<time>2013-08-31T04:00:36Z</time>
		</trkpt>

		<trkpt lat="37.852739" lon="-1.472262">
			<ele>1367.000000</ele>
		<time>2013-08-31T04:00:39Z</time>
		</trkpt>

		<trkpt lat="37.852905" lon="-1.472029">
			<ele>1364.000000</ele>
		<time>2013-08-31T04:00:42Z</time>
		</trkpt>

		<trkpt lat="37.853066" lon="-1.471783">
			<ele>1360.000000</ele>
		<time>2013-08-31T04:00:45Z</time>
		</trkpt>

		<trkpt lat="37.853192" lon="-1.471552">
			<ele>1357.000000</ele>
		<time>2013-08-31T04:00:48Z</time>
		</trkpt>

		<trkpt lat="37.853314" lon="-1.471304">
			<ele>1354.000000</ele>
		<time>2013-08-31T04:00:51Z</time>
		</trkpt>

		<trkpt lat="37.853414" lon="-1.471034">
			<ele>1351.000000</ele>
		<time>2013-08-31T04:00:54Z</time>
		</trkpt>

		<trkpt lat="37.853446" lon="-1.470719">
			<ele>1347.000000</ele>
		<time>2013-08-31T04:00:57Z</time>
		</trkpt>

		<trkpt lat="37.853439" lon="-1.470430">
			<ele>1344.000000</ele>
		<time>2013-08-31T04:01:00Z</time>
		</trkpt>

		<trkpt lat="37.853471" lon="-1.470116">
			<ele>1338.000000</ele>
		<time>2013-08-31T04:01:03Z</time>
		</trkpt>

		<trkpt lat="37.853525" lon="-1.469823">
			<ele>1332.000000</ele>
		<time>2013-08-31T04:01:06Z</time>
		</trkpt>

		<trkpt lat="37.853520" lon="-1.469582">
			<ele>1327.000000</ele>
		<time>2013-08-31T04:01:09Z</time>
		</trkpt>

		<trkpt lat="37.853512" lon="-1.469298">
			<ele>1321.000000</ele>
		<time>2013-08-31T04:01:12Z</time>
		</trkpt>

		<trkpt lat="37.853555" lon="-1.469063">
			<ele>1316.000000</ele>
		<time>2013-08-31T04:01:15Z</time>
		</trkpt>

		<trkpt lat="37.853664" lon="-1.468815">
			<ele>1310.000000</ele>
		<time>2013-08-31T04:01:18Z</time>
		</trkpt>

		<trkpt lat="37.853787" lon="-1.468562">
			<ele>1307.000000</ele>
		<time>2013-08-31T04:01:21Z</time>
		</trkpt>

		<trkpt lat="37.853926" lon="-1.468295">
			<ele>1304.000000</ele>
		<time>2013-08-31T04:01:24Z</time>
		</trkpt>

		<trkpt lat="37.854068" lon="-1.468077">
			<ele>1299.000000</ele>
		<time>2013-08-31T04:01:27Z</time>
		</trkpt>

		<trkpt lat="37.854221" lon="-1.467864">
			<ele>1296.000000</ele>
		<time>2013-08-31T04:01:30Z</time>
		</trkpt>

		<trkpt lat="37.854371" lon="-1.467608">
			<ele>1291.000000</ele>
		<time>2013-08-31T04:01:33Z</time>
		</trkpt>

		<trkpt lat="37.854496" lon="-1.467351">
			<ele>1288.000000</ele>
		<time>2013-08-31T04:01:36Z</time>
		</trkpt>

		<trkpt lat="37.854584" lon="-1.467129">
			<ele>1285.000000</ele>
		<time>2013-08-31T04:01:39Z</time>
		</trkpt>

		<trkpt lat="37.854679" lon="-1.466897">
			<ele>1282.000000</ele>
		<time>2013-08-31T04:01:42Z</time>
		</trkpt>

		<trkpt lat="37.854756" lon="-1.466693">
			<ele>1281.000000</ele>
		<time>2013-08-31T04:01:45Z</time>
		</trkpt>

		<trkpt lat="37.854874" lon="-1.466433">
			<ele>1281.000000</ele>
		<time>2013-08-31T04:01:48Z</time>
		</trkpt>

		<trkpt lat="37.854981" lon="-1.466204">
			<ele>1281.000000</ele>
		<time>2013-08-31T04:01:51Z</time>
		</trkpt>

		<trkpt lat="37.855102" lon="-1.466006">
			<ele>1280.000000</ele>
		<time>2013-08-31T04:01:54Z</time>
		</trkpt>

		<trkpt lat="37.855257" lon="-1.465768">
			<ele>1279.000000</ele>
		<time>2013-08-31T04:01:57Z</time>
		</trkpt>

		<trkpt lat="37.855427" lon="-1.465529">
			<ele>1277.000000</ele>
		<time>2013-08-31T04:02:00Z</time>
		</trkpt>

		<trkpt lat="37.855612" lon="-1.465296">
			<ele>1274.000000</ele>
		<time>2013-08-31T04:02:03Z</time>
		</trkpt>

		<trkpt lat="37.855800" lon="-1.465059">
			<ele>1271.000000</ele>
		<time>2013-08-31T04:02:06Z</time>
		</trkpt>

		<trkpt lat="37.855991" lon="-1.464811">
			<ele>1268.000000</ele>
		<time>2013-08-31T04:02:09Z</time>
		</trkpt>

		<trkpt lat="37.856174" lon="-1.464525">
			<ele>1266.000000</ele>
		<time>2013-08-31T04:02:12Z</time>
		</trkpt>

		<trkpt lat="37.856318" lon="-1.464264">
			<ele>1265.000000</ele>
		<time>2013-08-31T04:02:15Z</time>
		</trkpt>

		<trkpt lat="37.856460" lon="-1.463969">
			<ele>1262.000000</ele>
		<time>2013-08-31T04:02:18Z</time>
		</trkpt>

		<trkpt lat="37.856594" lon="-1.463680">
			<ele>1259.000000</ele>
		<time>2013-08-31T04:02:21Z</time>
		</trkpt>

		<trkpt lat="37.856744" lon="-1.463400">
			<ele>1257.000000</ele>
		<time>2013-08-31T04:02:24Z</time>
		</trkpt>

		<trkpt lat="37.856895" lon="-1.463152">
			<ele>1254.000000</ele>
		<time>2013-08-31T04:02:27Z</time>
		</trkpt>

		<trkpt lat="37.857072" lon="-1.462890">
			<ele>1249.000000</ele>
		<time>2013-08-31T04:02:30Z</time>
		</trkpt>

		<trkpt lat="37.857229" lon="-1.462626">
			<ele>1245.000000</ele>
		<time>2013-08-31T04:02:33Z</time>
		</trkpt>

		<trkpt lat="37.857363" lon="-1.462340">
			<ele>1241.000000</ele>
		<time>2013-08-31T04:02:36Z</time>
		</trkpt>

		<trkpt lat="37.857512" lon="-1.462070">
			<ele>1236.000000</ele>
		<time>2013-08-31T04:02:39Z</time>
		</trkpt>

		<trkpt lat="37.857642" lon="-1.461833">
			<ele>1231.000000</ele>
		<time>2013-08-31T04:02:42Z</time>
		</trkpt>

		<trkpt lat="37.857759" lon="-1.461582">
			<ele>1226.000000</ele>
		<time>2013-08-31T04:02:45Z</time>
		</trkpt>

		<trkpt lat="37.857834" lon="-1.461312">
			<ele>1222.000000</ele>
		<time>2013-08-31T04:02:48Z</time>
		</trkpt>

		<trkpt lat="37.857892" lon="-1.461031">
			<ele>1217.000000</ele>
		<time>2013-08-31T04:02:51Z</time>
		</trkpt>

		<trkpt lat="37.858004" lon="-1.460736">
			<ele>1213.000000</ele>
		<time>2013-08-31T04:02:54Z</time>
		</trkpt>

		<trkpt lat="37.858104" lon="-1.460450">
			<ele>1210.000000</ele>
		<time>2013-08-31T04:02:57Z</time>
		</trkpt>

		<trkpt lat="37.858207" lon="-1.460150">
			<ele>1206.000000</ele>
		<time>2013-08-31T04:03:00Z</time>
		</trkpt>

		<trkpt lat="37.858299" lon="-1.459891">
			<ele>1201.000000</ele>
		<time>2013-08-31T04:03:03Z</time>
		</trkpt>

		<trkpt lat="37.858453" lon="-1.459593">
			<ele>1196.000000</ele>
		<time>2013-08-31T04:03:06Z</time>
		</trkpt>

		<trkpt lat="37.858557" lon="-1.459324">
			<ele>1192.000000</ele>
		<time>2013-08-31T04:03:09Z</time>
		</trkpt>

		<trkpt lat="37.858664" lon="-1.459027">
			<ele>1189.000000</ele>
		<time>2013-08-31T04:03:12Z</time>
		</trkpt>

		<trkpt lat="37.858736" lon="-1.458769">
			<ele>1185.000000</ele>
		<time>2013-08-31T04:03:15Z</time>
		</trkpt>

		<trkpt lat="37.858833" lon="-1.458457">
			<ele>1181.000000</ele>
		<time>2013-08-31T04:03:18Z</time>
		</trkpt>

		<trkpt lat="37.858914" lon="-1.458170">
			<ele>1177.000000</ele>
		<time>2013-08-31T04:03:21Z</time>
		</trkpt>

		<trkpt lat="37.858969" lon="-1.457900">
			<ele>1173.000000</ele>
		<time>2013-08-31T04:03:24Z</time>
		</trkpt>

		<trkpt lat="37.859021" lon="-1.457668">
			<ele>1170.000000</ele>
		<time>2013-08-31T04:03:27Z</time>
		</trkpt>

		<trkpt lat="37.859147" lon="-1.457345">
			<ele>1165.000000</ele>
		<time>2013-08-31T04:03:30Z</time>
		</trkpt>

		<trkpt lat="37.859226" lon="-1.457117">
			<ele>1161.000000</ele>
		<time>2013-08-31T04:03:33Z</time>
		</trkpt>

		<trkpt lat="37.859327" lon="-1.456856">
			<ele>1158.000000</ele>
		<time>2013-08-31T04:03:36Z</time>
		</trkpt>

		<trkpt lat="37.859440" lon="-1.456577">
			<ele>1154.000000</ele>
		<time>2013-08-31T04:03:39Z</time>
		</trkpt>

		<trkpt lat="37.859514" lon="-1.456318">
			<ele>1150.000000</ele>
		<time>2013-08-31T04:03:42Z</time>
		</trkpt>

		<trkpt lat="37.859589" lon="-1.456009">
			<ele>1148.000000</ele>
		<time>2013-08-31T04:03:45Z</time>
		</trkpt>

		<trkpt lat="37.859636" lon="-1.455691">
			<ele>1145.000000</ele>
		<time>2013-08-31T04:03:48Z</time>
		</trkpt>

		<trkpt lat="37.859671" lon="-1.455386">
			<ele>1141.000000</ele>
		<time>2013-08-31T04:03:51Z</time>
		</trkpt>

		<trkpt lat="37.859662" lon="-1.455109">
			<ele>1137.000000</ele>
		<time>2013-08-31T04:03:54Z</time>
		</trkpt>

		<trkpt lat="37.859678" lon="-1.454811">
			<ele>1132.000000</ele>
		<time>2013-08-31T04:03:57Z</time>
		</trkpt>

		<trkpt lat="37.859709" lon="-1.454555">
			<ele>1129.000000</ele>
		<time>2013-08-31T04:04:00Z</time>
		</trkpt>

		<trkpt lat="37.859774" lon="-1.454253">
			<ele>1125.000000</ele>
		<time>2013-08-31T04:04:03Z</time>
		</trkpt>

		<trkpt lat="37.859847" lon="-1.453923">
			<ele>1121.000000</ele>
		<time>2013-08-31T04:04:06Z</time>
		</trkpt>

		<trkpt lat="37.859924" lon="-1.453629">
			<ele>1118.000000</ele>
		<time>2013-08-31T04:04:09Z</time>
		</trkpt>

		<trkpt lat="37.859903" lon="-1.453370">
			<ele>1113.000000</ele>
		<time>2013-08-31T04:04:12Z</time>
		</trkpt>

		<trkpt lat="37.859924" lon="-1.453063">
			<ele>1109.000000</ele>
		<time>2013-08-31T04:04:15Z</time>
		</trkpt>

		<trkpt lat="37.859930" lon="-1.452778">
			<ele>1106.000000</ele>
		<time>2013-08-31T04:04:18Z</time>
		</trkpt>

		<trkpt lat="37.859960" lon="-1.452489">
			<ele>1102.000000</ele>
		<time>2013-08-31T04:04:21Z</time>
		</trkpt>

		<trkpt lat="37.860004" lon="-1.452222">
			<ele>1100.000000</ele>
		<time>2013-08-31T04:04:24Z</time>
		</trkpt>

		<trkpt lat="37.860066" lon="-1.451920">
			<ele>1096.000000</ele>
		<time>2013-08-31T04:04:27Z</time>
		</trkpt>

		<trkpt lat="37.860149" lon="-1.451610">
			<ele>1093.000000</ele>
		<time>2013-08-31T04:04:30Z</time>
		</trkpt>

		<trkpt lat="37.860284" lon="-1.451281">
			<ele>1090.000000</ele>
		<time>2013-08-31T04:04:33Z</time>
		</trkpt>

		<trkpt lat="37.860403" lon="-1.451026">
			<ele>1087.000000</ele>
		<time>2013-08-31T04:04:36Z</time>
		</trkpt>

		<trkpt lat="37.860417" lon="-1.450742">
			<ele>1082.000000</ele>
		<time>2013-08-31T04:04:39Z</time>
		</trkpt>

		<trkpt lat="37.860427" lon="-1.450414">
			<ele>1077.000000</ele>
		<time>2013-08-31T04:04:42Z</time>
		</trkpt>

		<trkpt lat="37.860447" lon="-1.450094">
			<ele>1073.000000</ele>
		<time>2013-08-31T04:04:45Z</time>
		</trkpt>

		<trkpt lat="37.860519" lon="-1.449752">
			<ele>1066.000000</ele>
		<time>2013-08-31T04:04:48Z</time>
		</trkpt>

		<trkpt lat="37.860629" lon="-1.449454">
			<ele>1062.000000</ele>
		<time>2013-08-31T04:04:51Z</time>
		</trkpt>

		<trkpt lat="37.860756" lon="-1.449187">
			<ele>1057.000000</ele>
		<time>2013-08-31T04:04:54Z</time>
		</trkpt>

		<trkpt lat="37.860848" lon="-1.448905">
			<ele>1054.000000</ele>
		<time>2013-08-31T04:04:57Z</time>
		</trkpt>

		<trkpt lat="37.860905" lon="-1.448660">
			<ele>1049.000000</ele>
		<time>2013-08-31T04:05:00Z</time>
		</trkpt>

		<trkpt lat="37.860949" lon="-1.448437">
			<ele>1047.000000</ele>
		<time>2013-08-31T04:05:03Z</time>
		</trkpt>

		<trkpt lat="37.860970" lon="-1.448200">
			<ele>1042.000000</ele>
		<time>2013-08-31T04:05:06Z</time>
		</trkpt>

		<trkpt lat="37.861003" lon="-1.447882">
			<ele>1037.000000</ele>
		<time>2013-08-31T04:05:09Z</time>
		</trkpt>

		<trkpt lat="37.861034" lon="-1.447569">
			<ele>1029.000000</ele>
		<time>2013-08-31T04:05:12Z</time>
		</trkpt>

		<trkpt lat="37.861128" lon="-1.447307">
			<ele>1025.000000</ele>
		<time>2013-08-31T04:05:15Z</time>
		</trkpt>

		<trkpt lat="37.861243" lon="-1.447080">
			<ele>1023.000000</ele>
		<time>2013-08-31T04:05:18Z</time>
		</trkpt>

		<trkpt lat="37.861358" lon="-1.446838">
			<ele>1021.000000</ele>
		<time>2013-08-31T04:05:21Z</time>
		</trkpt>

		<trkpt lat="37.861402" lon="-1.446616">
			<ele>1018.000000</ele>
		<time>2013-08-31T04:05:24Z</time>
		</trkpt>

		<trkpt lat="37.861453" lon="-1.446331">
			<ele>1013.000000</ele>
		<time>2013-08-31T04:05:27Z</time>
		</trkpt>

		<trkpt lat="37.861511" lon="-1.446126">
			<ele>1008.000000</ele>
		<time>2013-08-31T04:05:30Z</time>
		</trkpt>

		<trkpt lat="37.861580" lon="-1.445835">
			<ele>1001.000000</ele>
		<time>2013-08-31T04:05:33Z</time>
		</trkpt>

		<trkpt lat="37.861667" lon="-1.445574">
			<ele>996.000000</ele>
		<time>2013-08-31T04:05:36Z</time>
		</trkpt>

		<trkpt lat="37.861739" lon="-1.445349">
			<ele>991.000000</ele>
		<time>2013-08-31T04:05:39Z</time>
		</trkpt>

		<trkpt lat="37.861809" lon="-1.445070">
			<ele>984.000000</ele>
		<time>2013-08-31T04:05:42Z</time>
		</trkpt>

		<trkpt lat="37.861876" lon="-1.444868">
			<ele>981.000000</ele>
		<time>2013-08-31T04:05:45Z</time>
		</trkpt>

		<trkpt lat="37.861920" lon="-1.444646">
			<ele>978.000000</ele>
		<time>2013-08-31T04:05:48Z</time>
		</trkpt>

		<trkpt lat="37.861928" lon="-1.444421">
			<ele>976.000000</ele>
		<time>2013-08-31T04:05:51Z</time>
		</trkpt>

		<trkpt lat="37.861922" lon="-1.444182">
			<ele>974.000000</ele>
		<time>2013-08-31T04:05:54Z</time>
		</trkpt>

		<trkpt lat="37.861955" lon="-1.443903">
			<ele>970.000000</ele>
		<time>2013-08-31T04:05:57Z</time>
		</trkpt>

		<trkpt lat="37.861967" lon="-1.443622">
			<ele>967.000000</ele>
		<time>2013-08-31T04:06:00Z</time>
		</trkpt>

		<trkpt lat="37.861962" lon="-1.443324">
			<ele>962.000000</ele>
		<time>2013-08-31T04:06:03Z</time>
		</trkpt>

		<trkpt lat="37.861957" lon="-1.443027">
			<ele>959.000000</ele>
		<time>2013-08-31T04:06:06Z</time>
		</trkpt>

		<trkpt lat="37.861959" lon="-1.442744">
			<ele>958.000000</ele>
		<time>2013-08-31T04:06:09Z</time>
		</trkpt>

		<trkpt lat="37.861984" lon="-1.442490">
			<ele>960.000000</ele>
		<time>2013-08-31T04:06:12Z</time>
		</trkpt>

		<trkpt lat="37.862009" lon="-1.442224">
			<ele>963.000000</ele>
		<time>2013-08-31T04:06:15Z</time>
		</trkpt>

		<trkpt lat="37.862138" lon="-1.441956">
			<ele>966.000000</ele>
		<time>2013-08-31T04:06:18Z</time>
		</trkpt>

		<trkpt lat="37.862298" lon="-1.441702">
			<ele>967.000000</ele>
		<time>2013-08-31T04:06:21Z</time>
		</trkpt>

		<trkpt lat="37.862473" lon="-1.441455">
			<ele>967.000000</ele>
		<time>2013-08-31T04:06:24Z</time>
		</trkpt>

		<trkpt lat="37.862575" lon="-1.441159">
			<ele>965.000000</ele>
		<time>2013-08-31T04:06:27Z</time>
		</trkpt>

		<trkpt lat="37.862600" lon="-1.440865">
			<ele>965.000000</ele>
		<time>2013-08-31T04:06:30Z</time>
		</trkpt>

		<trkpt lat="37.862615" lon="-1.440548">
			<ele>963.000000</ele>
		<time>2013-08-31T04:06:33Z</time>
		</trkpt>

		<trkpt lat="37.862636" lon="-1.440225">
			<ele>961.000000</ele>
		<time>2013-08-31T04:06:36Z</time>
		</trkpt>

		<trkpt lat="37.862648" lon="-1.439874">
			<ele>960.000000</ele>
		<time>2013-08-31T04:06:39Z</time>
		</trkpt>

		<trkpt lat="37.862686" lon="-1.439540">
			<ele>961.000000</ele>
		<time>2013-08-31T04:06:42Z</time>
		</trkpt>

		<trkpt lat="37.862773" lon="-1.439263">
			<ele>963.000000</ele>
		<time>2013-08-31T04:06:45Z</time>
		</trkpt>

		<trkpt lat="37.862908" lon="-1.438946">
			<ele>962.000000</ele>
		<time>2013-08-31T04:06:48Z</time>
		</trkpt>

		<trkpt lat="37.862987" lon="-1.438603">
			<ele>963.000000</ele>
		<time>2013-08-31T04:06:51Z</time>
		</trkpt>

		<trkpt lat="37.863089" lon="-1.438290">
			<ele>965.000000</ele>
		<time>2013-08-31T04:06:54Z</time>
		</trkpt>

		<trkpt lat="37.863269" lon="-1.437997">
			<ele>965.000000</ele>
		<time>2013-08-31T04:06:57Z</time>
		</trkpt>

		<trkpt lat="37.863384" lon="-1.437685">
			<ele>962.000000</ele>
		<time>2013-08-31T04:07:00Z</time>
		</trkpt>

		<trkpt lat="37.863457" lon="-1.437419">
			<ele>962.000000</ele>
		<time>2013-08-31T04:07:03Z</time>
		</trkpt>

		<trkpt lat="37.863508" lon="-1.437143">
			<ele>961.000000</ele>
		<time>2013-08-31T04:07:06Z</time>
		</trkpt>

		<trkpt lat="37.863561" lon="-1.436836">
			<ele>959.000000</ele>
		<time>2013-08-31T04:07:09Z</time>
		</trkpt>

		<trkpt lat="37.863596" lon="-1.436535">
			<ele>958.000000</ele>
		<time>2013-08-31T04:07:12Z</time>
		</trkpt>

		<trkpt lat="37.863666" lon="-1.436213">
			<ele>956.000000</ele>
		<time>2013-08-31T04:07:15Z</time>
		</trkpt>

		<trkpt lat="37.863670" lon="-1.435898">
			<ele>950.000000</ele>
		<time>2013-08-31T04:07:18Z</time>
		</trkpt>

		<trkpt lat="37.863708" lon="-1.435595">
			<ele>947.000000</ele>
		<time>2013-08-31T04:07:21Z</time>
		</trkpt>

		<trkpt lat="37.863723" lon="-1.435246">
			<ele>943.000000</ele>
		<time>2013-08-31T04:07:24Z</time>
		</trkpt>

		<trkpt lat="37.863739" lon="-1.434890">
			<ele>939.000000</ele>
		<time>2013-08-31T04:07:27Z</time>
		</trkpt>

		<trkpt lat="37.863753" lon="-1.434575">
			<ele>936.000000</ele>
		<time>2013-08-31T04:07:30Z</time>
		</trkpt>

		<trkpt lat="37.863770" lon="-1.434249">
			<ele>932.000000</ele>
		<time>2013-08-31T04:07:33Z</time>
		</trkpt>

		<trkpt lat="37.863809" lon="-1.433996">
			<ele>930.000000</ele>
		<time>2013-08-31T04:07:36Z</time>
		</trkpt>

		<trkpt lat="37.863829" lon="-1.433713">
			<ele>927.000000</ele>
		<time>2013-08-31T04:07:39Z</time>
		</trkpt>

		<trkpt lat="37.863850" lon="-1.433355">
			<ele>924.000000</ele>
		<time>2013-08-31T04:07:42Z</time>
		</trkpt>

		<trkpt lat="37.863864" lon="-1.433013">
			<ele>923.000000</ele>
		<time>2013-08-31T04:07:45Z</time>
		</trkpt>

		<trkpt lat="37.863848" lon="-1.432687">
			<ele>923.000000</ele>
		<time>2013-08-31T04:07:48Z</time>
		</trkpt>

		<trkpt lat="37.863850" lon="-1.432378">
			<ele>928.000000</ele>
		<time>2013-08-31T04:07:51Z</time>
		</trkpt>

		<trkpt lat="37.863972" lon="-1.432040">
			<ele>932.000000</ele>
		<time>2013-08-31T04:07:54Z</time>
		</trkpt>

		<trkpt lat="37.864327" lon="-1.431850">
			<ele>934.000000</ele>
		<time>2013-08-31T04:07:57Z</time>
		</trkpt>

		<trkpt lat="37.864645" lon="-1.431975">
			<ele>937.000000</ele>
		<time>2013-08-31T04:08:00Z</time>
		</trkpt>

		<trkpt lat="37.864735" lon="-1.432238">
			<ele>941.000000</ele>
		<time>2013-08-31T04:08:03Z</time>
		</trkpt>

		<trkpt lat="37.864651" lon="-1.432469">
			<ele>941.000000</ele>
		<time>2013-08-31T04:08:06Z</time>
		</trkpt>

		<trkpt lat="37.864434" lon="-1.432593">
			<ele>942.000000</ele>
		<time>2013-08-31T04:08:09Z</time>
		</trkpt>

		<trkpt lat="37.864265" lon="-1.432541">
			<ele>946.000000</ele>
		<time>2013-08-31T04:08:12Z</time>
		</trkpt>

		<trkpt lat="37.864066" lon="-1.432422">
			<ele>948.000000</ele>
		<time>2013-08-31T04:08:15Z</time>
		</trkpt>

		<trkpt lat="37.863978" lon="-1.432065">
			<ele>945.000000</ele>
		<time>2013-08-31T04:08:18Z</time>
		</trkpt>

		<trkpt lat="37.864146" lon="-1.431693">
			<ele>942.000000</ele>
		<time>2013-08-31T04:08:21Z</time>
		</trkpt>

		<trkpt lat="37.864552" lon="-1.431492">
			<ele>941.000000</ele>
		<time>2013-08-31T04:08:24Z</time>
		</trkpt>

		<trkpt lat="37.864950" lon="-1.431673">
			<ele>940.000000</ele>
		<time>2013-08-31T04:08:27Z</time>
		</trkpt>

		<trkpt lat="37.865151" lon="-1.431983">
			<ele>942.000000</ele>
		<time>2013-08-31T04:08:30Z</time>
		</trkpt>

		<trkpt lat="37.865266" lon="-1.432334">
			<ele>944.000000</ele>
		<time>2013-08-31T04:08:33Z</time>
		</trkpt>

		<trkpt lat="37.865338" lon="-1.432647">
			<ele>947.000000</ele>
		<time>2013-08-31T04:08:36Z</time>
		</trkpt>

		<trkpt lat="37.865438" lon="-1.432985">
			<ele>949.000000</ele>
		<time>2013-08-31T04:08:39Z</time>
		</trkpt>

		<trkpt lat="37.865662" lon="-1.433265">
			<ele>951.000000</ele>
		<time>2013-08-31T04:08:42Z</time>
		</trkpt>

		<trkpt lat="37.866002" lon="-1.433343">
			<ele>951.000000</ele>
		<time>2013-08-31T04:08:45Z</time>
		</trkpt>

		<trkpt lat="37.866388" lon="-1.433114">
			<ele>951.000000</ele>
		<time>2013-08-31T04:08:48Z</time>
		</trkpt>

		<trkpt lat="37.866592" lon="-1.432731">
			<ele>952.000000</ele>
		<time>2013-08-31T04:08:51Z</time>
		</trkpt>

		<trkpt lat="37.866639" lon="-1.432367">
			<ele>953.000000</ele>
		<time>2013-08-31T04:08:54Z</time>
		</trkpt>

		<trkpt lat="37.866551" lon="-1.432171">
			<ele>956.000000</ele>
		<time>2013-08-31T04:08:57Z</time>
		</trkpt>

		<trkpt lat="37.866368" lon="-1.432084">
			<ele>958.000000</ele>
		<time>2013-08-31T04:09:00Z</time>
		</trkpt>

		<trkpt lat="37.866187" lon="-1.432150">
			<ele>959.000000</ele>
		<time>2013-08-31T04:09:03Z</time>
		</trkpt>

		<trkpt lat="37.866041" lon="-1.432223">
			<ele>960.000000</ele>
		<time>2013-08-31T04:09:06Z</time>
		</trkpt>

		<trkpt lat="37.865889" lon="-1.432367">
			<ele>958.000000</ele>
		<time>2013-08-31T04:09:09Z</time>
		</trkpt>

		<trkpt lat="37.865792" lon="-1.432618">
			<ele>956.000000</ele>
		<time>2013-08-31T04:09:12Z</time>
		</trkpt>

		<trkpt lat="37.865776" lon="-1.432949">
			<ele>953.000000</ele>
		<time>2013-08-31T04:09:15Z</time>
		</trkpt>

		<trkpt lat="37.865944" lon="-1.433275">
			<ele>951.000000</ele>
		<time>2013-08-31T04:09:18Z</time>
		</trkpt>

		<trkpt lat="37.866253" lon="-1.433488">
			<ele>950.000000</ele>
		<time>2013-08-31T04:09:21Z</time>
		</trkpt>

		<trkpt lat="37.866626" lon="-1.433632">
			<ele>950.000000</ele>
		<time>2013-08-31T04:09:24Z</time>
		</trkpt>

		<trkpt lat="37.867007" lon="-1.433622">
			<ele>950.000000</ele>
		<time>2013-08-31T04:09:27Z</time>
		</trkpt>

		<trkpt lat="37.867329" lon="-1.433570">
			<ele>951.000000</ele>
		<time>2013-08-31T04:09:30Z</time>
		</trkpt>

		<trkpt lat="37.867692" lon="-1.433642">
			<ele>951.000000</ele>
		<time>2013-08-31T04:09:33Z</time>
		</trkpt>

		<trkpt lat="37.867967" lon="-1.433858">
			<ele>952.000000</ele>
		<time>2013-08-31T04:09:36Z</time>
		</trkpt>

		<trkpt lat="37.868136" lon="-1.434168">
			<ele>953.000000</ele>
		<time>2013-08-31T04:09:39Z</time>
		</trkpt>

		<trkpt lat="37.868168" lon="-1.434484">
			<ele>954.000000</ele>
		<time>2013-08-31T04:09:42Z</time>
		</trkpt>

		<trkpt lat="37.868109" lon="-1.434692">
			<ele>958.000000</ele>
		<time>2013-08-31T04:09:45Z</time>
		</trkpt>

		<trkpt lat="37.867986" lon="-1.434883">
			<ele>959.000000</ele>
		<time>2013-08-31T04:09:48Z</time>
		</trkpt>

		<trkpt lat="37.867851" lon="-1.435003">
			<ele>960.000000</ele>
		<time>2013-08-31T04:09:51Z</time>
		</trkpt>

		<trkpt lat="37.867674" lon="-1.435033">
			<ele>961.000000</ele>
		<time>2013-08-31T04:09:54Z</time>
		</trkpt>

		<trkpt lat="37.867486" lon="-1.434893">
			<ele>960.000000</ele>
		<time>2013-08-31T04:09:57Z</time>
		</trkpt>

		<trkpt lat="37.867349" lon="-1.434732">
			<ele>959.000000</ele>
		<time>2013-08-31T04:10:00Z</time>
		</trkpt>

		<trkpt lat="37.867231" lon="-1.434632">
			<ele>959.000000</ele>
		<time>2013-08-31T04:10:03Z</time>
		</trkpt>

		<trkpt lat="37.867081" lon="-1.434526">
			<ele>957.000000</ele>
		<time>2013-08-31T04:10:06Z</time>
		</trkpt>

		<trkpt lat="37.866916" lon="-1.434399">
			<ele>955.000000</ele>
		<time>2013-08-31T04:10:09Z</time>
		</trkpt>

		<trkpt lat="37.866787" lon="-1.434250">
			<ele>954.000000</ele>
		<time>2013-08-31T04:10:12Z</time>
		</trkpt>

		<trkpt lat="37.866663" lon="-1.434122">
			<ele>952.000000</ele>
		<time>2013-08-31T04:10:15Z</time>
		</trkpt>

		<trkpt lat="37.866546" lon="-1.433974">
			<ele>949.000000</ele>
		<time>2013-08-31T04:10:18Z</time>
		</trkpt>

		<trkpt lat="37.866416" lon="-1.433832">
			<ele>945.000000</ele>
		<time>2013-08-31T04:10:21Z</time>
		</trkpt>

		<trkpt lat="37.866269" lon="-1.433693">
			<ele>940.000000</ele>
		<time>2013-08-31T04:10:24Z</time>
		</trkpt>

		<trkpt lat="37.866087" lon="-1.433554">
			<ele>935.000000</ele>
		<time>2013-08-31T04:10:27Z</time>
		</trkpt>

		<trkpt lat="37.865911" lon="-1.433391">
			<ele>929.000000</ele>
		<time>2013-08-31T04:10:30Z</time>
		</trkpt>

		<trkpt lat="37.865734" lon="-1.433261">
			<ele>923.000000</ele>
		<time>2013-08-31T04:10:33Z</time>
		</trkpt>

		<trkpt lat="37.865540" lon="-1.433093">
			<ele>919.000000</ele>
		<time>2013-08-31T04:10:36Z</time>
		</trkpt>

		<trkpt lat="37.865375" lon="-1.432980">
			<ele>916.000000</ele>
		<time>2013-08-31T04:10:39Z</time>
		</trkpt>

		<trkpt lat="37.865220" lon="-1.432896">
			<ele>913.000000</ele>
		<time>2013-08-31T04:10:42Z</time>
		</trkpt>

		<trkpt lat="37.865072" lon="-1.432846">
			<ele>911.000000</ele>
		<time>2013-08-31T04:10:45Z</time>
		</trkpt>

		<trkpt lat="37.864909" lon="-1.432765">
			<ele>908.000000</ele>
		<time>2013-08-31T04:10:48Z</time>
		</trkpt>

		<trkpt lat="37.864753" lon="-1.432615">
			<ele>904.000000</ele>
		<time>2013-08-31T04:10:51Z</time>
		</trkpt>

		<trkpt lat="37.864578" lon="-1.432442">
			<ele>900.000000</ele>
		<time>2013-08-31T04:10:54Z</time>
		</trkpt>

		<trkpt lat="37.864434" lon="-1.432311">
			<ele>897.000000</ele>
		<time>2013-08-31T04:10:57Z</time>
		</trkpt>

		<trkpt lat="37.864286" lon="-1.432135">
			<ele>891.000000</ele>
		<time>2013-08-31T04:11:00Z</time>
		</trkpt>

		<trkpt lat="37.864116" lon="-1.431955">
			<ele>887.000000</ele>
		<time>2013-08-31T04:11:03Z</time>
		</trkpt>

		<trkpt lat="37.863998" lon="-1.431810">
			<ele>885.000000</ele>
		<time>2013-08-31T04:11:06Z</time>
		</trkpt>

		<trkpt lat="37.863952" lon="-1.431751">
			<ele>885.000000</ele>
		<time>2013-08-31T04:11:09Z</time>
		</trkpt>

		<trkpt lat="37.863858" lon="-1.431723">
			<ele>882.000000</ele>
		<time>2013-08-31T04:11:12Z</time>
		</trkpt>

		<trkpt lat="37.863743" lon="-1.431653">
			<ele>880.000000</ele>
		<time>2013-08-31T04:11:15Z</time>
		</trkpt>

		<trkpt lat="37.863641" lon="-1.431522">
			<ele>877.000000</ele>
		<time>2013-08-31T04:11:18Z</time>
		</trkpt>

		<trkpt lat="37.863577" lon="-1.431294">
			<ele>875.000000</ele>
		<time>2013-08-31T04:11:21Z</time>
		</trkpt>

		<trkpt lat="37.863529" lon="-1.431050">
			<ele>873.000000</ele>
		<time>2013-08-31T04:11:24Z</time>
		</trkpt>

		<trkpt lat="37.863482" lon="-1.430721">
			<ele>870.000000</ele>
		<time>2013-08-31T04:11:27Z</time>
		</trkpt>

		<trkpt lat="37.863474" lon="-1.430452">
			<ele>873.000000</ele>
		<time>2013-08-31T04:11:30Z</time>
		</trkpt>

		<trkpt lat="37.863414" lon="-1.430318">
			<ele>877.000000</ele>
		<time>2013-08-31T04:11:33Z</time>
		</trkpt>

		<trkpt lat="37.863224" lon="-1.430321">
			<ele>878.000000</ele>
		<time>2013-08-31T04:11:36Z</time>
		</trkpt>

		<trkpt lat="37.863062" lon="-1.430447">
			<ele>885.000000</ele>
		<time>2013-08-31T04:11:39Z</time>
		</trkpt>

		<trkpt lat="37.862889" lon="-1.430524">
			<ele>890.000000</ele>
		<time>2013-08-31T04:11:42Z</time>
		</trkpt>

		<trkpt lat="37.862776" lon="-1.430441">
			<ele>893.000000</ele>
		<time>2013-08-31T04:11:45Z</time>
		</trkpt>

		<trkpt lat="37.862756" lon="-1.430194">
			<ele>895.000000</ele>
		<time>2013-08-31T04:11:48Z</time>
		</trkpt>

		<trkpt lat="37.862931" lon="-1.429936">
			<ele>899.000000</ele>
		<time>2013-08-31T04:11:51Z</time>
		</trkpt>

		<trkpt lat="37.863198" lon="-1.429817">
			<ele>905.000000</ele>
		<time>2013-08-31T04:11:54Z</time>
		</trkpt>

		<trkpt lat="37.863542" lon="-1.429930">
			<ele>911.000000</ele>
		<time>2013-08-31T04:11:57Z</time>
		</trkpt>

		<trkpt lat="37.863820" lon="-1.430259">
			<ele>917.000000</ele>
		<time>2013-08-31T04:12:00Z</time>
		</trkpt>

		<trkpt lat="37.863881" lon="-1.430709">
			<ele>922.000000</ele>
		<time>2013-08-31T04:12:03Z</time>
		</trkpt>

		<trkpt lat="37.863800" lon="-1.431002">
			<ele>926.000000</ele>
		<time>2013-08-31T04:12:06Z</time>
		</trkpt>

		<trkpt lat="37.863672" lon="-1.431042">
			<ele>928.000000</ele>
		<time>2013-08-31T04:12:09Z</time>
		</trkpt>

		<trkpt lat="37.863579" lon="-1.430994">
			<ele>930.000000</ele>
		<time>2013-08-31T04:12:12Z</time>
		</trkpt>

		<trkpt lat="37.863520" lon="-1.430765">
			<ele>930.000000</ele>
		<time>2013-08-31T04:12:15Z</time>
		</trkpt>

		<trkpt lat="37.863620" lon="-1.430541">
			<ele>935.000000</ele>
		<time>2013-08-31T04:12:18Z</time>
		</trkpt>

		<trkpt lat="37.863825" lon="-1.430355">
			<ele>940.000000</ele>
		<time>2013-08-31T04:12:21Z</time>
		</trkpt>

		<trkpt lat="37.864173" lon="-1.430317">
			<ele>945.000000</ele>
		<time>2013-08-31T04:12:24Z</time>
		</trkpt>

		<trkpt lat="37.864465" lon="-1.430660">
			<ele>951.000000</ele>
		<time>2013-08-31T04:12:27Z</time>
		</trkpt>

		<trkpt lat="37.864532" lon="-1.431052">
			<ele>957.000000</ele>
		<time>2013-08-31T04:12:30Z</time>
		</trkpt>

		<trkpt lat="37.864304" lon="-1.431272">
			<ele>960.000000</ele>
		<time>2013-08-31T04:12:33Z</time>
		</trkpt>

		<trkpt lat="37.864159" lon="-1.431180">
			<ele>964.000000</ele>
		<time>2013-08-31T04:12:36Z</time>
		</trkpt>

		<trkpt lat="37.864165" lon="-1.430957">
			<ele>968.000000</ele>
		<time>2013-08-31T04:12:39Z</time>
		</trkpt>

		<trkpt lat="37.864383" lon="-1.430716">
			<ele>972.000000</ele>
		<time>2013-08-31T04:12:42Z</time>
		</trkpt>

		<trkpt lat="37.864783" lon="-1.430752">
			<ele>975.000000</ele>
		<time>2013-08-31T04:12:45Z</time>
		</trkpt>

		<trkpt lat="37.865013" lon="-1.431136">
			<ele>979.000000</ele>
		<time>2013-08-31T04:12:48Z</time>
		</trkpt>

		<trkpt lat="37.864983" lon="-1.431527">
			<ele>983.000000</ele>
		<time>2013-08-31T04:12:51Z</time>
		</trkpt>

		<trkpt lat="37.864826" lon="-1.431754">
			<ele>987.000000</ele>
		<time>2013-08-31T04:12:54Z</time>
		</trkpt>

		<trkpt lat="37.864617" lon="-1.431884">
			<ele>990.000000</ele>
		<time>2013-08-31T04:12:57Z</time>
		</trkpt>

		<trkpt lat="37.864426" lon="-1.431868">
			<ele>992.000000</ele>
		<time>2013-08-31T04:13:00Z</time>
		</trkpt>

		<trkpt lat="37.864375" lon="-1.431692">
			<ele>995.000000</ele>
		<time>2013-08-31T04:13:03Z</time>
		</trkpt>

		<trkpt lat="37.864441" lon="-1.431447">
			<ele>997.000000</ele>
		<time>2013-08-31T04:13:06Z</time>
		</trkpt>

		<trkpt lat="37.864679" lon="-1.431202">
			<ele>1001.000000</ele>
		<time>2013-08-31T04:13:09Z</time>
		</trkpt>

		<trkpt lat="37.865016" lon="-1.431219">
			<ele>1005.000000</ele>
		<time>2013-08-31T04:13:12Z</time>
		</trkpt>

		<trkpt lat="37.865430" lon="-1.431455">
			<ele>1007.000000</ele>
		<time>2013-08-31T04:13:15Z</time>
		</trkpt>

		<trkpt lat="37.865624" lon="-1.431938">
			<ele>1010.000000</ele>
		<time>2013-08-31T04:13:18Z</time>
		</trkpt>

		<trkpt lat="37.865594" lon="-1.432303">
			<ele>1014.000000</ele>
		<time>2013-08-31T04:13:21Z</time>
		</trkpt>

		<trkpt lat="37.865454" lon="-1.432570">
			<ele>1015.000000</ele>
		<time>2013-08-31T04:13:24Z</time>
		</trkpt>

		<trkpt lat="37.865259" lon="-1.432659">
			<ele>1017.000000</ele>
		<time>2013-08-31T04:13:27Z</time>
		</trkpt>

		<trkpt lat="37.865059" lon="-1.432635">
			<ele>1019.000000</ele>
		<time>2013-08-31T04:13:30Z</time>
		</trkpt>

		<trkpt lat="37.864914" lon="-1.432519">
			<ele>1020.000000</ele>
		<time>2013-08-31T04:13:33Z</time>
		</trkpt>

		<trkpt lat="37.864864" lon="-1.432267">
			<ele>1022.000000</ele>
		<time>2013-08-31T04:13:36Z</time>
		</trkpt>

		<trkpt lat="37.864866" lon="-1.432070">
			<ele>1026.000000</ele>
		<time>2013-08-31T04:13:39Z</time>
		</trkpt>

		<trkpt lat="37.864771" lon="-1.431887">
			<ele>1028.000000</ele>
		<time>2013-08-31T04:13:42Z</time>
		</trkpt>

		<trkpt lat="37.864632" lon="-1.431758">
			<ele>1029.000000</ele>
		<time>2013-08-31T04:13:45Z</time>
		</trkpt>

		<trkpt lat="37.864382" lon="-1.431933">
			<ele>1029.000000</ele>
		<time>2013-08-31T04:13:48Z</time>
		</trkpt>

		<trkpt lat="37.864292" lon="-1.432334">
			<ele>1034.000000</ele>
		<time>2013-08-31T04:13:51Z</time>
		</trkpt>

		<trkpt lat="37.864368" lon="-1.432775">
			<ele>1037.000000</ele>
		<time>2013-08-31T04:13:54Z</time>
		</trkpt>

		<trkpt lat="37.864633" lon="-1.433096">
			<ele>1036.000000</ele>
		<time>2013-08-31T04:13:57Z</time>
		</trkpt>

		<trkpt lat="37.864960" lon="-1.433302">
			<ele>1037.000000</ele>
		<time>2013-08-31T04:14:00Z</time>
		</trkpt>

		<trkpt lat="37.865346" lon="-1.433333">
			<ele>1037.000000</ele>
		<time>2013-08-31T04:14:03Z</time>
		</trkpt>

		<trkpt lat="37.865591" lon="-1.433153">
			<ele>1039.000000</ele>
		<time>2013-08-31T04:14:06Z</time>
		</trkpt>

		<trkpt lat="37.865663" lon="-1.432971">
			<ele>1042.000000</ele>
		<time>2013-08-31T04:14:09Z</time>
		</trkpt>

		<trkpt lat="37.865718" lon="-1.432786">
			<ele>1047.000000</ele>
		<time>2013-08-31T04:14:12Z</time>
		</trkpt>

		<trkpt lat="37.865775" lon="-1.432578">
			<ele>1052.000000</ele>
		<time>2013-08-31T04:14:15Z</time>
		</trkpt>

		<trkpt lat="37.865802" lon="-1.432369">
			<ele>1055.000000</ele>
		<time>2013-08-31T04:14:18Z</time>
		</trkpt>

		<trkpt lat="37.865707" lon="-1.432163">
			<ele>1054.000000</ele>
		<time>2013-08-31T04:14:21Z</time>
		</trkpt>

		<trkpt lat="37.865513" lon="-1.431961">
			<ele>1053.000000</ele>
		<time>2013-08-31T04:14:24Z</time>
		</trkpt>

		<trkpt lat="37.865346" lon="-1.431759">
			<ele>1051.000000</ele>
		<time>2013-08-31T04:14:27Z</time>
		</trkpt>

		<trkpt lat="37.865242" lon="-1.431596">
			<ele>1049.000000</ele>
		<time>2013-08-31T04:14:30Z</time>
		</trkpt>

		<trkpt lat="37.865118" lon="-1.431452">
			<ele>1047.000000</ele>
		<time>2013-08-31T04:14:33Z</time>
		</trkpt>

		<trkpt lat="37.864994" lon="-1.431339">
			<ele>1046.000000</ele>
		<time>2013-08-31T04:14:36Z</time>
		</trkpt>

		<trkpt lat="37.864862" lon="-1.431183">
			<ele>1046.000000</ele>
		<time>2013-08-31T04:14:39Z</time>
		</trkpt>

		<trkpt lat="37.864734" lon="-1.431016">
			<ele>1046.000000</ele>
		<time>2013-08-31T04:14:42Z</time>
		</trkpt>

		<trkpt lat="37.864615" lon="-1.430857">
			<ele>1044.000000</ele>
		<time>2013-08-31T04:14:45Z</time>
		</trkpt>

		<trkpt lat="37.864486" lon="-1.430688">
			<ele>1042.000000</ele>
		<time>2013-08-31T04:14:48Z</time>
		</trkpt>

		<trkpt lat="37.864372" lon="-1.430555">
			<ele>1043.000000</ele>
		<time>2013-08-31T04:14:51Z</time>
		</trkpt>

		<trkpt lat="37.864239" lon="-1.430393">
			<ele>1041.000000</ele>
		<time>2013-08-31T04:14:54Z</time>
		</trkpt>

		<trkpt lat="37.864113" lon="-1.430234">
			<ele>1040.000000</ele>
		<time>2013-08-31T04:14:57Z</time>
		</trkpt>

		<trkpt lat="37.863971" lon="-1.430083">
			<ele>1038.000000</ele>
		<time>2013-08-31T04:15:00Z</time>
		</trkpt>

		<trkpt lat="37.863835" lon="-1.429921">
			<ele>1037.000000</ele>
		<time>2013-08-31T04:15:03Z</time>
		</trkpt>

		<trkpt lat="37.863694" lon="-1.429790">
			<ele>1036.000000</ele>
		<time>2013-08-31T04:15:06Z</time>
		</trkpt>

		<trkpt lat="37.863527" lon="-1.429636">
			<ele>1033.000000</ele>
		<time>2013-08-31T04:15:09Z</time>
		</trkpt>

		<trkpt lat="37.863360" lon="-1.429474">
			<ele>1029.000000</ele>
		<time>2013-08-31T04:15:12Z</time>
		</trkpt>

		<trkpt lat="37.863197" lon="-1.429297">
			<ele>1023.000000</ele>
		<time>2013-08-31T04:15:15Z</time>
		</trkpt>

		<trkpt lat="37.863032" lon="-1.429092">
			<ele>1018.000000</ele>
		<time>2013-08-31T04:15:18Z</time>
		</trkpt>

		<trkpt lat="37.862870" lon="-1.428832">
			<ele>1013.000000</ele>
		<time>2013-08-31T04:15:21Z</time>
		</trkpt>

		<trkpt lat="37.862704" lon="-1.428575">
			<ele>1009.000000</ele>
		<time>2013-08-31T04:15:24Z</time>
		</trkpt>

		<trkpt lat="37.862524" lon="-1.428316">
			<ele>1005.000000</ele>
		<time>2013-08-31T04:15:27Z</time>
		</trkpt>

		<trkpt lat="37.862371" lon="-1.428116">
			<ele>1001.000000</ele>
		<time>2013-08-31T04:15:30Z</time>
		</trkpt>

		<trkpt lat="37.862181" lon="-1.427888">
			<ele>996.000000</ele>
		<time>2013-08-31T04:15:33Z</time>
		</trkpt>

		<trkpt lat="37.862064" lon="-1.427735">
			<ele>994.000000</ele>
		<time>2013-08-31T04:15:36Z</time>
		</trkpt>

		<trkpt lat="37.861915" lon="-1.427570">
			<ele>990.000000</ele>
		<time>2013-08-31T04:15:39Z</time>
		</trkpt>

		<trkpt lat="37.861724" lon="-1.427378">
			<ele>984.000000</ele>
		<time>2013-08-31T04:15:42Z</time>
		</trkpt>

		<trkpt lat="37.861567" lon="-1.427170">
			<ele>980.000000</ele>
		<time>2013-08-31T04:15:45Z</time>
		</trkpt>

		<trkpt lat="37.861425" lon="-1.426953">
			<ele>978.000000</ele>
		<time>2013-08-31T04:15:48Z</time>
		</trkpt>

		<trkpt lat="37.861350" lon="-1.426801">
			<ele>981.000000</ele>
		<time>2013-08-31T04:15:51Z</time>
		</trkpt>

		<trkpt lat="37.861264" lon="-1.426644">
			<ele>981.000000</ele>
		<time>2013-08-31T04:15:54Z</time>
		</trkpt>

		<trkpt lat="37.861122" lon="-1.426470">
			<ele>979.000000</ele>
		<time>2013-08-31T04:15:57Z</time>
		</trkpt>

		<trkpt lat="37.860957" lon="-1.426370">
			<ele>980.000000</ele>
		<time>2013-08-31T04:16:00Z</time>
		</trkpt>

		<trkpt lat="37.860764" lon="-1.426313">
			<ele>980.000000</ele>
		<time>2013-08-31T04:16:03Z</time>
		</trkpt>

		<trkpt lat="37.860564" lon="-1.426270">
			<ele>979.000000</ele>
		<time>2013-08-31T04:16:06Z</time>
		</trkpt>

		<trkpt lat="37.860354" lon="-1.426194">
			<ele>979.000000</ele>
		<time>2013-08-31T04:16:09Z</time>
		</trkpt>

		<trkpt lat="37.860195" lon="-1.426094">
			<ele>979.000000</ele>
		<time>2013-08-31T04:16:12Z</time>
		</trkpt>

		<trkpt lat="37.860020" lon="-1.425937">
			<ele>978.000000</ele>
		<time>2013-08-31T04:16:15Z</time>
		</trkpt>

		<trkpt lat="37.859866" lon="-1.425807">
			<ele>978.000000</ele>
		<time>2013-08-31T04:16:18Z</time>
		</trkpt>

		<trkpt lat="37.859703" lon="-1.425726">
			<ele>977.000000</ele>
		<time>2013-08-31T04:16:21Z</time>
		</trkpt>

		<trkpt lat="37.859543" lon="-1.425648">
			<ele>975.000000</ele>
		<time>2013-08-31T04:16:24Z</time>
		</trkpt>

		<trkpt lat="37.859383" lon="-1.425549">
			<ele>973.000000</ele>
		<time>2013-08-31T04:16:27Z</time>
		</trkpt>

		<trkpt lat="37.859253" lon="-1.425447">
			<ele>970.000000</ele>
		<time>2013-08-31T04:16:30Z</time>
		</trkpt>

		<trkpt lat="37.859113" lon="-1.425358">
			<ele>966.000000</ele>
		<time>2013-08-31T04:16:33Z</time>
		</trkpt>

		<trkpt lat="37.858979" lon="-1.425259">
			<ele>963.000000</ele>
		<time>2013-08-31T04:16:36Z</time>
		</trkpt>

		<trkpt lat="37.858871" lon="-1.425156">
			<ele>958.000000</ele>
		<time>2013-08-31T04:16:39Z</time>
		</trkpt>

		<trkpt lat="37.858739" lon="-1.425016">
			<ele>952.000000</ele>
		<time>2013-08-31T04:16:42Z</time>
		</trkpt>

		<trkpt lat="37.858633" lon="-1.424980">
			<ele>950.000000</ele>
		<time>2013-08-31T04:16:45Z</time>
		</trkpt>

		<trkpt lat="37.858490" lon="-1.424924">
			<ele>946.000000</ele>
		<time>2013-08-31T04:16:48Z</time>
		</trkpt>

		<trkpt lat="37.858314" lon="-1.424873">
			<ele>943.000000</ele>
		<time>2013-08-31T04:16:51Z</time>
		</trkpt>

		<trkpt lat="37.858127" lon="-1.424826">
			<ele>939.000000</ele>
		<time>2013-08-31T04:16:54Z</time>
		</trkpt>

		<trkpt lat="37.857939" lon="-1.424782">
			<ele>936.000000</ele>
		<time>2013-08-31T04:16:57Z</time>
		</trkpt>

		<trkpt lat="37.857769" lon="-1.424725">
			<ele>933.000000</ele>
		<time>2013-08-31T04:17:00Z</time>
		</trkpt>

		<trkpt lat="37.857603" lon="-1.424652">
			<ele>931.000000</ele>
		<time>2013-08-31T04:17:03Z</time>
		</trkpt>

		<trkpt lat="37.857431" lon="-1.424546">
			<ele>929.000000</ele>
		<time>2013-08-31T04:17:06Z</time>
		</trkpt>

		<trkpt lat="37.857262" lon="-1.424426">
			<ele>926.000000</ele>
		<time>2013-08-31T04:17:09Z</time>
		</trkpt>

		<trkpt lat="37.857090" lon="-1.424237">
			<ele>924.000000</ele>
		<time>2013-08-31T04:17:12Z</time>
		</trkpt>

		<trkpt lat="37.856942" lon="-1.424061">
			<ele>922.000000</ele>
		<time>2013-08-31T04:17:15Z</time>
		</trkpt>

		<trkpt lat="37.856795" lon="-1.423827">
			<ele>920.000000</ele>
		<time>2013-08-31T04:17:18Z</time>
		</trkpt>

		<trkpt lat="37.856673" lon="-1.423627">
			<ele>919.000000</ele>
		<time>2013-08-31T04:17:21Z</time>
		</trkpt>

		<trkpt lat="37.856546" lon="-1.423441">
			<ele>919.000000</ele>
		<time>2013-08-31T04:17:24Z</time>
		</trkpt>

		<trkpt lat="37.856388" lon="-1.423226">
			<ele>915.000000</ele>
		<time>2013-08-31T04:17:27Z</time>
		</trkpt>

		<trkpt lat="37.856218" lon="-1.423032">
			<ele>913.000000</ele>
		<time>2013-08-31T04:17:30Z</time>
		</trkpt>

		<trkpt lat="37.856081" lon="-1.422893">
			<ele>910.000000</ele>
		<time>2013-08-31T04:17:33Z</time>
		</trkpt>

		<trkpt lat="37.855944" lon="-1.422727">
			<ele>908.000000</ele>
		<time>2013-08-31T04:17:36Z</time>
		</trkpt>

		<trkpt lat="37.855834" lon="-1.422558">
			<ele>907.000000</ele>
		<time>2013-08-31T04:17:39Z</time>
		</trkpt>

		<trkpt lat="37.855711" lon="-1.422385">
			<ele>906.000000</ele>
		<time>2013-08-31T04:17:42Z</time>
		</trkpt>

		<trkpt lat="37.855605" lon="-1.422176">
			<ele>905.000000</ele>
		<time>2013-08-31T04:17:45Z</time>
		</trkpt>

		<trkpt lat="37.855542" lon="-1.421976">
			<ele>906.000000</ele>
		<time>2013-08-31T04:17:48Z</time>
		</trkpt>

		<trkpt lat="37.855491" lon="-1.421717">
			<ele>903.000000</ele>
		<time>2013-08-31T04:17:51Z</time>
		</trkpt>

		<trkpt lat="37.855440" lon="-1.421524">
			<ele>900.000000</ele>
		<time>2013-08-31T04:17:54Z</time>
		</trkpt>

		<trkpt lat="37.855381" lon="-1.421383">
			<ele>897.000000</ele>
		<time>2013-08-31T04:17:57Z</time>
		</trkpt>

		<trkpt lat="37.855320" lon="-1.421167">
			<ele>893.000000</ele>
		<time>2013-08-31T04:18:00Z</time>
		</trkpt>

		<trkpt lat="37.855271" lon="-1.420897">
			<ele>889.000000</ele>
		<time>2013-08-31T04:18:03Z</time>
		</trkpt>

		<trkpt lat="37.855221" lon="-1.420665">
			<ele>885.000000</ele>
		<time>2013-08-31T04:18:06Z</time>
		</trkpt>

		<trkpt lat="37.855132" lon="-1.420448">
			<ele>881.000000</ele>
		<time>2013-08-31T04:18:09Z</time>
		</trkpt>

		<trkpt lat="37.855075" lon="-1.420302">
			<ele>878.000000</ele>
		<time>2013-08-31T04:18:12Z</time>
		</trkpt>

		<trkpt lat="37.854984" lon="-1.420153">
			<ele>874.000000</ele>
		<time>2013-08-31T04:18:15Z</time>
		</trkpt>

		<trkpt lat="37.854928" lon="-1.420005">
			<ele>874.000000</ele>
		<time>2013-08-31T04:18:18Z</time>
		</trkpt>

		<trkpt lat="37.854875" lon="-1.419870">
			<ele>873.000000</ele>
		<time>2013-08-31T04:18:21Z</time>
		</trkpt>

		<trkpt lat="37.854891" lon="-1.419614">
			<ele>872.000000</ele>
		<time>2013-08-31T04:18:24Z</time>
		</trkpt>

		<trkpt lat="37.854968" lon="-1.419299">
			<ele>870.000000</ele>
		<time>2013-08-31T04:18:27Z</time>
		</trkpt>

		<trkpt lat="37.855132" lon="-1.419049">
			<ele>871.000000</ele>
		<time>2013-08-31T04:18:30Z</time>
		</trkpt>

		<trkpt lat="37.855345" lon="-1.418815">
			<ele>871.000000</ele>
		<time>2013-08-31T04:18:33Z</time>
		</trkpt>

		<trkpt lat="37.855616" lon="-1.418551">
			<ele>872.000000</ele>
		<time>2013-08-31T04:18:36Z</time>
		</trkpt>

		<trkpt lat="37.855841" lon="-1.418398">
			<ele>875.000000</ele>
		<time>2013-08-31T04:18:39Z</time>
		</trkpt>

		<trkpt lat="37.856130" lon="-1.418201">
			<ele>875.000000</ele>
		<time>2013-08-31T04:18:42Z</time>
		</trkpt>

		<trkpt lat="37.856402" lon="-1.417964">
			<ele>877.000000</ele>
		<time>2013-08-31T04:18:45Z</time>
		</trkpt>

		<trkpt lat="37.856490" lon="-1.417709">
			<ele>877.000000</ele>
		<time>2013-08-31T04:18:48Z</time>
		</trkpt>

		<trkpt lat="37.856515" lon="-1.417432">
			<ele>875.000000</ele>
		<time>2013-08-31T04:18:51Z</time>
		</trkpt>

		<trkpt lat="37.856562" lon="-1.417140">
			<ele>872.000000</ele>
		<time>2013-08-31T04:18:54Z</time>
		</trkpt>

		<trkpt lat="37.856654" lon="-1.416861">
			<ele>869.000000</ele>
		<time>2013-08-31T04:18:57Z</time>
		</trkpt>

		<trkpt lat="37.856783" lon="-1.416553">
			<ele>865.000000</ele>
		<time>2013-08-31T04:19:00Z</time>
		</trkpt>

		<trkpt lat="37.856880" lon="-1.416269">
			<ele>862.000000</ele>
		<time>2013-08-31T04:19:03Z</time>
		</trkpt>

		<trkpt lat="37.856965" lon="-1.415987">
			<ele>859.000000</ele>
		<time>2013-08-31T04:19:06Z</time>
		</trkpt>

		<trkpt lat="37.857039" lon="-1.415751">
			<ele>856.000000</ele>
		<time>2013-08-31T04:19:09Z</time>
		</trkpt>

		<trkpt lat="37.857101" lon="-1.415486">
			<ele>852.000000</ele>
		<time>2013-08-31T04:19:12Z</time>
		</trkpt>

		<trkpt lat="37.857142" lon="-1.415233">
			<ele>852.000000</ele>
		<time>2013-08-31T04:19:15Z</time>
		</trkpt>

		<trkpt lat="37.857205" lon="-1.415003">
			<ele>851.000000</ele>
		<time>2013-08-31T04:19:18Z</time>
		</trkpt>

		<trkpt lat="37.857339" lon="-1.414700">
			<ele>850.000000</ele>
		<time>2013-08-31T04:19:21Z</time>
		</trkpt>

		<trkpt lat="37.857450" lon="-1.414420">
			<ele>849.000000</ele>
		<time>2013-08-31T04:19:24Z</time>
		</trkpt>

		<trkpt lat="37.857537" lon="-1.414104">
			<ele>847.000000</ele>
		<time>2013-08-31T04:19:27Z</time>
		</trkpt>

		<trkpt lat="37.857628" lon="-1.413805">
			<ele>846.000000</ele>
		<time>2013-08-31T04:19:30Z</time>
		</trkpt>

		<trkpt lat="37.857739" lon="-1.413478">
			<ele>844.000000</ele>
		<time>2013-08-31T04:19:33Z</time>
		</trkpt>

		<trkpt lat="37.857810" lon="-1.413173">
			<ele>843.000000</ele>
		<time>2013-08-31T04:19:36Z</time>
		</trkpt>

		<trkpt lat="37.857858" lon="-1.412935">
			<ele>844.000000</ele>
		<time>2013-08-31T04:19:39Z</time>
		</trkpt>

		<trkpt lat="37.857789" lon="-1.412742">
			<ele>842.000000</ele>
		<time>2013-08-31T04:19:42Z</time>
		</trkpt>

		<trkpt lat="37.857628" lon="-1.412562">
			<ele>837.000000</ele>
		<time>2013-08-31T04:19:45Z</time>
		</trkpt>

		<trkpt lat="37.857516" lon="-1.412372">
			<ele>836.000000</ele>
		<time>2013-08-31T04:19:48Z</time>
		</trkpt>

		<trkpt lat="37.857388" lon="-1.412182">
			<ele>836.000000</ele>
		<time>2013-08-31T04:19:51Z</time>
		</trkpt>

		<trkpt lat="37.857351" lon="-1.412032">
			<ele>838.000000</ele>
		<time>2013-08-31T04:19:54Z</time>
		</trkpt>

		<trkpt lat="37.857332" lon="-1.411775">
			<ele>837.000000</ele>
		<time>2013-08-31T04:19:57Z</time>
		</trkpt>

		<trkpt lat="37.857403" lon="-1.411438">
			<ele>837.000000</ele>
		<time>2013-08-31T04:20:00Z</time>
		</trkpt>

		<trkpt lat="37.857591" lon="-1.411118">
			<ele>837.000000</ele>
		<time>2013-08-31T04:20:03Z</time>
		</trkpt>

		<trkpt lat="37.857906" lon="-1.410835">
			<ele>836.000000</ele>
		<time>2013-08-31T04:20:06Z</time>
		</trkpt>

		<trkpt lat="37.858311" lon="-1.410770">
			<ele>836.000000</ele>
		<time>2013-08-31T04:20:09Z</time>
		</trkpt>

		<trkpt lat="37.858728" lon="-1.410942">
			<ele>837.000000</ele>
		<time>2013-08-31T04:20:12Z</time>
		</trkpt>

		<trkpt lat="37.859052" lon="-1.411266">
			<ele>839.000000</ele>
		<time>2013-08-31T04:20:15Z</time>
		</trkpt>

		<trkpt lat="37.859208" lon="-1.411594">
			<ele>840.000000</ele>
		<time>2013-08-31T04:20:18Z</time>
		</trkpt>

		<trkpt lat="37.859247" lon="-1.411930">
			<ele>840.000000</ele>
		<time>2013-08-31T04:20:21Z</time>
		</trkpt>

		<trkpt lat="37.859156" lon="-1.412154">
			<ele>841.000000</ele>
		<time>2013-08-31T04:20:24Z</time>
		</trkpt>

		<trkpt lat="37.859000" lon="-1.412245">
			<ele>841.000000</ele>
		<time>2013-08-31T04:20:27Z</time>
		</trkpt>

		<trkpt lat="37.858815" lon="-1.412218">
			<ele>843.000000</ele>
		<time>2013-08-31T04:20:30Z</time>
		</trkpt>

		<trkpt lat="37.858717" lon="-1.412180">
			<ele>845.000000</ele>
		<time>2013-08-31T04:20:33Z</time>
		</trkpt>

		<trkpt lat="37.858555" lon="-1.412212">
			<ele>845.000000</ele>
		<time>2013-08-31T04:20:36Z</time>
		</trkpt>

		<trkpt lat="37.858404" lon="-1.412175">
			<ele>845.000000</ele>
		<time>2013-08-31T04:20:39Z</time>
		</trkpt>

		<trkpt lat="37.858307" lon="-1.412043">
			<ele>843.000000</ele>
		<time>2013-08-31T04:20:42Z</time>
		</trkpt>

		<trkpt lat="37.858222" lon="-1.411851">
			<ele>839.000000</ele>
		<time>2013-08-31T04:20:45Z</time>
		</trkpt>

		<trkpt lat="37.858153" lon="-1.411606">
			<ele>837.000000</ele>
		<time>2013-08-31T04:20:48Z</time>
		</trkpt>

		<trkpt lat="37.858082" lon="-1.411368">
			<ele>833.000000</ele>
		<time>2013-08-31T04:20:51Z</time>
		</trkpt>

		<trkpt lat="37.858008" lon="-1.411190">
			<ele>830.000000</ele>
		<time>2013-08-31T04:20:54Z</time>
		</trkpt>

		<trkpt lat="37.857897" lon="-1.411016">
			<ele>825.000000</ele>
		<time>2013-08-31T04:20:57Z</time>
		</trkpt>

		<trkpt lat="37.857762" lon="-1.410812">
			<ele>820.000000</ele>
		<time>2013-08-31T04:21:00Z</time>
		</trkpt>

		<trkpt lat="37.857671" lon="-1.410664">
			<ele>816.000000</ele>
		<time>2013-08-31T04:21:03Z</time>
		</trkpt>

		<trkpt lat="37.857544" lon="-1.410531">
			<ele>811.000000</ele>
		<time>2013-08-31T04:21:06Z</time>
		</trkpt>

		<trkpt lat="37.857410" lon="-1.410356">
			<ele>807.000000</ele>
		<time>2013-08-31T04:21:09Z</time>
		</trkpt>

		<trkpt lat="37.857266" lon="-1.410152">
			<ele>801.000000</ele>
		<time>2013-08-31T04:21:12Z</time>
		</trkpt>

		<trkpt lat="37.857133" lon="-1.409970">
			<ele>796.000000</ele>
		<time>2013-08-31T04:21:15Z</time>
		</trkpt>

		<trkpt lat="37.857035" lon="-1.409826">
			<ele>794.000000</ele>
		<time>2013-08-31T04:21:18Z</time>
		</trkpt>

		<trkpt lat="37.856907" lon="-1.409620">
			<ele>790.000000</ele>
		<time>2013-08-31T04:21:21Z</time>
		</trkpt>

		<trkpt lat="37.856791" lon="-1.409401">
			<ele>787.000000</ele>
		<time>2013-08-31T04:21:24Z</time>
		</trkpt>

		<trkpt lat="37.856697" lon="-1.409147">
			<ele>784.000000</ele>
		<time>2013-08-31T04:21:27Z</time>
		</trkpt>

		<trkpt lat="37.856581" lon="-1.408906">
			<ele>782.000000</ele>
		<time>2013-08-31T04:21:30Z</time>
		</trkpt>

		<trkpt lat="37.856446" lon="-1.408714">
			<ele>780.000000</ele>
		<time>2013-08-31T04:21:33Z</time>
		</trkpt>

		<trkpt lat="37.856262" lon="-1.408635">
			<ele>781.000000</ele>
		<time>2013-08-31T04:21:36Z</time>
		</trkpt>

		<trkpt lat="37.856039" lon="-1.408655">
			<ele>786.000000</ele>
		<time>2013-08-31T04:21:39Z</time>
		</trkpt>

		<trkpt lat="37.855892" lon="-1.408689">
			<ele>788.000000</ele>
		<time>2013-08-31T04:21:42Z</time>
		</trkpt>

		<trkpt lat="37.855745" lon="-1.408978">
			<ele>786.000000</ele>
		<time>2013-08-31T04:21:45Z</time>
		</trkpt>

		<trkpt lat="37.855721" lon="-1.409276">
			<ele>786.000000</ele>
		<time>2013-08-31T04:21:48Z</time>
		</trkpt>

		<trkpt lat="37.855837" lon="-1.409588">
			<ele>784.000000</ele>
		<time>2013-08-31T04:21:51Z</time>
		</trkpt>

		<trkpt lat="37.856088" lon="-1.409939">
			<ele>782.000000</ele>
		<time>2013-08-31T04:21:54Z</time>
		</trkpt>

		<trkpt lat="37.856450" lon="-1.410065">
			<ele>781.000000</ele>
		<time>2013-08-31T04:21:57Z</time>
		</trkpt>

		<trkpt lat="37.856884" lon="-1.409962">
			<ele>781.000000</ele>
		<time>2013-08-31T04:22:00Z</time>
		</trkpt>

		<trkpt lat="37.857271" lon="-1.409735">
			<ele>780.000000</ele>
		<time>2013-08-31T04:22:03Z</time>
		</trkpt>

		<trkpt lat="37.857512" lon="-1.409415">
			<ele>784.000000</ele>
		<time>2013-08-31T04:22:06Z</time>
		</trkpt>

		<trkpt lat="37.857607" lon="-1.409117">
			<ele>788.000000</ele>
		<time>2013-08-31T04:22:09Z</time>
		</trkpt>

		<trkpt lat="37.857631" lon="-1.408763">
			<ele>791.000000</ele>
		<time>2013-08-31T04:22:12Z</time>
		</trkpt>

		<trkpt lat="37.857434" lon="-1.408424">
			<ele>792.000000</ele>
		<time>2013-08-31T04:22:15Z</time>
		</trkpt>

		<trkpt lat="37.857165" lon="-1.408561">
			<ele>793.000000</ele>
		<time>2013-08-31T04:22:18Z</time>
		</trkpt>

		<trkpt lat="37.857201" lon="-1.408918">
			<ele>797.000000</ele>
		<time>2013-08-31T04:22:21Z</time>
		</trkpt>

		<trkpt lat="37.857320" lon="-1.409177">
			<ele>797.000000</ele>
		<time>2013-08-31T04:22:24Z</time>
		</trkpt>

		<trkpt lat="37.857585" lon="-1.409458">
			<ele>797.000000</ele>
		<time>2013-08-31T04:22:27Z</time>
		</trkpt>

		<trkpt lat="37.857998" lon="-1.409387">
			<ele>799.000000</ele>
		<time>2013-08-31T04:22:30Z</time>
		</trkpt>

		<trkpt lat="37.858278" lon="-1.409089">
			<ele>801.000000</ele>
		<time>2013-08-31T04:22:33Z</time>
		</trkpt>

		<trkpt lat="37.858293" lon="-1.408636">
			<ele>802.000000</ele>
		<time>2013-08-31T04:22:36Z</time>
		</trkpt>

		<trkpt lat="37.858254" lon="-1.408307">
			<ele>803.000000</ele>
		<time>2013-08-31T04:22:39Z</time>
		</trkpt>

		<trkpt lat="37.858034" lon="-1.408010">
			<ele>800.000000</ele>
		<time>2013-08-31T04:22:42Z</time>
		</trkpt>

		<trkpt lat="37.857806" lon="-1.407757">
			<ele>800.000000</ele>
		<time>2013-08-31T04:22:45Z</time>
		</trkpt>

		<trkpt lat="37.857590" lon="-1.407676">
			<ele>801.000000</ele>
		<time>2013-08-31T04:22:48Z</time>
		</trkpt>

		<trkpt lat="37.857345" lon="-1.407685">
			<ele>797.000000</ele>
		<time>2013-08-31T04:22:51Z</time>
		</trkpt>

		<trkpt lat="37.857138" lon="-1.408011">
			<ele>793.000000</ele>
		<time>2013-08-31T04:22:54Z</time>
		</trkpt>

		<trkpt lat="37.856995" lon="-1.408353">
			<ele>790.000000</ele>
		<time>2013-08-31T04:22:57Z</time>
		</trkpt>

		<trkpt lat="37.856974" lon="-1.408760">
			<ele>784.000000</ele>
		<time>2013-08-31T04:23:00Z</time>
		</trkpt>

		<trkpt lat="37.857083" lon="-1.409129">
			<ele>782.000000</ele>
		<time>2013-08-31T04:23:03Z</time>
		</trkpt>

		<trkpt lat="37.857240" lon="-1.409508">
			<ele>779.000000</ele>
		<time>2013-08-31T04:23:06Z</time>
		</trkpt>

		<trkpt lat="37.857486" lon="-1.409843">
			<ele>776.000000</ele>
		<time>2013-08-31T04:23:09Z</time>
		</trkpt>

		<trkpt lat="37.857883" lon="-1.410034">
			<ele>770.000000</ele>
		<time>2013-08-31T04:23:12Z</time>
		</trkpt>

		<trkpt lat="37.858327" lon="-1.409927">
			<ele>764.000000</ele>
		<time>2013-08-31T04:23:15Z</time>
		</trkpt>

		<trkpt lat="37.858694" lon="-1.409572">
			<ele>760.000000</ele>
		<time>2013-08-31T04:23:18Z</time>
		</trkpt>

		<trkpt lat="37.858756" lon="-1.409096">
			<ele>757.000000</ele>
		<time>2013-08-31T04:23:21Z</time>
		</trkpt>

		<trkpt lat="37.858670" lon="-1.408791">
			<ele>754.000000</ele>
		<time>2013-08-31T04:23:24Z</time>
		</trkpt>

		<trkpt lat="37.858481" lon="-1.408570">
			<ele>750.000000</ele>
		<time>2013-08-31T04:23:27Z</time>
		</trkpt>

		<trkpt lat="37.858321" lon="-1.408469">
			<ele>748.000000</ele>
		<time>2013-08-31T04:23:30Z</time>
		</trkpt>

		<trkpt lat="37.858141" lon="-1.408427">
			<ele>744.000000</ele>
		<time>2013-08-31T04:23:33Z</time>
		</trkpt>

		<trkpt lat="37.857955" lon="-1.408382">
			<ele>741.000000</ele>
		<time>2013-08-31T04:23:36Z</time>
		</trkpt>

		<trkpt lat="37.857785" lon="-1.408351">
			<ele>735.000000</ele>
		<time>2013-08-31T04:23:39Z</time>
		</trkpt>

		<trkpt lat="37.857569" lon="-1.408301">
			<ele>728.000000</ele>
		<time>2013-08-31T04:23:42Z</time>
		</trkpt>

		<trkpt lat="37.857401" lon="-1.408286">
			<ele>724.000000</ele>
		<time>2013-08-31T04:23:45Z</time>
		</trkpt>

		<trkpt lat="37.857217" lon="-1.408234">
			<ele>719.000000</ele>
		<time>2013-08-31T04:23:48Z</time>
		</trkpt>

		<trkpt lat="37.857075" lon="-1.408180">
			<ele>713.000000</ele>
		<time>2013-08-31T04:23:51Z</time>
		</trkpt>

		<trkpt lat="37.856945" lon="-1.408092">
			<ele>704.000000</ele>
		<time>2013-08-31T04:23:54Z</time>
		</trkpt>

		<trkpt lat="37.856850" lon="-1.408088">
			<ele>695.000000</ele>
		<time>2013-08-31T04:23:57Z</time>
		</trkpt>

		<trkpt lat="37.856732" lon="-1.408231">
			<ele>688.000000</ele>
		<time>2013-08-31T04:24:00Z</time>
		</trkpt>

		<trkpt lat="37.856631" lon="-1.408419">
			<ele>681.000000</ele>
		<time>2013-08-31T04:24:03Z</time>
		</trkpt>

		<trkpt lat="37.856524" lon="-1.408651">
			<ele>673.000000</ele>
		<time>2013-08-31T04:24:06Z</time>
		</trkpt>

		<trkpt lat="37.856418" lon="-1.408897">
			<ele>667.000000</ele>
		<time>2013-08-31T04:24:09Z</time>
		</trkpt>

		<trkpt lat="37.856331" lon="-1.409197">
			<ele>661.000000</ele>
		<time>2013-08-31T04:24:12Z</time>
		</trkpt>

		<trkpt lat="37.856280" lon="-1.409498">
			<ele>656.000000</ele>
		<time>2013-08-31T04:24:15Z</time>
		</trkpt>

		<trkpt lat="37.856195" lon="-1.409795">
			<ele>651.000000</ele>
		<time>2013-08-31T04:24:18Z</time>
		</trkpt>

		<trkpt lat="37.856130" lon="-1.410077">
			<ele>647.000000</ele>
		<time>2013-08-31T04:24:21Z</time>
		</trkpt>

		<trkpt lat="37.856122" lon="-1.410354">
			<ele>645.000000</ele>
		<time>2013-08-31T04:24:24Z</time>
		</trkpt>

		<trkpt lat="37.856100" lon="-1.410628">
			<ele>643.000000</ele>
		<time>2013-08-31T04:24:27Z</time>
		</trkpt>

		<trkpt lat="37.856086" lon="-1.410919">
			<ele>642.000000</ele>
		<time>2013-08-31T04:24:30Z</time>
		</trkpt>

		<trkpt lat="37.856097" lon="-1.411207">
			<ele>641.000000</ele>
		<time>2013-08-31T04:24:33Z</time>
		</trkpt>

		<trkpt lat="37.856154" lon="-1.411464">
			<ele>641.000000</ele>
		<time>2013-08-31T04:24:36Z</time>
		</trkpt>

		<trkpt lat="37.856199" lon="-1.411774">
			<ele>638.000000</ele>
		<time>2013-08-31T04:24:39Z</time>
		</trkpt>

		<trkpt lat="37.856217" lon="-1.412052">
			<ele>636.000000</ele>
		<time>2013-08-31T04:24:42Z</time>
		</trkpt>

		<trkpt lat="37.856217" lon="-1.412364">
			<ele>633.000000</ele>
		<time>2013-08-31T04:24:45Z</time>
		</trkpt>

		<trkpt lat="37.856193" lon="-1.412641">
			<ele>632.000000</ele>
		<time>2013-08-31T04:24:48Z</time>
		</trkpt>

		<trkpt lat="37.856158" lon="-1.412931">
			<ele>629.000000</ele>
		<time>2013-08-31T04:24:51Z</time>
		</trkpt>

		<trkpt lat="37.856123" lon="-1.413239">
			<ele>627.000000</ele>
		<time>2013-08-31T04:24:54Z</time>
		</trkpt>

		<trkpt lat="37.856124" lon="-1.413507">
			<ele>624.000000</ele>
		<time>2013-08-31T04:24:57Z</time>
		</trkpt>

		<trkpt lat="37.856117" lon="-1.413810">
			<ele>621.000000</ele>
		<time>2013-08-31T04:25:00Z</time>
		</trkpt>

		<trkpt lat="37.856133" lon="-1.414096">
			<ele>620.000000</ele>
		<time>2013-08-31T04:25:03Z</time>
		</trkpt>

		<trkpt lat="37.856133" lon="-1.414408">
			<ele>620.000000</ele>
		<time>2013-08-31T04:25:06Z</time>
		</trkpt>

		<trkpt lat="37.856097" lon="-1.414605">
			<ele>625.000000</ele>
		<time>2013-08-31T04:25:09Z</time>
		</trkpt>

		<trkpt lat="37.855995" lon="-1.414635">
			<ele>625.000000</ele>
		<time>2013-08-31T04:25:12Z</time>
		</trkpt>

		<trkpt lat="37.855838" lon="-1.414553">
			<ele>626.000000</ele>
		<time>2013-08-31T04:25:15Z</time>
		</trkpt>

		<trkpt lat="37.855690" lon="-1.414408">
			<ele>627.000000</ele>
		<time>2013-08-31T04:25:18Z</time>
		</trkpt>

		<trkpt lat="37.855585" lon="-1.414166">
			<ele>625.000000</ele>
		<time>2013-08-31T04:25:21Z</time>
		</trkpt>

		<trkpt lat="37.855443" lon="-1.413983">
			<ele>618.000000</ele>
		<time>2013-08-31T04:25:24Z</time>
		</trkpt>

		<trkpt lat="37.855269" lon="-1.414048">
			<ele>615.000000</ele>
		<time>2013-08-31T04:25:27Z</time>
		</trkpt>

		<trkpt lat="37.855172" lon="-1.414334">
			<ele>612.000000</ele>
		<time>2013-08-31T04:25:30Z</time>
		</trkpt>

		<trkpt lat="37.855091" lon="-1.414709">
			<ele>608.000000</ele>
		<time>2013-08-31T04:25:33Z</time>
		</trkpt>

		<trkpt lat="37.855071" lon="-1.415044">
			<ele>605.000000</ele>
		<time>2013-08-31T04:25:36Z</time>
		</trkpt>

		<trkpt lat="37.855051" lon="-1.415422">
			<ele>598.000000</ele>
		<time>2013-08-31T04:25:39Z</time>
		</trkpt>

		<trkpt lat="37.855029" lon="-1.415820">
			<ele>596.000000</ele>
		<time>2013-08-31T04:25:42Z</time>
		</trkpt>

		<trkpt lat="37.855032" lon="-1.416223">
			<ele>592.000000</ele>
		<time>2013-08-31T04:25:45Z</time>
		</trkpt>

		<trkpt lat="37.855062" lon="-1.416617">
			<ele>590.000000</ele>
		<time>2013-08-31T04:25:48Z</time>
		</trkpt>

		<trkpt lat="37.855068" lon="-1.416997">
			<ele>588.000000</ele>
		<time>2013-08-31T04:25:51Z</time>
		</trkpt>

		<trkpt lat="37.855044" lon="-1.417425">
			<ele>584.000000</ele>
		<time>2013-08-31T04:25:54Z</time>
		</trkpt>

		<trkpt lat="37.855033" lon="-1.417834">
			<ele>580.000000</ele>
		<time>2013-08-31T04:25:57Z</time>
		</trkpt>

		<trkpt lat="37.855057" lon="-1.418205">
			<ele>575.000000</ele>
		<time>2013-08-31T04:26:00Z</time>
		</trkpt>

		<trkpt lat="37.855088" lon="-1.418613">
			<ele>569.000000</ele>
		<time>2013-08-31T04:26:03Z</time>
		</trkpt>

		<trkpt lat="37.855161" lon="-1.419001">
			<ele>564.000000</ele>
		<time>2013-08-31T04:26:06Z</time>
		</trkpt>

		<trkpt lat="37.855216" lon="-1.419361">
			<ele>558.000000</ele>
		<time>2013-08-31T04:26:09Z</time>
		</trkpt>

		<trkpt lat="37.855296" lon="-1.419811">
			<ele>553.000000</ele>
		<time>2013-08-31T04:26:12Z</time>
		</trkpt>

		<trkpt lat="37.855446" lon="-1.420222">
			<ele>549.000000</ele>
		<time>2013-08-31T04:26:15Z</time>
		</trkpt>

		<trkpt lat="37.855670" lon="-1.420578">
			<ele>545.000000</ele>
		<time>2013-08-31T04:26:18Z</time>
		</trkpt>

		<trkpt lat="37.855940" lon="-1.420907">
			<ele>541.000000</ele>
		<time>2013-08-31T04:26:21Z</time>
		</trkpt>

		<trkpt lat="37.856249" lon="-1.421190">
			<ele>537.000000</ele>
		<time>2013-08-31T04:26:24Z</time>
		</trkpt>

		<trkpt lat="37.856597" lon="-1.421413">
			<ele>532.000000</ele>
		<time>2013-08-31T04:26:27Z</time>
		</trkpt>

		<trkpt lat="37.856999" lon="-1.421573">
			<ele>527.000000</ele>
		<time>2013-08-31T04:26:30Z</time>
		</trkpt>

		<trkpt lat="37.857366" lon="-1.421805">
			<ele>525.000000</ele>
		<time>2013-08-31T04:26:33Z</time>
		</trkpt>

		<trkpt lat="37.857722" lon="-1.422059">
			<ele>523.000000</ele>
		<time>2013-08-31T04:26:36Z</time>
		</trkpt>

		<trkpt lat="37.858060" lon="-1.422309">
			<ele>520.000000</ele>
		<time>2013-08-31T04:26:39Z</time>
		</trkpt>

		<trkpt lat="37.858391" lon="-1.422580">
			<ele>515.000000</ele>
		<time>2013-08-31T04:26:42Z</time>
		</trkpt>

		<trkpt lat="37.858661" lon="-1.422902">
			<ele>510.000000</ele>
		<time>2013-08-31T04:26:45Z</time>
		</trkpt>

		<trkpt lat="37.858950" lon="-1.423220">
			<ele>507.000000</ele>
		<time>2013-08-31T04:26:48Z</time>
		</trkpt>

		<trkpt lat="37.859252" lon="-1.423568">
			<ele>501.000000</ele>
		<time>2013-08-31T04:26:51Z</time>
		</trkpt>

		<trkpt lat="37.859481" lon="-1.423945">
			<ele>496.000000</ele>
		<time>2013-08-31T04:26:54Z</time>
		</trkpt>

		<trkpt lat="37.859684" lon="-1.424380">
			<ele>490.000000</ele>
		<time>2013-08-31T04:26:57Z</time>
		</trkpt>

		<trkpt lat="37.859763" lon="-1.424873">
			<ele>486.000000</ele>
		<time>2013-08-31T04:27:00Z</time>
		</trkpt>

		<trkpt lat="37.859773" lon="-1.425313">
			<ele>484.000000</ele>
		<time>2013-08-31T04:27:03Z</time>
		</trkpt>

		<trkpt lat="37.859780" lon="-1.425757">
			<ele>482.000000</ele>
		<time>2013-08-31T04:27:06Z</time>
		</trkpt>

		<trkpt lat="37.859823" lon="-1.426147">
			<ele>480.000000</ele>
		<time>2013-08-31T04:27:09Z</time>
		</trkpt>

		<trkpt lat="37.859874" lon="-1.426587">
			<ele>478.000000</ele>
		<time>2013-08-31T04:27:12Z</time>
		</trkpt>

		<trkpt lat="37.859899" lon="-1.426991">
			<ele>479.000000</ele>
		<time>2013-08-31T04:27:15Z</time>
		</trkpt>

		<trkpt lat="37.859935" lon="-1.427361">
			<ele>482.000000</ele>
		<time>2013-08-31T04:27:18Z</time>
		</trkpt>

		<trkpt lat="37.859942" lon="-1.427721">
			<ele>483.000000</ele>
		<time>2013-08-31T04:27:21Z</time>
		</trkpt>

		<trkpt lat="37.859854" lon="-1.428001">
			<ele>487.000000</ele>
		<time>2013-08-31T04:27:24Z</time>
		</trkpt>

		<trkpt lat="37.859802" lon="-1.428207">
			<ele>490.000000</ele>
		<time>2013-08-31T04:27:27Z</time>
		</trkpt>

		<trkpt lat="37.859708" lon="-1.428512">
			<ele>490.000000</ele>
		<time>2013-08-31T04:27:30Z</time>
		</trkpt>

		<trkpt lat="37.859730" lon="-1.428909">
			<ele>492.000000</ele>
		<time>2013-08-31T04:27:33Z</time>
		</trkpt>

		<trkpt lat="37.859914" lon="-1.429280">
			<ele>494.000000</ele>
		<time>2013-08-31T04:27:36Z</time>
		</trkpt>

		<trkpt lat="37.860239" lon="-1.429465">
			<ele>492.000000</ele>
		<time>2013-08-31T04:27:39Z</time>
		</trkpt>

		<trkpt lat="37.860570" lon="-1.429748">
			<ele>487.000000</ele>
		<time>2013-08-31T04:27:42Z</time>
		</trkpt>

		<trkpt lat="37.860773" lon="-1.430105">
			<ele>486.000000</ele>
		<time>2013-08-31T04:27:45Z</time>
		</trkpt>

		<trkpt lat="37.860916" lon="-1.430419">
			<ele>487.000000</ele>
		<time>2013-08-31T04:27:48Z</time>
		</trkpt>

		<trkpt lat="37.861041" lon="-1.430738">
			<ele>491.000000</ele>
		<time>2013-08-31T04:27:51Z</time>
		</trkpt>

		<trkpt lat="37.861233" lon="-1.431056">
			<ele>493.000000</ele>
		<time>2013-08-31T04:27:54Z</time>
		</trkpt>

		<trkpt lat="37.861554" lon="-1.431161">
			<ele>496.000000</ele>
		<time>2013-08-31T04:27:57Z</time>
		</trkpt>

		<trkpt lat="37.861839" lon="-1.430816">
			<ele>500.000000</ele>
		<time>2013-08-31T04:28:00Z</time>
		</trkpt>

		<trkpt lat="37.861710" lon="-1.430648">
			<ele>505.000000</ele>
		<time>2013-08-31T04:28:03Z</time>
		</trkpt>

		<trkpt lat="37.861608" lon="-1.430796">
			<ele>508.000000</ele>
		<time>2013-08-31T04:28:06Z</time>
		</trkpt>

		<trkpt lat="37.861612" lon="-1.431193">
			<ele>511.000000</ele>
		<time>2013-08-31T04:28:09Z</time>
		</trkpt>

		<trkpt lat="37.861924" lon="-1.431460">
			<ele>512.000000</ele>
		<time>2013-08-31T04:28:12Z</time>
		</trkpt>

		<trkpt lat="37.862367" lon="-1.431402">
			<ele>518.000000</ele>
		<time>2013-08-31T04:28:15Z</time>
		</trkpt>

		<trkpt lat="37.862468" lon="-1.431046">
			<ele>523.000000</ele>
		<time>2013-08-31T04:28:18Z</time>
		</trkpt>

		<trkpt lat="37.862435" lon="-1.431090">
			<ele>528.000000</ele>
		<time>2013-08-31T04:28:21Z</time>
		</trkpt>

		<trkpt lat="37.862680" lon="-1.431512">
			<ele>535.000000</ele>
		<time>2013-08-31T04:28:24Z</time>
		</trkpt>

		<trkpt lat="37.862969" lon="-1.431435">
			<ele>543.000000</ele>
		<time>2013-08-31T04:28:27Z</time>
		</trkpt>

		<trkpt lat="37.862793" lon="-1.431126">
			<ele>550.000000</ele>
		<time>2013-08-31T04:28:30Z</time>
		</trkpt>

		<trkpt lat="37.862645" lon="-1.431363">
			<ele>555.000000</ele>
		<time>2013-08-31T04:28:33Z</time>
		</trkpt>

		<trkpt lat="37.862883" lon="-1.431758">
			<ele>563.000000</ele>
		<time>2013-08-31T04:28:36Z</time>
		</trkpt>

		<trkpt lat="37.863177" lon="-1.431609">
			<ele>571.000000</ele>
		<time>2013-08-31T04:28:39Z</time>
		</trkpt>

		<trkpt lat="37.863235" lon="-1.431441">
			<ele>579.000000</ele>
		<time>2013-08-31T04:28:42Z</time>
		</trkpt>

		<trkpt lat="37.863215" lon="-1.431616">
			<ele>586.000000</ele>
		<time>2013-08-31T04:28:45Z</time>
		</trkpt>

		<trkpt lat="37.863174" lon="-1.431611">
			<ele>590.000000</ele>
		<time>2013-08-31T04:28:48Z</time>
		</trkpt>

		<trkpt lat="37.863175" lon="-1.431418">
			<ele>595.000000</ele>
		<time>2013-08-31T04:28:51Z</time>
		</trkpt>

		<trkpt lat="37.863329" lon="-1.431211">
			<ele>601.000000</ele>
		<time>2013-08-31T04:28:54Z</time>
		</trkpt>

		<trkpt lat="37.863371" lon="-1.430906">
			<ele>602.000000</ele>
		<time>2013-08-31T04:28:57Z</time>
		</trkpt>

		<trkpt lat="37.863269" lon="-1.430634">
			<ele>606.000000</ele>
		<time>2013-08-31T04:29:00Z</time>
		</trkpt>

		<trkpt lat="37.863155" lon="-1.430567">
			<ele>612.000000</ele>
		<time>2013-08-31T04:29:03Z</time>
		</trkpt>

		<trkpt lat="37.862956" lon="-1.430687">
			<ele>613.000000</ele>
		<time>2013-08-31T04:29:06Z</time>
		</trkpt>

		<trkpt lat="37.862825" lon="-1.430723">
			<ele>616.000000</ele>
		<time>2013-08-31T04:29:09Z</time>
		</trkpt>

		<trkpt lat="37.862727" lon="-1.430828">
			<ele>616.000000</ele>
		<time>2013-08-31T04:29:12Z</time>
		</trkpt>

		<trkpt lat="37.862501" lon="-1.431020">
			<ele>608.000000</ele>
		<time>2013-08-31T04:29:15Z</time>
		</trkpt>

		<trkpt lat="37.862389" lon="-1.430904">
			<ele>604.000000</ele>
		<time>2013-08-31T04:29:18Z</time>
		</trkpt>

		<trkpt lat="37.862402" lon="-1.430653">
			<ele>600.000000</ele>
		<time>2013-08-31T04:29:21Z</time>
		</trkpt>

		<trkpt lat="37.862499" lon="-1.430385">
			<ele>597.000000</ele>
		<time>2013-08-31T04:29:24Z</time>
		</trkpt>

		<trkpt lat="37.862607" lon="-1.430076">
			<ele>594.000000</ele>
		<time>2013-08-31T04:29:27Z</time>
		</trkpt>

		<trkpt lat="37.862666" lon="-1.429786">
			<ele>597.000000</ele>
		<time>2013-08-31T04:29:30Z</time>
		</trkpt>

		<trkpt lat="37.862718" lon="-1.429544">
			<ele>600.000000</ele>
		<time>2013-08-31T04:29:33Z</time>
		</trkpt>

		<trkpt lat="37.862797" lon="-1.429251">
			<ele>600.000000</ele>
		<time>2013-08-31T04:29:36Z</time>
		</trkpt>

		<trkpt lat="37.862840" lon="-1.428931">
			<ele>600.000000</ele>
		<time>2013-08-31T04:29:39Z</time>
		</trkpt>

		<trkpt lat="37.862814" lon="-1.428684">
			<ele>602.000000</ele>
		<time>2013-08-31T04:29:42Z</time>
		</trkpt>

		<trkpt lat="37.862737" lon="-1.428495">
			<ele>602.000000</ele>
		<time>2013-08-31T04:29:45Z</time>
		</trkpt>

		<trkpt lat="37.862639" lon="-1.428314">
			<ele>601.000000</ele>
		<time>2013-08-31T04:29:48Z</time>
		</trkpt>

		<trkpt lat="37.862571" lon="-1.428134">
			<ele>599.000000</ele>
		<time>2013-08-31T04:29:51Z</time>
		</trkpt>

		<trkpt lat="37.862628" lon="-1.427847">
			<ele>598.000000</ele>
		<time>2013-08-31T04:29:54Z</time>
		</trkpt>

		<trkpt lat="37.862686" lon="-1.427622">
			<ele>596.000000</ele>
		<time>2013-08-31T04:29:57Z</time>
		</trkpt>

		<trkpt lat="37.862495" lon="-1.427480">
			<ele>595.000000</ele>
		<time>2013-08-31T04:30:00Z</time>
		</trkpt>

		<trkpt lat="37.862361" lon="-1.427349">
			<ele>596.000000</ele>
		<time>2013-08-31T04:30:03Z</time>
		</trkpt>

		<trkpt lat="37.862222" lon="-1.427040">
			<ele>593.000000</ele>
		<time>2013-08-31T04:30:06Z</time>
		</trkpt>

		<trkpt lat="37.862387" lon="-1.426826">
			<ele>584.000000</ele>
		<time>2013-08-31T04:30:09Z</time>
		</trkpt>

		<trkpt lat="37.862319" lon="-1.427267">
			<ele>580.000000</ele>
		<time>2013-08-31T04:30:12Z</time>
		</trkpt>

		<trkpt lat="37.862356" lon="-1.427146">
			<ele>586.000000</ele>
		<time>2013-08-31T04:30:16Z</time>
		</trkpt>

		<trkpt lat="37.862394" lon="-1.426952">
			<ele>585.000000</ele>
		<time>2013-08-31T04:30:19Z</time>
		</trkpt>

		<trkpt lat="37.862669" lon="-1.426745">
			<ele>586.000000</ele>
		<time>2013-08-31T04:30:22Z</time>
		</trkpt>

		<trkpt lat="37.862913" lon="-1.426505">
			<ele>583.000000</ele>
		<time>2013-08-31T04:30:25Z</time>
		</trkpt>

		<trkpt lat="37.862992" lon="-1.426224">
			<ele>581.000000</ele>
		<time>2013-08-31T04:30:28Z</time>
		</trkpt>

		<trkpt lat="37.863040" lon="-1.426040">
			<ele>578.000000</ele>
		<time>2013-08-31T04:30:31Z</time>
		</trkpt>

		<trkpt lat="37.862932" lon="-1.425921">
			<ele>573.000000</ele>
		<time>2013-08-31T04:30:34Z</time>
		</trkpt>

		<trkpt lat="37.862750" lon="-1.426188">
			<ele>570.000000</ele>
		<time>2013-08-31T04:30:37Z</time>
		</trkpt>

		<trkpt lat="37.863010" lon="-1.426708">
			<ele>568.000000</ele>
		<time>2013-08-31T04:30:40Z</time>
		</trkpt>

		<trkpt lat="37.862940" lon="-1.426897">
			<ele>562.000000</ele>
		<time>2013-08-31T04:30:43Z</time>
		</trkpt>

		<trkpt lat="37.862896" lon="-1.426613">
			<ele>564.000000</ele>
		<time>2013-08-31T04:30:46Z</time>
		</trkpt>

		<trkpt lat="37.862825" lon="-1.426427">
			<ele>560.000000</ele>
		<time>2013-08-31T04:30:49Z</time>
		</trkpt>

		<trkpt lat="37.862661" lon="-1.426387">
			<ele>561.000000</ele>
		<time>2013-08-31T04:30:52Z</time>
		</trkpt>

		<trkpt lat="37.862665" lon="-1.426789">
			<ele>558.000000</ele>
		<time>2013-08-31T04:30:55Z</time>
		</trkpt>

		<trkpt lat="37.862849" lon="-1.427135">
			<ele>560.000000</ele>
		<time>2013-08-31T04:30:58Z</time>
		</trkpt>

		<trkpt lat="37.862846" lon="-1.427498">
			<ele>558.000000</ele>
		<time>2013-08-31T04:31:01Z</time>
		</trkpt>

		<trkpt lat="37.862923" lon="-1.427888">
			<ele>560.000000</ele>
		<time>2013-08-31T04:31:04Z</time>
		</trkpt>

		<trkpt lat="37.863072" lon="-1.428222">
			<ele>565.000000</ele>
		<time>2013-08-31T04:31:07Z</time>
		</trkpt>

		<trkpt lat="37.863033" lon="-1.428411">
			<ele>567.000000</ele>
		<time>2013-08-31T04:31:10Z</time>
		</trkpt>

		<trkpt lat="37.863174" lon="-1.428093">
			<ele>574.000000</ele>
		<time>2013-08-31T04:31:13Z</time>
		</trkpt>

		<trkpt lat="37.863392" lon="-1.427946">
			<ele>580.000000</ele>
		<time>2013-08-31T04:31:16Z</time>
		</trkpt>

		<trkpt lat="37.863421" lon="-1.427619">
			<ele>580.000000</ele>
		<time>2013-08-31T04:31:19Z</time>
		</trkpt>

		<trkpt lat="37.863191" lon="-1.427781">
			<ele>578.000000</ele>
		<time>2013-08-31T04:31:22Z</time>
		</trkpt>

		<trkpt lat="37.863243" lon="-1.428168">
			<ele>583.000000</ele>
		<time>2013-08-31T04:31:25Z</time>
		</trkpt>

		<trkpt lat="37.863471" lon="-1.428396">
			<ele>589.000000</ele>
		<time>2013-08-31T04:31:28Z</time>
		</trkpt>

		<trkpt lat="37.863473" lon="-1.428615">
			<ele>587.000000</ele>
		<time>2013-08-31T04:31:31Z</time>
		</trkpt>

		<trkpt lat="37.863556" lon="-1.428285">
			<ele>583.000000</ele>
		<time>2013-08-31T04:31:34Z</time>
		</trkpt>

		<trkpt lat="37.863772" lon="-1.428124">
			<ele>588.000000</ele>
		<time>2013-08-31T04:31:37Z</time>
		</trkpt>

		<trkpt lat="37.863892" lon="-1.427895">
			<ele>590.000000</ele>
		<time>2013-08-31T04:31:40Z</time>
		</trkpt>

		<trkpt lat="37.864101" lon="-1.427566">
			<ele>591.000000</ele>
		<time>2013-08-31T04:31:43Z</time>
		</trkpt>

		<trkpt lat="37.864082" lon="-1.427260">
			<ele>585.000000</ele>
		<time>2013-08-31T04:31:46Z</time>
		</trkpt>

		<trkpt lat="37.864270" lon="-1.427833">
			<ele>587.000000</ele>
		<time>2013-08-31T04:31:49Z</time>
		</trkpt>

		<trkpt lat="37.864315" lon="-1.428145">
			<ele>588.000000</ele>
		<time>2013-08-31T04:31:52Z</time>
		</trkpt>

		<trkpt lat="37.864088" lon="-1.428084">
			<ele>587.000000</ele>
		<time>2013-08-31T04:31:55Z</time>
		</trkpt>

		<trkpt lat="37.864295" lon="-1.427770">
			<ele>591.000000</ele>
		<time>2013-08-31T04:31:58Z</time>
		</trkpt>

		<trkpt lat="37.864334" lon="-1.427449">
			<ele>588.000000</ele>
		<time>2013-08-31T04:32:01Z</time>
		</trkpt>

		<trkpt lat="37.864076" lon="-1.427326">
			<ele>588.000000</ele>
		<time>2013-08-31T04:32:04Z</time>
		</trkpt>

		<trkpt lat="37.863939" lon="-1.427763">
			<ele>587.000000</ele>
		<time>2013-08-31T04:32:07Z</time>
		</trkpt>

		<trkpt lat="37.863650" lon="-1.427672">
			<ele>582.000000</ele>
		<time>2013-08-31T04:32:10Z</time>
		</trkpt>

		<trkpt lat="37.864072" lon="-1.427313">
			<ele>585.000000</ele>
		<time>2013-08-31T04:32:13Z</time>
		</trkpt>

		<trkpt lat="37.864006" lon="-1.427110">
			<ele>579.000000</ele>
		<time>2013-08-31T04:32:16Z</time>
		</trkpt>

		<trkpt lat="37.863842" lon="-1.427236">
			<ele>575.000000</ele>
		<time>2013-08-31T04:32:19Z</time>
		</trkpt>

		<trkpt lat="37.863883" lon="-1.427544">
			<ele>574.000000</ele>
		<time>2013-08-31T04:32:22Z</time>
		</trkpt>

		<trkpt lat="37.863921" lon="-1.427613">
			<ele>569.000000</ele>
		<time>2013-08-31T04:32:25Z</time>
		</trkpt>

		<trkpt lat="37.864081" lon="-1.427116">
			<ele>572.000000</ele>
		<time>2013-08-31T04:32:28Z</time>
		</trkpt>

		<trkpt lat="37.863907" lon="-1.426874">
			<ele>568.000000</ele>
		<time>2013-08-31T04:32:31Z</time>
		</trkpt>

		<trkpt lat="37.863769" lon="-1.427056">
			<ele>567.000000</ele>
		<time>2013-08-31T04:32:34Z</time>
		</trkpt>

		<trkpt lat="37.863893" lon="-1.427378">
			<ele>567.000000</ele>
		<time>2013-08-31T04:32:37Z</time>
		</trkpt>

		<trkpt lat="37.863993" lon="-1.427665">
			<ele>569.000000</ele>
		<time>2013-08-31T04:32:40Z</time>
		</trkpt>

		<trkpt lat="37.864115" lon="-1.427929">
			<ele>569.000000</ele>
		<time>2013-08-31T04:32:43Z</time>
		</trkpt>

		<trkpt lat="37.864061" lon="-1.427465">
			<ele>571.000000</ele>
		<time>2013-08-31T04:32:46Z</time>
		</trkpt>

		<trkpt lat="37.863826" lon="-1.427397">
			<ele>570.000000</ele>
		<time>2013-08-31T04:32:49Z</time>
		</trkpt>

		<trkpt lat="37.863710" lon="-1.427624">
			<ele>574.000000</ele>
		<time>2013-08-31T04:32:52Z</time>
		</trkpt>

		<trkpt lat="37.863698" lon="-1.427910">
			<ele>576.000000</ele>
		<time>2013-08-31T04:32:55Z</time>
		</trkpt>

		<trkpt lat="37.863697" lon="-1.428210">
			<ele>580.000000</ele>
		<time>2013-08-31T04:32:58Z</time>
		</trkpt>

		<trkpt lat="37.863703" lon="-1.428451">
			<ele>583.000000</ele>
		<time>2013-08-31T04:33:01Z</time>
		</trkpt>

		<trkpt lat="37.863674" lon="-1.428657">
			<ele>583.000000</ele>
		<time>2013-08-31T04:33:04Z</time>
		</trkpt>

		<trkpt lat="37.863479" lon="-1.428607">
			<ele>582.000000</ele>
		<time>2013-08-31T04:33:07Z</time>
		</trkpt>

		<trkpt lat="37.863288" lon="-1.428510">
			<ele>581.000000</ele>
		<time>2013-08-31T04:33:10Z</time>
		</trkpt>

		<trkpt lat="37.863130" lon="-1.428640">
			<ele>577.000000</ele>
		<time>2013-08-31T04:33:13Z</time>
		</trkpt>

		<trkpt lat="37.863085" lon="-1.428953">
			<ele>573.000000</ele>
		<time>2013-08-31T04:33:16Z</time>
		</trkpt>

		<trkpt lat="37.863237" lon="-1.429341">
			<ele>570.000000</ele>
		<time>2013-08-31T04:33:19Z</time>
		</trkpt>

		<trkpt lat="37.863223" lon="-1.429539">
			<ele>567.000000</ele>
		<time>2013-08-31T04:33:22Z</time>
		</trkpt>

		<trkpt lat="37.863105" lon="-1.429183">
			<ele>568.000000</ele>
		<time>2013-08-31T04:33:25Z</time>
		</trkpt>

		<trkpt lat="37.862994" lon="-1.428876">
			<ele>567.000000</ele>
		<time>2013-08-31T04:33:28Z</time>
		</trkpt>

		<trkpt lat="37.862750" lon="-1.428957">
			<ele>563.000000</ele>
		<time>2013-08-31T04:33:31Z</time>
		</trkpt>

		<trkpt lat="37.862702" lon="-1.429355">
			<ele>557.000000</ele>
		<time>2013-08-31T04:33:34Z</time>
		</trkpt>

		<trkpt lat="37.862822" lon="-1.429789">
			<ele>556.000000</ele>
		<time>2013-08-31T04:33:37Z</time>
		</trkpt>

		<trkpt lat="37.862839" lon="-1.430140">
			<ele>556.000000</ele>
		<time>2013-08-31T04:33:40Z</time>
		</trkpt>

		<trkpt lat="37.862689" lon="-1.430289">
			<ele>556.000000</ele>
		<time>2013-08-31T04:33:43Z</time>
		</trkpt>

		<trkpt lat="37.862556" lon="-1.430191">
			<ele>554.000000</ele>
		<time>2013-08-31T04:33:46Z</time>
		</trkpt>

		<trkpt lat="37.862711" lon="-1.429817">
			<ele>552.000000</ele>
		<time>2013-08-31T04:33:49Z</time>
		</trkpt>

		<trkpt lat="37.863018" lon="-1.429683">
			<ele>553.000000</ele>
		<time>2013-08-31T04:33:52Z</time>
		</trkpt>

		<trkpt lat="37.863273" lon="-1.429438">
			<ele>553.000000</ele>
		<time>2013-08-31T04:33:55Z</time>
		</trkpt>

		<trkpt lat="37.863464" lon="-1.429083">
			<ele>552.000000</ele>
		<time>2013-08-31T04:33:58Z</time>
		</trkpt>

		<trkpt lat="37.863640" lon="-1.428772">
			<ele>553.000000</ele>
		<time>2013-08-31T04:34:01Z</time>
		</trkpt>

		<trkpt lat="37.863699" lon="-1.428417">
			<ele>551.000000</ele>
		<time>2013-08-31T04:34:04Z</time>
		</trkpt>

		<trkpt lat="37.863727" lon="-1.428132">
			<ele>552.000000</ele>
		<time>2013-08-31T04:34:07Z</time>
		</trkpt>

		<trkpt lat="37.863699" lon="-1.427838">
			<ele>548.000000</ele>
		<time>2013-08-31T04:34:10Z</time>
		</trkpt>

		<trkpt lat="37.863609" lon="-1.427572">
			<ele>550.000000</ele>
		<time>2013-08-31T04:34:13Z</time>
		</trkpt>

		<trkpt lat="37.863602" lon="-1.427383">
			<ele>558.000000</ele>
		<time>2013-08-31T04:34:16Z</time>
		</trkpt>

		<trkpt lat="37.863589" lon="-1.427129">
			<ele>562.000000</ele>
		<time>2013-08-31T04:34:19Z</time>
		</trkpt>

		<trkpt lat="37.863418" lon="-1.427041">
			<ele>562.000000</ele>
		<time>2013-08-31T04:34:22Z</time>
		</trkpt>

		<trkpt lat="37.863414" lon="-1.427293">
			<ele>567.000000</ele>
		<time>2013-08-31T04:34:25Z</time>
		</trkpt>

		<trkpt lat="37.863335" lon="-1.427285">
			<ele>573.000000</ele>
		<time>2013-08-31T04:34:28Z</time>
		</trkpt>

		<trkpt lat="37.863243" lon="-1.427190">
			<ele>579.000000</ele>
		<time>2013-08-31T04:34:31Z</time>
		</trkpt>

		<trkpt lat="37.863090" lon="-1.427081">
			<ele>582.000000</ele>
		<time>2013-08-31T04:34:34Z</time>
		</trkpt>

		<trkpt lat="37.862939" lon="-1.426919">
			<ele>586.000000</ele>
		<time>2013-08-31T04:34:37Z</time>
		</trkpt>

		<trkpt lat="37.862818" lon="-1.426692">
			<ele>589.000000</ele>
		<time>2013-08-31T04:34:40Z</time>
		</trkpt>

		<trkpt lat="37.862821" lon="-1.426419">
			<ele>590.000000</ele>
		<time>2013-08-31T04:34:43Z</time>
		</trkpt>

		<trkpt lat="37.862737" lon="-1.426193">
			<ele>591.000000</ele>
		<time>2013-08-31T04:34:46Z</time>
		</trkpt>

		<trkpt lat="37.862573" lon="-1.426087">
			<ele>590.000000</ele>
		<time>2013-08-31T04:34:49Z</time>
		</trkpt>

		<trkpt lat="37.862407" lon="-1.426156">
			<ele>591.000000</ele>
		<time>2013-08-31T04:34:52Z</time>
		</trkpt>

		<trkpt lat="37.862443" lon="-1.426475">
			<ele>591.000000</ele>
		<time>2013-08-31T04:34:55Z</time>
		</trkpt>

		<trkpt lat="37.862868" lon="-1.426566">
			<ele>585.000000</ele>
		<time>2013-08-31T04:34:58Z</time>
		</trkpt>

		<trkpt lat="37.863082" lon="-1.426349">
			<ele>579.000000</ele>
		<time>2013-08-31T04:35:01Z</time>
		</trkpt>

		<trkpt lat="37.863286" lon="-1.426635">
			<ele>574.000000</ele>
		<time>2013-08-31T04:35:04Z</time>
		</trkpt>

		<trkpt lat="37.863193" lon="-1.426270">
			<ele>574.000000</ele>
		<time>2013-08-31T04:35:07Z</time>
		</trkpt>

		<trkpt lat="37.862916" lon="-1.426297">
			<ele>577.000000</ele>
		<time>2013-08-31T04:35:10Z</time>
		</trkpt>

		<trkpt lat="37.862899" lon="-1.426555">
			<ele>582.000000</ele>
		<time>2013-08-31T04:35:13Z</time>
		</trkpt>

		<trkpt lat="37.862710" lon="-1.426623">
			<ele>585.000000</ele>
		<time>2013-08-31T04:35:16Z</time>
		</trkpt>

		<trkpt lat="37.862632" lon="-1.426484">
			<ele>593.000000</ele>
		<time>2013-08-31T04:35:19Z</time>
		</trkpt>

		<trkpt lat="37.862506" lon="-1.426359">
			<ele>593.000000</ele>
		<time>2013-08-31T04:35:22Z</time>
		</trkpt>

		<trkpt lat="37.862357" lon="-1.426393">
			<ele>597.000000</ele>
		<time>2013-08-31T04:35:25Z</time>
		</trkpt>

		<trkpt lat="37.862230" lon="-1.426472">
			<ele>599.000000</ele>
		<time>2013-08-31T04:35:28Z</time>
		</trkpt>

		<trkpt lat="37.862007" lon="-1.426520">
			<ele>600.000000</ele>
		<time>2013-08-31T04:35:31Z</time>
		</trkpt>

		<trkpt lat="37.861807" lon="-1.426496">
			<ele>601.000000</ele>
		<time>2013-08-31T04:35:34Z</time>
		</trkpt>

		<trkpt lat="37.861622" lon="-1.426396">
			<ele>599.000000</ele>
		<time>2013-08-31T04:35:37Z</time>
		</trkpt>

		<trkpt lat="37.861535" lon="-1.426142">
			<ele>594.000000</ele>
		<time>2013-08-31T04:35:40Z</time>
		</trkpt>

		<trkpt lat="37.861400" lon="-1.425944">
			<ele>590.000000</ele>
		<time>2013-08-31T04:35:43Z</time>
		</trkpt>

		<trkpt lat="37.861258" lon="-1.426117">
			<ele>589.000000</ele>
		<time>2013-08-31T04:35:46Z</time>
		</trkpt>

		<trkpt lat="37.861398" lon="-1.426491">
			<ele>589.000000</ele>
		<time>2013-08-31T04:35:49Z</time>
		</trkpt>

		<trkpt lat="37.861689" lon="-1.426806">
			<ele>589.000000</ele>
		<time>2013-08-31T04:35:52Z</time>
		</trkpt>

		<trkpt lat="37.861825" lon="-1.427133">
			<ele>584.000000</ele>
		<time>2013-08-31T04:35:55Z</time>
		</trkpt>

		<trkpt lat="37.861556" lon="-1.427203">
			<ele>579.000000</ele>
		<time>2013-08-31T04:35:58Z</time>
		</trkpt>

		<trkpt lat="37.861320" lon="-1.427256">
			<ele>576.000000</ele>
		<time>2013-08-31T04:36:01Z</time>
		</trkpt>

		<trkpt lat="37.861186" lon="-1.427649">
			<ele>570.000000</ele>
		<time>2013-08-31T04:36:04Z</time>
		</trkpt>

		<trkpt lat="37.861476" lon="-1.428071">
			<ele>568.000000</ele>
		<time>2013-08-31T04:36:07Z</time>
		</trkpt>

		<trkpt lat="37.861663" lon="-1.428514">
			<ele>560.000000</ele>
		<time>2013-08-31T04:36:10Z</time>
		</trkpt>

		<trkpt lat="37.862015" lon="-1.428759">
			<ele>551.000000</ele>
		<time>2013-08-31T04:36:13Z</time>
		</trkpt>

		<trkpt lat="37.862405" lon="-1.428698">
			<ele>548.000000</ele>
		<time>2013-08-31T04:36:16Z</time>
		</trkpt>

		<trkpt lat="37.862713" lon="-1.428415">
			<ele>542.000000</ele>
		<time>2013-08-31T04:36:19Z</time>
		</trkpt>

		<trkpt lat="37.862840" lon="-1.428091">
			<ele>539.000000</ele>
		<time>2013-08-31T04:36:22Z</time>
		</trkpt>

		<trkpt lat="37.862872" lon="-1.427824">
			<ele>541.000000</ele>
		<time>2013-08-31T04:36:25Z</time>
		</trkpt>

		<trkpt lat="37.862937" lon="-1.427614">
			<ele>542.000000</ele>
		<time>2013-08-31T04:36:28Z</time>
		</trkpt>

		<trkpt lat="37.862923" lon="-1.427488">
			<ele>542.000000</ele>
		<time>2013-08-31T04:36:31Z</time>
		</trkpt>

		<trkpt lat="37.862867" lon="-1.427271">
			<ele>542.000000</ele>
		<time>2013-08-31T04:36:34Z</time>
		</trkpt>

		<trkpt lat="37.862974" lon="-1.426993">
			<ele>543.000000</ele>
		<time>2013-08-31T04:36:37Z</time>
		</trkpt>

		<trkpt lat="37.863108" lon="-1.426722">
			<ele>545.000000</ele>
		<time>2013-08-31T04:36:40Z</time>
		</trkpt>

		<trkpt lat="37.863125" lon="-1.426453">
			<ele>545.000000</ele>
		<time>2013-08-31T04:36:43Z</time>
		</trkpt>

		<trkpt lat="37.863143" lon="-1.426309">
			<ele>547.000000</ele>
		<time>2013-08-31T04:36:46Z</time>
		</trkpt>

		<trkpt lat="37.863160" lon="-1.426389">
			<ele>548.000000</ele>
		<time>2013-08-31T04:36:56Z</time>
		</trkpt>

		<trkpt lat="37.863174" lon="-1.426576">
			<ele>547.000000</ele>
		<time>2013-08-31T04:36:59Z</time>
		</trkpt>

		<trkpt lat="37.863108" lon="-1.426379">
			<ele>547.000000</ele>
		<time>2013-08-31T04:37:02Z</time>
		</trkpt>

		<trkpt lat="37.863063" lon="-1.426266">
			<ele>547.000000</ele>
		<time>2013-08-31T04:37:13Z</time>
		</trkpt>

		<trkpt lat="37.863000" lon="-1.426307">
			<ele>548.000000</ele>
		<time>2013-08-31T04:37:18Z</time>
		</trkpt>

		<trkpt lat="37.863015" lon="-1.426587">
			<ele>549.000000</ele>
		<time>2013-08-31T04:37:21Z</time>
		</trkpt>

		<trkpt lat="37.862981" lon="-1.426705">
			<ele>549.000000</ele>
		<time>2013-08-31T04:37:25Z</time>
		</trkpt>

		<trkpt lat="37.863087" lon="-1.426436">
			<ele>550.000000</ele>
		<time>2013-08-31T04:37:28Z</time>
		</trkpt>

		<trkpt lat="37.863049" lon="-1.426362">
			<ele>547.000000</ele>
		<time>2013-08-31T04:37:31Z</time>
		</trkpt>

		<trkpt lat="37.862977" lon="-1.426631">
			<ele>549.000000</ele>
		<time>2013-08-31T04:37:34Z</time>
		</trkpt>

		<trkpt lat="37.862974" lon="-1.426835">
			<ele>546.000000</ele>
		<time>2013-08-31T04:37:37Z</time>
		</trkpt>

		<trkpt lat="37.863041" lon="-1.426651">
			<ele>547.000000</ele>
		<time>2013-08-31T04:37:40Z</time>
		</trkpt>

		<trkpt lat="37.863099" lon="-1.426429">
			<ele>546.000000</ele>
		<time>2013-08-31T04:37:43Z</time>
		</trkpt>

		<trkpt lat="37.863164" lon="-1.426223">
			<ele>547.000000</ele>
		<time>2013-08-31T04:37:46Z</time>
		</trkpt>

		<trkpt lat="37.863152" lon="-1.426293">
			<ele>547.000000</ele>
		<time>2013-08-31T04:37:54Z</time>
		</trkpt>

		<trkpt lat="37.863153" lon="-1.426334">
			<ele>546.000000</ele>
		<time>2013-08-31T04:37:59Z</time>
		</trkpt>

		<trkpt lat="37.863086" lon="-1.426433">
			<ele>541.000000</ele>
		<time>2013-08-31T04:38:16Z</time>
		</trkpt>

		<trkpt lat="37.863057" lon="-1.426429">
			<ele>538.000000</ele>
		<time>2013-08-31T04:38:33Z</time>
		</trkpt>

		<trkpt lat="37.863017" lon="-1.426476">
			<ele>537.000000</ele>
		<time>2013-08-31T04:39:15Z</time>
		</trkpt>

		<trkpt lat="37.862982" lon="-1.426409">
			<ele>538.000000</ele>
		<time>2013-08-31T04:42:27Z</time>
		</trkpt>

		<trkpt lat="37.863007" lon="-1.426427">
			<ele>536.000000</ele>
		<time>2013-08-31T04:43:00Z</time>
		</trkpt>

		<trkpt lat="37.863008" lon="-1.426392">
			<ele>538.000000</ele>
		<time>2013-08-31T04:43:48Z</time>
		</trkpt>

		<trkpt lat="37.862979" lon="-1.426382">
			<ele>538.000000</ele>
		<time>2013-08-31T04:44:22Z</time>
		</trkpt>

		<trkpt lat="37.862985" lon="-1.426419">
			<ele>538.000000</ele>
		<time>2013-08-31T04:44:29Z</time>
		</trkpt>

		<trkpt lat="37.863001" lon="-1.426392">
			<ele>538.000000</ele>
		<time>2013-08-31T04:45:01Z</time>
		</trkpt>

		<trkpt lat="37.863006" lon="-1.426428">
			<ele>537.000000</ele>
		<time>2013-08-31T04:45:28Z</time>
		</trkpt>

		<trkpt lat="37.863032" lon="-1.426448">
			<ele>537.000000</ele>
		<time>2013-08-31T04:45:35Z</time>
		</trkpt>

		<trkpt lat="37.863004" lon="-1.426443">
			<ele>538.000000</ele>
		<time>2013-08-31T04:45:50Z</time>
		</trkpt>

		<trkpt lat="37.862983" lon="-1.426419">
			<ele>537.000000</ele>
		<time>2013-08-31T04:45:58Z</time>
		</trkpt>

		<trkpt lat="37.862997" lon="-1.426449">
			<ele>537.000000</ele>
		<time>2013-08-31T04:47:14Z</time>
		</trkpt>

		<trkpt lat="37.862980" lon="-1.426421">
			<ele>538.000000</ele>
		<time>2013-08-31T04:47:50Z</time>
		</trkpt>

		<trkpt lat="37.862993" lon="-1.426455">
			<ele>537.000000</ele>
		<time>2013-08-31T04:48:03Z</time>
		</trkpt>

	</trkseg>
</trk>
</gpx>

